<
# Wetter Temperatur Luftdruck Luftfeuchtigkeit Sichtweite Windgeschwindigkeit Windrichtung Zeit
1 Clear 9 1018 55 0 2.5 261 06:27 11.07.2020
2 Clear 8 1018 55 0 2.5 261 05:59 11.07.2020
3 Clear 9 1017 92 0 2.59 266 05:20 11.07.2020
4 Clear 9 1017 92 0 2.59 266 04:50 11.07.2020
5 Clear 9 1017 92 0 0.45 300 04:31 11.07.2020
6 Clear 10 1017 48 0 2.87 261 02:57 11.07.2020
7 Clear 11 1017 47 0 2.87 261 02:35 11.07.2020
8 Clouds 11 1016 46 0 0.89 281 01:27 11.07.2020
9 Clouds 12 1016 87 0 2.55 254 00:59 11.07.2020
10 Clouds 12 1015 37 0 2.24 2 00:38 11.07.2020
11 Clouds 12 1015 37 0 2.24 2 00:19 11.07.2020
12 Clouds 12 1015 37 0 2.24 2 23:57 10.07.2020
13 Clouds 12 1015 37 0 2.24 2 23:38 10.07.2020
14 Clouds 13 1017 83 0 1.34 281 23:18 10.07.2020
15 Clouds 13 1016 84 0 1.79 292 22:43 10.07.2020
16 Clouds 14 1014 85 0 0.89 281 22:19 10.07.2020
17 Clouds 15 1014 36 0 1.79 346 21:55 10.07.2020
18 Clear 15 1014 36 0 1.79 346 21:36 10.07.2020
19 Clouds 15 1013 83 0 0.45 304 21:18 10.07.2020
20 Clouds 15 1015 72 10000 4.6 310 20:41 10.07.2020
21 Clouds 15 1015 72 10000 4.6 310 20:22 10.07.2020
22 Clouds 15 1015 72 10000 4.6 310 19:57 10.07.2020
23 Clouds 15 1015 72 10000 4.6 310 19:39 10.07.2020
24 Clouds 15 1015 77 10000 4.1 320 19:20 10.07.2020
25 Clouds 15 1014 77 10000 5.1 300 18:41 10.07.2020
26 Clouds 15 1014 77 10000 5.7 290 18:21 10.07.2020
27 Clouds 15 1013 77 10000 6.2 290 17:58 10.07.2020
28 Clouds 15 1013 77 10000 6.2 290 17:39 10.07.2020
29 Clouds 16 1012 82 10000 6.2 300 17:21 10.07.2020
30 Clouds 15 1012 82 10000 6.7 300 16:43 10.07.2020
31 Rain 15 1011 87 10000 7.2 300 16:21 10.07.2020
32 Clouds 16 1010 93 10000 6.7 290 15:55 10.07.2020
33 Clouds 17 1010 93 10000 6.7 290 15:37 10.07.2020
34 Clouds 19 1009 72 10000 8.7 270 15:18 10.07.2020
35 Clouds 21 1008 72 10000 9.3 260 14:41 10.07.2020
36 Rain 21 1007 68 10000 8.7 250 14:21 10.07.2020
37 Rain 21 1007 68 10000 8.7 250 13:58 10.07.2020
38 Clouds 21 1007 64 10000 8.7 270 13:39 10.07.2020
39 Clouds 22 1007 64 10000 9.8 270 13:21 10.07.2020
40 Clouds 23 1006 64 10000 7.2 270 12:58 10.07.2020
41 Clouds 23 1006 64 10000 7.2 270 12:38 10.07.2020
42 Clouds 21 1006 64 10000 6.2 240 12:19 10.07.2020
43 Clouds 21 1006 64 10000 4.6 230 11:42 10.07.2020
44 Clouds 21 1006 73 10000 3.6 200 11:21 10.07.2020
45 Clouds 21 1006 73 10000 3.1 180 10:58 10.07.2020
46 Clouds 21 1006 80 0 0.89 139 10:40 10.07.2020
47 Rain 20 1006 82 10000 3.1 170 10:21 10.07.2020
48 Rain 19 1006 87 0 1.34 144 09:42 10.07.2020
49 Rain 18 1006 91 0 2.24 141 09:23 10.07.2020
50 Rain 17 1004 78 0 1.79 185 08:59 10.07.2020
51 Rain 17 1004 78 0 1.79 185 08:41 10.07.2020
52 Rain 17 1004 96 0 1.32 199 08:23 10.07.2020
53 Rain 16 1004 96 0 1.32 199 07:58 10.07.2020
54 Rain 16 1004 96 0 1.32 199 07:39 10.07.2020
55 Rain 16 1004 96 0 3.2 189 07:19 10.07.2020
56 Rain 16 1005 76 0 0.89 186 06:43 10.07.2020
57 Rain 16 1005 95 0 0.45 275 05:50 10.07.2020
58 Rain 16 1006 94 0 2.74 192 04:31 10.07.2020
59 Clouds 16 1007 66 0 2.01 190 03:22 10.07.2020
60 Clouds 16 1007 93 0 2.01 190 02:41 10.07.2020
61 Rain 17 1008 58 0 3.08 218 01:39 10.07.2020
62 Rain 17 1010 94 0 0.45 248 00:40 10.07.2020
63 Rain 17 1010 93 0 0.45 245 00:18 10.07.2020
64 Rain 18 1008 90 0 2.7 228 23:43 09.07.2020
65 Rain 18 1008 89 0 2.79 236 23:20 09.07.2020
66 Rain 18 1009 43 0 2.79 236 22:58 09.07.2020
67 Rain 18 1009 43 0 2.79 236 22:39 09.07.2020
68 Rain 18 1009 41 0 1.79 313 22:21 09.07.2020
69 Rain 18 1009 41 0 1.79 313 21:56 09.07.2020
70 Rain 18 1009 41 0 1.79 313 21:37 09.07.2020
71 Rain 18 1009 41 0 1.79 313 21:37 09.07.2020
72 Rain 18 1010 84 0 1.34 319 21:18 09.07.2020
73 Rain 19 1009 34 0 2.24 269 20:43 09.07.2020
74 Clouds 19 1009 34 0 2.24 269 20:24 09.07.2020
75 Clouds 19 1009 34 0 2.24 269 19:58 09.07.2020
76 Clouds 19 1009 34 0 2.24 269 19:40 09.07.2020
77 Clouds 20 1010 68 10000 8.2 270 19:20 09.07.2020
78 Clouds 21 1010 68 10000 8.2 270 18:42 09.07.2020
79 Clouds 21 1011 68 10000 6.7 270 18:21 09.07.2020
80 Clouds 21 1011 68 10000 6.7 270 17:55 09.07.2020
81 Clouds 21 1011 68 10000 6.7 270 17:37 09.07.2020
82 Clouds 22 1011 73 10000 5.1 270 17:18 09.07.2020
83 Clouds 20 1011 88 10000 6.2 270 16:55 09.07.2020
84 Clouds 20 1011 88 10000 6.2 270 16:37 09.07.2020
85 Clouds 21 1011 77 10000 5.1 260 16:18 09.07.2020
86 Clouds 20 1011 82 10000 5.1 260 15:46 09.07.2020
87 Clouds 20 1011 82 10000 5.1 260 15:28 09.07.2020
88 Clouds 20 1011 82 10000 6.7 240 14:59 09.07.2020
89 Clouds 20 1011 82 10000 6.7 240 14:41 09.07.2020
90 Clouds 19 1011 88 10000 4.1 240 14:23 09.07.2020
91 Clouds 19 1012 88 10000 3.6 230 13:59 09.07.2020
92 Clouds 18 1012 88 10000 3.6 230 13:41 09.07.2020
93 Clouds 18 1012 88 10000 3.1 220 13:20 09.07.2020
94 Clouds 18 1012 88 10000 2.6 190 12:58 09.07.2020
95 Clouds 18 1012 88 10000 2.6 190 12:39 09.07.2020
96 Clouds 16 1012 93 10000 3.1 150 12:20 09.07.2020
97 Drizzle 16 1012 87 7000 3.1 160 11:54 09.07.2020
98 Drizzle 16 1012 87 7000 3.1 160 11:36 09.07.2020
99 Rain 16 1012 87 3800 3.1 150 11:18 09.07.2020
100 Rain 16 1013 93 7000 2.6 160 10:42 09.07.2020
101 Rain 16 1013 87 7000 2.6 160 10:23 09.07.2020
102 Rain 16 1011 81 0 0.89 208 09:58 09.07.2020
103 Rain 16 1011 81 0 0.89 208 09:40 09.07.2020
104 Rain 16 1010 95 0 2.13 150 09:21 09.07.2020
105 Rain 15 1011 81 0 1.34 169 08:45 09.07.2020
106 Clouds 15 1011 81 0 0.45 144 08:25 09.07.2020
107 Clouds 15 1011 96 0 1.49 134 07:47 09.07.2020
108 Clouds 14 1011 95 0 1.95 153 07:24 09.07.2020
109 Clouds 14 1012 81 0 1.95 153 06:54 09.07.2020
110 Clouds 14 1011 95 0 2.1 160 06:20 09.07.2020
111 Clouds 14 1012 95 0 2.1 160 05:37 09.07.2020
112 Clouds 14 1013 76 0 0.89 161 04:28 09.07.2020
113 Clouds 13 1013 94 0 0.95 169 02:33 09.07.2020
114 Clouds 14 1013 93 0 1.23 230 01:39 09.07.2020
115 Clouds 14 1014 60 0 1.99 230 00:55 09.07.2020
116 Clouds 14 1014 58 0 2.2 234 00:25 09.07.2020
117 Clouds 14 1014 55 0 2.2 234 23:58 08.07.2020
118 Clouds 13 1014 55 0 2.2 234 23:39 08.07.2020
119 Clouds 14 1013 92 0 2.89 245 23:21 08.07.2020
120 Clouds 14 1014 51 0 2.89 245 22:54 08.07.2020
121 Clouds 14 1014 51 0 2.89 245 22:36 08.07.2020
122 Clouds 14 1014 50 0 2.71 240 22:18 08.07.2020
123 Clouds 14 1014 48 0 2.71 240 21:39 08.07.2020
124 Clouds 14 1013 91 0 2.66 238 21:21 08.07.2020
125 Clouds 15 1013 90 0 2.88 245 20:58 08.07.2020
126 Clouds 15 1013 90 0 2.88 245 20:40 08.07.2020
127 Clouds 15 1013 90 0 3.58 260 20:22 08.07.2020
128 Clouds 15 1013 42 0 3.58 260 19:43 08.07.2020
129 Clouds 16 1016 72 10000 2.6 280 19:25 08.07.2020
130 Clouds 17 1016 72 10000 2.6 280 18:58 08.07.2020
131 Clouds 17 1016 72 10000 2.6 280 18:40 08.07.2020
132 Clouds 17 1016 72 10000 2.6 280 18:20 08.07.2020
133 Clouds 16 1016 67 10000 2.6 290 17:56 08.07.2020
134 Clouds 16 1016 67 10000 2.6 290 17:38 08.07.2020
135 Clouds 16 1016 72 10000 3.1 280 17:20 08.07.2020
136 Clouds 16 1016 77 10000 2.6 310 16:56 08.07.2020
137 Clouds 16 1016 77 10000 2.6 310 16:37 08.07.2020
138 Clouds 15 1016 77 10000 3.1 290 16:18 08.07.2020
139 Clouds 16 1015 72 10000 3.1 270 15:56 08.07.2020
140 Clouds 16 1015 72 10000 3.1 270 15:38 08.07.2020
141 Clouds 15 1015 72 10000 3.6 260 15:18 08.07.2020
142 Clouds 15 1015 77 10000 3.6 280 14:42 08.07.2020
143 Clouds 15 1015 77 10000 2.6 290 14:21 08.07.2020
144 Clouds 15 1016 77 10000 2.1 290 13:56 08.07.2020
145 Clouds 15 1016 77 10000 2.1 290 13:37 08.07.2020
146 Clouds 15 1016 77 10000 2.6 260 13:18 08.07.2020
147 Clouds 14 1015 82 10000 2.1 250 12:40 08.07.2020
148 Clouds 14 1015 82 10000 1.5 0 12:20 08.07.2020
149 Clouds 14 1015 82 10000 1.5 0 12:20 08.07.2020
150 Clouds 14 1015 87 10000 1.5 0 11:55 08.07.2020
151 Clouds 14 1015 87 10000 1.5 0 11:37 08.07.2020
152 Clouds 13 1015 87 10000 1.5 0 11:19 08.07.2020
153 Clouds 13 1015 93 10000 2.5 260 10:42 08.07.2020
154 Mist 12 1015 87 5000 1 0 10:23 08.07.2020
155 Clouds 12 1015 87 10000 2.1 310 09:45 08.07.2020
156 Clouds 12 1015 87 10000 2.6 310 09:25 08.07.2020
157 Clouds 12 1015 87 10000 2.1 290 08:56 08.07.2020
158 Clouds 12 1015 87 10000 2.1 290 08:38 08.07.2020
159 Clouds 12 1015 87 10000 2.1 250 08:19 08.07.2020
160 Clouds 12 1015 87 10000 1.5 0 07:42 08.07.2020
161 Rain 12 1012 49 0 2.4 232 07:19 08.07.2020
162 Rain 12 1012 49 0 2.4 232 06:45 08.07.2020
163 Rain 12 1012 48 0 2.62 222 06:25 08.07.2020
164 Rain 12 1012 91 0 2.62 222 05:48 08.07.2020
165 Rain 12 1012 90 0 2.79 233 04:50 08.07.2020
166 Clouds 12 1013 46 0 2.97 230 03:39 08.07.2020
167 Clouds 12 1013 90 0 2.65 226 02:19 08.07.2020
168 Clouds 13 1014 47 0 0.89 277 01:38 08.07.2020
169 Clouds 13 1014 90 0 2.31 260 00:51 08.07.2020
170 Clouds 13 1014 45 0 2.89 266 00:20 08.07.2020
171 Clouds 13 1017 87 10000 1 0 23:44 07.07.2020
172 Clouds 13 1017 87 10000 1 0 23:22 07.07.2020
173 Clouds 13 1017 87 10000 1 0 22:58 07.07.2020
174 Clouds 13 1017 87 10000 1 0 22:39 07.07.2020
175 Clouds 13 1017 87 10000 1 0 22:20 07.07.2020
176 Clouds 14 1014 87 0 2.3 249 21:57 07.07.2020
177 Clouds 14 1014 88 0 0.89 300 21:38 07.07.2020
178 Clouds 14 1014 88 0 0.89 300 21:38 07.07.2020
179 Rain 14 1014 88 0 0.45 300 21:19 07.07.2020
180 Rain 15 1014 88 0 0.45 257 20:55 07.07.2020
181 Rain 15 1014 88 0 3.39 288 20:36 07.07.2020
182 Rain 15 1014 87 0 0.45 257 20:18 07.07.2020
183 Rain 15 1014 35 0 1.79 345 20:18 07.07.2020
184 Rain 15 1014 83 0 0.89 257 19:39 07.07.2020
185 Rain 16 1016 45 10000 4.1 260 19:20 07.07.2020
186 Rain 17 1016 45 10000 4.1 260 18:55 07.07.2020
187 Rain 17 1016 45 10000 4.1 260 18:37 07.07.2020
188 Rain 18 1016 45 10000 4.1 260 18:19 07.07.2020
189 Rain 19 1017 45 10000 5.7 240 17:56 07.07.2020
190 Rain 19 1017 45 10000 5.7 240 17:37 07.07.2020
191 Clouds 19 1017 42 10000 5.7 240 17:19 07.07.2020
192 Clouds 20 1017 40 10000 5.7 240 16:43 07.07.2020
193 Clouds 20 1017 40 10000 5.1 250 16:23 07.07.2020
194 Clouds 20 1018 40 10000 5.7 250 15:57 07.07.2020
195 Clouds 20 1018 40 10000 5.7 250 15:37 07.07.2020
196 Clear 20 1018 42 10000 4.6 260 15:19 07.07.2020
197 Clouds 20 1018 42 10000 5.7 270 14:46 07.07.2020
198 Clouds 19 1018 48 10000 5.7 260 14:25 07.07.2020
199 Clouds 19 1019 45 10000 6.2 260 13:46 07.07.2020
200 Clouds 18 1019 48 10000 4.1 280 13:22 07.07.2020
201 Clouds 18 1019 48 10000 4.1 280 13:22 07.07.2020
202 Clouds 18 1019 45 10000 5.7 260 12:59 07.07.2020
203 Clouds 18 1019 45 10000 5.7 260 12:40 07.07.2020
204 Clouds 17 1019 51 10000 5.1 260 12:22 07.07.2020
205 Clouds 16 1019 55 10000 5.7 270 11:49 07.07.2020
206 Clouds 16 1019 58 10000 5.7 270 11:25 07.07.2020
207 Clouds 16 1019 58 10000 5.7 270 10:59 07.07.2020
208 Clouds 15 1019 62 10000 4.6 270 10:41 07.07.2020
209 Clouds 15 1020 62 10000 4.1 280 10:21 07.07.2020
210 Clouds 15 1020 67 10000 4.1 260 09:56 07.07.2020
211 Clouds 15 1020 67 10000 4.1 260 09:38 07.07.2020
212 Clouds 14 1020 67 10000 4.1 270 09:19 07.07.2020
213 Clouds 13 1020 67 10000 4.6 280 08:42 07.07.2020
214 Clouds 13 1020 76 10000 4.6 270 08:23 07.07.2020
215 Clouds 12 1020 81 10000 4.6 270 07:43 07.07.2020
216 Clouds 12 1020 87 10000 3.6 260 07:22 07.07.2020
217 Clouds 11 1019 87 10000 3.1 260 06:49 07.07.2020
218 Clouds 11 1017 92 0 3.47 249 06:29 07.07.2020
219 Clouds 10 1017 92 0 3.47 249 05:53 07.07.2020
220 Clouds 11 1016 91 0 3.55 259 05:22 07.07.2020
221 Clouds 11 1017 52 0 2.68 328 04:40 07.07.2020
222 Clear 11 1017 50 0 2.24 271 03:40 07.07.2020
223 Clear 12 1016 51 0 2.68 15 02:28 07.07.2020
224 Clear 12 1017 88 0 0.89 268 01:25 07.07.2020
225 Clear 12 1015 49 0 1.79 360 00:44 07.07.2020
226 Clear 12 1015 90 0 0.89 275 00:25 07.07.2020
227 Clear 12 1015 49 0 1.79 360 23:59 06.07.2020
228 Clear 12 1015 49 0 1.79 360 23:40 06.07.2020
229 Clear 13 1015 88 0 1.34 277 23:22 06.07.2020
230 Clear 13 1015 88 0 1.79 281 22:55 06.07.2020
231 Clear 13 1015 88 0 1.79 276 22:37 06.07.2020
232 Clear 13 1014 88 0 1.79 273 22:18 06.07.2020
233 Clear 13 1014 88 0 1.34 282 21:54 06.07.2020
234 Clear 13 1014 37 0 1.79 329 21:36 06.07.2020
235 Clear 14 1013 89 0 1.79 275 21:18 06.07.2020
236 Clear 14 1013 89 0 2.24 275 20:39 06.07.2020
237 Rain 14 1013 89 0 2.68 277 20:20 06.07.2020
238 Rain 14 1013 42 0 2.24 291 19:57 06.07.2020
239 Rain 14 1013 42 0 2.24 291 19:39 06.07.2020
240 Clouds 14 1014 82 10000 8.7 280 19:20 06.07.2020
241 Clouds 14 1014 82 10000 8.7 280 18:56 06.07.2020
242 Clouds 15 1014 82 10000 8.7 280 18:37 06.07.2020
243 Clouds 15 1014 82 10000 8.7 280 18:19 06.07.2020
244 Rain 16 1014 63 10000 5.7 280 17:42 06.07.2020
245 Rain 16 1013 82 10000 5.1 260 17:24 06.07.2020
246 Rain 15 1013 82 5000 7.2 280 16:58 06.07.2020
247 Rain 15 1013 82 5000 7.2 280 16:40 06.07.2020
248 Rain 17 1013 52 10000 7.7 250 16:21 06.07.2020
249 Clouds 18 1012 55 10000 9.8 270 15:43 06.07.2020
250 Rain 17 1012 59 10000 7.7 260 15:25 06.07.2020
251 Rain 16 1012 62 10000 8.2 250 14:57 06.07.2020
252 Rain 16 1012 62 10000 8.2 250 14:38 06.07.2020
253 Rain 16 1012 62 10000 8.2 250 14:38 06.07.2020
254 Clouds 16 1012 59 10000 8.7 260 14:20 06.07.2020
255 Clouds 17 1012 63 10000 5.7 280 13:56 06.07.2020
256 Clouds 17 1012 63 10000 5.7 280 13:38 06.07.2020
257 Rain 16 1011 76 10000 5.1 290 13:19 06.07.2020
258 Drizzle 14 1012 76 10000 8.7 290 12:42 06.07.2020
259 Clouds 18 1011 45 10000 9.3 270 12:19 06.07.2020
260 Clouds 18 1011 45 10000 9.3 270 12:19 06.07.2020
261 Clouds 18 1010 48 10000 10.8 250 11:58 06.07.2020
262 Clouds 18 1010 48 10000 10.8 250 11:38 06.07.2020
263 Clouds 18 1010 52 10000 8.7 260 11:20 06.07.2020
264 Clouds 18 1010 55 10000 8.7 260 10:56 06.07.2020
265 Clouds 17 1010 55 10000 8.7 260 10:38 06.07.2020
266 Clouds 17 1010 55 10000 8.2 270 10:18 06.07.2020
267 Clouds 17 1010 59 10000 8.2 250 09:42 06.07.2020
268 Clouds 16 1010 63 10000 8.2 260 09:22 06.07.2020
269 Clouds 16 1010 63 10000 8.2 260 08:58 06.07.2020
270 Clouds 16 1010 63 10000 7.2 260 08:38 06.07.2020
271 Clouds 15 1010 67 10000 6.7 250 08:20 06.07.2020
272 Clouds 15 1009 67 10000 5.1 250 07:47 06.07.2020
273 Clouds 15 1009 67 10000 5.1 250 07:28 06.07.2020
274 Clouds 15 1007 26 0 2.68 323 06:42 06.07.2020
275 Clouds 14 1010 75 0 0.45 211 06:24 06.07.2020
276 Clouds 14 1010 75 0 0.45 173 05:42 06.07.2020
277 Clouds 15 1008 72 0 4.02 259 05:22 06.07.2020
278 Clouds 16 1008 67 10000 4.6 240 03:52 06.07.2020
279 Clouds 17 1004 73 0 5.28 246 02:25 06.07.2020
280 Clouds 17 1008 63 10000 4.1 250 01:44 06.07.2020
281 Clouds 17 1007 83 0 5.2 237 00:44 06.07.2020
282 Clear 18 1010 72 0 4.9 236 00:22 06.07.2020
283 Clouds 18 1008 63 10000 4.1 250 23:54 05.07.2020
284 Clouds 19 1008 64 10000 3.6 250 23:36 05.07.2020
285 Clear 19 1007 75 0 3.58 268 23:18 05.07.2020
286 Clear 18 1004 85 0 5.02 243 22:41 05.07.2020
287 Clear 18 1004 85 0 5.02 243 22:41 05.07.2020
288 Clear 20 1006 24 0 2.24 264 22:21 05.07.2020
289 Clear 20 1010 77 0 5.13 250 21:59 05.07.2020
290 Clouds 20 1003 71 0 0.45 117 21:40 05.07.2020
291 Rain 21 1007 69 0 3.58 246 21:19 05.07.2020
292 Rain 21 1007 69 0 3.58 246 21:19 05.07.2020
293 Clouds 21 1008 56 10000 6.2 250 20:59 05.07.2020
294 Clouds 21 1008 56 10000 6.2 250 20:40 05.07.2020
295 Clouds 21 1008 64 10000 5.7 250 20:22 05.07.2020
296 Clouds 22 1008 64 10000 5.7 250 19:57 05.07.2020
297 Clouds 22 1008 64 10000 8.7 230 19:39 05.07.2020
298 Clouds 23 1009 64 10000 9.3 260 19:19 05.07.2020
299 Clouds 23 1009 64 10000 9.3 260 18:42 05.07.2020
300 Clouds 23 1009 64 10000 9.3 260 18:23 05.07.2020
301 Clouds 22 1009 78 10000 6.2 280 17:58 05.07.2020
302 Clouds 22 1009 78 10000 6.2 280 17:39 05.07.2020
303 Clouds 22 1009 69 10000 6.2 250 17:19 05.07.2020
304 Clouds 22 1009 68 10000 7.2 260 16:44 05.07.2020
305 Clouds 22 1009 68 10000 7.2 260 16:25 05.07.2020
306 Clouds 22 1009 68 10000 7.2 260 15:58 05.07.2020
307 Clouds 23 1009 64 10000 6.2 260 15:38 05.07.2020
308 Clouds 23 1009 64 10000 8.2 250 15:19 05.07.2020
309 Clouds 22 1009 64 10000 7.7 250 14:42 05.07.2020
310 Clouds 23 1009 64 10000 6.7 250 14:23 05.07.2020
311 Clouds 23 1009 60 10000 7.7 250 13:58 05.07.2020
312 Clouds 23 1009 60 10000 7.7 250 13:40 05.07.2020
313 Clouds 23 1009 60 10000 9.3 250 13:20 05.07.2020
314 Clouds 23 1009 60 10000 8.7 240 12:44 05.07.2020
315 Clouds 23 1009 64 10000 7.2 240 12:20 05.07.2020
316 Clouds 23 1009 64 10000 7.7 240 11:55 05.07.2020
317 Clouds 23 1009 64 10000 7.7 240 11:37 05.07.2020
318 Clouds 23 1009 68 10000 7.7 240 11:18 05.07.2020
319 Clouds 22 1009 68 10000 6.7 250 10:55 05.07.2020
320 Clouds 22 1009 68 10000 6.7 250 10:36 05.07.2020
321 Clouds 22 1009 73 10000 7.2 240 10:18 05.07.2020
322 Clouds 21 1009 74 0 5.36 240 09:41 05.07.2020
323 Clouds 20 1007 81 0 4.47 258 09:20 05.07.2020
324 Clouds 19 1007 42 0 3.58 126 08:57 05.07.2020
325 Clouds 19 1007 42 0 3.58 126 08:38 05.07.2020
326 Clouds 19 1007 48 0 1.79 240 08:18 05.07.2020
327 Clouds 19 1006 86 0 2.24 225 07:40 05.07.2020
328 Clouds 19 1007 48 0 3.13 206 07:22 05.07.2020
329 Clouds 19 1007 44 0 2.68 212 06:45 05.07.2020
330 Clouds 19 1008 34 0 2.24 199 04:37 05.07.2020
331 Clouds 19 1008 35 0 2.68 201 03:19 05.07.2020
332 Clouds 19 1009 34 0 2.24 170 02:41 05.07.2020
333 Clouds 19 1009 34 0 2.24 170 02:41 05.07.2020
334 Clouds 19 1009 30 0 1.79 207 01:59 05.07.2020
335 Clouds 19 1009 30 0 1.79 207 01:31 05.07.2020
336 Rain 19 1009 28 0 2.24 232 00:53 05.07.2020
337 Rain 20 1011 74 0 0.45 212 00:31 05.07.2020
338 Rain 20 1011 74 0 0.89 213 23:59 04.07.2020
339 Rain 19 1010 27 0 1.79 179 23:41 04.07.2020
340 Clouds 19 1010 27 0 1.79 179 23:23 04.07.2020
341 Clouds 19 1010 27 0 1.79 179 22:43 04.07.2020
342 Clouds 19 1010 25 0 1.34 197 22:25 04.07.2020
343 Clouds 20 1012 76 0 0.89 193 21:59 04.07.2020
344 Clouds 20 1012 72 0 0.89 240 21:40 04.07.2020
345 Clouds 20 1012 71 0 0.89 250 21:22 04.07.2020
346 Clouds 20 1012 70 0 0.89 281 20:55 04.07.2020
347 Clouds 21 1012 68 0 1.34 236 20:36 04.07.2020
348 Clouds 20 1012 69 0 3.58 262 20:18 04.07.2020
349 Clouds 21 1014 71 0 0.89 191 19:42 04.07.2020
350 Clouds 23 1012 49 10000 5.1 240 19:22 04.07.2020
351 Clouds 23 1012 49 10000 5.1 240 19:22 04.07.2020
352 Clouds 23 1012 49 10000 5.1 240 18:55 04.07.2020
353 Clouds 22 1012 49 10000 5.1 240 18:37 04.07.2020
354 Clouds 22 1012 49 10000 5.1 240 18:19 04.07.2020
355 Clouds 23 1012 49 10000 4.6 240 17:42 04.07.2020
356 Clouds 23 1013 46 10000 5.7 230 17:23 04.07.2020
357 Clouds 23 1013 46 10000 6.7 240 16:57 04.07.2020
358 Clouds 23 1013 46 10000 6.7 240 16:38 04.07.2020
359 Clouds 23 1013 49 10000 6.2 230 16:19 04.07.2020
360 Clouds 23 1013 46 10000 6.7 240 15:46 04.07.2020
361 Clouds 23 1013 46 10000 6.7 240 15:28 04.07.2020
362 Clouds 23 1013 43 10000 7.7 230 14:59 04.07.2020
363 Clouds 23 1013 43 10000 8.2 230 14:38 04.07.2020
364 Clouds 22 1014 53 10000 4.6 220 14:19 04.07.2020
365 Clouds 22 1014 53 10000 4.6 220 13:58 04.07.2020
366 Clouds 21 1014 56 10000 6.2 230 13:40 04.07.2020
367 Clouds 21 1014 60 10000 6.2 220 13:18 04.07.2020
368 Clouds 21 1014 60 10000 5.1 220 12:43 04.07.2020
369 Clouds 19 1015 63 10000 5.1 230 12:21 04.07.2020
370 Rain 19 1015 63 10000 6.7 240 11:57 04.07.2020
371 Rain 19 1015 63 10000 6.7 240 11:38 04.07.2020
372 Clouds 20 1015 60 10000 5.7 240 11:19 04.07.2020
373 Clouds 19 1015 68 10000 5.7 240 10:42 04.07.2020
374 Clouds 18 1015 68 10000 5.1 240 10:22 04.07.2020
375 Clouds 18 1015 68 10000 5.1 240 09:59 04.07.2020
376 Clouds 18 1012 77 0 1.79 244 09:40 04.07.2020
377 Clouds 17 1012 76 0 2.24 266 09:20 04.07.2020
378 Clouds 18 1012 76 0 3.13 221 08:50 04.07.2020
379 Clouds 17 1012 26 0 1.34 217 08:32 04.07.2020
380 Clouds 16 1012 79 0 2.24 269 07:55 04.07.2020
381 Clouds 16 1012 81 0 1.79 252 07:36 04.07.2020
382 Clouds 16 1012 83 0 2.24 205 06:57 04.07.2020
383 Clouds 16 1012 86 0 2.24 213 06:23 04.07.2020
384 Clouds 14 1013 87 0 0.45 250 05:41 04.07.2020
385 Clouds 14 1013 45 0 1.79 182 04:57 04.07.2020
386 Clouds 15 1013 43 0 0.89 205 03:47 04.07.2020
387 Clouds 14 1013 40 0 1.34 238 02:39 04.07.2020
388 Clouds 15 1013 87 0 0.45 252 01:38 04.07.2020
389 Clouds 15 1013 86 0 3.67 218 00:47 04.07.2020
390 Clouds 15 1013 84 0 3.39 223 00:29 04.07.2020
391 Clouds 16 1013 29 0 1.79 220 23:56 03.07.2020
392 Clouds 16 1013 29 0 1.79 220 23:38 03.07.2020
393 Clouds 16 1013 81 0 3.04 221 23:18 03.07.2020
394 Clouds 17 1013 24 0 1.34 206 22:41 03.07.2020
395 Clouds 18 1016 56 10000 4.6 250 22:23 03.07.2020
396 Clouds 19 1016 56 10000 4.6 250 21:56 03.07.2020
397 Clouds 19 1016 56 10000 4.6 250 21:37 03.07.2020
398 Clear 19 1016 64 0 1.34 255 21:19 03.07.2020
399 Clear 20 1016 56 10000 4.1 260 20:42 03.07.2020
400 Clear 20 1016 56 10000 4.1 260 20:42 03.07.2020
401 Clear 20 1016 56 10000 4.1 260 20:42 03.07.2020
402 Clouds 21 1016 52 10000 6.2 240 20:24 03.07.2020
403 Clouds 21 1016 52 10000 6.2 240 19:56 03.07.2020
404 Clouds 21 1016 52 10000 6.2 240 19:38 03.07.2020
405 Clouds 21 1016 52 10000 5.7 250 19:18 03.07.2020
406 Clouds 21 1016 52 10000 6.2 250 18:42 03.07.2020
407 Clouds 22 1016 49 10000 7.2 260 18:23 03.07.2020
408 Clouds 22 1016 52 10000 5.7 260 17:56 03.07.2020
409 Clouds 22 1016 52 10000 5.7 260 17:38 03.07.2020
410 Clouds 22 1016 49 10000 6.7 240 17:19 03.07.2020
411 Clouds 21 1016 52 10000 5.7 280 16:40 03.07.2020
412 Clouds 22 1016 49 10000 6.2 260 16:21 03.07.2020
413 Clouds 22 1016 56 10000 6.2 270 15:45 03.07.2020
414 Clouds 22 1016 56 10000 6.2 260 15:24 03.07.2020
415 Clouds 21 1016 60 10000 6.2 260 14:57 03.07.2020
416 Clouds 21 1016 60 10000 6.2 260 14:39 03.07.2020
417 Clouds 21 1016 60 10000 6.7 270 14:19 03.07.2020
418 Clouds 20 1016 60 10000 6.7 250 13:47 03.07.2020
419 Clouds 20 1016 68 10000 4.6 270 13:29 03.07.2020
420 Clouds 19 1016 63 10000 5.1 260 12:57 03.07.2020
421 Clouds 20 1016 63 10000 5.1 260 12:38 03.07.2020
422 Clouds 19 1016 60 10000 6.2 240 12:19 03.07.2020
423 Clouds 19 1016 63 10000 5.7 250 11:42 03.07.2020
424 Clouds 19 1016 68 10000 5.1 250 11:23 03.07.2020
425 Clouds 18 1016 72 10000 5.1 260 10:58 03.07.2020
426 Clouds 18 1016 72 10000 5.1 260 10:39 03.07.2020
427 Clouds 18 1016 72 10000 5.7 260 10:20 03.07.2020
428 Rain 18 1016 75 0 3.13 276 09:55 03.07.2020
429 Rain 17 1015 78 0 3.13 256 09:37 03.07.2020
430 Clear 16 1015 81 0 3.58 285 09:18 03.07.2020
431 Clear 16 1012 94 0 2.24 259 08:40 03.07.2020
432 Clouds 16 1012 95 0 1.34 253 08:19 03.07.2020
433 Clouds 15 1012 95 0 0.89 261 07:49 03.07.2020
434 Clouds 15 1012 95 0 0.45 271 07:27 03.07.2020
435 Clouds 14 1012 95 0 0.89 271 06:54 03.07.2020
436 Clouds 13 1012 95 0 3.6 242 06:20 03.07.2020
437 Clouds 14 1011 94 0 0.89 271 04:56 03.07.2020
438 Clouds 14 1011 93 0 0.45 272 03:46 03.07.2020
439 Clouds 15 1010 92 0 0.89 271 02:49 03.07.2020
440 Clouds 15 1010 92 0 0.89 263 02:30 03.07.2020
441 Clouds 15 1010 89 0 3.24 258 01:29 03.07.2020
442 Clouds 15 1010 88 0 0.45 258 00:56 03.07.2020
443 Clouds 15 1010 87 0 0.89 258 00:37 03.07.2020
444 Clouds 16 1010 83 0 1.34 254 23:52 02.07.2020
445 Rain 16 1009 82 0 1.34 287 23:21 02.07.2020
446 Rain 17 1009 80 0 0.45 300 22:59 02.07.2020
447 Rain 16 1011 76 0 3.58 251 22:40 02.07.2020
448 Clouds 17 1009 78 0 2.61 281 22:21 02.07.2020
449 Clouds 17 1009 76 0 2.61 281 21:58 02.07.2020
450 Clouds 17 1008 76 0 2.61 281 21:39 02.07.2020
451 Rain 19 1008 75 0 0.89 293 21:19 02.07.2020
452 Rain 19 1010 68 10000 3.6 270 20:58 02.07.2020
453 Rain 19 1010 68 10000 3.6 270 20:39 02.07.2020
454 Rain 19 1010 68 10000 3.6 270 20:39 02.07.2020
455 Rain 19 1010 68 10000 3.6 270 20:19 02.07.2020
456 Rain 19 1010 68 10000 3.6 270 19:43 02.07.2020
457 Rain 20 1010 64 10000 5.1 270 19:24 02.07.2020
458 Clouds 21 1010 56 10000 5.7 260 18:59 02.07.2020
459 Clouds 21 1010 56 10000 5.7 260 18:59 02.07.2020
460 Clouds 21 1010 56 10000 5.7 260 18:40 02.07.2020
461 Clouds 21 1010 53 10000 5.7 260 18:22 02.07.2020
462 Clouds 22 1010 49 10000 4.6 260 17:57 02.07.2020
463 Clouds 23 1010 49 10000 4.6 260 17:38 02.07.2020
464 Clouds 23 1010 46 10000 5.1 250 17:18 02.07.2020
465 Clouds 24 1010 49 10000 4.1 260 16:42 02.07.2020
466 Clouds 24 1010 49 10000 5.1 260 16:21 02.07.2020
467 Clouds 24 1010 53 0 2.24 327 15:59 02.07.2020
468 Clouds 24 1010 49 10000 5.1 280 15:38 02.07.2020
469 Clouds 23 1010 53 10000 5.1 260 15:20 02.07.2020
470 Clouds 23 1010 53 10000 5.1 250 14:46 02.07.2020
471 Clouds 23 1010 53 10000 5.7 240 14:23 02.07.2020
472 Clouds 22 1010 60 10000 4.6 260 13:57 02.07.2020
473 Clouds 23 1010 56 0 2.68 273 13:39 02.07.2020
474 Clear 22 1010 60 10000 5.1 250 13:20 02.07.2020
475 Clouds 21 1010 68 10000 4.6 250 12:58 02.07.2020
476 Clouds 21 1010 68 10000 4.6 250 12:38 02.07.2020
477 Clouds 20 1010 77 10000 3.1 260 12:20 02.07.2020
478 Clouds 19 1010 77 10000 4.1 270 11:44 02.07.2020
479 Clouds 18 1010 77 10000 5.7 290 11:25 02.07.2020
480 Clouds 18 1010 77 10000 4.6 240 10:48 02.07.2020
481 Clouds 18 1010 77 10000 4.6 240 10:28 02.07.2020
482 Clouds 18 1010 77 10000 4.6 240 10:28 02.07.2020
483 Clouds 18 1010 77 10000 4.6 240 10:28 02.07.2020
484 Clouds 17 1009 82 10000 3.6 240 09:59 02.07.2020
485 Clouds 18 1009 82 10000 3.6 240 09:40 02.07.2020
486 Clouds 18 1009 82 10000 3.1 240 09:20 02.07.2020
487 Clouds 17 1009 88 10000 2.1 230 08:56 02.07.2020
488 Clouds 17 1009 88 10000 2.1 230 08:37 02.07.2020
489 Clouds 16 1009 88 10000 2.6 230 08:18 02.07.2020
490 Clouds 16 1009 88 10000 3.1 210 07:40 02.07.2020
491 Clouds 16 1009 93 10000 2.6 240 07:20 02.07.2020
492 Clouds 15 1008 93 10000 1 0 06:41 02.07.2020
493 Clouds 14 1008 93 6000 4.67 240 06:20 02.07.2020
494 Clouds 14 1008 94 0 0.45 238 05:45 02.07.2020
495 Clear 14 1008 94 0 0.45 214 04:40 02.07.2020
496 Clear 14 1005 96 0 3.22 228 03:32 02.07.2020
497 Clouds 16 1005 96 0 3.22 238 01:44 02.07.2020
498 Clouds 16 1005 96 0 3.45 243 00:26 02.07.2020
499 Clouds 16 1004 96 0 0.45 288 23:55 01.07.2020
500 Clouds 17 1004 95 0 3.45 243 23:37 01.07.2020
501 Clouds 16 1005 95 0 3.88 249 23:18 01.07.2020
502 Clouds 16 1004 95 0 0.45 288 22:54 01.07.2020
503 Clouds 16 1004 95 0 3.88 249 22:36 01.07.2020
504 Clouds 17 1004 95 0 4.08 254 22:18 01.07.2020
505 Clouds 17 1004 94 0 0.45 288 21:54 01.07.2020
506 Clouds 17 1004 94 0 4.08 254 21:36 01.07.2020
507 Clouds 17 1004 94 0 3.54 259 21:18 01.07.2020
508 Clouds 17 1004 93 0 0.45 290 20:43 01.07.2020
509 Rain 17 1004 92 0 1.34 279 20:25 01.07.2020
510 Rain 17 1004 92 0 3.72 244 19:56 01.07.2020
511 Rain 17 1004 91 0 3.72 244 19:38 01.07.2020
512 Rain 17 1006 93 10000 1.5 0 19:19 01.07.2020
513 Rain 17 1006 93 10000 1.5 0 18:54 01.07.2020
514 Rain 18 1006 93 10000 1.5 0 18:36 01.07.2020
515 Rain 17 1006 93 10000 1.5 0 18:18 01.07.2020
516 Clouds 17 1006 88 10000 3.1 340 17:41 01.07.2020
517 Clouds 17 1006 88 10000 3.1 340 17:41 01.07.2020
518 Rain 19 1006 88 10000 3.1 310 17:19 01.07.2020
519 Rain 19 1007 82 10000 2.6 300 16:48 01.07.2020
520 Rain 20 1007 82 10000 2.6 300 16:29 01.07.2020
521 Clouds 20 1007 77 10000 4.1 240 15:58 01.07.2020
522 Clouds 20 1007 77 10000 4.1 240 15:40 01.07.2020
523 Clouds 19 1007 82 10000 3.6 240 15:21 01.07.2020
524 Clouds 19 1007 88 10000 4.1 230 14:55 01.07.2020
525 Clouds 20 1007 88 10000 4.1 230 14:37 01.07.2020
526 Rain 19 1007 88 10000 4.1 210 14:19 01.07.2020
527 Rain 19 1007 88 10000 3.6 220 13:40 01.07.2020
528 Rain 19 1007 88 10000 4.1 210 13:22 01.07.2020
529 Rain 19 1007 88 10000 4.6 220 12:59 01.07.2020
530 Rain 18 1007 88 10000 4.6 220 12:40 01.07.2020
531 Rain 18 1007 88 10000 4.6 210 12:22 01.07.2020
532 Rain 18 1007 88 10000 4.1 220 11:58 01.07.2020
533 Rain 18 1007 88 10000 4.1 220 11:39 01.07.2020
534 Rain 18 1007 93 10000 3.6 220 11:20 01.07.2020
535 Rain 18 1007 88 10000 3.6 220 10:43 01.07.2020
536 Rain 17 1007 88 10000 4.1 220 10:23 01.07.2020
537 Rain 18 1004 91 0 0.45 232 09:59 01.07.2020
538 Rain 17 1004 91 0 0.45 233 09:38 01.07.2020
539 Rain 17 1004 90 0 0.45 233 09:20 01.07.2020
540 Clouds 18 1007 82 0 2.24 310 08:57 01.07.2020
541 Clouds 18 1004 34 0 2.68 200 08:38 01.07.2020
542 Clouds 18 1004 84 0 1.79 253 08:19 01.07.2020
543 Clouds 18 1004 33 0 1.79 269 07:41 01.07.2020
544 Clouds 18 1004 33 0 1.79 269 07:22 01.07.2020
545 Clouds 18 1003 76 0 2.68 207 06:54 01.07.2020
546 Clouds 17 1003 26 0 1.34 218 06:32 01.07.2020
547 Clouds 18 1003 26 0 1.34 218 05:44 01.07.2020
548 Rain 18 1003 23 0 2.24 316 04:29 01.07.2020
549 Rain 18 1003 23 0 2.24 316 03:41 01.07.2020
550 Clouds 18 1003 20 0 2.68 272 03:21 01.07.2020
551 Rain 18 1004 71 0 1.34 225 01:56 01.07.2020
552 Clouds 18 1004 18 0 1.79 239 00:48 01.07.2020
553 Clouds 18 1004 18 0 1.79 233 00:28 01.07.2020
554 Clouds 18 1005 18 0 1.79 262 23:59 30.06.2020
555 Clouds 18 1005 18 0 1.79 262 23:39 30.06.2020
556 Clouds 17 1005 21 0 1.34 171 23:19 30.06.2020
557 Clouds 17 1005 21 0 3.9 222 22:42 30.06.2020
558 Clouds 17 1007 58 0 2.24 238 22:19 30.06.2020
559 Clouds 18 1006 58 0 2.24 276 21:54 30.06.2020
560 Clouds 18 1005 61 0 0.45 275 21:36 30.06.2020
561 Clouds 19 1005 61 0 0.89 275 21:18 30.06.2020
562 Clouds 18 1003 64 0 0.45 116 20:42 30.06.2020
563 Clouds 19 1008 57 0 1.34 343 20:21 30.06.2020
564 Clouds 20 1008 37 10000 6.2 270 19:44 30.06.2020
565 Clouds 21 1008 37 10000 6.2 270 19:21 30.06.2020
566 Clouds 21 1008 40 10000 6.2 260 18:58 30.06.2020
567 Clouds 21 1008 40 10000 6.2 260 18:40 30.06.2020
568 Clouds 21 1008 40 10000 6.2 260 18:20 30.06.2020
569 Clouds 22 1008 37 10000 6.7 260 17:40 30.06.2020
570 Clouds 21 1008 37 10000 6.7 260 17:21 30.06.2020
571 Clouds 21 1008 37 10000 6.7 260 16:59 30.06.2020
572 Clouds 21 1008 37 10000 6.7 260 16:40 30.06.2020
573 Clouds 21 1008 37 10000 7.7 260 16:21 30.06.2020
574 Clouds 21 1008 37 10000 7.7 260 16:21 30.06.2020
575 Clouds 21 1008 37 10000 7.7 260 15:56 30.06.2020
576 Clouds 21 1008 37 10000 7.7 260 15:38 30.06.2020
577 Clouds 20 1008 42 10000 7.2 260 15:19 30.06.2020
578 Clouds 20 1008 40 10000 7.2 250 14:43 30.06.2020
579 Clouds 21 1008 40 10000 8.7 250 14:22 30.06.2020
580 Clouds 20 1008 42 10000 8.2 260 13:59 30.06.2020
581 Clouds 20 1008 42 10000 8.2 260 13:38 30.06.2020
582 Clouds 20 1008 40 10000 8.2 250 13:19 30.06.2020
583 Clouds 19 1009 45 10000 8.7 260 12:57 30.06.2020
584 Clouds 19 1009 45 10000 8.7 260 12:39 30.06.2020
585 Clouds 19 1009 48 10000 7.7 250 12:20 30.06.2020
586 Clouds 19 1009 48 10000 7.2 250 11:57 30.06.2020
587 Clouds 19 1009 48 10000 7.2 250 11:38 30.06.2020
588 Clouds 18 1009 55 10000 6.2 240 11:18 30.06.2020
589 Clouds 18 1008 51 10000 5.7 230 10:55 30.06.2020
590 Clouds 20 1013 46 10000 6.2 270 16:38 28.06.2020
591 Clouds 20 1013 60 10000 5.7 290 16:19 28.06.2020
592 Clouds 20 1013 56 10000 6.7 280 15:55 28.06.2020
593 Clouds 20 1013 56 10000 6.7 280 15:37 28.06.2020
594 Clouds 21 1013 60 10000 5.7 290 15:18 28.06.2020
595 Clouds 21 1012 68 10000 4.6 290 14:42 28.06.2020
596 Clouds 22 1012 68 10000 4.6 290 14:24 28.06.2020
597 Clouds 22 1012 64 10000 5.1 270 13:55 28.06.2020
598 Clouds 22 1012 64 10000 5.1 270 13:36 28.06.2020
599 Clouds 21 1012 77 10000 2.6 210 13:18 28.06.2020
600 Clouds 21 1012 82 10000 2.1 170 12:55 28.06.2020
601 Clouds 21 1012 82 10000 2.1 170 12:55 28.06.2020
602 Clouds 21 1012 82 10000 2.1 170 12:36 28.06.2020
603 Clouds 20 1011 82 10000 2.1 250 12:18 28.06.2020
604 Rain 20 1011 64 10000 7.7 280 11:42 28.06.2020
605 Clouds 23 1011 54 10000 5.7 230 11:21 28.06.2020
606 Clouds 23 1011 60 10000 5.1 220 10:59 28.06.2020
607 Clouds 23 1011 60 10000 5.1 220 10:41 28.06.2020
608 Rain 22 1011 60 10000 5.1 230 10:22 28.06.2020
609 Rain 23 1006 71 0 0.89 176 09:42 28.06.2020
610 Clouds 21 1010 77 10000 2.1 180 09:23 28.06.2020
611 Clouds 21 1010 77 10000 2.1 180 09:23 28.06.2020
612 Clouds 21 1010 77 10000 2.1 180 08:58 28.06.2020
613 Clouds 20 1010 77 10000 2.1 180 08:40 28.06.2020
614 Clouds 20 1010 82 10000 2.1 190 08:21 28.06.2020
615 Clouds 20 1009 78 0 1.34 218 07:39 28.06.2020
616 Clouds 20 1009 77 0 1.34 224 07:20 28.06.2020
617 Clouds 19 1007 88 0 3.46 197 06:34 28.06.2020
618 Clouds 18 1007 89 0 3.26 201 05:54 28.06.2020
619 Clouds 18 1007 88 0 2.97 186 05:25 28.06.2020
620 Clouds 19 1008 84 0 2.55 216 03:23 28.06.2020
621 Clouds 19 1012 89 0 2.97 224 02:28 28.06.2020
622 Clouds 19 1009 76 0 1.34 220 01:48 28.06.2020
623 Clouds 20 1006 94 0 3.37 222 01:25 28.06.2020
624 Clouds 20 1005 92 0 3.37 222 00:44 28.06.2020
625 Clouds 21 1009 73 0 1.34 258 00:24 28.06.2020
626 Clouds 21 1006 87 0 3.21 220 23:41 27.06.2020
627 Clouds 22 1009 69 0 1.79 259 23:22 27.06.2020
628 Clouds 22 1009 64 10000 1.5 220 22:58 27.06.2020
629 Clouds 22 1009 64 10000 1.5 220 22:39 27.06.2020
630 Clouds 23 1008 63 0 0.89 180 22:19 27.06.2020
631 Clouds 28 1008 45 10000 4.1 230 21:54 27.06.2020
632 Clouds 28 1008 45 10000 4.1 230 21:36 27.06.2020
633 Clear 27 1008 45 10000 4.1 230 21:18 27.06.2020
634 Clear 28 1008 45 10000 4.1 230 20:41 27.06.2020
635 Clouds 28 1008 45 10000 4.1 240 20:18 27.06.2020
636 Clouds 27 1008 51 10000 4.1 250 19:55 27.06.2020
637 Clouds 27 1008 51 10000 4.1 250 19:36 27.06.2020
638 Clouds 28 1009 48 10000 4.6 240 19:18 27.06.2020
639 Clouds 28 1009 48 10000 4.6 240 18:43 27.06.2020
640 Rain 28 1009 48 10000 4.6 240 18:22 27.06.2020
641 Rain 27 1009 51 10000 4.1 240 17:57 27.06.2020
642 Rain 27 1009 51 10000 4.1 240 17:38 27.06.2020
643 Clouds 26 1009 69 10000 3.1 240 17:19 27.06.2020
644 Rain 26 1009 50 10000 5.1 250 16:43 27.06.2020
645 Rain 26 1009 47 10000 3.6 250 16:25 27.06.2020
646 Rain 28 1009 42 10000 4.1 240 15:55 27.06.2020
647 Rain 28 1009 42 10000 4.1 240 15:37 27.06.2020
648 Rain 29 1009 42 10000 3.6 230 15:18 27.06.2020
649 Rain 29 1009 42 10000 3.1 220 14:42 27.06.2020
650 Rain 28 1009 45 10000 3.1 250 14:24 27.06.2020
651 Rain 28 1010 54 10000 3.6 230 13:57 27.06.2020
652 Rain 28 1010 54 10000 3.6 230 13:37 27.06.2020
653 Clouds 27 1010 54 10000 4.1 230 13:19 27.06.2020
654 Clouds 27 1010 51 10000 3.6 240 12:57 27.06.2020
655 Clouds 27 1010 51 10000 3.6 240 12:38 27.06.2020
656 Clear 26 1010 51 10000 3.1 270 12:20 27.06.2020
657 Clear 26 1010 54 10000 4.1 250 11:54 27.06.2020
658 Clear 26 1010 54 10000 4.1 250 11:36 27.06.2020
659 Clear 25 1010 57 10000 4.6 240 11:18 27.06.2020
660 Clear 25 1010 53 10000 4.6 240 10:38 27.06.2020
661 Clear 25 1010 50 10000 4.6 250 10:19 27.06.2020
662 Clear 25 1010 50 10000 4.1 240 09:41 27.06.2020
663 Clear 22 1010 64 10000 1.5 0 09:22 27.06.2020
664 Clear 22 1010 64 10000 1.5 0 08:58 27.06.2020
665 Clear 23 1010 64 10000 1.5 0 08:39 27.06.2020
666 Clear 22 1007 85 0 1.74 200 08:20 27.06.2020
667 Clear 20 1006 92 0 1.74 200 07:42 27.06.2020
668 Clear 20 1006 92 0 1.74 200 07:42 27.06.2020
669 Clear 18 1008 80 0 1.97 195 07:24 27.06.2020
670 Clear 17 1007 93 0 1.97 195 06:38 27.06.2020
671 Clear 16 1007 92 0 1.92 152 06:20 27.06.2020
672 Clear 16 1007 90 0 1.33 159 04:23 27.06.2020
673 Clear 16 1007 89 0 1.33 159 03:52 27.06.2020
674 Clear 17 1007 87 0 1.77 179 02:56 27.06.2020
675 Clear 17 1007 86 0 1.77 179 02:34 27.06.2020
676 Clear 18 1007 83 0 1.47 149 01:43 27.06.2020
677 Clear 19 1007 81 0 1.36 152 00:57 27.06.2020
678 Clear 20 1007 81 0 1.36 152 00:36 27.06.2020
679 Clear 21 1008 77 0 1.21 157 23:45 26.06.2020
680 Clear 21 1008 75 0 1.99 180 23:25 26.06.2020
681 Clear 22 1007 68 0 1.99 180 22:57 26.06.2020
682 Clear 23 1007 71 0 1.99 180 22:38 26.06.2020
683 Clear 24 1013 63 0 0.45 80 22:19 26.06.2020
684 Clear 24 1007 64 0 2.26 146 21:57 26.06.2020
685 Clear 25 1007 59 0 2.26 146 21:38 26.06.2020
686 Clear 25 1010 56 0 2.32 146 21:20 26.06.2020
687 Clear 27 1011 39 10000 4.6 90 20:46 26.06.2020
688 Rain 27 1008 52 0 2.64 128 20:26 26.06.2020
689 Rain 28 1007 48 0 2.64 128 19:47 26.06.2020
690 Rain 28 1012 37 10000 4.1 100 19:24 26.06.2020
691 Rain 28 1012 37 10000 4.1 100 18:58 26.06.2020
692 Rain 28 1012 37 10000 4.1 100 18:38 26.06.2020
693 Clear 28 1012 37 10000 4.1 100 18:20 26.06.2020
694 Clear 28 1013 35 10000 5.7 130 17:44 26.06.2020
695 Clear 29 1013 32 10000 5.1 110 17:26 26.06.2020
696 Clear 29 1013 30 10000 5.7 120 16:55 26.06.2020
697 Clear 29 1013 30 10000 5.7 120 16:36 26.06.2020
698 Rain 29 1013 32 10000 6.7 110 16:18 26.06.2020
699 Rain 28 1013 34 10000 5.7 110 15:41 26.06.2020
700 Clear 28 1014 37 10000 5.1 140 15:21 26.06.2020
701 Clear 28 1014 37 10000 5.1 140 14:57 26.06.2020
702 Clear 28 1014 37 10000 5.1 140 14:38 26.06.2020
703 Clear 28 1014 37 10000 6.2 120 14:20 26.06.2020
704 Clear 28 1014 37 10000 6.2 120 13:44 26.06.2020
705 Clear 27 1015 37 10000 6.7 110 13:23 26.06.2020
706 Clear 27 1015 37 10000 6.7 110 13:23 26.06.2020
707 Clear 27 1015 37 10000 5.7 100 12:56 26.06.2020
708 Clear 28 1015 37 10000 5.7 100 12:38 26.06.2020
709 Clear 27 1015 39 10000 4.6 120 12:19 26.06.2020
710 Clear 26 1016 44 10000 5.1 120 11:56 26.06.2020
711 Clear 26 1016 44 10000 5.1 120 11:38 26.06.2020
712 Clear 26 1016 44 10000 3.6 130 11:19 26.06.2020
713 Clear 26 1016 41 10000 4.6 110 10:56 26.06.2020
714 Clear 26 1016 41 10000 4.6 110 10:37 26.06.2020
715 Clear 26 1016 41 10000 4.6 110 10:37 26.06.2020
716 Clear 25 1016 44 10000 1.5 0 10:18 26.06.2020
717 Clear 25 1016 53 0 1.79 144 09:42 26.06.2020
718 Clouds 22 1016 56 10000 3.1 110 09:22 26.06.2020
719 Clear 21 1015 68 0 0.45 82 08:51 26.06.2020
720 Clear 20 1012 70 0 4.35 128 08:28 26.06.2020
721 Clear 19 1017 67 0 1.34 152 07:52 26.06.2020
722 Clear 18 1017 70 0 1.79 139 07:24 26.06.2020
723 Clear 16 1017 73 0 1.34 132 06:57 26.06.2020
724 Clear 15 1016 81 0 3.6 128 06:35 26.06.2020
725 Clear 14 1014 90 0 3.03 124 05:59 26.06.2020
726 Clear 14 1016 77 0 3.03 124 05:33 26.06.2020
727 Clear 15 1015 85 0 2.74 111 02:42 26.06.2020
728 Clear 15 1015 85 0 2.36 110 02:22 26.06.2020
729 Clear 16 1015 82 0 2.34 112 01:19 26.06.2020
730 Clear 17 1015 79 0 2.34 112 00:39 26.06.2020
731 Clear 19 1017 62 0 2.36 115 00:19 26.06.2020
732 Clear 20 1020 63 0 2.36 115 23:41 25.06.2020
733 Clear 20 1014 69 0 2.17 122 23:18 25.06.2020
734 Clear 19 1014 67 0 2.17 122 22:56 25.06.2020
735 Clear 20 1014 67 0 2.17 122 22:36 25.06.2020
736 Clear 22 1020 58 0 2.26 127 22:18 25.06.2020
737 Clear 24 1018 36 10000 3.6 140 21:54 25.06.2020
738 Clear 25 1018 36 10000 3.6 140 21:36 25.06.2020
739 Clear 25 1018 36 10000 3.6 140 21:18 25.06.2020
740 Clear 26 1018 36 10000 3.6 140 20:44 25.06.2020
741 Clear 26 1018 34 10000 5.1 120 20:23 25.06.2020
742 Clear 27 1018 36 10000 5.1 120 19:58 25.06.2020
743 Clear 27 1018 36 10000 5.1 120 19:39 25.06.2020
744 Clear 27 1018 34 10000 5.1 120 19:19 25.06.2020
745 Clear 27 1019 39 10000 5.1 110 18:56 25.06.2020
746 Clear 27 1019 39 10000 5.1 110 18:37 25.06.2020
747 Clear 28 1019 39 10000 5.1 110 18:19 25.06.2020
748 Clear 28 1019 39 10000 5.1 120 17:41 25.06.2020
749 Clouds 27 1019 42 10000 5.1 110 17:19 25.06.2020
750 Clouds 27 1019 42 10000 4.6 100 16:57 25.06.2020
751 Clouds 27 1019 42 10000 4.6 100 16:37 25.06.2020
752 Clouds 27 1020 44 10000 4.6 90 16:18 25.06.2020
753 Clouds 26 1020 47 10000 5.7 110 15:41 25.06.2020
754 Clouds 26 1020 54 10000 5.1 90 15:21 25.06.2020
755 Clouds 25 1021 57 10000 4.6 100 14:44 25.06.2020
756 Clouds 25 1021 60 10000 4.1 90 14:25 25.06.2020
757 Clouds 24 1021 64 10000 5.1 90 13:56 25.06.2020
758 Clouds 24 1021 64 10000 5.1 90 13:38 25.06.2020
759 Clouds 24 1021 64 10000 5.1 90 13:38 25.06.2020
760 Clouds 24 1021 64 10000 5.1 90 13:19 25.06.2020
761 Clouds 24 1021 64 10000 3.6 80 12:46 25.06.2020
762 Clouds 24 1021 64 10000 3.6 80 12:21 25.06.2020
763 Clouds 23 1021 60 10000 3.6 100 11:58 25.06.2020
764 Clouds 23 1021 60 10000 3.6 100 11:40 25.06.2020
765 Clouds 23 1021 64 10000 3.1 100 11:21 25.06.2020
766 Clouds 22 1021 64 10000 2.6 70 10:42 25.06.2020
767 Clouds 21 1022 72 10000 2.1 40 10:24 25.06.2020
768 Clouds 20 1022 72 10000 1.5 0 09:42 25.06.2020
769 Clouds 19 1022 72 10000 1.5 0 09:23 25.06.2020
770 Clouds 19 1022 72 10000 1.5 0 08:59 25.06.2020
771 Clouds 19 1022 72 10000 1.5 0 08:41 25.06.2020
772 Clouds 18 1022 77 10000 1 0 08:18 25.06.2020
773 Clouds 18 1022 72 10000 1.5 0 07:42 25.06.2020
774 Clouds 16 1018 94 0 2.21 49 07:24 25.06.2020
775 Clouds 15 1019 93 0 2.21 49 06:45 25.06.2020
776 Clear 14 1019 92 0 1.76 57 06:25 25.06.2020
777 Clear 14 1019 91 0 1.76 57 05:38 25.06.2020
778 Clear 14 1020 90 0 1.93 61 03:49 25.06.2020
779 Clear 15 1020 88 0 1.44 81 02:59 25.06.2020
780 Clear 15 1020 88 0 1.44 81 02:41 25.06.2020
781 Clouds 15 1020 86 0 1.68 65 01:43 25.06.2020
782 Clouds 16 1020 83 0 2.22 69 00:59 25.06.2020
783 Clouds 17 1020 82 0 2.22 69 00:40 25.06.2020
784 Clouds 17 1020 81 0 2.18 75 00:18 25.06.2020
785 Clouds 19 1024 68 10000 2.18 75 23:41 24.06.2020
786 Clouds 19 1024 68 10000 2.6 75 23:23 24.06.2020
787 Clouds 19 1023 64 10000 2.6 75 22:56 24.06.2020
788 Clouds 20 1023 64 10000 2.6 75 22:37 24.06.2020
789 Clouds 20 1023 64 10000 2.86 66 22:18 24.06.2020
790 Clouds 21 1023 56 10000 1.5 0 21:55 24.06.2020
791 Clouds 22 1023 56 10000 1.5 0 21:36 24.06.2020
792 Clouds 23 1023 53 10000 1.5 0 21:18 24.06.2020
793 Clouds 23 1023 49 10000 2.6 90 20:56 24.06.2020
794 Clouds 23 1023 49 10000 2.6 90 20:37 24.06.2020
795 Clouds 24 1023 50 10000 3.1 80 20:19 24.06.2020
796 Clouds 24 1023 47 10000 3.6 70 19:55 24.06.2020
797 Clouds 25 1023 47 10000 3.6 70 19:36 24.06.2020
798 Clouds 24 1024 47 10000 3.1 70 19:18 24.06.2020
799 Clouds 25 1024 47 10000 5.1 90 18:56 24.06.2020
800 Clouds 25 1024 47 10000 5.1 90 18:37 24.06.2020
801 Clouds 25 1024 47 10000 4.6 90 18:18 24.06.2020
802 Clouds 25 1024 41 10000 3.6 80 17:41 24.06.2020
803 Clouds 25 1024 41 10000 3.6 80 17:41 24.06.2020
804 Clouds 25 1024 41 10000 3.6 80 17:19 24.06.2020
805 Clouds 25 1024 41 10000 3.6 80 16:58 24.06.2020
806 Clouds 25 1024 41 10000 3.6 80 16:39 24.06.2020
807 Clear 25 1024 41 10000 4.1 90 16:21 24.06.2020
808 Clear 25 1024 41 10000 4.1 90 15:57 24.06.2020
809 Clear 25 1024 41 10000 4.1 90 15:38 24.06.2020
810 Clear 26 1024 36 10000 5.1 80 15:20 24.06.2020
811 Clear 25 1024 39 10000 3.6 100 14:54 24.06.2020
812 Clear 25 1024 39 10000 3.6 100 14:36 24.06.2020
813 Clear 25 1024 41 10000 3.1 50 14:18 24.06.2020
814 Clear 24 1025 41 10000 3.1 0 13:41 24.06.2020
815 Clear 24 1025 41 10000 5.1 100 13:19 24.06.2020
816 Clear 25 1025 38 10000 3.6 90 12:41 24.06.2020
817 Clear 25 1025 38 10000 3.6 90 12:41 24.06.2020
818 Clear 23 1025 41 10000 2.1 0 12:20 24.06.2020
819 Clear 23 1025 43 10000 3.6 90 11:57 24.06.2020
820 Clear 23 1025 43 10000 3.6 90 11:39 24.06.2020
821 Clear 23 1025 40 10000 2.6 0 11:21 24.06.2020
822 Clear 22 1026 49 10000 3.1 80 10:44 24.06.2020
823 Clear 21 1026 52 10000 2.1 0 10:19 24.06.2020
824 Clear 21 1026 56 10000 2.6 100 09:45 24.06.2020
825 Clear 19 1026 55 10000 2.6 90 09:23 24.06.2020
826 Clear 19 1025 48 10000 3.1 80 08:59 24.06.2020
827 Clear 18 1024 68 0 2.26 93 08:39 24.06.2020
828 Clear 18 1022 79 0 2.07 94 08:18 24.06.2020
829 Clear 16 1022 88 0 2.07 94 07:44 24.06.2020
830 Clear 14 1022 91 0 1.77 91 07:24 24.06.2020
831 Clear 12 1022 91 0 1.77 91 06:44 24.06.2020
832 Clear 12 1022 90 0 1.93 85 06:24 24.06.2020
833 Clear 11 1022 89 0 1.93 85 05:39 24.06.2020
834 Clear 12 1022 87 0 1.64 99 04:38 24.06.2020
835 Clear 13 1022 86 0 1.72 110 03:38 24.06.2020
836 Clear 13 1022 85 0 1.92 105 02:54 24.06.2020
837 Clear 13 1022 84 0 1.9 105 02:21 24.06.2020
838 Clear 15 1022 80 0 2.26 115 00:52 24.06.2020
839 Clear 15 1022 79 0 2.26 115 00:33 24.06.2020
840 Clear 16 1022 75 0 2.66 107 23:49 23.06.2020
841 Clear 17 1022 73 0 2.66 84 23:23 23.06.2020
842 Clear 18 1022 68 0 2.66 84 22:59 23.06.2020
843 Clear 18 1020 60 0 2.66 84 22:41 23.06.2020
844 Clear 19 1022 63 0 2.45 84 22:19 23.06.2020
845 Clear 19 1020 52 0 2.45 84 21:57 23.06.2020
846 Clear 20 1020 60 0 2.45 84 21:38 23.06.2020
847 Clear 22 1021 55 0 2.5 80 21:18 23.06.2020
848 Clear 23 1024 33 10000 2.6 60 20:55 23.06.2020
849 Clear 24 1024 33 10000 2.6 60 20:36 23.06.2020
850 Clear 24 1024 33 10000 2.6 60 20:18 23.06.2020
851 Clear 25 1024 27 10000 2.6 360 19:43 23.06.2020
852 Clear 26 1024 27 10000 2.6 360 19:24 23.06.2020
853 Clear 26 1024 24 10000 3.1 350 18:40 23.06.2020
854 Clear 26 1024 24 10000 3.1 360 18:19 23.06.2020
855 Clear 26 1024 24 10000 3.6 10 17:56 23.06.2020
856 Clear 26 1024 24 10000 3.6 10 17:38 23.06.2020
857 Clear 26 1024 22 10000 3.1 360 17:18 23.06.2020
858 Clear 25 1024 27 10000 3.1 0 16:54 23.06.2020
859 Clear 26 1024 27 10000 3.1 0 16:36 23.06.2020
860 Clear 26 1025 27 10000 2.6 0 16:18 23.06.2020
861 Clear 26 1025 29 10000 2.6 310 15:42 23.06.2020
862 Clear 25 1025 31 10000 3.1 0 15:23 23.06.2020
863 Clear 25 1025 31 10000 3.1 310 14:55 23.06.2020
864 Clear 24 1025 31 10000 3.1 310 14:37 23.06.2020
865 Clear 24 1025 31 10000 3.1 310 14:18 23.06.2020
866 Clear 23 1026 35 10000 3.1 320 13:45 23.06.2020
867 Clear 23 1026 35 10000 3.6 320 13:25 23.06.2020
868 Clear 24 1026 37 10000 3.1 310 12:59 23.06.2020
869 Clear 23 1026 37 10000 3.1 310 12:39 23.06.2020
870 Clear 22 1026 33 10000 3.6 320 12:19 23.06.2020
871 Clear 22 1026 37 10000 3.1 330 11:43 23.06.2020
872 Clear 21 1026 43 10000 3.6 290 11:23 23.06.2020
873 Clear 21 1026 46 10000 2.6 310 10:58 23.06.2020
874 Clear 21 1026 46 10000 2.6 310 10:40 23.06.2020
875 Clear 21 1026 49 10000 2.1 350 10:22 23.06.2020
876 Clear 21 1026 56 10000 2.1 320 09:57 23.06.2020
877 Clear 20 1026 56 10000 2.1 320 09:38 23.06.2020
878 Clear 19 1026 56 10000 1.34 284 09:19 23.06.2020
879 Clouds 17 1026 59 10000 1.25 343 08:46 23.06.2020
880 Clouds 17 1026 63 10000 1.34 352 08:26 23.06.2020
881 Clouds 15 1023 93 0 1.34 352 07:49 23.06.2020
882 Clouds 13 1023 93 0 0.94 343 07:24 23.06.2020
883 Clouds 12 1023 92 0 0.94 343 06:53 23.06.2020
884 Clouds 12 1023 92 0 0.94 343 06:32 23.06.2020
885 Clouds 11 1022 91 0 0.85 340 05:59 23.06.2020
886 Clouds 11 1022 90 0 0.96 331 05:28 23.06.2020
887 Clouds 13 1022 88 0 0.96 341 03:23 23.06.2020
888 Clouds 13 1022 87 0 0.96 341 02:52 23.06.2020
889 Clouds 14 1022 85 0 0.59 315 02:33 23.06.2020
890 Clear 14 1022 85 0 1.06 353 01:46 23.06.2020
891 Clear 14 1022 84 0 1.5 7 01:24 23.06.2020
892 Clear 15 1022 83 0 1.5 7 00:49 23.06.2020
893 Clear 15 1021 81 0 2.05 356 00:21 23.06.2020
894 Clear 16 1021 79 0 2.05 356 23:55 22.06.2020
895 Clear 16 1023 71 0 0.89 265 23:37 22.06.2020
896 Clear 17 1021 77 0 2.63 334 23:18 22.06.2020
897 Clear 17 1020 74 0 2.63 334 22:55 22.06.2020
898 Clear 18 1023 65 0 0.89 265 22:37 22.06.2020
899 Clear 18 1021 70 0 2.86 319 22:18 22.06.2020
900 Clear 20 1023 61 0 0.89 265 21:54 22.06.2020
901 Clear 19 1019 59 0 2.86 319 21:36 22.06.2020
902 Clear 21 1020 60 0 3.95 326 21:18 22.06.2020
903 Clear 21 1019 53 0 3.95 326 20:41 22.06.2020
904 Rain 23 1020 51 0 0.89 310 20:22 22.06.2020
905 Rain 23 1022 56 0 1.34 301 19:45 22.06.2020
906 Clouds 23 1023 31 10000 4.1 300 19:20 22.06.2020
907 Clouds 23 1023 31 10000 4.1 300 18:59 22.06.2020
908 Clouds 24 1023 31 10000 4.1 300 18:39 22.06.2020
909 Clouds 24 1023 31 10000 4.1 300 18:21 22.06.2020
910 Clouds 24 1023 36 10000 3.6 290 17:56 22.06.2020
911 Clouds 24 1023 35 10000 5.1 310 17:38 22.06.2020
912 Clouds 24 1023 35 10000 5.1 310 17:38 22.06.2020
913 Clouds 24 1023 35 10000 5.1 310 17:19 22.06.2020
914 Clouds 24 1023 35 10000 5.1 310 17:19 22.06.2020
915 Clouds 24 1023 31 10000 5.7 290 16:55 22.06.2020
916 Clouds 25 1023 36 10000 4.6 300 16:37 22.06.2020
917 Clear 24 1023 36 10000 4.6 300 16:18 22.06.2020
918 Clear 24 1023 38 10000 5.1 320 15:42 22.06.2020
919 Clear 24 1023 38 10000 5.1 320 15:24 22.06.2020
920 Clear 24 1023 36 10000 6.2 310 14:57 22.06.2020
921 Clear 24 1023 38 10000 4.6 300 14:36 22.06.2020
922 Clouds 24 1023 41 10000 5.1 290 14:18 22.06.2020
923 Clouds 24 1023 46 10000 4.6 300 13:40 22.06.2020
924 Clouds 23 1023 46 10000 4.6 300 13:21 22.06.2020
925 Clouds 23 1023 46 10000 4.6 300 13:21 22.06.2020
926 Clouds 23 1023 49 10000 4.1 310 12:59 22.06.2020
927 Clouds 23 1023 49 10000 4.1 310 12:59 22.06.2020
928 Clouds 22 1023 56 10000 4.6 300 12:40 22.06.2020
929 Clouds 22 1023 56 10000 4.6 300 12:22 22.06.2020
930 Clouds 22 1022 56 10000 4.1 290 11:38 22.06.2020
931 Clouds 20 1022 56 10000 4.1 290 11:19 22.06.2020
932 Clear 21 1022 60 10000 4.6 310 10:57 22.06.2020
933 Clouds 21 1022 60 10000 5.1 290 10:38 22.06.2020
934 Clouds 20 1022 60 10000 5.1 290 10:19 22.06.2020
935 Clouds 21 1022 60 10000 4.6 300 09:58 22.06.2020
936 Clear 20 1022 63 10000 5.1 310 09:39 22.06.2020
937 Clear 18 1022 63 10000 5.1 310 09:19 22.06.2020
938 Clouds 19 1021 68 10000 3.6 320 08:56 22.06.2020
939 Clouds 18 1021 68 10000 3.1 310 08:38 22.06.2020
940 Clouds 18 1021 68 10000 3.1 310 08:19 22.06.2020
941 Clouds 18 1020 83 0 0.45 297 07:49 22.06.2020
942 Clouds 17 1018 85 0 5.03 301 07:30 22.06.2020
943 Clouds 16 1018 88 0 4.62 292 06:43 22.06.2020
944 Clouds 16 1018 87 0 3.84 266 06:24 22.06.2020
945 Clouds 16 1017 86 0 3.84 266 05:43 22.06.2020
946 Rain 16 1016 87 0 2.96 243 03:48 22.06.2020
947 Clouds 16 1016 86 0 1.41 183 02:28 22.06.2020
948 Clear 15 1016 85 0 1.5 174 01:21 22.06.2020
949 Clear 16 1016 82 0 1.5 174 00:39 22.06.2020
950 Clear 16 1017 78 0 1.74 187 23:58 21.06.2020
951 Clear 16 1016 78 0 1.74 187 23:39 21.06.2020
952 Clear 17 1016 77 0 1.53 204 23:21 21.06.2020
953 Clear 17 1016 74 0 1.53 204 22:57 21.06.2020
954 Clear 18 1018 68 0 1.34 302 22:37 21.06.2020
955 Clear 19 1016 71 0 1.11 234 22:19 21.06.2020
956 Clear 20 1020 57 0 1.11 234 21:57 21.06.2020
957 Clear 21 1014 56 0 1.11 234 21:39 21.06.2020
958 Clear 22 1016 61 0 1.48 256 21:21 21.06.2020
959 Clouds 23 1018 33 10000 3.1 280 20:58 21.06.2020
960 Clouds 23 1018 33 10000 3.1 280 20:37 21.06.2020
961 Clear 24 1018 33 10000 3.1 280 20:18 21.06.2020
962 Clear 24 1018 33 10000 3.1 280 20:18 21.06.2020
963 Clear 24 1018 33 10000 3.1 280 19:56 21.06.2020
964 Clear 24 1018 31 10000 2.6 310 19:38 21.06.2020
965 Clear 24 1018 31 10000 2.6 310 19:19 21.06.2020
966 Clear 25 1018 31 10000 2.6 270 18:54 21.06.2020
967 Clear 25 1019 31 10000 4.6 290 18:36 21.06.2020
968 Clear 25 1019 31 10000 4.6 290 18:18 21.06.2020
969 Clear 25 1019 31 10000 3.6 260 17:40 21.06.2020
970 Clear 25 1019 31 10000 3.6 260 17:39 21.06.2020
971 Clear 25 1019 31 10000 3.6 260 17:20 21.06.2020
972 Clear 24 1019 31 10000 3.1 290 16:56 21.06.2020
973 Clear 25 1019 29 10000 3.1 280 16:37 21.06.2020
974 Clear 25 1019 29 10000 3.1 280 16:18 21.06.2020
975 Clear 24 1019 33 10000 3.6 260 15:38 21.06.2020
976 Clear 24 1019 33 10000 3.6 260 15:20 21.06.2020
977 Clear 23 1020 35 10000 4.1 290 14:39 21.06.2020
978 Clouds 23 1020 35 10000 4.1 290 14:21 21.06.2020
979 Clouds 23 1020 38 10000 4.1 0 13:59 21.06.2020
980 Clouds 22 1020 40 10000 3.6 270 13:41 21.06.2020
981 Clouds 22 1020 40 10000 3.6 270 13:22 21.06.2020
982 Clouds 24 1020 40 10000 3.6 290 12:57 21.06.2020
983 Clouds 23 1020 40 10000 4.1 310 12:39 21.06.2020
984 Clouds 22 1020 40 10000 4.1 310 12:20 21.06.2020
985 Clouds 21 1020 46 10000 3.6 300 11:42 21.06.2020
986 Clear 21 1020 46 10000 3.6 300 11:24 21.06.2020
987 Clear 20 1020 52 10000 3.1 290 10:58 21.06.2020
988 Clear 20 1020 55 10000 4.1 310 10:39 21.06.2020
989 Clear 20 1020 55 10000 4.1 310 10:21 21.06.2020
990 Clear 18 1017 71 0 0.45 308 09:44 21.06.2020
991 Clear 17 1020 78 0 0.89 312 09:24 21.06.2020
992 Clear 16 1022 79 0 2.72 294 08:59 21.06.2020
993 Clear 15 1019 84 0 2.72 294 08:41 21.06.2020
994 Clouds 15 1019 84 0 2.5 301 08:20 21.06.2020
995 Clouds 15 1017 89 0 0.45 324 07:59 21.06.2020
996 Clouds 14 1017 89 0 2.5 301 07:39 21.06.2020
997 Clouds 14 1017 89 0 1.81 300 07:19 21.06.2020
998 Clouds 14 1017 88 0 1.81 300 06:46 21.06.2020
999 Clouds 13 1017 87 0 1.86 287 05:57 21.06.2020
1000 Clouds 13 1017 86 0 2.16 294 04:48 21.06.2020
1001 Clouds 14 1017 84 0 2.29 286 03:20 21.06.2020
1002 Clouds 14 1017 83 0 2.29 286 02:46 21.06.2020
1003 Clouds 14 1019 83 0 0.89 280 01:48 21.06.2020
1004 Clouds 15 1019 83 0 1.34 281 01:21 21.06.2020
1005 Clouds 15 1019 82 0 0.89 283 00:54 21.06.2020
1006 Clouds 15 1019 82 0 1.34 283 00:36 21.06.2020
1007 Clouds 15 1019 82 0 0.45 289 00:18 21.06.2020
1008 Clouds 16 1019 81 0 1.18 359 23:41 20.06.2020
1009 Clouds 16 1019 80 0 1.72 4 23:21 20.06.2020
1010 Clouds 17 1018 79 0 1.72 4 22:55 20.06.2020
1011 Clouds 17 1018 79 0 0.45 293 22:36 20.06.2020
1012 Rain 18 1015 67 0 2.25 345 22:18 20.06.2020
1013 Rain 19 1018 75 0 1.34 295 21:55 20.06.2020
1014 Rain 19 1018 75 0 0.45 295 21:37 20.06.2020
1015 Clear 20 1016 67 0 0.89 315 21:19 20.06.2020
1016 Clear 20 1016 64 0 0.89 311 20:55 20.06.2020
1017 Clear 21 1016 63 0 0.45 313 20:37 20.06.2020
1018 Clouds 22 1018 56 0 1.34 318 20:19 20.06.2020
1019 Clouds 22 1015 60 0 0.45 306 19:43 20.06.2020
1020 Clouds 22 1018 43 10000 5.7 290 19:22 20.06.2020
1021 Clouds 23 1018 43 10000 5.7 290 18:54 20.06.2020
1022 Clouds 23 1018 43 10000 5.7 290 18:36 20.06.2020
1023 Clouds 23 1018 43 10000 5.7 290 18:18 20.06.2020
1024 Clouds 23 1019 43 10000 5.1 290 17:54 20.06.2020
1025 Clouds 22 1019 46 10000 6.7 300 17:36 20.06.2020
1026 Clouds 23 1019 46 10000 6.7 300 17:18 20.06.2020
1027 Clouds 23 1019 46 10000 6.2 290 16:39 20.06.2020
1028 Clouds 22 1019 46 10000 6.2 290 16:18 20.06.2020
1029 Clouds 22 1019 46 10000 7.2 290 15:42 20.06.2020
1030 Clouds 22 1019 46 10000 7.2 290 15:18 20.06.2020
1031 Clouds 23 1019 43 10000 7.2 290 14:57 20.06.2020
1032 Clouds 23 1019 43 10000 6.7 300 14:39 20.06.2020
1033 Clouds 22 1019 46 10000 7.2 290 14:19 20.06.2020
1034 Clouds 23 1019 46 10000 7.2 290 13:41 20.06.2020
1035 Clouds 22 1019 46 10000 7.2 290 13:20 20.06.2020
1036 Clouds 21 1019 49 10000 7.2 270 12:55 20.06.2020
1037 Clouds 21 1019 49 10000 6.7 290 12:37 20.06.2020
1038 Clouds 21 1019 49 10000 6.7 290 12:18 20.06.2020
1039 Clouds 20 1019 56 10000 6.7 300 11:39 20.06.2020
1040 Clouds 20 1019 56 10000 6.7 300 11:20 20.06.2020
1041 Clouds 20 1019 63 10000 5.7 290 10:57 20.06.2020
1042 Clouds 20 1019 63 10000 6.2 300 10:39 20.06.2020
1043 Clouds 19 1019 63 10000 6.2 300 10:18 20.06.2020
1044 Clouds 18 1016 86 0 1.79 311 09:42 20.06.2020
1045 Clouds 17 1018 80 0 4.92 319 09:24 20.06.2020
1046 Clouds 17 1015 92 0 1.34 293 08:58 20.06.2020
1047 Clouds 16 1015 92 0 0.45 291 08:39 20.06.2020
1048 Clouds 16 1015 92 0 0.45 290 08:21 20.06.2020
1049 Clouds 16 1015 92 0 0.45 290 07:50 20.06.2020
1050 Clouds 16 1015 92 0 0.45 291 07:25 20.06.2020
1051 Clouds 15 1015 91 0 0.45 285 06:44 20.06.2020
1052 Clouds 15 1017 87 0 2.24 261 06:20 20.06.2020
1053 Clouds 15 1017 87 0 1.79 251 05:47 20.06.2020
1054 Clouds 16 1016 87 0 1.79 288 03:55 20.06.2020
1055 Clouds 16 1016 85 0 2.24 257 01:55 20.06.2020
1056 Clouds 16 1016 84 0 1.34 255 01:37 20.06.2020
1057 Clouds 16 1016 84 0 1.79 267 00:49 20.06.2020
1058 Clouds 17 1016 84 0 0.89 275 00:20 20.06.2020
1059 Clouds 17 1016 84 0 0.89 276 23:46 19.06.2020
1060 Clouds 17 1015 83 0 2.24 283 23:21 19.06.2020
1061 Clouds 18 1015 82 0 2.51 296 22:58 19.06.2020
1062 Clouds 18 1014 82 0 2.51 296 22:40 19.06.2020
1063 Clouds 19 1012 75 0 2.74 312 22:21 19.06.2020
1064 Clouds 19 1014 80 0 2.74 312 21:56 19.06.2020
1065 Clouds 19 1011 71 0 2.74 312 21:56 19.06.2020
1066 Clouds 19 1014 79 0 3 312 21:37 19.06.2020
1067 Clouds 20 1012 75 0 2.95 313 21:18 19.06.2020
1068 Clouds 21 1011 76 0 2.95 313 20:57 19.06.2020
1069 Clouds 21 1011 75 0 2.95 313 20:39 19.06.2020
1070 Rain 21 1011 74 0 2.59 307 20:20 19.06.2020
1071 Rain 21 1011 75 0 0.45 271 19:55 19.06.2020
1072 Rain 21 1011 74 0 0.89 273 19:37 19.06.2020
1073 Clouds 22 1014 49 10000 5.1 340 19:18 19.06.2020
1074 Clouds 22 1014 49 10000 5.1 340 18:40 19.06.2020
1075 Clouds 23 1014 49 10000 5.1 340 18:21 19.06.2020
1076 Clouds 23 1014 50 10000 5.1 320 17:55 19.06.2020
1077 Clouds 22 1013 49 10000 5.1 320 17:36 19.06.2020
1078 Clouds 22 1013 49 10000 5.1 320 17:18 19.06.2020
1079 Clouds 22 1014 53 10000 4.6 330 16:41 19.06.2020
1080 Clouds 23 1014 53 10000 4.6 330 16:23 19.06.2020
1081 Clouds 23 1014 49 10000 5.1 320 15:58 19.06.2020
1082 Clouds 23 1014 53 10000 5.1 310 15:40 19.06.2020
1083 Clouds 23 1014 53 10000 5.1 310 15:20 19.06.2020
1084 Clouds 22 1014 53 10000 5.1 320 14:55 19.06.2020
1085 Clouds 23 1014 49 10000 5.1 290 14:37 19.06.2020
1086 Clouds 23 1014 53 10000 5.7 280 14:18 19.06.2020
1087 Clouds 22 1014 56 10000 6.7 300 13:42 19.06.2020
1088 Clouds 22 1014 56 10000 6.7 300 13:24 19.06.2020
1089 Clouds 22 1013 60 10000 5.7 290 12:47 19.06.2020
1090 Clouds 21 1013 60 10000 5.7 290 12:22 19.06.2020
1091 Clouds 21 1013 64 10000 6.2 300 11:57 19.06.2020
1092 Clouds 21 1013 64 10000 5.1 300 11:38 19.06.2020
1093 Clouds 19 1013 64 10000 5.1 300 11:18 19.06.2020
1094 Clouds 19 1013 64 10000 5.1 300 11:18 19.06.2020
1095 Clouds 20 1013 72 10000 5.1 280 10:46 19.06.2020
1096 Clouds 19 1013 82 10000 5.7 270 10:27 19.06.2020
1097 Clouds 18 1013 82 10000 5.7 290 09:59 19.06.2020
1098 Clouds 18 1013 82 10000 4.6 280 09:41 19.06.2020
1099 Clouds 17 1013 82 10000 4.6 280 09:20 19.06.2020
1100 Clouds 17 1013 88 9000 4.1 280 08:45 19.06.2020
1101 Clouds 16 1013 93 6000 4.1 280 08:26 19.06.2020
1102 Clouds 16 1010 97 0 1.34 277 07:57 19.06.2020
1103 Clouds 16 1010 97 0 0.89 290 07:39 19.06.2020
1104 Clouds 16 1010 97 0 0.89 277 07:20 19.06.2020
1105 Clouds 15 1010 96 0 1.79 282 06:28 19.06.2020
1106 Clouds 15 1010 96 0 2.83 263 05:50 19.06.2020
1107 Clouds 15 1010 96 0 2.43 282 04:27 19.06.2020
1108 Clouds 15 1009 95 0 0.45 283 03:22 19.06.2020
1109 Clouds 16 1012 82 10000 3.6 260 00:59 19.06.2020
1110 Clouds 16 1012 82 10000 3.6 260 00:41 19.06.2020
1111 Clouds 16 1012 82 10000 3.6 260 00:21 19.06.2020
1112 Clouds 16 1012 82 10000 3.6 260 23:55 18.06.2020
1113 Clouds 16 1012 87 10000 3.1 260 23:36 18.06.2020
1114 Clouds 16 1012 87 10000 3.1 260 23:36 18.06.2020
1115 Clouds 16 1012 87 10000 3.1 260 23:18 18.06.2020
1116 Clouds 16 1012 87 10000 3.1 260 23:18 18.06.2020
1117 Clouds 16 1012 82 10000 3.1 270 22:39 18.06.2020
1118 Clouds 16 1012 82 10000 3.1 280 22:19 18.06.2020
1119 Clouds 16 1012 82 10000 3.1 280 21:56 18.06.2020
1120 Clouds 16 1012 82 10000 3.6 280 21:36 18.06.2020
1121 Clouds 16 1012 82 10000 3.6 280 21:18 18.06.2020
1122 Clouds 17 1012 82 10000 3.6 280 20:40 18.06.2020
1123 Clouds 17 1012 82 10000 3.6 280 20:20 18.06.2020
1124 Clouds 17 1011 82 10000 5.1 280 19:57 18.06.2020
1125 Clouds 17 1011 82 10000 5.1 280 19:38 18.06.2020
1126 Clouds 17 1011 82 10000 5.1 280 19:19 18.06.2020
1127 Clouds 17 1011 82 10000 6.7 280 18:39 18.06.2020
1128 Clouds 17 1011 82 10000 6.7 280 18:21 18.06.2020
1129 Clouds 17 1011 82 10000 5.1 280 17:54 18.06.2020
1130 Clouds 18 1011 77 10000 5.7 270 17:36 18.06.2020
1131 Clouds 18 1011 77 10000 5.7 270 17:18 18.06.2020
1132 Clouds 18 1011 77 10000 5.1 260 16:42 18.06.2020
1133 Clouds 18 1011 77 10000 5.1 260 16:24 18.06.2020
1134 Clouds 18 1011 77 10000 4.6 270 15:58 18.06.2020
1135 Clouds 19 1011 72 10000 6.2 260 15:39 18.06.2020
1136 Clouds 19 1011 72 10000 6.2 260 15:20 18.06.2020
1137 Clouds 19 1011 72 10000 5.1 270 14:57 18.06.2020
1138 Rain 19 1011 72 10000 5.7 280 14:38 18.06.2020
1139 Rain 20 1011 72 10000 5.7 280 14:20 18.06.2020
1140 Clouds 20 1011 77 10000 5.1 280 13:48 18.06.2020
1141 Clouds 20 1010 73 10000 5.7 260 13:29 18.06.2020
1142 Clouds 21 1010 73 10000 4.6 270 12:58 18.06.2020
1143 Clouds 20 1010 68 10000 3.6 260 12:40 18.06.2020
1144 Clouds 20 1010 68 10000 3.6 260 12:40 18.06.2020
1145 Clouds 21 1010 68 10000 3.6 260 12:20 18.06.2020
1146 Rain 21 1010 64 10000 3.1 240 11:57 18.06.2020
1147 Rain 21 1010 64 10000 2.1 240 11:38 18.06.2020
1148 Rain 21 1010 64 10000 2.1 240 11:19 18.06.2020
1149 Rain 20 1010 68 10000 0.5 0 10:40 18.06.2020
1150 Rain 20 1010 68 10000 0.5 0 10:19 18.06.2020
1151 Rain 20 1010 72 10000 1.5 0 09:54 18.06.2020
1152 Rain 20 1006 87 0 0.45 12 09:36 18.06.2020
1153 Rain 20 1005 71 0 0.45 190 09:18 18.06.2020
1154 Rain 19 1006 88 0 0.93 185 08:39 18.06.2020
1155 Rain 19 1008 85 0 2.68 258 08:20 18.06.2020
1156 Rain 18 1006 89 0 1.32 148 07:46 18.06.2020
1157 Rain 18 1006 89 0 2.01 88 07:26 18.06.2020
1158 Rain 18 1006 89 0 2.01 88 06:54 18.06.2020
1159 Rain 17 1007 84 0 2.08 74 05:55 18.06.2020
1160 Rain 17 1007 81 0 2.04 98 04:22 18.06.2020
1161 Rain 19 1008 74 0 2.05 89 02:51 18.06.2020
1162 Clouds 19 1006 81 0 2.74 50 01:28 18.06.2020
1163 Clouds 19 1006 83 0 2.74 50 00:56 18.06.2020
1164 Clouds 19 1006 83 0 2.74 50 00:37 18.06.2020
1165 Clouds 19 1006 83 0 2.73 33 00:19 18.06.2020
1166 Clouds 20 1007 82 0 2.73 33 23:42 17.06.2020
1167 Clouds 20 1007 82 0 2.43 57 23:20 17.06.2020
1168 Clouds 20 1007 86 0 0.45 28 22:57 17.06.2020
1169 Clouds 20 1006 86 0 2.43 57 22:38 17.06.2020
1170 Clouds 21 1006 85 0 2.4 78 22:20 17.06.2020
1171 Clouds 21 1006 83 0 2.4 78 21:55 17.06.2020
1172 Clouds 22 1006 82 0 2.4 78 21:37 17.06.2020
1173 Rain 22 1006 81 0 2.5 67 21:18 17.06.2020
1174 Rain 24 1009 44 10000 2.1 60 20:38 17.06.2020
1175 Rain 24 1009 44 10000 2.1 60 20:20 17.06.2020
1176 Rain 25 1009 44 10000 2.1 60 19:57 17.06.2020
1177 Rain 25 1009 44 10000 1.5 0 19:38 17.06.2020
1178 Rain 26 1009 44 10000 1.5 0 19:19 17.06.2020
1179 Rain 26 1009 41 10000 3.1 90 18:45 17.06.2020
1180 Rain 26 1010 41 10000 3.1 60 18:27 17.06.2020
1181 Rain 26 1010 39 10000 1.5 0 17:46 17.06.2020
1182 Rain 27 1010 39 10000 1.5 0 17:23 17.06.2020
1183 Rain 27 1010 39 10000 2.1 0 16:58 17.06.2020
1184 Rain 26 1011 42 10000 2.1 0 16:40 17.06.2020
1185 Rain 27 1011 42 10000 2.1 0 16:21 17.06.2020
1186 Rain 26 1011 44 10000 2.1 80 15:58 17.06.2020
1187 Rain 26 1011 41 10000 1.5 0 15:39 17.06.2020
1188 Clouds 26 1011 41 10000 1.5 0 15:20 17.06.2020
1189 Clouds 26 1011 39 10000 2.1 0 14:58 17.06.2020
1190 Clouds 26 1012 39 10000 2.6 50 14:39 17.06.2020
1191 Rain 26 1012 39 10000 2.6 50 14:19 17.06.2020
1192 Rain 26 1012 41 10000 2.1 0 13:57 17.06.2020
1193 Rain 25 1012 44 10000 2.1 0 13:38 17.06.2020
1194 Rain 25 1012 44 10000 2.1 0 13:20 17.06.2020
1195 Rain 25 1012 44 10000 2.1 0 13:20 17.06.2020
1196 Rain 25 1012 50 10000 1.5 0 12:43 17.06.2020
1197 Rain 24 1012 50 10000 1.5 0 12:23 17.06.2020
1198 Rain 24 1012 53 10000 1.5 0 11:58 17.06.2020
1199 Rain 24 1013 56 10000 1.5 0 11:40 17.06.2020
1200 Rain 23 1013 56 10000 1.5 0 11:22 17.06.2020
1201 Rain 22 1013 73 10000 1.5 0 10:39 17.06.2020
1202 Rain 22 1013 73 10000 1.5 0 10:19 17.06.2020
1203 Rain 20 1013 82 10000 1.5 0 09:59 17.06.2020
1204 Rain 20 1013 88 10000 1.5 0 09:41 17.06.2020
1205 Clouds 19 1013 88 10000 1.5 0 09:21 17.06.2020
1206 Clouds 18 1010 97 0 1.32 44 08:56 17.06.2020
1207 Clouds 18 1010 96 0 1.32 44 08:38 17.06.2020
1208 Clouds 18 1010 96 0 0.59 28 08:18 17.06.2020
1209 Clouds 16 1010 96 0 0.59 28 07:43 17.06.2020
1210 Clouds 16 1010 96 0 0.41 334 07:21 17.06.2020
1211 Clouds 15 1010 95 0 0.41 334 06:56 17.06.2020
1212 Clouds 14 1010 95 0 0.41 334 06:37 17.06.2020
1213 Clouds 14 1010 95 0 0.66 278 06:19 17.06.2020
1214 Clouds 14 1009 94 0 0.63 282 05:18 17.06.2020
1215 Clouds 15 1010 93 0 0.65 157 03:28 17.06.2020
1216 Clouds 15 1010 92 0 1.31 84 01:52 17.06.2020
1217 Clouds 16 1010 91 0 1.31 83 00:47 17.06.2020
1218 Clouds 16 1013 93 10000 1.41 75 00:23 17.06.2020
1219 Clouds 17 1013 93 10000 1.41 75 23:56 16.06.2020
1220 Clouds 17 1013 93 10000 1.41 75 23:37 16.06.2020
1221 Clouds 17 1013 93 10000 1.72 71 23:19 16.06.2020
1222 Clouds 17 1013 88 10000 1 350 22:56 16.06.2020
1223 Clouds 18 1013 82 10000 1 340 22:37 16.06.2020
1224 Rain 18 1013 82 10000 1 340 22:18 16.06.2020
1225 Rain 19 1013 82 10000 1.94 74 21:54 16.06.2020
1226 Rain 19 1013 82 10000 1 350 21:36 16.06.2020
1227 Rain 20 1013 82 10000 1 350 21:18 16.06.2020
1228 Rain 21 1013 73 10000 1 0 20:42 16.06.2020
1229 Rain 21 1013 73 10000 1 0 20:19 16.06.2020
1230 Rain 21 1013 73 10000 1.5 290 19:58 16.06.2020
1231 Rain 22 1013 73 10000 1.5 0 19:39 16.06.2020
1232 Rain 22 1013 73 10000 1.5 0 19:21 16.06.2020
1233 Rain 22 1013 73 10000 2.1 270 18:55 16.06.2020
1234 Rain 22 1013 73 10000 3.1 270 18:37 16.06.2020
1235 Rain 22 1013 73 10000 3.1 270 18:19 16.06.2020
1236 Rain 22 1013 68 10000 3.1 220 17:55 16.06.2020
1237 Clouds 22 1014 68 10000 2.6 200 17:36 16.06.2020
1238 Clouds 22 1014 68 10000 2.6 200 17:18 16.06.2020
1239 Rain 22 1014 60 10000 3.1 180 16:42 16.06.2020
1240 Rain 23 1014 60 10000 3.1 180 16:21 16.06.2020
1241 Rain 23 1014 64 10000 2.1 170 15:59 16.06.2020
1242 Clouds 24 1014 64 10000 1.5 0 15:41 16.06.2020
1243 Clouds 24 1014 64 10000 1.5 0 15:23 16.06.2020
1244 Clouds 23 1014 60 10000 2.1 190 15:00 16.06.2020
1245 Clouds 23 1014 64 10000 1.5 0 14:41 16.06.2020
1246 Clouds 23 1014 64 10000 1.5 0 14:23 16.06.2020
1247 Clouds 22 1014 69 10000 1 0 13:49 16.06.2020
1248 Clouds 22 1015 68 10000 0.5 0 13:26 16.06.2020
1249 Clouds 22 1015 73 10000 1 0 12:57 16.06.2020
1250 Clouds 22 1015 73 10000 1.5 0 12:39 16.06.2020
1251 Clouds 21 1015 73 10000 1.5 0 12:21 16.06.2020
1252 Clouds 21 1015 72 10000 1 0 11:55 16.06.2020
1253 Clouds 20 1015 82 10000 2.6 290 11:37 16.06.2020
1254 Clouds 19 1015 82 10000 2.6 290 11:19 16.06.2020
1255 Clouds 19 1015 82 10000 3.1 280 10:43 16.06.2020
1256 Clouds 19 1015 82 10000 3.1 280 10:21 16.06.2020
1257 Clouds 19 1015 82 10000 2.1 270 09:59 16.06.2020
1258 Clouds 18 1016 88 10000 2.1 290 09:41 16.06.2020
1259 Clouds 17 1016 88 10000 2.1 290 09:21 16.06.2020
1260 Clouds 17 1015 88 10000 2.1 280 08:48 16.06.2020
1261 Clouds 17 1015 88 10000 2.1 290 08:30 16.06.2020
1262 Clouds 17 1015 93 10000 2.1 270 07:51 16.06.2020
1263 Clouds 16 1015 93 10000 1.5 0 07:28 16.06.2020
1264 Clouds 16 1015 93 10000 2.1 280 06:54 16.06.2020
1265 Clouds 16 1012 95 0 2.32 260 06:27 16.06.2020
1266 Clouds 15 1012 94 0 2.32 260 05:46 16.06.2020
1267 Clouds 15 1012 94 0 2.27 264 04:42 16.06.2020
1268 Clouds 15 1012 93 0 2.25 265 03:48 16.06.2020
1269 Clouds 15 1013 92 0 2.26 258 02:19 16.06.2020
1270 Clouds 16 1013 92 0 1.85 271 01:31 16.06.2020
1271 Clouds 16 1013 91 0 2.13 270 00:52 16.06.2020
1272 Clouds 16 1013 91 0 2.09 274 00:22 16.06.2020
1273 Clouds 17 1016 82 10000 2.6 270 23:43 15.06.2020
1274 Clouds 17 1016 82 10000 2.6 270 23:24 15.06.2020
1275 Clouds 18 1016 82 10000 2.6 270 22:59 15.06.2020
1276 Clouds 18 1016 82 10000 4.1 280 22:41 15.06.2020
1277 Clouds 18 1016 82 10000 4.1 280 22:21 15.06.2020
1278 Clouds 18 1015 82 10000 4.1 280 21:57 15.06.2020
1279 Clouds 18 1015 82 10000 4.1 270 21:38 15.06.2020
1280 Clouds 19 1015 82 10000 4.1 270 21:19 15.06.2020
1281 Clouds 19 1015 77 10000 4.6 270 20:57 15.06.2020
1282 Clouds 19 1015 77 10000 4.6 270 20:38 15.06.2020
1283 Clouds 19 1015 77 10000 4.6 270 20:19 15.06.2020
1284 Clouds 19 1015 77 10000 4.6 270 20:19 15.06.2020
1285 Rain 21 1015 73 10000 4.6 270 19:57 15.06.2020
1286 Rain 21 1015 73 10000 5.1 280 19:38 15.06.2020
1287 Rain 21 1015 73 10000 5.1 280 19:20 15.06.2020
1288 Rain 22 1015 73 10000 5.1 270 18:56 15.06.2020
1289 Rain 21 1015 68 10000 4.1 270 18:37 15.06.2020
1290 Rain 22 1015 68 10000 4.1 270 18:19 15.06.2020
1291 Rain 23 1015 68 10000 4.6 260 17:56 15.06.2020
1292 Clouds 23 1014 64 10000 4.1 270 17:37 15.06.2020
1293 Clouds 23 1014 64 10000 4.1 270 17:18 15.06.2020
1294 Clouds 22 1014 68 10000 2.6 320 16:41 15.06.2020
1295 Clouds 23 1014 68 10000 2.6 320 16:19 15.06.2020
1296 Clouds 23 1014 60 10000 1.5 0 15:57 15.06.2020
1297 Clouds 24 1014 53 10000 2.6 0 15:39 15.06.2020
1298 Clouds 24 1014 53 10000 2.6 0 15:19 15.06.2020
1299 Clouds 24 1014 56 10000 2.1 260 14:54 15.06.2020
1300 Clouds 24 1014 60 10000 2.6 330 14:36 15.06.2020
1301 Clouds 24 1014 60 10000 2.6 330 14:18 15.06.2020
1302 Clouds 23 1015 64 10000 2.1 290 13:42 15.06.2020
1303 Clouds 23 1015 64 10000 2.1 290 13:23 15.06.2020
1304 Rain 23 1015 64 10000 2.1 0 12:58 15.06.2020
1305 Rain 22 1015 68 10000 2.1 320 12:39 15.06.2020
1306 Clouds 21 1015 68 10000 2.1 320 12:21 15.06.2020
1307 Clouds 22 1015 68 10000 2.1 280 11:45 15.06.2020
1308 Clouds 19 1015 68 10000 2.1 280 11:26 15.06.2020
1309 Clouds 19 1015 72 10000 1 0 10:57 15.06.2020
1310 Clouds 19 1015 72 10000 0.5 0 10:38 15.06.2020
1311 Clouds 19 1014 77 10000 0.5 0 10:19 15.06.2020
1312 Clouds 19 1015 72 10000 0.5 0 10:19 15.06.2020
1313 Clouds 18 1014 78 0 2.04 71 09:42 15.06.2020
1314 Clouds 17 1014 77 10000 2.6 80 09:22 15.06.2020
1315 Clouds 17 1014 77 10000 2.6 80 08:45 15.06.2020
1316 Clouds 17 1014 77 10000 2.6 80 08:26 15.06.2020
1317 Clouds 16 1011 98 0 1.9 52 07:52 15.06.2020
1318 Clouds 16 1011 98 0 1.9 52 07:34 15.06.2020
1319 Clouds 15 1010 98 0 2.2 50 06:57 15.06.2020
1320 Clouds 15 1010 98 0 2.37 43 06:27 15.06.2020
1321 Clouds 15 1010 98 0 2.37 43 05:50 15.06.2020
1322 Clouds 15 1010 98 0 1.76 51 05:28 15.06.2020
1323 Clouds 16 1010 98 0 1.41 73 04:22 15.06.2020
1324 Clouds 16 1009 98 0 1.41 73 03:48 15.06.2020
1325 Clouds 17 1010 98 0 2.36 76 02:56 15.06.2020
1326 Clouds 17 1010 98 0 3.05 62 02:26 15.06.2020
1327 Clouds 16 1010 98 0 3.05 62 01:47 15.06.2020
1328 Clouds 16 1008 97 0 3.41 60 01:24 15.06.2020
1329 Clouds 17 1008 97 0 3.41 60 00:45 15.06.2020
1330 Clouds 18 1011 87 0 3.3 50 00:23 15.06.2020
1331 Clouds 19 1008 98 0 3.3 50 23:58 14.06.2020
1332 Clouds 19 1008 98 0 3.3 50 23:40 14.06.2020
1333 Clouds 19 1010 98 0 2.93 61 23:22 14.06.2020
1334 Clouds 19 1012 93 8000 1 10 22:57 14.06.2020
1335 Clouds 19 1012 93 8000 1 10 22:38 14.06.2020
1336 Clouds 19 1012 93 8000 1 10 22:18 14.06.2020
1337 Clouds 19 1012 93 8000 1 10 21:56 14.06.2020
1338 Clouds 20 1009 98 0 3.24 71 21:38 14.06.2020
1339 Clouds 20 1012 94 10000 3.68 81 21:19 14.06.2020
1340 Clouds 20 1012 94 10000 3.68 81 20:57 14.06.2020
1341 Clouds 20 1012 94 10000 3.68 81 20:38 14.06.2020
1342 Clouds 20 1012 94 10000 4.14 78 20:19 14.06.2020
1343 Clouds 20 1012 94 10000 1.5 0 19:56 14.06.2020
1344 Clouds 20 1012 94 10000 1.5 0 19:37 14.06.2020
1345 Clouds 20 1012 94 10000 1.5 0 19:19 14.06.2020
1346 Clouds 20 1012 100 6000 1.5 0 18:56 14.06.2020
1347 Rain 20 1012 91 0 0.89 98 18:37 14.06.2020
1348 Clouds 20 1012 100 6000 1.5 0 18:19 14.06.2020
1349 Clouds 19 1012 93 6000 2.1 80 17:57 14.06.2020
1350 Mist 20 1012 93 3900 2.6 80 17:38 14.06.2020
1351 Mist 19 1012 93 3900 2.6 80 17:19 14.06.2020
1352 Mist 19 1012 93 1700 1.5 0 16:41 14.06.2020
1353 Mist 19 1012 93 1700 1.5 0 16:21 14.06.2020
1354 Mist 19 1013 93 2700 1 0 15:59 14.06.2020
1355 Mist 19 1013 93 2700 1 0 15:59 14.06.2020
1356 Rain 19 1012 93 3400 1.5 0 15:40 14.06.2020
1357 Rain 19 1012 93 3400 1.5 0 15:18 14.06.2020
1358 Rain 19 1013 93 5000 1 0 14:58 14.06.2020
1359 Rain 19 1013 93 3500 1 0 14:40 14.06.2020
1360 Mist 19 1013 93 3500 1 0 14:21 14.06.2020
1361 Rain 19 1013 93 4000 1 0 13:56 14.06.2020
1362 Rain 19 1012 93 7000 1.5 0 13:38 14.06.2020
1363 Rain 19 1012 93 7000 1.5 0 13:19 14.06.2020
1364 Clouds 19 1013 88 10000 1.5 0 12:55 14.06.2020
1365 Clouds 19 1012 88 10000 2.1 70 12:37 14.06.2020
1366 Clouds 19 1012 88 10000 2.1 70 12:18 14.06.2020
1367 Rain 19 1012 93 8000 2.1 50 11:56 14.06.2020
1368 Rain 18 1012 93 10000 2.6 50 11:37 14.06.2020
1369 Rain 19 1012 93 10000 2.6 50 11:18 14.06.2020
1370 Clouds 19 1012 93 10000 1.5 0 10:41 14.06.2020
1371 Clouds 19 1012 93 10000 1.5 0 10:19 14.06.2020
1372 Rain 19 1008 97 0 3.02 81 09:45 14.06.2020
1373 Clouds 19 1008 97 0 1.43 50 09:25 14.06.2020
1374 Clouds 19 1008 97 0 1.43 50 08:56 14.06.2020
1375 Clouds 19 1008 97 0 1.43 50 08:38 14.06.2020
1376 Clouds 18 1008 97 0 0.86 36 08:18 14.06.2020
1377 Clouds 18 1008 97 0 0.86 36 07:44 14.06.2020
1378 Clouds 18 1008 96 0 0.73 6 07:26 14.06.2020
1379 Clouds 18 1008 96 0 1.6 50 06:26 14.06.2020
1380 Clouds 18 1008 96 0 1.6 50 05:40 14.06.2020
1381 Clouds 18 1008 96 0 3.19 88 04:53 14.06.2020
1382 Rain 18 1008 96 0 4.12 88 04:28 14.06.2020
1383 Rain 18 1008 95 0 3.93 87 03:23 14.06.2020
1384 Rain 18 1008 95 0 5.3 88 02:27 14.06.2020
1385 Rain 18 1007 95 0 5.3 88 01:41 14.06.2020
1386 Rain 18 1007 95 0 3.4 88 01:18 14.06.2020
1387 Rain 18 1008 95 0 3.4 88 00:38 14.06.2020
1388 Rain 18 1008 94 0 5.37 69 00:18 14.06.2020
1389 Rain 18 1008 94 0 5.37 69 23:43 13.06.2020
1390 Rain 18 1008 94 0 6.25 71 23:23 13.06.2020
1391 Rain 18 1008 94 0 6.25 71 22:57 13.06.2020
1392 Rain 18 1008 94 0 6.25 71 22:37 13.06.2020
1393 Rain 18 1008 94 0 6.25 71 22:37 13.06.2020
1394 Rain 19 1011 86 0 1.34 108 22:18 13.06.2020
1395 Rain 19 1011 86 0 1.34 108 22:18 13.06.2020
1396 Rain 19 1011 86 0 1.34 108 22:18 13.06.2020
1397 Rain 19 1011 86 0 1.34 112 21:55 13.06.2020
1398 Rain 19 1011 86 0 0.89 119 21:37 13.06.2020
1399 Rain 19 1007 92 0 5.65 55 21:18 13.06.2020
1400 Rain 19 1010 88 10000 3.6 70 20:42 13.06.2020
1401 Rain 19 1010 88 10000 3.6 70 20:42 13.06.2020
1402 Rain 19 1010 88 10000 3.6 70 20:19 13.06.2020
1403 Rain 19 1010 88 10000 3.6 70 19:57 13.06.2020
1404 Rain 20 1010 82 10000 5.7 80 19:36 13.06.2020
1405 Rain 20 1010 82 10000 5.7 80 19:18 13.06.2020
1406 Clouds 21 1010 88 10000 4.6 70 18:55 13.06.2020
1407 Clouds 21 1010 88 3800 2.6 0 18:37 13.06.2020
1408 Thunderstorm 21 1010 83 10000 2.1 0 18:18 13.06.2020
1409 Thunderstorm 23 1009 73 10000 2.6 340 17:42 13.06.2020
1410 Thunderstorm 23 1009 73 10000 2.6 340 17:23 13.06.2020
1411 Clouds 24 1009 64 10000 3.6 280 16:58 13.06.2020
1412 Thunderstorm 24 1009 60 10000 4.1 260 16:40 13.06.2020
1413 Rain 25 1009 60 10000 4.1 260 16:19 13.06.2020
1414 Clouds 26 1010 57 10000 2.1 70 15:59 13.06.2020
1415 Clouds 26 1010 57 10000 3.6 90 15:39 13.06.2020
1416 Clouds 27 1010 57 10000 3.6 90 15:20 13.06.2020
1417 Clouds 27 1010 58 10000 2.6 0 14:43 13.06.2020
1418 Clouds 27 1010 58 10000 2.6 0 14:22 13.06.2020
1419 Rain 27 1010 61 10000 2.6 40 13:56 13.06.2020
1420 Rain 27 1011 61 10000 3.1 40 13:37 13.06.2020
1421 Rain 26 1011 65 10000 2.6 60 13:18 13.06.2020
1422 Clouds 26 1011 65 10000 3.1 0 12:43 13.06.2020
1423 Clouds 26 1011 65 10000 3.1 0 12:25 13.06.2020
1424 Clouds 24 1011 69 10000 2.6 0 11:57 13.06.2020
1425 Rain 23 1011 73 10000 2.6 80 11:37 13.06.2020
1426 Rain 24 1011 73 10000 2.6 80 11:19 13.06.2020
1427 Rain 23 1011 83 10000 2.1 90 10:54 13.06.2020
1428 Clouds 22 1011 77 10000 3.1 90 10:28 13.06.2020
1429 Clouds 22 1011 77 10000 3.6 100 09:57 13.06.2020
1430 Rain 23 1010 78 0 1.79 47 09:39 13.06.2020
1431 Clouds 21 1009 82 0 0.89 99 09:20 13.06.2020
1432 Clouds 19 1008 68 0 1.79 71 08:46 13.06.2020
1433 Clouds 19 1008 68 0 1.79 71 08:27 13.06.2020
1434 Clouds 18 1010 88 0 2.68 78 07:45 13.06.2020
1435 Clouds 18 1008 64 0 1.79 104 07:27 13.06.2020
1436 Clouds 17 1007 93 0 2 67 06:47 13.06.2020
1437 Clouds 17 1007 92 0 2.05 74 06:27 13.06.2020
1438 Clouds 17 1007 91 0 2.05 74 05:36 13.06.2020
1439 Clouds 17 1007 90 0 2.4 74 04:55 13.06.2020
1440 Clear 17 1007 88 0 2.46 76 03:46 13.06.2020
1441 Clear 18 1007 87 0 2.74 77 02:53 13.06.2020
1442 Clear 18 1008 42 0 1.79 105 02:25 13.06.2020
1443 Clear 19 1007 39 0 1.34 125 01:37 13.06.2020
1444 Clear 19 1007 33 0 2.24 121 01:18 13.06.2020
1445 Clear 19 1007 33 0 2.24 121 00:39 13.06.2020
1446 Clear 19 1007 33 0 2.24 121 00:21 13.06.2020
1447 Clear 20 1007 29 0 2.24 113 23:41 12.06.2020
1448 Clear 21 1007 25 0 3.79 83 23:19 12.06.2020
1449 Clear 21 1008 72 0 0.45 119 22:56 12.06.2020
1450 Clear 21 1005 80 0 0.45 158 22:38 12.06.2020
1451 Clear 21 1008 71 0 3.96 75 22:19 12.06.2020
1452 Clear 22 1011 71 0 0.45 89 21:47 12.06.2020
1453 Clear 23 1009 67 0 2.68 77 21:24 12.06.2020
1454 Clear 25 998 37 0 3.04 77 20:58 12.06.2020
1455 Clear 25 998 37 0 3.04 77 20:39 12.06.2020
1456 Clear 25 998 37 0 3.04 77 20:39 12.06.2020
1457 Rain 26 1009 60 0 2.24 83 20:21 12.06.2020
1458 Clouds 26 1009 47 10000 4.6 100 19:56 12.06.2020
1459 Clouds 26 1009 47 10000 4.6 100 19:38 12.06.2020
1460 Clouds 26 1009 47 10000 4.6 100 19:18 12.06.2020
1461 Clouds 26 1009 50 10000 4.1 90 18:39 12.06.2020
1462 Clouds 26 1009 50 10000 4.1 90 18:18 12.06.2020
1463 Clouds 25 1009 53 10000 5.7 90 17:54 12.06.2020
1464 Clouds 25 1010 60 10000 5.7 90 17:36 12.06.2020
1465 Clouds 25 1010 60 10000 5.7 90 17:18 12.06.2020
1466 Clouds 25 1010 60 10000 4.6 90 16:40 12.06.2020
1467 Clouds 25 1010 60 10000 4.6 90 16:19 12.06.2020
1468 Clouds 24 1010 68 10000 5.1 90 15:47 12.06.2020
1469 Clouds 24 1010 68 10000 5.1 90 15:25 12.06.2020
1470 Clouds 23 1010 68 10000 4.1 80 14:56 12.06.2020
1471 Clouds 23 1010 77 10000 4.1 80 14:38 12.06.2020
1472 Clouds 22 1010 77 10000 4.1 80 14:20 12.06.2020
1473 Clouds 22 1011 77 10000 4.6 90 13:42 12.06.2020
1474 Clouds 22 1011 77 10000 4.6 90 13:21 12.06.2020
1475 Clouds 21 1011 82 10000 3.6 90 12:41 12.06.2020
1476 Clouds 21 1011 82 10000 3.6 90 12:41 12.06.2020
1477 Clouds 20 1011 82 10000 3.6 90 12:20 12.06.2020
1478 Clouds 20 1011 82 10000 3.6 90 11:58 12.06.2020
1479 Clouds 20 1011 93 10000 2.6 100 11:40 12.06.2020
1480 Clouds 19 1011 93 10000 2.6 100 11:21 12.06.2020
1481 Clouds 18 1012 93 10000 3.1 100 10:46 12.06.2020
1482 Mist 17 1011 93 4500 3.1 100 10:25 12.06.2020
1483 Clouds 19 1010 86 0 3.95 95 09:47 12.06.2020
1484 Clouds 16 1008 95 0 4 82 09:22 12.06.2020
1485 Clouds 16 1008 95 0 4.2 90 08:46 12.06.2020
1486 Clouds 16 1008 95 0 3.51 89 08:25 12.06.2020
1487 Clouds 16 1008 95 0 3.51 89 07:57 12.06.2020
1488 Clouds 16 1008 95 0 3.51 89 07:39 12.06.2020
1489 Clouds 16 1008 95 0 3 88 07:21 12.06.2020
1490 Clouds 16 1008 94 0 3 88 06:38 12.06.2020
1491 Clouds 16 1009 93 0 0.45 63 06:19 12.06.2020
1492 Clouds 16 1009 93 0 0.89 47 05:47 12.06.2020
1493 Clouds 16 1008 94 0 3.04 76 05:20 12.06.2020
1494 Clouds 16 1008 93 0 2.63 70 03:43 12.06.2020
1495 Clouds 16 1008 92 0 1.94 69 02:24 12.06.2020
1496 Clouds 16 1008 92 0 1.94 69 01:33 12.06.2020
1497 Clouds 16 1008 91 0 1.77 63 00:58 12.06.2020
1498 Clouds 16 1008 90 0 1.77 63 00:38 12.06.2020
1499 Clouds 16 1008 90 0 2.11 61 00:20 12.06.2020
1500 Clouds 16 1008 90 0 2.11 61 00:20 12.06.2020
1501 Clouds 16 1008 89 0 2.11 61 23:56 11.06.2020
1502 Clouds 16 1008 89 0 2.11 61 23:37 11.06.2020
1503 Clouds 16 1010 88 0 0.45 44 23:19 11.06.2020
1504 Clouds 16 1010 87 0 2.6 62 22:54 11.06.2020
1505 Clouds 16 1010 87 0 2.6 62 22:36 11.06.2020
1506 Clouds 16 1010 87 0 0.45 44 22:18 11.06.2020
1507 Clouds 17 1008 86 0 2.88 52 21:42 11.06.2020
1508 Clouds 18 1011 85 0 0.89 47 21:20 11.06.2020
1509 Rain 18 1011 84 0 0.89 16 20:57 11.06.2020
1510 Rain 18 1011 83 0 0.89 0 20:38 11.06.2020
1511 Clouds 18 1011 82 10000 1.5 0 20:20 11.06.2020
1512 Clouds 19 1011 82 10000 1.5 0 19:43 11.06.2020
1513 Clouds 19 1011 82 10000 1.5 0 19:22 11.06.2020
1514 Clouds 18 1011 88 10000 1.5 0 18:54 11.06.2020
1515 Clouds 18 1011 88 10000 1.5 0 18:36 11.06.2020
1516 Clouds 18 1011 88 10000 2.1 80 18:18 11.06.2020
1517 Clouds 18 1011 88 10000 2.1 80 17:55 11.06.2020
1518 Clouds 18 1011 88 10000 2.1 80 17:37 11.06.2020
1519 Clouds 18 1011 82 10000 2.1 80 17:18 11.06.2020
1520 Clouds 18 1011 82 10000 1.5 0 16:42 11.06.2020
1521 Clouds 18 1011 82 10000 2.1 110 16:23 11.06.2020
1522 Clouds 17 1011 82 10000 1.5 0 15:58 11.06.2020
1523 Clouds 17 1011 82 10000 1.5 0 15:39 11.06.2020
1524 Clouds 17 1011 87 10000 1 0 15:21 11.06.2020
1525 Clouds 17 1011 87 10000 1.5 0 14:46 11.06.2020
1526 Clouds 17 1011 82 10000 1 0 14:21 11.06.2020
1527 Clouds 17 1011 82 10000 2.1 60 13:57 11.06.2020
1528 Clouds 17 1011 82 10000 2.1 60 13:39 11.06.2020
1529 Clouds 17 1011 82 10000 1.5 0 13:21 11.06.2020
1530 Clouds 16 1011 82 10000 1 0 12:59 11.06.2020
1531 Clouds 16 1011 87 10000 1.5 0 12:39 11.06.2020
1532 Clouds 16 1011 87 10000 1.5 0 12:20 11.06.2020
1533 Clouds 15 1011 87 10000 1.75 333 11:59 11.06.2020
1534 Clouds 15 1011 87 10000 1.75 333 11:40 11.06.2020
1535 Clouds 15 1011 87 10000 0.5 0 11:22 11.06.2020
1536 Clouds 14 1011 87 10000 1 0 10:57 11.06.2020
1537 Clouds 14 1011 87 10000 1 0 10:39 11.06.2020
1538 Clouds 14 1011 87 10000 1 0 10:39 11.06.2020
1539 Clouds 14 1011 87 10000 1.22 329 10:18 11.06.2020
1540 Clouds 14 1011 87 10000 1.22 329 09:43 11.06.2020
1541 Rain 14 1009 48 0 1.59 3 09:25 11.06.2020
1542 Clouds 13 1011 82 10000 1.59 3 08:44 11.06.2020
1543 Clouds 13 1011 82 10000 1.59 1 08:21 11.06.2020
1544 Clouds 13 1011 82 10000 1.59 1 07:59 11.06.2020
1545 Clouds 13 1011 82 10000 1.59 1 07:41 11.06.2020
1546 Clouds 13 1011 82 10000 1.59 1 07:41 11.06.2020
1547 Rain 13 1008 90 0 1.7 3 07:22 11.06.2020
1548 Rain 13 1008 89 0 1.7 3 06:31 11.06.2020
1549 Rain 13 1008 88 0 1.66 16 05:54 11.06.2020
1550 Rain 13 1009 86 0 1.43 12 04:37 11.06.2020
1551 Clouds 14 1009 82 0 1.53 42 03:25 11.06.2020
1552 Clouds 14 1009 81 0 1.53 42 02:46 11.06.2020
1553 Clouds 14 1013 67 10000 1 0 01:56 11.06.2020
1554 Clouds 15 1013 67 10000 1 0 01:35 11.06.2020
1555 Clouds 15 1013 62 10000 1 0 00:57 11.06.2020
1556 Clouds 15 1012 69 0 0.89 85 00:38 11.06.2020
1557 Clouds 15 1010 71 0 2.63 39 00:19 11.06.2020
1558 Clouds 16 1012 66 0 2.63 39 23:40 10.06.2020
1559 Clouds 16 1012 64 0 0.89 64 23:21 10.06.2020
1560 Clouds 17 1009 65 0 2.91 46 22:54 10.06.2020
1561 Clouds 17 1012 62 0 2.24 53 22:36 10.06.2020
1562 Clouds 18 1012 45 10000 2.6 50 22:18 10.06.2020
1563 Clouds 18 1012 45 10000 2.6 50 21:55 10.06.2020
1564 Clouds 18 1012 45 10000 2.6 50 21:37 10.06.2020
1565 Clouds 19 1012 45 10000 2.6 50 21:18 10.06.2020
1566 Clouds 19 1012 42 10000 3.1 30 20:54 10.06.2020
1567 Clouds 19 1012 42 10000 3.1 30 20:36 10.06.2020
1568 Clouds 20 1012 40 10000 2.1 40 20:18 10.06.2020
1569 Clouds 20 1012 42 10000 2.6 30 19:38 10.06.2020
1570 Rain 21 1012 40 10000 2.6 60 19:18 10.06.2020
1571 Rain 20 1013 42 10000 2.1 40 18:56 10.06.2020
1572 Rain 20 1013 42 10000 2.1 40 18:37 10.06.2020
1573 Rain 21 1013 37 10000 3.1 50 18:19 10.06.2020
1574 Rain 21 1013 40 10000 2.6 40 17:55 10.06.2020
1575 Rain 22 1013 40 10000 2.6 40 17:36 10.06.2020
1576 Clouds 22 1013 37 10000 3.6 20 17:18 10.06.2020
1577 Clouds 22 1014 43 10000 3.6 80 16:55 10.06.2020
1578 Clouds 22 1014 43 10000 3.6 80 16:37 10.06.2020
1579 Clouds 22 1014 43 10000 3.1 50 16:18 10.06.2020
1580 Clouds 22 1014 43 10000 3.6 30 15:39 10.06.2020
1581 Clouds 22 1014 40 10000 2.6 0 15:21 10.06.2020
1582 Clouds 22 1014 37 10000 4.1 70 14:56 10.06.2020
1583 Clouds 22 1014 37 10000 4.1 70 14:37 10.06.2020
1584 Clouds 22 1014 40 10000 3.1 0 14:19 10.06.2020
1585 Clouds 20 1014 42 10000 3.1 50 13:40 10.06.2020
1586 Clouds 21 1015 43 10000 3.1 30 13:21 10.06.2020
1587 Clouds 20 1015 45 10000 3.1 0 12:43 10.06.2020
1588 Clouds 20 1015 45 10000 3.6 0 12:20 10.06.2020
1589 Clouds 19 1015 48 10000 3.1 0 11:57 10.06.2020
1590 Clouds 19 1015 48 10000 3.1 0 11:39 10.06.2020
1591 Clouds 19 1016 52 10000 3.6 40 11:19 10.06.2020
1592 Clouds 18 1016 55 10000 3.1 40 10:56 10.06.2020
1593 Clouds 18 1016 55 10000 3.1 40 10:38 10.06.2020
1594 Clouds 18 1016 63 10000 2.6 360 10:20 10.06.2020
1595 Clouds 17 1016 63 10000 2.1 0 09:41 10.06.2020
1596 Clouds 16 1016 67 10000 1.5 0 09:22 10.06.2020
1597 Clouds 15 1016 72 10000 2.1 40 08:44 10.06.2020
1598 Clouds 14 1016 82 10000 1 0 08:24 10.06.2020
1599 Clouds 14 1013 90 0 2.95 40 07:58 10.06.2020
1600 Clouds 14 1013 90 0 2.95 40 07:38 10.06.2020
1601 Clouds 13 1013 90 0 2.43 33 07:20 10.06.2020
1602 Clouds 13 1013 90 0 2.43 33 06:44 10.06.2020
1603 Clouds 13 1015 93 0 1.71 41 06:22 10.06.2020
1604 Clouds 12 1013 90 0 1.71 41 05:56 10.06.2020
1605 Clouds 13 1013 89 0 1.61 49 05:26 10.06.2020
1606 Clouds 13 1013 89 0 1.61 49 04:35 10.06.2020
1607 Clouds 14 1013 86 0 1.63 44 02:57 10.06.2020
1608 Clouds 14 1013 85 0 1.85 53 02:22 10.06.2020
1609 Clouds 14 1016 89 0 1.85 53 01:37 10.06.2020
1610 Clouds 15 1012 83 0 2.46 58 00:40 10.06.2020
1611 Clouds 15 1016 84 0 2.77 36 00:22 10.06.2020
1612 Clouds 15 1019 77 0 0.45 337 23:57 09.06.2020
1613 Clouds 15 1016 79 0 2.77 36 23:39 09.06.2020
1614 Rain 15 1016 78 0 2.7 33 23:20 09.06.2020
1615 Rain 15 1012 81 0 2.7 33 22:56 09.06.2020
1616 Rain 16 1016 76 0 2.7 33 22:38 09.06.2020
1617 Rain 17 1016 52 10000 1 0 22:20 09.06.2020
1618 Rain 17 1016 52 10000 1 0 21:56 09.06.2020
1619 Rain 17 1016 52 10000 1 0 21:38 09.06.2020
1620 Clouds 17 1016 52 10000 1 0 21:20 09.06.2020
1621 Clouds 18 1016 52 10000 1 0 20:57 09.06.2020
1622 Clouds 18 1016 52 10000 1 0 20:38 09.06.2020
1623 Rain 18 1016 52 10000 1.5 0 20:19 09.06.2020
1624 Rain 19 1016 49 10000 1.5 0 19:57 09.06.2020
1625 Rain 19 1016 49 10000 1.5 0 19:38 09.06.2020
1626 Clouds 20 1016 52 10000 1.5 0 19:20 09.06.2020
1627 Clouds 20 1016 49 10000 2.1 10 18:56 09.06.2020
1628 Clouds 20 1016 49 10000 2.1 10 18:38 09.06.2020
1629 Rain 20 1016 46 10000 2.6 40 18:19 09.06.2020
1630 Rain 21 1016 49 10000 2.6 350 17:55 09.06.2020
1631 Rain 21 1016 49 10000 2.6 350 17:55 09.06.2020
1632 Rain 20 1016 49 10000 2.6 350 17:36 09.06.2020
1633 Rain 21 1016 49 10000 2.6 0 17:18 09.06.2020
1634 Clouds 21 1016 52 10000 2.1 10 16:42 09.06.2020
1635 Clouds 20 1016 52 10000 2.1 10 16:23 09.06.2020
1636 Rain 21 1016 49 10000 1.5 0 15:56 09.06.2020
1637 Rain 20 1016 49 10000 1.5 0 15:38 09.06.2020
1638 Rain 19 1017 49 10000 1 0 15:19 09.06.2020
1639 Clouds 20 1017 49 10000 3.79 17 14:54 09.06.2020
1640 Clouds 20 1017 49 10000 3.79 17 14:36 09.06.2020
1641 Clouds 20 1017 45 10000 1.5 0 14:18 09.06.2020
1642 Clouds 20 1017 43 10000 1.5 0 13:42 09.06.2020
1643 Clouds 20 1017 49 10000 2.1 20 13:21 09.06.2020
1644 Clouds 19 1017 52 10000 2.1 30 12:58 09.06.2020
1645 Clouds 19 1017 52 10000 2.1 30 12:40 09.06.2020
1646 Clouds 19 1017 52 10000 2.1 0 12:18 09.06.2020
1647 Clouds 19 1017 49 10000 2.1 0 11:55 09.06.2020
1648 Clouds 19 1017 49 10000 2.1 0 11:37 09.06.2020
1649 Clouds 19 1017 49 10000 2.1 0 11:19 09.06.2020
1650 Clouds 18 1017 59 10000 2.1 20 10:44 09.06.2020
1651 Clouds 17 1017 59 10000 1 0 10:25 09.06.2020
1652 Clouds 17 1017 76 10000 1.5 0 09:44 09.06.2020
1653 Clouds 14 1017 76 10000 1.5 0 09:25 09.06.2020
1654 Clouds 14 1017 76 10000 1.5 0 09:25 09.06.2020
1655 Clouds 14 1017 76 10000 1.5 0 08:58 09.06.2020
1656 Clouds 13 1017 76 10000 1.5 0 08:39 09.06.2020
1657 Clouds 13 1016 87 10000 0.5 0 08:20 09.06.2020
1658 Clouds 12 1016 93 10000 1 0 07:40 09.06.2020
1659 Clouds 11 1016 93 10000 1 0 07:21 09.06.2020
1660 Clouds 9 1016 93 10000 1.5 300 06:55 09.06.2020
1661 Clouds 9 1016 93 10000 1.5 300 06:36 09.06.2020
1662 Clouds 9 1013 92 0 1.38 301 05:36 09.06.2020
1663 Clouds 9 1013 92 0 1.1 288 03:52 09.06.2020
1664 Clear 10 1013 90 0 0.5 255 02:20 09.06.2020
1665 Clear 10 1013 89 0 0.5 255 01:36 09.06.2020
1666 Clear 10 1013 89 0 0.29 270 01:18 09.06.2020
1667 Clear 11 1013 88 0 0.29 270 00:40 09.06.2020
1668 Clear 11 1013 88 0 0.19 279 00:19 09.06.2020
1669 Clear 12 1012 87 0 0.19 279 23:41 08.06.2020
1670 Clear 12 1012 86 0 0.42 189 23:21 08.06.2020
1671 Clear 12 1012 85 0 0.42 189 22:58 08.06.2020
1672 Clear 13 1012 85 0 0.42 189 22:38 08.06.2020
1673 Clear 13 1012 85 0 0.42 189 22:38 08.06.2020
1674 Rain 14 1012 85 0 0.76 163 22:20 08.06.2020
1675 Rain 15 1012 84 0 0.76 163 21:55 08.06.2020
1676 Clouds 15 1012 83 0 1 146 21:37 08.06.2020
1677 Rain 16 1014 51 10000 2.6 210 21:19 08.06.2020
1678 Rain 16 1014 51 10000 2.6 210 20:55 08.06.2020
1679 Rain 16 1014 51 10000 2.6 210 20:36 08.06.2020
1680 Rain 17 1014 51 10000 2.6 210 20:18 08.06.2020
1681 Clouds 17 1014 55 10000 3.1 210 19:43 08.06.2020
1682 Clouds 17 1014 52 10000 2.6 280 19:21 08.06.2020
1683 Rain 18 1014 48 10000 2.1 320 18:44 08.06.2020
1684 Clouds 19 1014 45 10000 2.1 280 18:21 08.06.2020
1685 Clouds 20 1014 45 10000 3.6 300 17:58 08.06.2020
1686 Clouds 20 1014 45 10000 3.6 300 17:40 08.06.2020
1687 Clouds 19 1014 45 10000 2.6 350 17:22 08.06.2020
1688 Clouds 20 1014 45 10000 3.1 300 16:58 08.06.2020
1689 Clouds 20 1014 45 10000 3.1 300 16:39 08.06.2020
1690 Clouds 20 1014 45 10000 3.1 0 16:21 08.06.2020
1691 Clouds 20 1014 49 10000 2.1 0 15:44 08.06.2020
1692 Clouds 20 1014 52 10000 3.1 320 15:22 08.06.2020
1693 Clouds 20 1014 48 10000 2.6 260 14:58 08.06.2020
1694 Clouds 19 1014 48 10000 2.6 260 14:39 08.06.2020
1695 Clouds 19 1013 52 10000 3.1 290 14:19 08.06.2020
1696 Clouds 19 1013 52 10000 3.6 330 13:44 08.06.2020
1697 Clouds 19 1013 52 10000 3.6 330 13:44 08.06.2020
1698 Clouds 19 1013 52 10000 4.1 300 13:24 08.06.2020
1699 Clouds 19 1013 52 10000 4.6 270 12:44 08.06.2020
1700 Clouds 18 1013 48 10000 4.6 230 12:22 08.06.2020
1701 Clouds 17 1013 55 10000 3.6 250 11:59 08.06.2020
1702 Clouds 17 1013 55 10000 3.6 250 11:41 08.06.2020
1703 Clouds 18 1013 55 10000 2.6 290 11:23 08.06.2020
1704 Rain 18 1013 55 10000 3.1 250 10:58 08.06.2020
1705 Rain 17 1013 55 10000 3.1 250 10:40 08.06.2020
1706 Clear 17 1013 55 10000 2.1 0 10:21 08.06.2020
1707 Clear 17 1013 59 10000 2.1 240 09:58 08.06.2020
1708 Clear 17 1013 59 10000 2.1 240 09:40 08.06.2020
1709 Clouds 15 1013 59 10000 1.5 0 09:22 08.06.2020
1710 Clear 15 1013 67 10000 0.5 0 08:47 08.06.2020
1711 Clear 15 1013 67 10000 0.5 0 08:47 08.06.2020
1712 Clear 14 1013 71 10000 1 0 08:23 08.06.2020
1713 Clear 12 1012 87 10000 1.98 242 07:46 08.06.2020
1714 Clear 11 1012 93 10000 1.67 233 07:24 08.06.2020
1715 Clear 10 1012 87 10000 1.67 233 06:54 08.06.2020
1716 Clear 9 1012 87 10000 1.67 233 06:35 08.06.2020
1717 Clear 9 1009 89 0 1.75 237 05:53 08.06.2020
1718 Clear 10 1009 88 0 1.56 217 04:32 08.06.2020
1719 Clear 11 1010 79 0 0.89 272 02:54 08.06.2020
1720 Clouds 11 1004 74 0 1.65 219 02:25 08.06.2020
1721 Clouds 12 1007 79 0 1.5 238 01:38 08.06.2020
1722 Clouds 12 1007 78 0 1.75 258 00:41 08.06.2020
1723 Clouds 12 1008 84 0 2.23 261 00:18 08.06.2020
1724 Clouds 13 1008 81 0 2.23 261 23:37 07.06.2020
1725 Clouds 13 1008 80 0 2.88 262 23:18 07.06.2020
1726 Clouds 13 1008 76 0 2.88 262 22:55 07.06.2020
1727 Clouds 13 1008 75 0 2.88 262 22:36 07.06.2020
1728 Clouds 14 1008 72 0 3.31 262 22:18 07.06.2020
1729 Clouds 14 1007 68 0 3.31 262 21:57 07.06.2020
1730 Clouds 15 1009 70 0 3.31 262 21:36 07.06.2020
1731 Clouds 15 1007 64 0 2.35 249 21:18 07.06.2020
1732 Clouds 17 1006 56 0 0.45 322 20:39 07.06.2020
1733 Clouds 17 1006 55 0 0.45 302 20:20 07.06.2020
1734 Clouds 18 1006 55 0 2.07 270 19:57 07.06.2020
1735 Clouds 18 1006 54 0 0.45 310 19:38 07.06.2020
1736 Clouds 18 1008 42 10000 6.7 280 19:20 07.06.2020
1737 Clouds 18 1008 42 10000 6.7 280 18:59 07.06.2020
1738 Clouds 18 1008 42 10000 6.7 280 18:38 07.06.2020
1739 Clouds 18 1008 42 10000 6.7 280 18:19 07.06.2020
1740 Clouds 19 1008 37 10000 6.7 250 17:57 07.06.2020
1741 Clouds 19 1008 37 10000 6.7 250 17:38 07.06.2020
1742 Clouds 19 1007 37 10000 6.2 240 17:20 07.06.2020
1743 Clouds 20 1007 37 10000 6.7 240 16:43 07.06.2020
1744 Clouds 19 1007 39 10000 5.7 240 16:21 07.06.2020
1745 Clouds 19 1007 45 10000 5.1 240 15:44 07.06.2020
1746 Clouds 19 1007 45 10000 5.1 240 15:43 07.06.2020
1747 Clouds 18 1007 45 10000 5.7 280 15:22 07.06.2020
1748 Rain 18 1007 48 10000 5.7 280 14:41 07.06.2020
1749 Rain 18 1007 39 10000 5.1 240 14:22 07.06.2020
1750 Rain 19 1006 37 10000 5.1 250 13:55 07.06.2020
1751 Rain 18 1006 39 10000 5.1 240 13:23 07.06.2020
1752 Rain 18 1006 37 10000 6.7 240 12:59 07.06.2020
1753 Rain 18 1006 37 10000 6.7 240 12:40 07.06.2020
1754 Clouds 18 1005 42 10000 5.7 240 12:22 07.06.2020
1755 Clouds 18 1005 39 10000 5.7 240 11:55 07.06.2020
1756 Clouds 18 1005 39 10000 5.7 240 11:37 07.06.2020
1757 Clouds 17 1005 42 10000 6.2 230 11:19 07.06.2020
1758 Clouds 17 1005 42 10000 6.2 230 11:19 07.06.2020
1759 Clouds 18 1005 45 10000 6.2 240 10:45 07.06.2020
1760 Clouds 17 1005 48 10000 6.2 240 10:22 07.06.2020
1761 Clouds 17 1005 48 10000 6.2 240 09:59 07.06.2020
1762 Clear 17 1002 72 0 2.68 206 09:41 07.06.2020
1763 Clouds 15 1004 54 10000 3.6 180 09:21 07.06.2020
1764 Clouds 15 1004 54 10000 3.6 180 08:59 07.06.2020
1765 Clouds 14 1002 93 0 0.89 136 08:40 07.06.2020
1766 Clouds 14 1002 93 0 0.89 136 08:40 07.06.2020
1767 Clouds 14 1002 94 0 0.89 123 08:22 07.06.2020
1768 Clouds 12 1001 95 0 3.2 216 07:41 07.06.2020
1769 Clouds 10 1001 94 0 2.67 204 06:56 07.06.2020
1770 Clouds 11 1001 93 0 2.92 194 06:21 07.06.2020
1771 Clouds 10 1001 93 0 2.63 190 04:49 07.06.2020
1772 Clouds 10 1001 92 0 2.33 188 04:18 07.06.2020
1773 Clouds 10 1001 91 0 2.29 186 02:26 07.06.2020
1774 Clouds 10 1001 91 0 2.1 197 01:40 07.06.2020
1775 Clouds 11 1001 90 0 2.29 197 01:22 07.06.2020
1776 Clouds 11 1001 89 0 2.29 197 00:40 07.06.2020
1777 Clear 11 1000 89 0 2.82 177 00:18 07.06.2020
1778 Clear 11 1000 88 0 2.82 177 23:55 06.06.2020
1779 Clear 11 1000 87 0 2.82 177 23:36 06.06.2020
1780 Clear 12 1000 86 0 3.02 173 23:18 06.06.2020
1781 Clear 11 1000 84 0 3.02 173 22:55 06.06.2020
1782 Clear 12 1000 83 0 3.02 173 22:37 06.06.2020
1783 Clear 13 1000 80 0 1.79 162 22:18 06.06.2020
1784 Clear 13 998 84 0 3.03 176 21:42 06.06.2020
1785 Clear 14 1000 63 0 3.35 186 21:21 06.06.2020
1786 Clouds 14 999 59 0 0.89 221 20:55 06.06.2020
1787 Clouds 14 999 59 0 0.45 221 20:36 06.06.2020
1788 Clouds 16 1002 49 0 2.68 0 20:18 06.06.2020
1789 Clouds 17 1002 53 0 1.34 229 19:56 06.06.2020
1790 Clouds 17 1002 53 0 2.24 220 19:36 06.06.2020
1791 Clouds 16 1001 48 10000 4.1 230 19:18 06.06.2020
1792 Clouds 16 1001 48 10000 4.1 230 18:42 06.06.2020
1793 Clouds 16 1001 48 10000 4.1 230 18:24 06.06.2020
1794 Clouds 16 1001 48 10000 4.6 240 17:57 06.06.2020
1795 Clouds 17 1001 48 10000 4.6 240 17:39 06.06.2020
1796 Clouds 16 1001 51 10000 4.6 240 17:18 06.06.2020
1797 Clouds 16 1001 58 10000 3.6 210 16:40 06.06.2020
1798 Clouds 15 1001 71 10000 1.5 0 16:21 06.06.2020
1799 Rain 14 1001 81 10000 2.6 310 15:56 06.06.2020
1800 Rain 13 1001 81 10000 2.6 310 15:37 06.06.2020
1801 Rain 12 1002 87 10000 6.2 290 15:19 06.06.2020
1802 Rain 15 1001 58 10000 6.2 280 14:43 06.06.2020
1803 Rain 15 1000 41 10000 6.2 230 14:24 06.06.2020
1804 Clouds 17 1000 45 10000 5.7 240 13:58 06.06.2020
1805 Clouds 17 1000 45 10000 5.7 240 13:40 06.06.2020
1806 Clouds 16 1000 47 10000 6.2 230 13:18 06.06.2020
1807 Clouds 16 1000 51 10000 4.1 230 12:43 06.06.2020
1808 Clouds 16 1000 51 10000 5.7 250 12:23 06.06.2020
1809 Clouds 16 1000 51 10000 7.2 240 11:58 06.06.2020
1810 Clouds 16 1000 51 10000 7.2 240 11:39 06.06.2020
1811 Clouds 15 999 54 10000 6.7 240 11:20 06.06.2020
1812 Clouds 15 999 54 10000 6.2 240 10:58 06.06.2020
1813 Clouds 15 999 54 10000 6.2 240 10:58 06.06.2020
1814 Clouds 14 999 54 10000 6.2 240 10:39 06.06.2020
1815 Clouds 14 999 62 10000 6.2 240 10:21 06.06.2020
1816 Clear 14 997 69 0 3.58 192 09:58 06.06.2020
1817 Clear 13 997 72 0 3.58 248 09:40 06.06.2020
1818 Clear 12 998 71 0 4.47 231 09:20 06.06.2020
1819 Clear 12 999 67 0 5.36 342 08:40 06.06.2020
1820 Clouds 12 999 68 0 4.47 345 08:20 06.06.2020
1821 Clouds 11 999 72 0 4.02 0 07:46 06.06.2020
1822 Clouds 10 999 75 0 2.68 0 07:23 06.06.2020
1823 Clouds 10 999 75 0 2.68 0 07:23 06.06.2020
1824 Clouds 9 999 78 0 2.68 0 06:50 06.06.2020
1825 Clouds 9 998 79 0 2.24 0 06:31 06.06.2020
1826 Clouds 8 998 82 0 1.79 0 05:59 06.06.2020
1827 Clouds 8 995 87 0 2.24 210 05:31 06.06.2020
1828 Clouds 8 995 87 0 2.24 210 04:47 06.06.2020
1829 Clear 8 997 89 0 0.45 200 03:28 06.06.2020
1830 -273 0 0 0 0 0 01:58 06.06.2020
1831 Clouds 8 996 90 0 0.89 234 01:21 06.06.2020
1832 Clouds 8 995 89 0 1.34 232 00:56 06.06.2020
1833 Clouds 9 995 89 0 1.34 220 00:37 06.06.2020
1834 Clouds 9 993 88 0 3.13 262 00:19 06.06.2020
1835 Clouds 9 993 87 0 2.68 265 23:39 05.06.2020
1836 Clouds 9 993 88 0 2.68 265 23:19 05.06.2020
1837 Clouds 9 992 87 0 4.02 263 22:56 05.06.2020
1838 Clouds 9 992 87 0 4.47 265 22:37 05.06.2020
1839 Clouds 9 991 87 0 4.92 265 22:19 05.06.2020
1840 Clouds 9 991 87 0 4.92 265 22:19 05.06.2020
1841 Clouds 9 990 88 0 3.13 209 21:43 05.06.2020
1842 Clouds 9 990 88 0 3.13 209 21:43 05.06.2020
1843 Clouds 9 990 88 0 2.68 215 21:23 05.06.2020
1844 Clouds 9 990 88 0 4.02 213 20:58 05.06.2020
1845 Clouds 10 990 88 0 2.68 229 20:40 05.06.2020
1846 Rain 11 989 87 0 3.13 211 20:21 05.06.2020
1847 Rain 11 989 86 0 1.34 211 19:44 05.06.2020
1848 Rain 13 992 48 10000 5.1 200 19:24 05.06.2020
1849 Rain 14 992 48 10000 5.1 200 18:58 05.06.2020
1850 Rain 14 992 48 10000 5.1 200 18:58 05.06.2020
1851 Rain 14 992 48 10000 5.1 200 18:39 05.06.2020
1852 Rain 15 992 48 10000 5.1 200 18:20 05.06.2020
1853 -273 0 0 0 0 0 17:58 05.06.2020
1854 Clouds 16 993 48 10000 6.2 200 17:58 05.06.2020
1855 Clouds 16 993 48 10000 6.2 200 17:40 05.06.2020
1856 Clouds 16 993 48 10000 6.7 220 17:19 05.06.2020
1857 Clouds 17 993 45 10000 8.2 220 16:41 05.06.2020
1858 Clouds 16 993 48 10000 6.7 190 16:23 05.06.2020
1859 Rain 16 994 44 10000 5.1 220 15:57 05.06.2020
1860 Rain 16 994 44 10000 5.1 220 15:38 05.06.2020
1861 Rain 17 994 44 10000 4.6 220 15:20 05.06.2020
1862 Clouds 16 994 48 10000 5.1 220 14:56 05.06.2020
1863 Clouds 16 994 48 10000 5.1 220 14:38 05.06.2020
1864 Clouds 16 994 48 10000 5.1 220 14:19 05.06.2020
1865 Clouds 16 995 47 10000 5.7 210 13:44 05.06.2020
1866 Clouds 15 995 51 10000 5.1 230 13:26 05.06.2020
1867 Clouds 15 995 50 10000 5.1 240 12:55 05.06.2020
1868 Clouds 15 995 50 10000 5.1 240 12:37 05.06.2020
1869 Clouds 14 995 50 10000 5.1 210 12:18 05.06.2020
1870 Clouds 13 996 66 10000 5.7 240 11:42 05.06.2020
1871 Clouds 13 996 66 10000 5.1 250 11:23 05.06.2020
1872 Clouds 12 996 66 10000 6.7 250 10:57 05.06.2020
1873 Clouds 12 996 66 10000 6.7 250 10:39 05.06.2020
1874 Clouds 12 996 71 10000 5.7 280 10:19 05.06.2020
1875 Clouds 12 996 76 10000 6.7 260 09:56 05.06.2020
1876 Clouds 12 996 76 10000 6.7 260 09:37 05.06.2020
1877 Clouds 11 996 81 10000 5.7 250 09:18 05.06.2020
1878 Clouds 11 996 81 10000 5.7 250 08:56 05.06.2020
1879 Clouds 11 996 81 10000 5.7 250 08:38 05.06.2020
1880 Clouds 11 996 81 10000 4.6 260 08:18 05.06.2020
1881 Clouds 10 993 96 0 2.24 224 07:48 05.06.2020
1882 Clouds 10 993 96 0 2.24 264 07:30 05.06.2020
1883 Clouds 9 992 96 0 1.79 270 06:37 05.06.2020
1884 Rain 9 992 96 0 1.34 277 05:22 05.06.2020
1885 Clouds 10 991 96 0 0.89 302 04:27 05.06.2020
1886 Clouds 11 991 96 0 1.34 324 03:29 05.06.2020
1887 Clouds 12 991 96 0 0.45 286 02:28 05.06.2020
1888 Clouds 12 991 96 0 4.91 269 01:58 05.06.2020
1889 Clouds 12 1043 70 0 2.24 320 01:30 05.06.2020
1890 Clouds 12 1043 70 0 2.24 320 00:43 05.06.2020
1891 Clouds 12 991 96 0 0.89 280 00:21 05.06.2020
1892 Clouds 12 991 96 0 0.45 281 23:47 04.06.2020
1893 Clouds 12 1023 69 0 1.79 1 23:29 04.06.2020
1894 Clouds 13 993 87 10000 3.6 280 22:57 04.06.2020
1895 Clouds 13 993 87 10000 3.6 280 22:39 04.06.2020
1896 Clouds 13 993 87 10000 3.6 280 22:21 04.06.2020
1897 Clouds 13 993 87 10000 3.6 280 21:58 04.06.2020
1898 Clouds 14 993 87 10000 3.6 280 21:38 04.06.2020
1899 Rain 14 993 93 10000 3.6 280 21:20 04.06.2020
1900 Rain 14 992 93 10000 2.1 300 20:56 04.06.2020
1901 Rain 14 992 93 10000 2.1 300 20:56 04.06.2020
1902 Rain 14 992 93 10000 2.1 300 20:38 04.06.2020
1903 Rain 15 992 87 10000 5.1 280 20:19 04.06.2020
1904 Clouds 16 992 93 10000 2.6 220 19:55 04.06.2020
1905 Clouds 16 992 93 10000 2.1 210 19:36 04.06.2020
1906 Clouds 16 992 93 10000 2.1 210 19:18 04.06.2020
1907 Clouds 15 992 87 10000 2.1 250 18:38 04.06.2020
1908 Clouds 15 992 93 10000 2.1 250 18:20 04.06.2020
1909 Rain 15 993 93 10000 1.5 0 17:56 04.06.2020
1910 Rain 15 993 93 10000 1.5 0 17:38 04.06.2020
1911 Rain 15 993 93 3300 3.6 290 17:19 04.06.2020
1912 Rain 15 993 93 7000 1 0 16:40 04.06.2020
1913 Rain 15 993 93 7000 1 0 16:20 04.06.2020
1914 Rain 15 993 93 6000 1.5 0 15:46 04.06.2020
1915 Rain 16 994 93 6000 1.5 0 15:27 04.06.2020
1916 Clouds 16 994 93 9000 1.5 0 14:56 04.06.2020
1917 Clouds 16 994 93 9000 1.5 0 14:38 04.06.2020
1918 Drizzle 15 994 93 8000 2.1 350 14:19 04.06.2020
1919 Rain 15 994 93 7000 2.6 320 13:42 04.06.2020
1920 Rain 16 995 87 7000 3.1 280 13:21 04.06.2020
1921 Rain 16 995 87 10000 3.6 270 12:59 04.06.2020
1922 Rain 16 995 87 10000 3.6 270 12:41 04.06.2020
1923 Rain 17 995 77 9000 3.6 260 12:23 04.06.2020
1924 Rain 17 995 72 10000 2.6 210 11:58 04.06.2020
1925 Rain 17 995 72 10000 2.6 210 11:38 04.06.2020
1926 Rain 18 995 63 10000 3.1 180 11:20 04.06.2020
1927 Rain 19 995 63 10000 2.6 170 10:57 04.06.2020
1928 Rain 19 995 63 10000 2.6 170 10:38 04.06.2020
1929 Rain 18 995 68 10000 3.1 180 10:19 04.06.2020
1930 Rain 17 992 89 0 0.45 115 09:43 04.06.2020
1931 Clouds 17 992 90 0 0.45 115 09:24 04.06.2020
1932 Clouds 16 992 94 0 0.45 114 08:46 04.06.2020
1933 Clouds 15 992 94 0 1.34 116 08:27 04.06.2020
1934 Clouds 14 992 95 0 1.47 133 07:52 04.06.2020
1935 Clouds 14 993 94 0 1.32 125 07:29 04.06.2020
1936 Clouds 14 993 94 0 1.32 125 06:44 04.06.2020
1937 Rain 14 993 94 0 1.36 106 06:26 04.06.2020
1938 Rain 14 993 94 0 0.45 138 05:39 04.06.2020
1939 Clouds 14 994 94 0 1.36 137 05:20 04.06.2020
1940 Clouds 14 993 93 0 1.82 160 03:28 04.06.2020
1941 Clouds 14 1001 61 0 1.34 150 01:58 04.06.2020
1942 Clouds 15 1000 82 10000 3.6 140 01:20 04.06.2020
1943 Clouds 15 1000 82 10000 3.6 140 00:51 04.06.2020
1944 Clouds 15 1001 87 10000 3.6 120 23:56 03.06.2020
1945 Clouds 15 1001 87 10000 3.6 120 23:36 03.06.2020
1946 Clouds 16 1002 77 10000 2.1 50 23:18 03.06.2020
1947 Rain 15 1002 77 10000 2.1 0 22:40 03.06.2020
1948 Rain 15 1002 87 10000 3.6 100 22:19 03.06.2020
1949 Rain 15 1003 77 10000 2.1 10 21:59 03.06.2020
1950 Rain 16 1003 77 10000 2.1 10 21:41 03.06.2020
1951 Rain 17 1003 63 10000 1.5 0 21:22 03.06.2020
1952 Rain 19 1002 55 10000 3.1 90 20:58 03.06.2020
1953 Rain 19 1002 55 10000 3.1 90 20:40 03.06.2020
1954 Rain 20 1002 52 10000 5.1 100 20:20 03.06.2020
1955 Rain 21 1001 56 10000 5.1 90 19:57 03.06.2020
1956 Rain 21 1002 52 10000 5.7 90 19:38 03.06.2020
1957 Clouds 21 1002 52 10000 5.7 90 19:20 03.06.2020
1958 Clouds 23 1002 44 10000 5.1 100 18:57 03.06.2020
1959 Clouds 24 1002 44 10000 5.1 100 18:39 03.06.2020
1960 Rain 24 1002 38 10000 5.1 120 18:19 03.06.2020
1961 Rain 25 1002 36 10000 5.1 140 17:44 03.06.2020
1962 Rain 25 1002 38 10000 3.6 80 17:23 03.06.2020
1963 Rain 25 1002 38 10000 3.1 90 16:58 03.06.2020
1964 Rain 25 1002 38 10000 3.1 90 16:39 03.06.2020
1965 Rain 25 1002 36 10000 5.1 90 16:19 03.06.2020
1966 Clouds 24 1003 38 10000 4.6 90 15:55 03.06.2020
1967 Clouds 23 1003 38 10000 4.6 90 15:37 03.06.2020
1968 Thunderstorm 23 1003 46 10000 4.1 170 15:18 03.06.2020
1969 Rain 25 1003 33 10000 3.6 200 14:42 03.06.2020
1970 Rain 24 1004 28 10000 3.1 0 14:23 03.06.2020
1971 Rain 25 1004 30 10000 3.1 0 13:40 03.06.2020
1972 Rain 25 1004 30 10000 3.1 0 13:40 03.06.2020
1973 Rain 26 1004 30 10000 2.6 160 13:21 03.06.2020
1974 Rain 25 1005 31 10000 4.1 180 12:57 03.06.2020
1975 Rain 25 1005 31 10000 4.1 180 12:39 03.06.2020
1976 Rain 25 1005 29 10000 3.6 190 12:19 03.06.2020
1977 Rain 24 1005 31 10000 2.6 170 11:44 03.06.2020
1978 Clouds 24 1005 33 10000 3.6 180 11:25 03.06.2020
1979 Clouds 24 1006 38 10000 2.6 140 10:44 03.06.2020
1980 Clouds 23 1006 43 10000 3.6 110 10:25 03.06.2020
1981 Clouds 22 1006 49 10000 2.6 130 09:58 03.06.2020
1982 Clouds 22 1006 49 10000 2.6 130 09:37 03.06.2020
1983 Clouds 20 1007 56 10000 1 0 09:18 03.06.2020
1984 Clouds 19 1007 67 10000 1.5 90 08:47 03.06.2020
1985 Clouds 17 1007 72 10000 1.5 100 08:22 03.06.2020
1986 Clouds 16 1007 67 10000 2.6 110 07:57 03.06.2020
1987 Clouds 15 1007 76 10000 2.1 100 07:36 03.06.2020
1988 Rain 15 1007 81 10000 2.1 100 07:18 03.06.2020
1989 Rain 13 1007 81 10000 2.1 100 06:44 03.06.2020
1990 Clouds 13 1008 76 10000 1.5 110 06:22 03.06.2020
1991 Clouds 12 1008 76 10000 1.5 110 05:44 03.06.2020
1992 Clouds 12 1005 87 0 1.95 168 04:20 03.06.2020
1993 Clouds 13 1006 86 0 1.95 168 03:41 03.06.2020
1994 Clouds 13 1007 84 0 2.27 158 02:34 03.06.2020
1995 Clouds 14 1007 83 0 2.01 141 01:44 03.06.2020
1996 Clouds 15 1008 79 0 2.05 115 00:39 03.06.2020
1997 Clouds 15 1008 79 0 1.96 103 00:19 03.06.2020
1998 Clouds 16 1008 77 0 1.96 103 23:45 02.06.2020
1999 Clouds 16 1008 75 0 1.11 141 23:27 02.06.2020
2000 Clouds 18 1012 49 10000 1.11 141 22:55 02.06.2020
2001 Clouds 19 1012 49 10000 1.11 141 22:36 02.06.2020
2002 Clouds 19 1012 49 10000 0.44 145 22:18 02.06.2020
2003 Clouds 20 1012 49 10000 0.44 145 21:54 02.06.2020
2004 Clouds 20 1012 49 10000 0.44 145 21:36 02.06.2020
2005 Clouds 21 1012 49 10000 0.44 353 21:18 02.06.2020
2006 Clouds 24 1013 33 10000 1 0 20:42 02.06.2020
2007 Clouds 24 1013 33 10000 1 0 20:23 02.06.2020
2008 Clouds 24 1013 33 10000 1 0 20:23 02.06.2020
2009 Clouds 24 1013 33 10000 1.5 0 19:59 02.06.2020
2010 Clouds 25 1013 33 10000 1.5 0 19:40 02.06.2020
2011 Clouds 25 1013 29 10000 1.5 0 19:22 02.06.2020
2012 Clouds 26 1014 28 10000 1 0 18:55 02.06.2020
2013 Clouds 27 1014 28 10000 1 0 18:37 02.06.2020
2014 Clouds 26 1014 27 10000 2.1 0 18:19 02.06.2020
2015 Clouds 26 1015 27 10000 2.1 80 17:42 02.06.2020
2016 Clouds 26 1015 27 10000 2.1 0 17:23 02.06.2020
2017 Clouds 26 1016 26 10000 1.5 0 16:57 02.06.2020
2018 Clouds 26 1016 26 10000 1.5 0 16:38 02.06.2020
2019 Clouds 26 1016 27 10000 1.5 0 16:20 02.06.2020
2020 Clouds 25 1017 27 10000 3.1 0 15:54 02.06.2020
2021 Clouds 25 1017 27 10000 3.1 0 15:36 02.06.2020
2022 Clouds 25 1017 27 10000 2.1 0 15:18 02.06.2020
2023 Clouds 25 1018 27 10000 2.6 120 14:42 02.06.2020
2024 Clouds 24 1018 31 10000 1.5 0 14:22 02.06.2020
2025 Clouds 24 1018 31 10000 2.6 80 13:40 02.06.2020
2026 Clouds 24 1019 33 10000 3.1 0 13:19 02.06.2020
2027 Clouds 24 1019 31 10000 2.1 0 12:59 02.06.2020
2028 Clouds 24 1019 31 10000 2.1 0 12:40 02.06.2020
2029 Clear 23 1020 31 10000 1.5 0 12:21 02.06.2020
2030 Clear 22 1020 35 10000 3.6 80 11:59 02.06.2020
2031 Clear 21 1020 35 10000 3.6 80 11:39 02.06.2020
2032 Clear 22 1020 35 10000 2.6 140 11:20 02.06.2020
2033 Clear 21 1020 40 10000 2.1 0 10:48 02.06.2020
2034 Clear 21 1021 40 10000 2.1 130 10:28 02.06.2020
2035 Clear 19 1021 42 10000 2.1 140 09:59 02.06.2020
2036 Clear 19 1021 42 10000 2.1 140 09:40 02.06.2020
2037 Clear 18 1021 45 10000 2.1 150 09:20 02.06.2020
2038 Clouds 17 1021 48 10000 1.5 0 08:51 02.06.2020
2039 Clouds 16 1023 61 0 1.34 130 08:23 02.06.2020
2040 Clouds 15 1021 59 0 1.34 77 07:53 02.06.2020
2041 Clouds 14 1021 63 0 0.45 103 07:30 02.06.2020
2042 Clouds 11 1020 79 0 2.16 105 06:51 02.06.2020
2043 Clouds 10 1018 87 0 2.16 105 06:31 02.06.2020
2044 Clear 10 1018 83 0 2.4 94 05:28 02.06.2020
2045 Clear 11 1018 79 0 1.81 96 03:53 02.06.2020
2046 Clear 12 1019 74 0 1.92 117 02:30 02.06.2020
2047 Clear 12 1018 71 0 1.92 117 01:43 02.06.2020
2048 Clear 15 1018 68 0 3 89 00:27 02.06.2020
2049 Clear 14 1018 66 0 3 89 23:59 01.06.2020
2050 Clear 15 1018 64 0 3 89 23:38 01.06.2020
2051 Clear 17 1017 59 0 3.26 77 23:19 01.06.2020
2052 Clear 17 1017 55 0 3.26 77 22:56 01.06.2020
2053 Clouds 17 1021 32 10000 3.1 60 22:38 01.06.2020
2054 Clear 18 1017 50 0 3.6 63 22:18 01.06.2020
2055 Clouds 19 1021 32 10000 3.1 60 21:41 01.06.2020
2056 Clear 20 1020 42 0 1.34 78 21:21 01.06.2020
2057 Clear 21 1017 41 0 3.4 70 20:59 01.06.2020
2058 Clouds 24 1021 23 10000 5.7 60 20:41 01.06.2020
2059 Clear 23 1020 40 0 1.34 31 20:20 01.06.2020
2060 Clouds 24 1021 23 10000 5.7 60 19:58 01.06.2020
2061 Clouds 24 1022 23 10000 4.6 40 19:39 01.06.2020
2062 Clear 24 1022 29 10000 4.1 100 19:20 01.06.2020
2063 Clear 24 1022 29 10000 4.1 100 18:57 01.06.2020
2064 Clear 24 1022 29 10000 4.1 100 18:38 01.06.2020
2065 Clear 24 1022 29 10000 4.1 100 18:19 01.06.2020
2066 Clear 24 1022 29 10000 3.6 80 17:41 01.06.2020
2067 Clear 24 1022 31 10000 3.1 0 17:21 01.06.2020
2068 Clear 23 1023 33 10000 4.1 80 16:58 01.06.2020
2069 Clear 23 1023 33 10000 4.1 80 16:39 01.06.2020
2070 Clear 23 1023 31 10000 3.6 0 16:19 01.06.2020
2071 Clear 23 1023 33 10000 4.1 0 15:54 01.06.2020
2072 Clear 23 1023 33 10000 4.1 0 15:36 01.06.2020
2073 Clear 23 1023 33 10000 4.1 90 15:18 01.06.2020
2074 Clear 23 1023 33 10000 4.1 90 15:18 01.06.2020
2075 Clear 22 1023 35 10000 3.1 0 14:54 01.06.2020
2076 Clear 22 1023 35 10000 3.1 0 14:36 01.06.2020
2077 Clear 21 1024 40 10000 3.1 120 14:18 01.06.2020
2078 Clear 21 1024 40 10000 4.6 90 13:41 01.06.2020
2079 Clear 21 1024 40 10000 4.6 90 13:21 01.06.2020
2080 Clear 21 1024 43 10000 3.1 90 12:58 01.06.2020
2081 Clear 20 1025 45 10000 3.1 90 12:39 01.06.2020
2082 Clear 20 1025 45 10000 3.1 90 12:39 01.06.2020
2083 Clear 19 1025 45 10000 3.1 90 12:20 01.06.2020
2084 Clear 19 1025 48 10000 3.1 70 11:56 01.06.2020
2085 Clear 18 1025 55 10000 2.6 40 11:36 01.06.2020
2086 Clear 18 1025 55 10000 2.6 40 11:18 01.06.2020
2087 Clear 17 1025 59 10000 2.1 0 10:39 01.06.2020
2088 Clear 17 1025 59 10000 2.1 0 10:20 01.06.2020
2089 Clear 15 1025 62 10000 1.5 0 09:58 01.06.2020
2090 Clear 17 1024 73 0 2.99 73 09:40 01.06.2020
2091 Clear 14 1025 62 7000 3.6 80 09:20 01.06.2020
2092 Clear 13 1027 73 0 0.89 130 08:52 01.06.2020
2093 Clear 13 1020 70 0 0.89 106 08:30 01.06.2020
2094 Clear 11 1022 90 0 2.59 74 07:57 01.06.2020
2095 Clear 10 1022 90 0 2.59 74 07:38 01.06.2020
2096 Clear 9 1024 79 0 1.34 329 07:20 01.06.2020
2097 Clear 8 1024 80 0 2.38 70 06:49 01.06.2020
2098 Clear 6 1021 85 0 2.18 71 05:54 01.06.2020
2099 Clear 7 1021 82 0 2.06 72 04:50 01.06.2020
2100 Clear 7 1021 80 0 2.16 72 03:55 01.06.2020
2101 Clear 7 1021 79 0 2.16 72 03:35 01.06.2020
2102 Clear 10 1026 66 0 0.45 336 02:34 01.06.2020
2103 Clouds 10 1021 69 0 3.16 64 01:38 01.06.2020
2104 Clouds 11 1021 66 0 0.45 67 01:18 01.06.2020
2105 Clouds 12 1020 61 0 3.56 57 00:40 01.06.2020
2106 Clouds 13 1026 59 0 0.45 333 00:21 01.06.2020
2107 Clouds 13 1026 59 0 0.45 333 00:21 01.06.2020
2108 Clouds 13 1020 53 0 3.97 53 23:59 31.05.2020
2109 Clouds 14 1017 56 0 0.45 45 23:40 31.05.2020
2110 Clouds 15 1019 53 0 4.38 49 23:22 31.05.2020
2111 Clouds 15 1017 56 0 0.89 57 22:58 31.05.2020
2112 Clouds 15 1017 56 0 0.89 57 22:58 31.05.2020
2113 Clouds 16 1023 37 10000 5.1 40 22:40 31.05.2020
2114 Clouds 17 1019 55 0 0.45 237 22:21 31.05.2020
2115 Clouds 17 1019 52 0 1.34 96 21:57 31.05.2020
2116 Clouds 18 1022 32 10000 4.1 40 21:38 31.05.2020
2117 Clouds 19 1021 47 0 0.45 57 21:20 31.05.2020
2118 Clear 20 1022 37 10000 4.6 30 20:42 31.05.2020
2119 Clouds 20 1021 46 0 1.79 53 20:24 31.05.2020
2120 Clouds 21 1017 40 0 0.45 176 19:56 31.05.2020
2121 Clouds 22 1022 35 10000 4.6 40 19:37 31.05.2020
2122 Clouds 21 1022 35 10000 3.6 80 19:19 31.05.2020
2123 Clouds 22 1022 35 10000 3.6 80 18:44 31.05.2020
2124 Clouds 22 1022 35 10000 3.6 80 18:25 31.05.2020
2125 Clouds 22 1022 35 10000 3.1 30 17:59 31.05.2020
2126 Clouds 21 1022 33 10000 2.6 0 17:40 31.05.2020
2127 Clouds 21 1022 33 10000 2.6 0 17:20 31.05.2020
2128 Clouds 21 1022 37 10000 4.1 70 16:41 31.05.2020
2129 Clouds 21 1022 37 10000 4.1 70 16:21 31.05.2020
2130 Clouds 21 1022 37 10000 3.6 70 15:56 31.05.2020
2131 Clouds 20 1022 40 10000 3.1 0 15:37 31.05.2020
2132 Clouds 20 1022 40 10000 3.1 0 15:18 31.05.2020
2133 Clouds 19 1023 45 10000 2.1 0 14:41 31.05.2020
2134 Clouds 19 1023 45 10000 2.1 0 14:19 31.05.2020
2135 Clouds 18 1023 45 10000 4.1 80 13:56 31.05.2020
2136 Clouds 18 1023 45 10000 2.6 40 13:37 31.05.2020
2137 Clouds 18 1023 45 10000 2.6 40 13:19 31.05.2020
2138 Clouds 19 1023 45 10000 3.6 30 12:54 31.05.2020
2139 Clouds 19 1023 48 10000 3.1 0 12:36 31.05.2020
2140 Clouds 17 1023 48 10000 3.1 10 12:18 31.05.2020
2141 Clouds 16 1024 55 10000 3.1 360 11:42 31.05.2020
2142 Clouds 16 1024 55 10000 3.1 360 11:21 31.05.2020
2143 Clouds 15 1024 54 10000 2.1 0 10:46 31.05.2020
2144 Clouds 15 1024 58 10000 2.1 40 10:28 31.05.2020
2145 Clouds 14 1024 58 10000 2.6 40 09:59 31.05.2020
2146 Clouds 15 1022 69 0 4.55 36 09:41 31.05.2020
2147 Clouds 12 1034 31 0 1.34 102 09:21 31.05.2020
2148 Clouds 12 1034 31 0 1.34 102 08:56 31.05.2020
2149 Clouds 12 1034 31 0 1.34 102 08:36 31.05.2020
2150 Clouds 11 1046 37 0 3.03 28 08:18 31.05.2020
2151 Clouds 10 1046 37 0 3.03 28 07:39 31.05.2020
2152 Clouds 9 1021 86 0 2.15 24 07:18 31.05.2020
2153 Clouds 8 1021 86 0 2.15 24 06:49 31.05.2020
2154 Clouds 8 1021 86 0 2.15 24 06:31 31.05.2020
2155 Clouds 7 1043 32 0 1.34 71 05:41 31.05.2020
2156 Clouds 7 1035 28 0 2.75 47 04:25 31.05.2020
2157 Clouds 8 1021 81 0 2.75 47 03:48 31.05.2020
2158 Clouds 9 1021 81 0 2.92 46 02:59 31.05.2020
2159 Clouds 9 1021 81 0 3.21 44 01:48 31.05.2020
2160 Clouds 9 1021 80 0 3.61 45 01:19 31.05.2020
2161 Clouds 10 1021 78 0 3.61 45 00:30 31.05.2020
2162 Clouds 11 1020 75 0 3.52 39 23:56 30.05.2020
2163 Clouds 11 1021 74 0 3.52 39 23:38 30.05.2020
2164 Clouds 12 1021 73 0 3.46 48 23:19 30.05.2020
2165 Clouds 12 1019 60 0 3.46 48 22:41 30.05.2020
2166 Clouds 14 1019 59 0 3.35 52 22:23 30.05.2020
2167 Clouds 16 1023 39 10000 3.1 80 21:56 30.05.2020
2168 Clouds 16 1023 39 10000 3.1 80 21:37 30.05.2020
2169 Clear 16 1023 39 10000 3.1 80 21:19 30.05.2020
2170 Clear 17 1023 39 10000 3.1 80 20:56 30.05.2020
2171 Clear 17 1023 39 10000 2.6 70 20:38 30.05.2020
2172 Clouds 17 1023 39 10000 2.6 70 20:20 30.05.2020
2173 Clouds 18 1023 39 10000 2.1 0 19:42 30.05.2020
2174 Clouds 18 1023 39 10000 2.1 0 19:22 30.05.2020
2175 Clouds 18 1023 36 10000 2.6 0 18:46 30.05.2020
2176 Rain 18 1023 39 10000 2.6 0 18:25 30.05.2020
2177 Rain 18 1023 36 10000 2.6 50 17:56 30.05.2020
2178 Rain 19 1023 34 10000 3.1 80 17:37 30.05.2020
2179 Clouds 19 1023 34 10000 3.1 80 17:19 30.05.2020
2180 Clouds 19 1024 34 10000 3.1 70 16:43 30.05.2020
2181 Clouds 19 1024 34 10000 3.1 70 16:23 30.05.2020
2182 Clouds 19 1024 34 10000 3.1 70 15:56 30.05.2020
2183 Clouds 19 1024 34 10000 2.6 60 15:38 30.05.2020
2184 Clouds 19 1024 34 10000 2.6 60 15:19 30.05.2020
2185 Clouds 19 1025 36 10000 3.1 30 14:42 30.05.2020
2186 Clouds 19 1025 36 10000 3.1 30 14:21 30.05.2020
2187 Clouds 19 1025 36 10000 2.6 0 13:42 30.05.2020
2188 Clouds 18 1025 36 10000 2.6 0 13:20 30.05.2020
2189 Clouds 18 1026 44 10000 2.6 350 12:40 30.05.2020
2190 Clouds 17 1026 44 10000 2.6 350 12:20 30.05.2020
2191 Clouds 17 1026 47 10000 2.1 20 11:56 30.05.2020
2192 Clouds 16 1026 47 10000 1.5 0 11:38 30.05.2020
2193 Clouds 16 1026 47 10000 1.5 0 11:20 30.05.2020
2194 Clouds 15 1026 50 10000 2.1 80 10:39 30.05.2020
2195 Clouds 15 1026 50 10000 2.1 80 10:21 30.05.2020
2196 Clouds 14 1026 50 10000 2.1 80 09:48 30.05.2020
2197 Clouds 14 1023 73 0 2.88 51 09:30 30.05.2020
2198 Clouds 14 1023 73 0 2.88 51 09:30 30.05.2020
2199 Clouds 12 1023 87 0 2.24 70 08:47 30.05.2020
2200 Clouds 11 1023 90 0 2.32 73 08:28 30.05.2020
2201 Clouds 9 1024 90 0 2.32 73 07:45 30.05.2020
2202 Clouds 10 1026 76 0 2 78 07:23 30.05.2020
2203 Clouds 8 1023 88 0 2 78 06:41 30.05.2020
2204 Clouds 7 1023 88 0 2.21 77 06:23 30.05.2020
2205 Clouds 7 1023 87 0 2.21 77 05:49 30.05.2020
2206 Clouds 9 1023 84 0 2.04 69 03:39 30.05.2020
2207 Clouds 10 1023 81 0 2.18 74 02:30 30.05.2020
2208 Clouds 11 1023 79 0 1.86 85 01:49 30.05.2020
2209 Clouds 12 1023 78 0 2.18 78 00:38 30.05.2020
2210 Clouds 12 1023 78 0 2.63 83 00:19 30.05.2020
2211 Clouds 12 1023 77 0 2.63 83 23:57 29.05.2020
2212 Clouds 12 1023 76 0 2.63 83 23:38 29.05.2020
2213 Clouds 12 1023 75 0 2.94 81 23:18 29.05.2020
2214 Clouds 14 1027 62 0 2.94 81 22:41 29.05.2020
2215 Clouds 14 1023 68 0 2.59 80 22:20 29.05.2020
2216 Clouds 16 1025 56 0 2.59 80 21:59 29.05.2020
2217 Clouds 19 1026 37 10000 1.5 70 21:39 29.05.2020
2218 Clouds 18 1026 37 10000 1.5 70 21:20 29.05.2020
2219 Clouds 18 1026 37 10000 1.5 70 20:54 29.05.2020
2220 Clouds 18 1026 30 10000 2.1 120 20:36 29.05.2020
2221 Clouds 19 1026 30 10000 1.5 0 20:18 29.05.2020
2222 Clouds 20 1026 30 10000 1.5 0 19:42 29.05.2020
2223 Clouds 20 1026 30 10000 1.5 0 19:23 29.05.2020
2224 Clouds 20 1027 30 10000 2.6 80 18:47 29.05.2020
2225 Clouds 20 1027 30 10000 2.6 80 18:21 29.05.2020
2226 Clouds 20 1027 30 10000 2.6 80 17:57 29.05.2020
2227 Clouds 20 1027 30 10000 2.6 80 17:38 29.05.2020
2228 Clouds 20 1027 30 10000 2.6 80 17:38 29.05.2020
2229 Clouds 20 1027 30 10000 2.6 80 17:20 29.05.2020
2230 Clouds 20 1028 34 10000 2.6 60 16:45 29.05.2020
2231 Clouds 19 1028 34 10000 2.6 60 16:27 29.05.2020
2232 Clouds 20 1028 30 10000 2.6 0 15:58 29.05.2020
2233 Clouds 20 1028 32 10000 4.6 100 15:40 29.05.2020
2234 Clear 20 1028 32 10000 4.6 100 15:20 29.05.2020
2235 Clear 19 1029 36 10000 3.6 100 14:54 29.05.2020
2236 Clear 19 1029 34 10000 4.6 120 14:36 29.05.2020
2237 Clear 19 1029 34 10000 4.6 120 14:18 29.05.2020
2238 Clear 19 1029 39 10000 4.6 100 13:41 29.05.2020
2239 Clear 19 1029 39 10000 4.6 100 13:21 29.05.2020
2240 Clouds 18 1030 42 10000 4.1 0 12:55 29.05.2020
2241 Clouds 18 1030 45 10000 4.1 110 12:37 29.05.2020
2242 Clouds 18 1030 48 10000 3.6 100 12:18 29.05.2020
2243 Clear 17 1030 51 10000 4.6 90 11:42 29.05.2020
2244 Clear 17 1030 51 10000 4.6 90 11:24 29.05.2020
2245 Clear 15 1030 58 10000 2.1 80 10:43 29.05.2020
2246 Clear 15 1030 58 10000 2.1 80 10:24 29.05.2020
2247 Clear 15 1030 54 10000 1 0 09:58 29.05.2020
2248 Clear 14 1030 58 10000 2.1 110 09:40 29.05.2020
2249 Clear 13 1030 58 10000 2.1 110 09:19 29.05.2020
2250 Clear 12 1030 62 10000 2.1 80 08:47 29.05.2020
2251 Clouds 11 1030 71 10000 1.5 80 08:23 29.05.2020
2252 Clouds 10 1029 84 0 0.89 315 07:48 29.05.2020
2253 Clouds 9 1030 82 0 0.45 50 07:29 29.05.2020
2254 Clouds 7 1028 90 0 1.36 62 06:58 29.05.2020
2255 Clouds 8 1029 88 0 1.36 62 06:39 29.05.2020
2256 Clouds 7 1028 88 0 1.13 58 06:21 29.05.2020
2257 Clouds 6 1028 87 0 1.13 58 05:40 29.05.2020
2258 Clouds 9 1027 81 0 2.13 50 02:18 29.05.2020
2259 Clouds 10 1027 79 0 2.56 46 01:27 29.05.2020
2260 Clouds 10 1027 78 0 2.56 46 00:53 29.05.2020
2261 Clouds 11 1027 76 0 2.56 46 00:32 29.05.2020
2262 Clear 11 1027 72 0 2.83 45 23:57 28.05.2020
2263 Clear 12 1027 71 0 2.83 45 23:39 28.05.2020
2264 Clouds 12 1027 69 0 3.28 43 23:18 28.05.2020
2265 Clouds 14 1029 41 10000 1 0 22:42 28.05.2020
2266 Clouds 15 1029 41 10000 1 0 22:24 28.05.2020
2267 Clouds 15 1029 41 10000 1 0 21:56 28.05.2020
2268 Clouds 15 1029 41 10000 1 0 21:56 28.05.2020
2269 Clouds 17 1029 36 10000 2.1 350 21:38 28.05.2020
2270 Clouds 17 1029 36 10000 2.1 350 21:19 28.05.2020
2271 Clouds 17 1029 36 10000 2.1 350 21:19 28.05.2020
2272 Clouds 17 1029 36 10000 2.1 350 20:56 28.05.2020
2273 Clouds 18 1029 32 10000 2.6 360 20:37 28.05.2020
2274 Clouds 18 1029 32 10000 2.6 360 20:18 28.05.2020
2275 Clouds 19 1029 30 10000 3.1 360 19:43 28.05.2020
2276 Clouds 19 1029 30 10000 3.1 360 19:21 28.05.2020
2277 Clouds 19 1030 28 10000 2.6 0 18:58 28.05.2020
2278 Clouds 19 1030 28 10000 3.1 350 18:40 28.05.2020
2279 Clouds 19 1030 28 10000 3.1 350 18:22 28.05.2020
2280 Clouds 20 1030 30 10000 4.1 330 17:41 28.05.2020
2281 Clouds 20 1030 30 10000 4.1 330 17:22 28.05.2020
2282 Clouds 19 1030 32 10000 2.6 0 16:58 28.05.2020
2283 Clouds 19 1030 30 10000 3.1 360 16:38 28.05.2020
2284 Clouds 19 1030 30 10000 3.1 360 16:20 28.05.2020
2285 Clouds 19 1031 32 10000 4.1 0 15:42 28.05.2020
2286 Clouds 19 1031 32 10000 4.1 0 15:24 28.05.2020
2287 Clouds 19 1031 32 10000 2.6 0 14:57 28.05.2020
2288 Clouds 18 1031 32 10000 3.6 360 14:38 28.05.2020
2289 Clouds 18 1031 32 10000 3.6 360 14:20 28.05.2020
2290 Clouds 18 1031 36 10000 3.6 350 13:42 28.05.2020
2291 Clouds 18 1031 36 10000 3.6 350 13:24 28.05.2020
2292 Clouds 16 1032 41 10000 3.6 340 12:42 28.05.2020
2293 Clouds 16 1032 41 10000 3.6 340 12:19 28.05.2020
2294 Clouds 15 1032 47 10000 3.1 320 11:44 28.05.2020
2295 Clouds 15 1032 47 10000 3.1 320 11:26 28.05.2020
2296 Clouds 15 1032 47 10000 3.1 320 11:26 28.05.2020
2297 Clouds 14 1032 54 10000 3.6 350 10:58 28.05.2020
2298 Clouds 14 1032 54 10000 3.1 310 10:39 28.05.2020
2299 Clouds 14 1032 54 10000 3.1 310 10:21 28.05.2020
2300 Clouds 13 1033 58 10000 3.1 330 09:40 28.05.2020
2301 Clear 12 1033 58 10000 3.1 330 09:22 28.05.2020
2302 Clear 11 1033 66 10000 3.1 340 08:52 28.05.2020
2303 Clear 11 1033 71 10000 3.6 330 08:32 28.05.2020
2304 Clear 9 1035 80 0 0.89 325 07:58 28.05.2020
2305 Clear 9 1032 83 0 1.79 296 07:38 28.05.2020
2306 Clear 9 1032 83 0 2.24 288 07:20 28.05.2020
2307 Clear 9 1029 83 0 0.89 319 06:39 28.05.2020
2308 Clear 8 1032 81 0 1.34 322 06:21 28.05.2020
2309 Clear 8 1031 79 0 0.45 320 05:38 28.05.2020
2310 Clear 9 1031 77 0 2.64 329 04:35 28.05.2020
2311 Clear 10 1034 75 0 0.45 355 03:52 28.05.2020
2312 Clear 11 1033 71 10000 3.1 340 02:52 28.05.2020
2313 Clouds 12 1033 71 10000 3.6 330 01:57 28.05.2020
2314 Clouds 13 1033 71 10000 3.1 320 01:35 28.05.2020
2315 Clouds 13 1031 76 0 1.79 338 00:47 28.05.2020
2316 Clouds 14 1031 74 0 0.89 337 00:19 28.05.2020
2317 Clouds 14 1031 74 0 1.79 348 23:55 27.05.2020
2318 Clouds 14 1031 74 0 3.13 339 23:36 27.05.2020
2319 Clouds 15 1030 73 0 1.79 313 23:18 27.05.2020
2320 Clouds 17 1030 52 10000 4.1 350 22:41 27.05.2020
2321 Clouds 17 1030 52 10000 4.1 350 22:23 27.05.2020
2322 Clouds 17 1030 52 10000 4.1 350 21:56 27.05.2020
2323 Clouds 18 1030 52 10000 3.1 350 21:37 27.05.2020
2324 Clouds 18 1030 52 10000 3.1 350 21:19 27.05.2020
2325 Rain 19 1029 49 10000 1.5 0 20:57 27.05.2020
2326 Rain 19 1029 45 10000 2.6 330 20:38 27.05.2020
2327 Rain 19 1029 45 10000 2.6 330 20:18 27.05.2020
2328 Rain 20 1030 40 10000 3.1 310 19:43 27.05.2020
2329 Rain 21 1030 40 10000 3.1 310 19:21 27.05.2020
2330 Rain 22 1030 40 10000 3.1 330 18:45 27.05.2020
2331 Rain 21 1030 40 10000 2.6 330 18:21 27.05.2020
2332 Rain 21 1030 37 10000 3.1 320 17:59 27.05.2020
2333 Rain 22 1031 37 10000 3.6 320 17:40 27.05.2020
2334 Clouds 22 1031 37 10000 3.6 320 17:22 27.05.2020
2335 Clouds 22 1031 33 10000 3.1 290 16:56 27.05.2020
2336 Clouds 22 1031 35 10000 2.1 320 16:38 27.05.2020
2337 Clouds 21 1031 35 10000 2.1 320 16:19 27.05.2020
2338 Clouds 22 1031 35 10000 3.6 310 15:48 27.05.2020
2339 Clouds 22 1031 33 10000 3.6 280 15:22 27.05.2020
2340 Clouds 22 1032 35 10000 3.1 320 14:55 27.05.2020
2341 Clouds 21 1032 37 10000 3.6 280 14:37 27.05.2020
2342 Rain 21 1032 37 10000 3.6 280 14:19 27.05.2020
2343 Rain 21 1032 40 10000 3.1 280 13:41 27.05.2020
2344 Clouds 21 1032 40 10000 3.1 280 13:23 27.05.2020
2345 Clouds 21 1033 49 10000 2.6 290 12:42 27.05.2020
2346 Clouds 20 1033 49 10000 2.6 290 12:24 27.05.2020
2347 -273 0 0 0 0 0 11:58 27.05.2020
2348 Clouds 20 1033 48 10000 4.1 270 11:37 27.05.2020
2349 Clouds 20 1033 48 10000 4.1 270 11:19 27.05.2020
2350 Clouds 20 1033 55 10000 2.6 280 10:55 27.05.2020
2351 Clouds 19 1033 55 10000 3.1 270 10:36 27.05.2020
2352 Clouds 19 1033 55 10000 3.1 270 10:18 27.05.2020
2353 Clouds 17 1033 67 10000 2.1 270 09:40 27.05.2020
2354 Clear 16 1033 67 10000 2.1 270 09:21 27.05.2020
2355 Clear 14 1031 94 0 2.45 259 08:43 27.05.2020
2356 Clouds 13 1033 87 0 2.12 243 08:25 27.05.2020
2357 Clouds 12 1031 94 0 0.45 329 07:59 27.05.2020
2358 Clouds 11 1031 94 0 2.12 243 07:40 27.05.2020
2359 Clouds 10 1031 94 0 2.03 231 07:22 27.05.2020
2360 Clouds 9 1031 92 0 2.03 231 06:43 27.05.2020
2361 Clouds 8 1031 92 0 1.99 240 06:19 27.05.2020
2362 Clouds 8 1031 92 0 1.99 240 05:47 27.05.2020
2363 Clouds 9 1034 90 0 1.84 247 04:20 27.05.2020
2364 Clouds 10 1034 87 10000 0.5 110 02:31 27.05.2020
2365 Clouds 10 1034 93 10000 1.92 247 01:53 27.05.2020
2366 Clouds 10 1034 93 10000 1.92 247 01:53 27.05.2020
2367 Clouds 11 1034 87 10000 1 100 01:25 27.05.2020
2368 Clouds 11 1034 87 10000 1 100 00:46 27.05.2020
2369 Clouds 12 1034 81 10000 1.18 232 00:20 27.05.2020
2370 Clouds 12 1034 81 10000 1.18 232 23:54 26.05.2020
2371 Clouds 12 1034 81 10000 1.18 232 23:36 26.05.2020
2372 Clouds 12 1034 81 10000 0.64 263 23:18 26.05.2020
2373 Clouds 13 1034 71 10000 0.64 263 22:40 26.05.2020
2374 Clouds 14 1034 71 10000 1.1 277 22:21 26.05.2020
2375 Clouds 15 1034 62 10000 0.5 350 21:58 26.05.2020
2376 Clouds 16 1034 59 10000 2.06 303 21:40 26.05.2020
2377 Clouds 16 1034 59 10000 1.48 274 21:21 26.05.2020
2378 Clear 18 1031 68 0 2.05 291 20:56 26.05.2020
2379 Clear 18 1031 66 0 2.05 291 20:37 26.05.2020
2380 Clouds 19 1034 45 10000 2.6 340 20:19 26.05.2020
2381 Clouds 20 1034 45 10000 2.6 340 19:40 26.05.2020
2382 Clouds 20 1034 45 10000 2.6 340 19:20 26.05.2020
2383 Clouds 20 1034 45 10000 2.1 330 18:57 26.05.2020
2384 Clouds 20 1034 45 10000 2.1 330 18:39 26.05.2020
2385 Clouds 20 1034 45 10000 2.6 290 18:20 26.05.2020
2386 Clouds 20 1034 42 10000 2.1 310 17:39 26.05.2020
2387 Clouds 20 1034 42 10000 2.1 310 17:21 26.05.2020
2388 Clouds 20 1035 45 10000 3.1 340 16:48 26.05.2020
2389 Clouds 20 1035 45 10000 2.1 190 16:23 26.05.2020
2390 Clear 20 1035 45 10000 1 0 15:58 26.05.2020
2391 Clouds 19 1035 48 10000 1.5 0 15:39 26.05.2020
2392 Clear 19 1035 52 10000 2.1 0 15:19 26.05.2020
2393 Clear 19 1035 52 10000 2.1 0 15:19 26.05.2020
2394 Clear 19 1035 52 10000 2.1 0 14:55 26.05.2020
2395 Clouds 18 1035 55 10000 2.1 340 14:36 26.05.2020
2396 Clouds 18 1035 55 10000 2.1 340 14:18 26.05.2020
2397 Clouds 18 1035 59 10000 2.1 350 13:40 26.05.2020
2398 Clouds 18 1035 59 10000 2.1 350 13:22 26.05.2020
2399 Clouds 17 1036 67 10000 2.6 310 12:44 26.05.2020
2400 Clouds 15 1036 67 10000 2.6 310 12:23 26.05.2020
2401 Clouds 16 1036 63 10000 1.5 0 11:59 26.05.2020
2402 Clouds 15 1036 63 10000 1.5 0 11:59 26.05.2020
2403 Clouds 15 1036 67 10000 2.1 270 11:40 26.05.2020
2404 Clouds 15 1036 67 10000 2.1 270 11:20 26.05.2020
2405 Clouds 14 1036 71 10000 1.5 0 10:47 26.05.2020
2406 Clouds 13 1036 76 10000 1 0 10:19 26.05.2020
2407 Clouds 13 1035 81 10000 0.5 0 09:59 26.05.2020
2408 Clouds 11 1033 92 0 1.72 313 09:37 26.05.2020
2409 Clouds 11 1033 92 0 2.28 309 09:18 26.05.2020
2410 Clouds 10 1033 93 0 2.28 309 08:41 26.05.2020
2411 Clouds 10 1033 93 0 2.38 305 08:22 26.05.2020
2412 Clouds 9 1033 93 0 2.38 305 07:43 26.05.2020
2413 Clouds 9 1032 93 0 2.3 303 07:23 26.05.2020
2414 Clouds 9 1032 93 0 2.3 303 06:53 26.05.2020
2415 Clouds 8 1032 92 0 2.3 303 06:31 26.05.2020
2416 Clouds 7 1034 93 0 2.49 295 05:44 26.05.2020
2417 Clouds 8 1034 91 0 0.89 281 05:25 26.05.2020
2418 Clouds 8 1031 91 0 2.52 289 04:49 26.05.2020
2419 Clouds 7 1031 91 0 2.52 289 04:31 26.05.2020
2420 Clouds 7 1031 90 0 2.52 283 03:50 26.05.2020
2421 Clouds 8 1031 89 0 2.33 283 02:40 26.05.2020
2422 Clouds 9 1031 89 0 2.61 286 01:47 26.05.2020
2423 Clouds 9 1031 88 0 3.32 297 00:56 26.05.2020
2424 Clouds 9 1031 88 0 3.32 297 00:36 26.05.2020
2425 Clouds 9 1031 88 0 3.32 297 00:36 26.05.2020
2426 Clouds 9 1033 88 0 0.45 287 00:18 26.05.2020
2427 Clouds 9 1031 87 0 0.45 311 23:54 25.05.2020
2428 Clouds 9 1031 87 0 3.69 298 23:36 25.05.2020
2429 Clouds 9 1031 87 0 3.72 296 23:18 25.05.2020
2430 Clouds 9 1031 85 0 3.72 296 22:54 25.05.2020
2431 Clouds 9 1031 84 0 3.72 296 22:36 25.05.2020
2432 Clouds 10 1030 82 0 3.72 293 22:18 25.05.2020
2433 Clouds 10 1030 81 0 3.72 293 21:54 25.05.2020
2434 Clouds 11 1030 80 0 3.72 293 21:36 25.05.2020
2435 Clear 12 1030 79 0 0.45 310 21:18 25.05.2020
2436 Clouds 13 1030 77 0 0.89 311 20:41 25.05.2020
2437 Clouds 13 1032 66 10000 4.1 310 20:21 25.05.2020
2438 Clouds 13 1032 66 10000 4.1 310 19:58 25.05.2020
2439 Clouds 13 1032 66 10000 4.1 310 19:39 25.05.2020
2440 Clouds 13 1032 66 10000 4.1 310 19:18 25.05.2020
2441 Clouds 14 1032 62 10000 4.6 320 18:45 25.05.2020
2442 Clouds 13 1031 66 10000 4.6 320 18:22 25.05.2020
2443 Clouds 14 1031 62 10000 5.1 310 17:59 25.05.2020
2444 Clouds 13 1031 66 10000 5.1 310 17:40 25.05.2020
2445 Clouds 13 1031 66 10000 5.1 310 17:22 25.05.2020
2446 Clouds 13 1031 66 10000 5.7 310 16:56 25.05.2020
2447 Clouds 13 1031 71 10000 4.6 320 16:38 25.05.2020
2448 Clouds 13 1031 71 10000 4.6 320 16:19 25.05.2020
2449 Clouds 13 1031 66 10000 5.1 310 15:44 25.05.2020
2450 Clouds 14 1031 66 10000 5.1 310 15:19 25.05.2020
2451 Clouds 13 1031 71 10000 5.7 310 14:57 25.05.2020
2452 Clouds 13 1030 71 10000 6.2 300 14:38 25.05.2020
2453 Clouds 13 1030 71 10000 6.2 300 14:19 25.05.2020
2454 Clouds 13 1030 71 10000 5.7 310 13:40 25.05.2020
2455 Clouds 12 1030 71 10000 5.7 310 13:21 25.05.2020
2456 Clouds 13 1030 71 10000 5.7 320 12:58 25.05.2020
2457 Clouds 13 1030 71 10000 5.7 310 12:38 25.05.2020
2458 Clouds 12 1030 71 10000 5.7 310 12:20 25.05.2020
2459 Clouds 12 1029 66 10000 5.7 310 11:40 25.05.2020
2460 Clouds 12 1029 66 10000 5.7 310 11:21 25.05.2020
2461 Clouds 12 1029 71 10000 5.7 310 10:57 25.05.2020
2462 Clouds 12 1029 66 10000 4.6 310 10:39 25.05.2020
2463 Clouds 12 1029 66 10000 4.6 310 10:20 25.05.2020
2464 Clouds 12 1029 66 10000 4.6 310 10:20 25.05.2020
2465 Clouds 12 1029 66 10000 4.6 320 09:54 25.05.2020
2466 Clouds 12 1028 66 10000 6.7 320 09:36 25.05.2020
2467 Clouds 12 1028 66 10000 6.7 310 09:18 25.05.2020
2468 Clouds 12 1028 71 10000 5.1 310 08:40 25.05.2020
2469 Clouds 12 1028 71 10000 5.1 310 08:21 25.05.2020
2470 Clouds 12 1027 76 10000 5.7 310 07:58 25.05.2020
2471 Rain 11 1025 95 0 1.34 321 07:38 25.05.2020
2472 Rain 12 1025 96 0 1.34 295 07:19 25.05.2020
2473 Rain 12 1024 96 0 1.79 291 06:41 25.05.2020
2474 Clouds 12 1024 96 0 1.79 297 06:21 25.05.2020
2475 Clouds 11 1024 96 0 1.79 299 03:32 25.05.2020
2476 Clouds 12 1024 96 0 1.79 308 02:57 25.05.2020
2477 Clouds 11 1024 96 0 1.79 292 02:36 25.05.2020
2478 Clouds 11 1024 96 0 1.34 281 01:42 25.05.2020
2479 Clouds 11 1024 96 0 1.79 284 00:58 25.05.2020
2480 Clouds 11 1024 95 0 1.34 290 00:32 25.05.2020
2481 Clouds 11 1024 95 0 1.79 294 23:59 24.05.2020
2482 Clouds 12 1024 95 0 1.34 294 23:40 24.05.2020
2483 Clouds 12 1024 95 0 1.34 286 23:22 24.05.2020
2484 Clouds 12 1024 95 0 0.89 281 22:58 24.05.2020
2485 Clouds 12 1024 95 0 0.89 283 22:40 24.05.2020
2486 Clouds 12 1024 95 0 1.34 279 22:18 24.05.2020
2487 Clouds 12 1023 95 0 1.79 284 21:55 24.05.2020
2488 Clouds 12 1023 94 0 2.24 271 21:37 24.05.2020
2489 Rain 12 1023 94 0 1.79 267 21:19 24.05.2020
2490 Rain 13 1023 94 0 1.79 272 20:43 24.05.2020
2491 Rain 13 1023 93 0 2.24 269 20:22 24.05.2020
2492 Rain 13 1023 93 0 0.89 263 19:59 24.05.2020
2493 Rain 13 1023 93 0 0.89 263 19:59 24.05.2020
2494 Rain 13 1023 93 0 1.34 263 19:40 24.05.2020
2495 Rain 13 1025 82 10000 4.6 260 19:19 24.05.2020
2496 Rain 12 1025 82 10000 4.6 260 18:56 24.05.2020
2497 Rain 12 1025 82 10000 4.6 260 18:37 24.05.2020
2498 Rain 12 1025 82 10000 4.6 260 18:19 24.05.2020
2499 Clouds 13 1025 67 10000 6.7 280 17:41 24.05.2020
2500 Clouds 13 1025 67 10000 6.7 280 17:22 24.05.2020
2501 Clouds 14 1025 58 10000 5.1 290 16:58 24.05.2020
2502 Clouds 14 1025 62 10000 5.1 280 16:38 24.05.2020
2503 Clouds 15 1025 62 10000 5.1 280 16:20 24.05.2020
2504 Clouds 15 1025 62 10000 5.1 280 16:20 24.05.2020
2505 Clouds 15 1025 54 10000 8.7 280 15:57 24.05.2020
2506 Clouds 15 1024 51 10000 8.7 260 15:38 24.05.2020
2507 Clouds 15 1024 51 10000 8.7 260 15:19 24.05.2020
2508 Clouds 16 1024 45 10000 7.7 280 14:55 24.05.2020
2509 Clouds 17 1024 51 10000 7.7 270 14:36 24.05.2020
2510 Clouds 16 1024 51 10000 7.7 270 14:18 24.05.2020
2511 Clouds 16 1024 58 10000 6.7 280 13:43 24.05.2020
2512 Clouds 16 1024 58 10000 6.7 280 13:23 24.05.2020
2513 Clouds 15 1024 66 10000 7.7 270 12:59 24.05.2020
2514 Clouds 15 1024 66 10000 7.7 270 12:59 24.05.2020
2515 Clouds 15 1024 62 10000 7.2 270 12:41 24.05.2020
2516 Clouds 15 1024 62 10000 7.2 270 12:22 24.05.2020
2517 Clouds 14 1024 71 10000 7.2 260 11:59 24.05.2020
2518 Clouds 15 1024 67 10000 7.7 260 11:41 24.05.2020
2519 Clouds 15 1024 67 10000 7.7 260 11:23 24.05.2020
2520 Clouds 15 1024 67 10000 7.7 260 11:23 24.05.2020
2521 Clouds 14 1024 71 10000 5.7 260 10:59 24.05.2020
2522 Rain 13 1024 66 10000 7.2 260 10:39 24.05.2020
2523 Rain 13 1024 66 10000 7.2 260 10:21 24.05.2020
2524 Rain 13 1024 66 10000 7.2 260 10:21 24.05.2020
2525 Rain 13 1023 73 0 1.79 286 09:42 24.05.2020
2526 Clouds 13 1023 66 9000 6.7 240 09:19 24.05.2020
2527 Clouds 12 1022 82 0 2.24 263 08:59 24.05.2020
2528 Clouds 12 1022 82 0 2.68 265 08:40 24.05.2020
2529 Clouds 12 1022 82 0 2.68 265 08:40 24.05.2020
2530 Clouds 12 1022 82 0 2.68 257 08:22 24.05.2020
2531 Clouds 11 1021 80 0 3.13 261 07:54 24.05.2020
2532 Clouds 11 1021 80 0 2.68 264 07:36 24.05.2020
2533 Clouds 11 1021 80 0 3.13 254 07:18 24.05.2020
2534 Clouds 10 1021 82 0 2.24 236 06:38 24.05.2020
2535 Clear 10 1023 81 0 0.89 215 05:49 24.05.2020
2536 Clouds 9 1021 85 0 0.89 263 03:49 24.05.2020
2537 Clouds 9 1021 84 0 0.45 263 03:26 24.05.2020
2538 Clouds 9 1021 85 0 0.45 264 02:23 24.05.2020
2539 Clouds 10 1020 83 0 5.02 236 00:59 24.05.2020
2540 Clouds 10 1020 82 0 5.02 236 00:36 24.05.2020
2541 Clouds 10 1020 82 0 3.86 237 00:18 24.05.2020
2542 Clouds 11 1020 80 0 3.86 237 23:38 23.05.2020
2543 Clouds 11 1022 88 0 3.35 252 23:19 23.05.2020
2544 Clouds 11 1020 80 0 0.45 263 22:55 23.05.2020
2545 Clouds 11 1020 79 0 3.35 252 22:37 23.05.2020
2546 Clear 12 1019 79 0 3.16 273 22:18 23.05.2020
2547 Clear 12 1019 77 0 3.16 273 21:56 23.05.2020
2548 Clear 12 1021 83 0 3.16 273 21:36 23.05.2020
2549 Rain 13 1019 75 0 4.21 278 21:18 23.05.2020
2550 Rain 14 1019 72 0 4.21 278 20:40 23.05.2020
2551 Rain 14 1019 71 0 4.51 277 20:20 23.05.2020
2552 Rain 14 1019 68 0 1.79 265 19:59 23.05.2020
2553 Rain 14 1018 67 0 1.79 262 19:40 23.05.2020
2554 Rain 15 1021 62 10000 3.1 280 19:19 23.05.2020
2555 Rain 15 1021 62 10000 3.1 280 18:55 23.05.2020
2556 Rain 15 1021 62 10000 3.1 280 18:36 23.05.2020
2557 Rain 15 1021 62 10000 3.1 280 18:18 23.05.2020
2558 Rain 14 1021 71 10000 3.6 310 17:54 23.05.2020
2559 Clouds 14 1021 66 10000 5.7 320 17:36 23.05.2020
2560 Clouds 13 1021 66 10000 5.7 320 17:18 23.05.2020
2561 Clouds 15 1020 51 10000 5.1 250 16:41 23.05.2020
2562 Clouds 17 1020 51 10000 5.1 250 16:21 23.05.2020
2563 Clouds 17 1020 51 10000 5.1 250 16:21 23.05.2020
2564 Clouds 15 1020 51 10000 6.2 270 15:59 23.05.2020
2565 Rain 16 1020 55 10000 5.7 270 15:41 23.05.2020
2566 Rain 17 1020 55 10000 5.7 270 15:22 23.05.2020
2567 Clouds 17 1020 55 10000 6.2 270 14:43 23.05.2020
2568 Clouds 17 1020 55 10000 6.2 270 14:24 23.05.2020
2569 Clouds 17 1020 51 10000 6.7 260 13:57 23.05.2020
2570 Clouds 17 1020 55 10000 6.7 260 13:38 23.05.2020
2571 Clouds 17 1020 55 10000 6.7 260 13:18 23.05.2020
2572 Clouds 17 1020 55 10000 5.7 260 12:41 23.05.2020
2573 Clouds 17 1020 55 10000 5.7 260 12:20 23.05.2020
2574 Clouds 17 1020 55 10000 5.7 260 11:59 23.05.2020
2575 Clouds 16 1019 51 10000 6.2 270 11:41 23.05.2020
2576 Clouds 16 1019 51 10000 6.2 270 11:19 23.05.2020
2577 Clouds 16 1019 59 10000 6.2 270 10:56 23.05.2020
2578 Clouds 16 1019 59 10000 6.2 260 10:38 23.05.2020
2579 Clouds 16 1019 59 10000 6.2 260 10:19 23.05.2020
2580 Clouds 15 1016 83 0 3.58 277 09:55 23.05.2020
2581 Clouds 15 1017 89 0 3.13 277 09:37 23.05.2020
2582 Clouds 15 1018 70 0 4.02 258 09:18 23.05.2020
2583 Clouds 14 1020 77 0 0.45 302 08:41 23.05.2020
2584 Clouds 14 1018 82 10000 3.1 240 08:19 23.05.2020
2585 Clouds 14 1018 81 0 2.68 256 07:46 23.05.2020
2586 Clouds 14 1016 96 0 4.62 245 07:27 23.05.2020
2587 Clouds 14 1016 96 0 4.62 245 06:45 23.05.2020
2588 Clouds 13 1016 95 0 4.17 245 06:19 23.05.2020
2589 Clouds 14 1015 95 0 3.8 245 04:40 23.05.2020
2590 Clouds 15 1015 95 0 0.89 258 03:27 23.05.2020
2591 Clouds 15 1017 92 0 2.24 250 02:48 23.05.2020
2592 Clouds 15 1017 92 0 2.24 250 01:55 23.05.2020
2593 Clouds 16 1017 92 0 3.58 255 01:20 23.05.2020
2594 Clouds 16 1017 92 0 0.89 245 00:45 23.05.2020
2595 Rain 16 1017 92 0 0.45 243 00:23 23.05.2020
2596 Rain 17 1015 93 0 3.93 248 23:56 22.05.2020
2597 Rain 17 1015 93 0 3.93 248 23:38 22.05.2020
2598 Rain 17 1015 93 0 3.21 218 23:18 22.05.2020
2599 Rain 17 1014 92 0 3.21 218 22:43 22.05.2020
2600 Rain 17 1014 92 0 3.75 177 22:21 22.05.2020
2601 Rain 17 1014 90 0 0.45 106 21:57 22.05.2020
2602 Rain 17 1016 91 0 1.79 241 21:39 22.05.2020
2603 Rain 17 1018 94 0 4.83 155 21:20 22.05.2020
2604 Rain 17 1015 89 0 5.36 220 20:46 22.05.2020
2605 Rain 17 1015 85 0 3.58 225 20:21 22.05.2020
2606 Rain 18 1018 89 0 3.58 143 19:59 22.05.2020
2607 Rain 19 1015 60 10000 4.6 130 19:37 22.05.2020
2608 Rain 20 1017 56 10000 2.6 150 19:18 22.05.2020
2609 Rain 21 1017 56 10000 2.6 150 18:39 22.05.2020
2610 Rain 21 1017 56 10000 2.6 150 18:39 22.05.2020
2611 Rain 21 1017 56 10000 2.6 150 18:20 22.05.2020
2612 Clouds 21 1017 60 10000 3.1 120 17:57 22.05.2020
2613 Rain 21 1017 56 10000 3.6 140 17:37 22.05.2020
2614 Rain 21 1017 56 10000 3.6 140 17:18 22.05.2020
2615 Rain 21 1017 56 10000 3.6 140 17:18 22.05.2020
2616 Rain 21 1019 60 10000 3.1 160 16:43 22.05.2020
2617 Rain 21 1019 60 10000 3.1 160 16:20 22.05.2020
2618 Rain 21 1019 64 10000 3.1 160 15:59 22.05.2020
2619 Rain 21 1019 64 10000 2.6 140 15:41 22.05.2020
2620 Rain 21 1019 64 10000 2.6 140 15:19 22.05.2020
2621 Rain 21 1019 52 10000 2.6 170 14:44 22.05.2020
2622 Clouds 21 1019 52 10000 2.6 170 14:24 22.05.2020
2623 Rain 21 1019 49 10000 3.1 200 13:46 22.05.2020
2624 Clouds 22 1018 46 10000 2.6 150 13:21 22.05.2020
2625 Clouds 21 1019 46 10000 2.6 130 12:56 22.05.2020
2626 Clouds 21 1019 46 10000 2.6 130 12:37 22.05.2020
2627 Clouds 20 1019 46 10000 2.6 130 12:19 22.05.2020
2628 Clouds 21 1019 46 10000 2.1 160 11:44 22.05.2020
2629 Clouds 21 1019 49 10000 1 0 11:21 22.05.2020
2630 Clouds 21 1019 46 10000 2.1 160 11:21 22.05.2020
2631 Clouds 21 1019 49 10000 1 0 10:55 22.05.2020
2632 Clouds 20 1019 52 10000 1 0 10:37 22.05.2020
2633 Clouds 20 1019 52 10000 1 0 10:18 22.05.2020
2634 Clouds 19 1019 60 0 0.89 189 09:42 22.05.2020
2635 Clouds 17 1019 59 0 1.79 0 09:20 22.05.2020
2636 Clouds 17 1019 56 0 2.24 157 08:55 22.05.2020
2637 Clouds 17 1019 55 0 2.24 144 08:37 22.05.2020
2638 Clouds 16 1019 59 0 2.24 140 08:18 22.05.2020
2639 Clouds 15 1019 62 0 2.68 159 07:46 22.05.2020
2640 Clouds 13 1019 62 0 2.24 0 07:22 22.05.2020
2641 Clouds 12 1019 63 0 1.34 0 06:43 22.05.2020
2642 Clouds 12 1019 62 0 1.34 0 06:25 22.05.2020
2643 Clouds 12 1020 62 0 0.89 0 05:35 22.05.2020
2644 Clouds 12 1020 61 0 1.34 0 04:47 22.05.2020
2645 Clouds 13 1020 59 0 1.34 0 03:49 22.05.2020
2646 Clouds 13 1021 57 0 0.89 0 03:29 22.05.2020
2647 Clouds 14 1021 57 0 1.34 0 01:58 22.05.2020
2648 Clouds 14 1021 58 0 0.89 0 01:32 22.05.2020
2649 Clouds 13 1021 69 0 0.45 0 00:52 22.05.2020
2650 Clouds 14 1021 66 0 0.45 0 00:30 22.05.2020
2651 Clouds 15 1022 63 0 0.45 0 23:57 21.05.2020
2652 Clouds 15 1022 62 0 0.45 0 23:39 21.05.2020
2653 Clouds 15 1022 62 0 0.45 0 23:20 21.05.2020
2654 Clouds 16 1022 61 0 0.89 0 22:57 21.05.2020
2655 Clouds 16 1022 63 0 0.45 0 22:37 21.05.2020
2656 Clouds 17 1022 61 0 3.54 120 22:19 21.05.2020
2657 Clouds 18 1021 56 0 0.89 0 21:47 21.05.2020
2658 Clear 19 1023 54 0 2.8 119 21:27 21.05.2020
2659 Clear 19 1023 54 0 2.8 119 21:27 21.05.2020
2660 Clear 21 1021 35 10000 2.6 110 20:57 21.05.2020
2661 Clear 21 1021 35 10000 3.1 110 20:39 21.05.2020
2662 Clear 21 1023 50 0 1.34 113 20:20 21.05.2020
2663 Clear 22 1021 33 10000 2.1 180 19:40 21.05.2020
2664 Clear 22 1022 35 10000 2.6 360 19:19 21.05.2020
2665 Clear 22 1022 35 10000 2.6 360 18:56 21.05.2020
2666 Clear 22 1022 35 10000 2.6 360 18:36 21.05.2020
2667 Clear 22 1022 35 10000 2.6 360 18:18 21.05.2020
2668 Clear 22 1022 35 10000 2.6 0 17:45 21.05.2020
2669 Clear 22 1022 35 10000 2.1 0 17:26 21.05.2020
2670 Clear 22 1022 33 10000 2.6 0 16:48 21.05.2020
2671 Clear 22 1022 35 10000 2.1 320 16:28 21.05.2020
2672 Clear 21 1022 37 10000 1 0 15:59 21.05.2020
2673 Clear 22 1023 37 10000 2.6 0 15:40 21.05.2020
2674 Clear 22 1023 37 10000 2.6 0 15:21 21.05.2020
2675 Clear 21 1023 37 10000 2.1 0 14:41 21.05.2020
2676 Clouds 21 1023 37 10000 2.1 0 14:22 21.05.2020
2677 Clouds 21 1023 40 10000 3.1 0 13:56 21.05.2020
2678 Clouds 21 1024 37 10000 2.6 140 13:37 21.05.2020
2679 Clouds 21 1024 37 10000 2.6 140 13:18 21.05.2020
2680 Clouds 20 1024 40 10000 2.6 0 12:39 21.05.2020
2681 Clouds 20 1024 40 10000 2.6 0 12:20 21.05.2020
2682 Clouds 20 1024 39 10000 2.1 0 11:57 21.05.2020
2683 Clouds 19 1024 39 10000 3.1 80 11:39 21.05.2020
2684 Clouds 18 1024 39 10000 3.1 80 11:20 21.05.2020
2685 Clouds 18 1024 42 10000 2.1 100 10:43 21.05.2020
2686 Clouds 18 1024 42 10000 2.1 100 10:23 21.05.2020
2687 Clouds 18 1024 51 0 0.89 178 09:59 21.05.2020
2688 Clouds 17 1024 52 0 0.89 215 09:40 21.05.2020
2689 Clouds 17 1024 52 0 0.89 215 09:40 21.05.2020
2690 Clouds 15 1024 54 6000 1 0 09:22 21.05.2020
2691 Clouds 14 1023 74 0 0.45 124 08:56 21.05.2020
2692 Clouds 13 1023 76 0 0.45 139 08:37 21.05.2020
2693 Clouds 13 1024 59 0 1.34 154 08:19 21.05.2020
2694 Clouds 12 1023 63 0 0.89 166 07:41 21.05.2020
2695 Clouds 11 1023 63 0 0.45 128 07:22 21.05.2020
2696 Clouds 9 1023 75 0 0.45 0 06:37 21.05.2020
2697 Clouds 8 1023 78 0 1.53 110 05:50 21.05.2020
2698 Clouds 9 1023 75 0 1.34 0 04:18 21.05.2020
2699 Clouds 9 1023 75 0 0.45 0 03:21 21.05.2020
2700 Clear 10 1023 80 0 2.24 130 02:31 21.05.2020
2701 Clouds 10 1023 77 0 0.45 0 01:51 21.05.2020
2702 Clouds 11 1023 71 0 0.89 0 01:24 21.05.2020
2703 Clouds 12 1023 71 0 0.89 0 00:54 21.05.2020
2704 Clouds 11 1023 76 0 0.89 0 00:27 21.05.2020
2705 Clouds 12 1023 74 0 0.89 0 23:59 20.05.2020
2706 Clouds 12 1023 76 0 0.89 0 23:40 20.05.2020
2707 Clouds 12 1023 75 0 3.02 79 23:19 20.05.2020
2708 Clouds 13 1023 72 0 3.02 79 22:43 20.05.2020
2709 Clouds 14 1023 70 0 2.95 67 22:25 20.05.2020
2710 Clouds 15 1023 63 0 0.45 0 21:58 20.05.2020
2711 Clouds 16 1021 66 0 0.45 344 21:39 20.05.2020
2712 Clouds 17 1022 59 0 0.45 304 21:20 20.05.2020
2713 Clouds 19 1021 61 0 0.45 344 20:44 20.05.2020
2714 Clouds 19 1021 61 0 0.45 344 20:44 20.05.2020
2715 Clouds 19 1021 49 0 0.89 360 20:24 20.05.2020
2716 Clouds 19 1021 46 0 0.89 360 19:54 20.05.2020
2717 Clouds 19 1021 46 0 0.45 360 19:36 20.05.2020
2718 Clouds 20 1021 46 0 0.89 331 19:18 20.05.2020
2719 Clouds 19 1022 39 10000 1.5 0 18:42 20.05.2020
2720 Clouds 20 1022 39 10000 1.5 0 18:21 20.05.2020
2721 Clouds 20 1022 40 10000 1.5 0 17:41 20.05.2020
2722 Clouds 19 1022 40 10000 1.5 0 17:22 20.05.2020
2723 Clouds 19 1022 40 10000 1.5 0 16:56 20.05.2020
2724 Clouds 19 1022 37 10000 3.1 340 16:38 20.05.2020
2725 Clouds 19 1022 37 10000 3.1 340 16:19 20.05.2020
2726 Clouds 19 1022 40 10000 2.1 0 15:43 20.05.2020
2727 Clouds 19 1022 40 10000 2.1 0 15:25 20.05.2020
2728 Clouds 19 1022 40 10000 2.6 0 14:45 20.05.2020
2729 Clouds 18 1023 42 10000 2.1 0 14:24 20.05.2020
2730 Clouds 19 1023 45 10000 2.1 110 13:59 20.05.2020
2731 Clouds 18 1023 42 10000 2.1 0 13:39 20.05.2020
2732 Clouds 18 1023 42 10000 2.1 0 13:18 20.05.2020
2733 Clouds 18 1023 51 10000 1.5 0 12:42 20.05.2020
2734 Clouds 17 1023 51 10000 1.5 0 12:21 20.05.2020
2735 Clouds 16 1023 55 10000 1.5 0 11:39 20.05.2020
2736 Clouds 16 1023 55 10000 1.5 0 11:20 20.05.2020
2737 Clouds 15 1023 51 10000 1.5 0 10:55 20.05.2020
2738 Clouds 15 1023 51 10000 1.5 0 10:55 20.05.2020
2739 Clouds 16 1023 51 10000 2.1 70 10:37 20.05.2020
2740 Clouds 15 1023 51 10000 2.1 70 10:18 20.05.2020
2741 Clouds 14 1023 64 0 1.34 81 09:41 20.05.2020
2742 Clouds 14 1023 68 0 0.89 13 09:20 20.05.2020
2743 Clouds 14 1022 71 0 0.89 0 08:42 20.05.2020
2744 Clouds 13 1022 76 0 0.89 0 08:20 20.05.2020
2745 Clouds 13 1022 78 0 0.89 0 07:50 20.05.2020
2746 Clouds 13 1022 81 0 0.89 0 07:25 20.05.2020
2747 Clouds 13 1022 84 0 0.89 0 06:55 20.05.2020
2748 Clouds 13 1021 88 0 0.45 0 06:24 20.05.2020
2749 Clouds 12 1021 90 0 0.89 0 05:18 20.05.2020
2750 Rain 12 1021 90 0 1.32 336 04:19 20.05.2020
2751 Rain 12 1022 89 0 0.45 280 03:36 20.05.2020
2752 Clouds 13 1022 82 0 0.89 0 01:58 20.05.2020
2753 Clouds 14 1022 83 0 0.45 0 01:24 20.05.2020
2754 Clouds 15 1021 67 10000 2.1 270 00:42 20.05.2020
2755 Clouds 15 1021 67 10000 2.1 270 00:23 20.05.2020
2756 Clouds 15 1021 63 10000 2.6 300 23:39 19.05.2020
2757 Clouds 15 1021 63 10000 2.6 300 23:19 19.05.2020
2758 Clouds 15 1021 63 10000 2.6 300 22:55 19.05.2020
2759 Clouds 16 1021 59 10000 2.6 310 22:37 19.05.2020
2760 Clouds 16 1021 59 10000 2.6 310 22:18 19.05.2020
2761 Clouds 17 1021 59 10000 2.6 310 21:55 19.05.2020
2762 Clouds 18 1020 55 10000 3.1 310 21:36 19.05.2020
2763 Clouds 17 1020 55 10000 3.1 310 21:18 19.05.2020
2764 Clouds 18 1020 55 10000 3.1 310 20:56 19.05.2020
2765 Clouds 18 1020 55 10000 3.1 300 20:38 19.05.2020
2766 Clouds 18 1020 55 10000 3.1 300 20:19 19.05.2020
2767 Clouds 18 1020 55 10000 3.1 300 20:19 19.05.2020
2768 Clouds 19 1020 52 10000 3.6 290 19:39 19.05.2020
2769 Clouds 18 1020 52 10000 3.6 290 19:21 19.05.2020
2770 Clouds 19 1020 52 10000 4.1 300 18:55 19.05.2020
2771 Clouds 19 1020 52 10000 4.1 300 18:36 19.05.2020
2772 Clouds 18 1020 52 10000 4.1 300 18:18 19.05.2020
2773 Clouds 19 1020 48 10000 5.7 310 17:40 19.05.2020
2774 Clouds 19 1020 48 10000 5.7 310 17:21 19.05.2020
2775 Clouds 19 1020 48 10000 5.7 310 16:58 19.05.2020
2776 Clouds 20 1020 49 10000 5.1 310 16:38 19.05.2020
2777 Clouds 20 1020 49 10000 5.1 310 16:19 19.05.2020
2778 Clouds 19 1020 52 10000 5.1 290 15:44 19.05.2020
2779 Clouds 19 1020 52 10000 5.1 290 15:21 19.05.2020
2780 Clouds 19 1020 52 10000 4.1 280 14:57 19.05.2020
2781 Clouds 19 1020 52 10000 5.7 290 14:38 19.05.2020
2782 Clouds 19 1020 52 10000 5.7 290 14:20 19.05.2020
2783 Clouds 19 1020 52 10000 5.7 290 13:57 19.05.2020
2784 Clouds 19 1020 52 10000 5.7 290 13:57 19.05.2020
2785 Clouds 18 1021 55 10000 4.6 280 13:38 19.05.2020
2786 Clouds 18 1021 55 10000 4.6 280 13:20 19.05.2020
2787 Clouds 18 1021 55 10000 5.1 270 12:56 19.05.2020
2788 Clouds 18 1021 63 10000 4.1 280 12:37 19.05.2020
2789 Clouds 16 1021 63 10000 4.1 280 12:19 19.05.2020
2790 Clouds 15 1021 62 10000 3.6 300 11:43 19.05.2020
2791 Clouds 15 1021 62 10000 3.6 300 11:43 19.05.2020
2792 Clouds 15 1021 62 10000 3.6 300 11:23 19.05.2020
2793 Clouds 15 1021 67 10000 4.6 310 10:59 19.05.2020
2794 Clouds 14 1021 71 10000 4.1 290 10:40 19.05.2020
2795 Clouds 14 1021 71 10000 4.1 290 10:22 19.05.2020
2796 Clouds 14 1021 71 10000 4.1 290 09:47 19.05.2020
2797 Clouds 14 1021 71 10000 4.6 300 09:25 19.05.2020
2798 Clouds 14 1021 71 10000 4.6 300 09:25 19.05.2020
2799 Clouds 13 1020 76 0 1.79 264 08:59 19.05.2020
2800 Clouds 13 1021 73 0 2.68 0 08:41 19.05.2020
2801 Clouds 13 1020 74 0 2.24 0 08:22 19.05.2020
2802 Clouds 12 1020 76 0 0.89 0 07:42 19.05.2020
2803 Clouds 12 1020 76 0 2.24 0 07:42 19.05.2020
2804 Clouds 12 1020 78 0 0.89 0 07:24 19.05.2020
2805 Clouds 12 1020 80 0 0.89 0 06:41 19.05.2020
2806 Clouds 11 1020 81 0 1.34 0 06:22 19.05.2020
2807 Clouds 11 1020 83 0 1.34 0 05:39 19.05.2020
2808 Clouds 11 1020 86 0 0.89 0 04:54 19.05.2020
2809 Clouds 12 1018 86 0 2.15 277 03:00 19.05.2020
2810 Clouds 13 1018 82 0 2.82 272 01:23 19.05.2020
2811 Clouds 13 1020 72 10000 2.1 300 00:43 19.05.2020
2812 Clouds 14 1017 80 0 2.71 279 00:21 19.05.2020
2813 Clouds 15 1020 67 10000 1.5 0 23:40 18.05.2020
2814 Clouds 15 1017 77 0 2.71 293 23:21 18.05.2020
2815 Clouds 14 1017 76 0 2.71 293 23:00 18.05.2020
2816 Clouds 16 1019 55 10000 2.6 330 22:40 18.05.2020
2817 Clouds 17 1017 72 0 3.09 276 22:21 18.05.2020
2818 Clouds 17 1017 72 0 3.09 276 22:21 18.05.2020
2819 Clouds 17 1017 69 0 3.09 276 21:54 18.05.2020
2820 Clouds 18 1017 67 0 3.09 276 21:36 18.05.2020
2821 Clouds 19 1019 43 10000 4.6 280 21:18 18.05.2020
2822 Clouds 21 1019 43 10000 4.6 280 20:42 18.05.2020
2823 Clouds 21 1019 40 10000 4.6 290 20:22 18.05.2020
2824 Clouds 21 1019 40 10000 4.6 290 19:58 18.05.2020
2825 Clouds 20 1019 40 10000 5.1 280 19:40 18.05.2020
2826 Clouds 21 1019 40 10000 5.1 280 19:19 18.05.2020
2827 Clouds 21 1020 40 10000 6.7 280 18:46 18.05.2020
2828 Clouds 22 1020 37 10000 5.7 280 18:24 18.05.2020
2829 Clouds 22 1020 35 10000 6.2 270 17:54 18.05.2020
2830 Clouds 22 1020 35 10000 6.2 250 17:36 18.05.2020
2831 Clouds 22 1020 35 10000 6.2 250 17:18 18.05.2020
2832 Clouds 22 1020 35 10000 6.2 250 17:18 18.05.2020
2833 Clouds 21 1020 33 10000 5.7 280 16:43 18.05.2020
2834 Clouds 21 1020 33 10000 5.7 280 16:21 18.05.2020
2835 Clouds 22 1020 30 10000 7.2 250 15:58 18.05.2020
2836 Clouds 21 1020 35 10000 5.7 260 15:39 18.05.2020
2837 Clouds 21 1020 35 10000 5.7 260 15:20 18.05.2020
2838 Clouds 21 1021 35 10000 5.7 260 14:56 18.05.2020
2839 Clouds 21 1021 37 10000 6.7 250 14:38 18.05.2020
2840 Clouds 21 1021 37 10000 6.7 250 14:19 18.05.2020
2841 Clouds 20 1021 40 10000 5.7 260 13:41 18.05.2020
2842 Clouds 20 1021 40 10000 5.7 260 13:21 18.05.2020
2843 Clouds 19 1021 42 10000 6.7 280 12:58 18.05.2020
2844 Clouds 19 1021 42 10000 6.7 280 12:40 18.05.2020
2845 Clouds 18 1021 42 10000 6.7 280 12:19 18.05.2020
2846 -273 0 0 0 0 0 11:59 18.05.2020
2847 Clouds 18 1021 39 10000 7.7 260 11:40 18.05.2020
2848 Clouds 18 1021 39 10000 7.7 260 11:22 18.05.2020
2849 Clouds 18 1021 45 10000 6.2 270 10:46 18.05.2020
2850 Clouds 17 1022 51 10000 4.1 240 10:23 18.05.2020
2851 Clouds 17 1022 52 0 4.02 262 09:46 18.05.2020
2852 Clouds 14 1021 51 10000 4.1 220 09:27 18.05.2020
2853 Clouds 14 1021 51 10000 4.1 220 08:59 18.05.2020
2854 Clouds 14 1021 63 0 4.02 224 08:39 18.05.2020
2855 Clouds 14 1019 77 0 1.79 260 08:21 18.05.2020
2856 Clouds 11 1019 89 0 5.31 242 07:43 18.05.2020
2857 Clouds 10 1019 89 0 4.37 232 07:23 18.05.2020
2858 Clouds 9 1019 88 0 4.37 232 06:47 18.05.2020
2859 Clouds 8 1019 87 0 3.77 231 06:23 18.05.2020
2860 Clouds 8 1019 86 0 3.77 231 05:44 18.05.2020
2861 Clouds 9 1019 83 0 3.12 234 03:53 18.05.2020
2862 Clouds 9 1019 83 0 2.88 234 03:22 18.05.2020
2863 Clouds 9 1019 81 0 3.17 243 01:56 18.05.2020
2864 Clouds 10 1019 79 0 3.06 246 00:49 18.05.2020
2865 Clouds 11 1019 77 0 2.96 245 00:19 18.05.2020
2866 Clouds 11 1019 75 0 2.96 245 23:56 17.05.2020
2867 Clouds 11 1019 74 0 2.96 245 23:38 17.05.2020
2868 Clouds 11 1019 73 0 3.07 248 23:19 17.05.2020
2869 Clouds 12 1019 70 0 3.07 248 22:54 17.05.2020
2870 Clouds 12 1019 69 0 3.07 248 22:36 17.05.2020
2871 Clouds 13 1019 68 0 3.6 256 22:18 17.05.2020
2872 Clouds 14 1019 64 0 3.6 256 21:41 17.05.2020
2873 Clouds 14 1019 62 0 3.49 256 21:20 17.05.2020
2874 Clouds 15 1019 59 0 0.45 277 20:58 17.05.2020
2875 Clouds 16 1019 58 0 0.89 277 20:40 17.05.2020
2876 Clouds 16 1019 56 0 1.34 277 20:19 17.05.2020
2877 Clouds 17 1019 51 0 1.34 281 19:47 17.05.2020
2878 Clouds 17 1019 50 0 1.34 292 19:29 17.05.2020
2879 Clouds 17 1021 36 10000 5.1 270 18:59 17.05.2020
2880 Clouds 17 1021 36 10000 5.1 270 18:39 17.05.2020
2881 Clouds 17 1021 36 10000 5.1 270 18:21 17.05.2020
2882 Clouds 17 1022 36 10000 3.6 290 17:56 17.05.2020
2883 Clouds 17 1022 36 10000 4.6 280 17:36 17.05.2020
2884 Clouds 17 1022 36 10000 4.6 280 17:18 17.05.2020
2885 Clouds 16 1022 38 10000 5.1 280 16:40 17.05.2020
2886 Clouds 16 1022 38 10000 5.1 280 16:20 17.05.2020
2887 Clouds 17 1022 38 10000 4.1 290 15:56 17.05.2020
2888 Clouds 16 1022 36 10000 4.6 270 15:37 17.05.2020
2889 Clouds 17 1022 36 10000 4.6 270 15:19 17.05.2020
2890 Clouds 17 1023 39 10000 4.6 290 14:43 17.05.2020
2891 Clouds 17 1023 39 10000 4.6 290 14:24 17.05.2020
2892 Clouds 17 1023 42 10000 4.6 270 13:58 17.05.2020
2893 Clouds 16 1023 41 10000 5.1 270 13:40 17.05.2020
2894 Clouds 16 1023 41 10000 5.1 270 13:19 17.05.2020
2895 Clouds 9 1020 81 0 0.45 286 04:41 17.05.2020
2896 Clouds 9 1017 82 0 2.88 285 02:46 17.05.2020
2897 Clouds 10 1019 76 0 0.89 287 02:20 17.05.2020
2898 Clouds 11 1019 73 0 1.34 288 01:47 17.05.2020
2899 Clouds 10 1020 54 10000 2.6 330 00:40 17.05.2020
2900 Rain 11 1017 76 0 3.7 260 00:20 17.05.2020
2901 Rain 11 1017 74 0 3.7 260 23:40 16.05.2020
2902 Clouds 11 1017 73 0 3.68 243 23:20 16.05.2020
2903 Clouds 12 1019 50 10000 3.6 330 22:58 16.05.2020
2904 Clouds 13 1018 44 10000 2.6 240 22:40 16.05.2020
2905 Clouds 13 1019 41 10000 3.1 250 22:20 16.05.2020
2906 Clouds 14 1019 41 10000 3.1 250 21:54 16.05.2020
2907 Clouds 15 1019 41 10000 3.1 250 21:36 16.05.2020
2908 Clouds 14 1019 41 10000 3.1 250 21:18 16.05.2020
2909 Clouds 15 1019 38 10000 3.6 260 20:42 16.05.2020
2910 Clouds 15 1019 38 10000 3.6 260 20:22 16.05.2020
2911 Clouds 16 1019 38 10000 3.6 250 19:59 16.05.2020
2912 Clouds 16 1019 38 10000 4.1 260 19:40 16.05.2020
2913 Clouds 16 1019 38 10000 4.1 260 19:40 16.05.2020
2914 Clouds 16 1019 38 10000 4.1 260 19:22 16.05.2020
2915 Clouds 16 1019 38 10000 4.1 260 19:22 16.05.2020
2916 Clouds 16 1020 38 10000 5.1 290 18:55 16.05.2020
2917 Clouds 16 1020 38 10000 5.1 290 18:36 16.05.2020
2918 Clouds 16 1020 38 10000 5.1 290 18:18 16.05.2020
2919 Clouds 16 1020 33 10000 5.1 260 17:41 16.05.2020
2920 Rain 16 1020 33 10000 5.1 260 17:20 16.05.2020
2921 Rain 16 1020 38 10000 5.1 280 16:43 16.05.2020
2922 Clouds 16 1020 38 10000 5.1 280 16:24 16.05.2020
2923 Clouds 16 1020 36 10000 5.1 270 15:59 16.05.2020
2924 Clouds 15 1021 41 10000 6.7 280 15:41 16.05.2020
2925 Clouds 15 1021 41 10000 6.7 280 15:21 16.05.2020
2926 Clouds 15 1021 41 10000 6.2 280 14:56 16.05.2020
2927 Clouds 15 1021 41 10000 6.2 270 14:37 16.05.2020
2928 Clouds 15 1021 41 10000 6.2 270 14:19 16.05.2020
2929 Clouds 14 1022 47 10000 6.2 280 13:42 16.05.2020
2930 Clouds 14 1022 47 10000 6.2 280 13:24 16.05.2020
2931 Clouds 13 1022 47 10000 5.7 280 12:59 16.05.2020
2932 Clouds 13 1022 47 10000 5.1 260 12:40 16.05.2020
2933 Clouds 14 1022 47 10000 5.1 260 12:19 16.05.2020
2934 Clouds 13 1022 54 10000 5.7 260 11:42 16.05.2020
2935 Clouds 13 1022 54 10000 5.7 260 11:23 16.05.2020
2936 Clouds 13 1022 54 10000 4.6 250 10:58 16.05.2020
2937 Clouds 12 1022 54 10000 5.1 290 10:39 16.05.2020
2938 Clouds 13 1022 54 10000 5.1 290 10:21 16.05.2020
2939 Clear 12 1020 67 0 2.24 265 09:47 16.05.2020
2940 Clouds 9 1022 66 10000 3.1 240 09:28 16.05.2020
2941 Clouds 9 1022 66 10000 3.1 240 08:59 16.05.2020
2942 Clouds 9 1022 70 10000 3.1 230 08:40 16.05.2020
2943 Clear 9 1019 83 0 1.34 302 08:19 16.05.2020
2944 Clear 8 1019 90 0 5.2 258 07:43 16.05.2020
2945 Clear 7 1019 89 0 4.03 246 07:23 16.05.2020
2946 Clear 6 1019 87 0 4.03 246 06:48 16.05.2020
2947 Clear 4 1019 86 0 3.39 239 06:24 16.05.2020
2948 Clear 4 1019 86 0 3.39 239 05:49 16.05.2020
2949 Clear 4 1019 85 0 3.25 235 05:27 16.05.2020
2950 Clear 6 1021 76 0 3.03 240 03:33 16.05.2020
2951 Clear 6 1021 75 0 1.79 260 02:52 16.05.2020
2952 Clouds 6 1021 74 0 1.34 270 02:20 16.05.2020
2953 Clouds 7 1021 70 10000 2.1 230 01:43 16.05.2020
2954 Clouds 7 1021 70 10000 2.1 230 01:18 16.05.2020
2955 Clouds 8 1021 61 10000 1 230 00:42 16.05.2020
2956 Clouds 8 1021 71 0 2.24 272 00:21 16.05.2020
2957 Clouds 9 1021 57 10000 1.5 260 23:40 15.05.2020
2958 Clouds 9 1021 57 10000 1.5 260 23:20 15.05.2020
2959 Clouds 9 1021 57 10000 1.5 260 23:20 15.05.2020
2960 Clouds 10 1021 57 10000 1.5 260 22:57 15.05.2020
2961 Clouds 10 1020 57 10000 2.1 260 22:38 15.05.2020
2962 Clouds 10 1018 68 0 3.4 287 22:18 15.05.2020
2963 Clouds 11 1020 62 0 0.45 269 21:40 15.05.2020
2964 Clouds 11 1018 63 0 3.08 291 21:21 15.05.2020
2965 Clouds 11 1018 61 0 0.89 316 20:59 15.05.2020
2966 Clouds 11 1018 60 0 0.89 302 20:40 15.05.2020
2967 Clouds 12 1018 60 0 0.45 300 20:22 15.05.2020
2968 Clouds 12 1017 18 0 3.58 12 19:56 15.05.2020
2969 Clouds 12 1017 18 0 3.58 12 19:37 15.05.2020
2970 Clouds 12 1017 18 0 3.58 12 19:37 15.05.2020
2971 Clouds 12 1018 57 0 0.45 323 19:19 15.05.2020
2972 Clouds 13 1017 58 0 0.89 324 18:43 15.05.2020
2973 Clouds 13 1017 57 0 1.34 298 18:24 15.05.2020
2974 Clouds 13 1020 69 10000 6.2 300 17:40 15.05.2020
2975 Clouds 13 1020 62 10000 6.2 300 17:20 15.05.2020
2976 Clouds 13 1020 62 10000 6.2 300 16:58 15.05.2020
2977 Clouds 13 1019 62 10000 4.6 300 16:39 15.05.2020
2978 Clear 13 1019 58 10000 4.6 300 16:19 15.05.2020
2979 Clear 14 1019 58 10000 6.2 310 15:58 15.05.2020
2980 Clear 14 1019 35 10000 5.1 290 15:39 15.05.2020
2981 Clear 14 1019 35 10000 5.1 290 15:19 15.05.2020
2982 Clear 14 1019 35 10000 5.7 280 14:54 15.05.2020
2983 Clear 14 1019 33 10000 4.1 320 14:36 15.05.2020
2984 Clouds 14 1019 33 10000 4.1 320 14:18 15.05.2020
2985 Clouds 13 1019 55 10000 4.6 320 13:40 15.05.2020
2986 Clouds 13 1019 61 10000 4.6 320 13:20 15.05.2020
2987 Clouds 12 1019 50 10000 4.6 300 12:40 15.05.2020
2988 Clouds 12 1019 50 10000 4.6 300 12:19 15.05.2020
2989 Clouds 12 1019 50 10000 4.6 300 11:57 15.05.2020
2990 Clear 11 1020 61 10000 2.6 340 11:39 15.05.2020
2991 Clear 10 1020 61 10000 2.6 340 11:21 15.05.2020
2992 Clear 10 1020 61 10000 2.6 340 10:59 15.05.2020
2993 Clear 9 1020 65 10000 3.6 340 10:40 15.05.2020
2994 Clear 9 1020 65 10000 3.6 340 10:22 15.05.2020
2995 Clear 9 1017 76 0 2.42 304 09:58 15.05.2020
2996 Clear 8 1017 78 0 2.42 304 09:37 15.05.2020
2997 Clear 8 1017 78 0 2.42 304 09:37 15.05.2020
2998 Clear 8 1019 77 0 1.34 322 09:18 15.05.2020
2999 Clear 7 1017 89 0 1.92 300 08:57 15.05.2020
3000 Clear 6 1017 90 0 1.92 300 08:37 15.05.2020
3001 Clear 5 1017 91 0 1.48 312 08:18 15.05.2020
3002 Clear 5 1017 91 0 1.48 312 08:18 15.05.2020
3003 Clear 4 1017 91 0 1.48 312 07:44 15.05.2020
3004 Clear 3 1017 91 0 1.13 327 07:24 15.05.2020
3005 Clear 2 1017 89 0 1.13 327 06:47 15.05.2020
3006 Clear 1 1016 87 0 0.82 345 05:49 15.05.2020
3007 Clear 2 1016 86 0 0.57 48 04:27 15.05.2020
3008 Clear 2 1016 86 0 0.57 48 03:46 15.05.2020
3009 Clear 3 1016 83 0 0.78 55 02:30 15.05.2020
3010 Clouds 4 1016 79 0 0.87 44 01:21 15.05.2020
3011 Clouds 4 1016 79 0 0.87 44 00:50 15.05.2020
3012 Clouds 5 1016 76 0 1.25 38 00:30 15.05.2020
3013 Clouds 6 1016 74 0 1.25 38 23:45 14.05.2020
3014 Clouds 6 1016 73 0 1.25 50 23:24 14.05.2020
3015 Clouds 7 1016 70 0 1.25 50 22:59 14.05.2020
3016 Clouds 7 1016 68 0 1.25 50 22:40 14.05.2020
3017 Clouds 7 1016 67 0 2.15 84 22:19 14.05.2020
3018 Clouds 10 1016 63 0 2.15 84 21:58 14.05.2020
3019 Clouds 10 1016 61 0 2.15 84 21:39 14.05.2020
3020 Clouds 10 1016 59 0 3.12 68 21:19 14.05.2020
3021 Clouds 11 1015 18 0 2.24 331 20:55 14.05.2020
3022 Clouds 11 1015 18 0 2.24 331 20:37 14.05.2020
3023 Clouds 11 1015 18 0 2.24 331 20:37 14.05.2020
3024 Clouds 12 1018 32 10000 3.6 340 20:18 14.05.2020
3025 Clouds 13 1018 32 10000 3.6 340 19:55 14.05.2020
3026 Clouds 13 1018 32 10000 3.6 340 19:36 14.05.2020
3027 Clouds 13 1018 32 10000 3.6 340 19:18 14.05.2020
3028 Clouds 13 1018 30 10000 1.5 0 18:54 14.05.2020
3029 Clouds 13 1018 32 10000 3.1 360 18:36 14.05.2020
3030 Clouds 13 1018 32 10000 3.1 360 18:18 14.05.2020
3031 Clouds 13 1018 32 10000 3.1 320 17:55 14.05.2020
3032 Clouds 13 1018 32 10000 3.1 320 17:36 14.05.2020
3033 Clouds 13 1018 32 10000 3.1 320 17:18 14.05.2020
3034 Clouds 13 1019 34 10000 2.1 10 16:39 14.05.2020
3035 Clouds 13 1019 34 10000 2.1 10 16:20 14.05.2020
3036 Clouds 13 1019 30 10000 2.6 0 15:57 14.05.2020
3037 Clouds 13 1019 37 10000 3.1 0 15:39 14.05.2020
3038 Clouds 13 1019 37 10000 3.1 0 15:19 14.05.2020
3039 Clouds 13 1019 53 10000 3.6 340 14:56 14.05.2020
3040 Clouds 13 1019 40 10000 4.1 340 14:38 14.05.2020
3041 Clouds 12 1019 40 10000 4.1 340 14:19 14.05.2020
3042 Clouds 12 1019 46 10000 3.1 320 13:55 14.05.2020
3043 Clouds 12 1019 46 10000 4.1 330 13:37 14.05.2020
3044 Clouds 12 1019 46 10000 4.1 330 13:18 14.05.2020
3045 Clouds 11 1019 43 10000 2.1 0 12:57 14.05.2020
3046 Clouds 11 1019 50 10000 2.1 0 12:37 14.05.2020
3047 Clouds 11 1019 50 10000 2.1 0 12:18 14.05.2020
3048 Clouds 10 1019 55 10000 3.1 40 11:55 14.05.2020
3049 Clouds 10 1019 61 10000 2.1 0 11:37 14.05.2020
3050 Clouds 10 1019 61 10000 2.1 0 11:19 14.05.2020
3051 Clouds 9 1018 70 10000 3.6 360 10:42 14.05.2020
3052 Clouds 9 1018 70 10000 3.6 360 10:23 14.05.2020
3053 Clouds 8 1018 75 10000 3.1 360 09:56 14.05.2020
3054 Clouds 8 1018 81 10000 2.6 350 09:36 14.05.2020
3055 Clouds 8 1018 81 10000 2.6 350 09:18 14.05.2020
3056 Clouds 6 1015 93 0 3.12 342 08:37 14.05.2020
3057 Clouds 7 1015 93 0 0.45 337 08:19 14.05.2020
3058 Clouds 6 1016 91 0 1.79 306 07:45 14.05.2020
3059 Clouds 6 1016 93 0 0.45 323 07:22 14.05.2020
3060 Clouds 5 1015 93 0 3.39 345 06:48 14.05.2020
3061 Clouds 5 1015 91 0 2.24 299 06:26 14.05.2020
3062 Clouds 6 1013 91 0 2.93 348 05:42 14.05.2020
3063 Clouds 6 1013 91 0 2.17 339 05:22 14.05.2020
3064 Clouds 6 1014 90 0 1.87 319 03:52 14.05.2020
3065 Clouds 6 1014 90 0 1.5 304 03:21 14.05.2020
3066 Clouds 6 1014 90 0 1.5 304 02:40 14.05.2020
3067 Clouds 7 1013 89 0 1.41 305 01:53 14.05.2020
3068 Clouds 7 1014 87 6000 1.5 280 00:58 14.05.2020
3069 Clouds 7 1013 81 6000 1 290 00:37 14.05.2020
3070 Clouds 8 1013 86 0 1.23 64 00:19 14.05.2020
3071 Clouds 8 1012 84 0 1.23 64 23:39 13.05.2020
3072 Clouds 8 1012 70 10000 2.6 350 23:18 13.05.2020
3073 Clouds 8 1012 70 10000 2.6 350 22:42 13.05.2020
3074 Clouds 9 1012 70 10000 2.6 350 22:23 13.05.2020
3075 Clouds 10 1011 61 10000 3.1 350 21:59 13.05.2020
3076 Clouds 10 1011 61 10000 3.1 350 21:59 13.05.2020
3077 Clouds 10 1011 61 10000 3.1 350 21:59 13.05.2020
3078 Clouds 10 1011 53 10000 2.6 350 21:40 13.05.2020
3079 Clouds 10 1011 53 10000 2.6 350 21:20 13.05.2020
3080 Clouds 11 1011 50 10000 3.1 350 20:59 13.05.2020
3081 Clouds 12 1010 93 10000 2.1 360 20:39 13.05.2020
3082 Clouds 12 1010 80 10000 2.1 360 20:21 13.05.2020
3083 Clouds 13 1011 37 10000 1.5 0 19:43 13.05.2020
3084 Clouds 13 1011 37 10000 1.5 0 19:24 13.05.2020
3085 Clouds 13 1011 37 10000 1.5 0 18:55 13.05.2020
3086 Clouds 13 1011 37 10000 1 0 18:37 13.05.2020
3087 Clouds 13 1011 37 10000 1 0 18:18 13.05.2020
3088 Clouds 13 1011 37 10000 2.6 330 17:38 13.05.2020
3089 Clouds 14 1011 37 10000 2.6 330 17:19 13.05.2020
3090 Clouds 13 1011 37 10000 3.1 310 16:55 13.05.2020
3091 Clouds 14 1011 37 10000 1.5 0 16:37 13.05.2020
3092 Clouds 14 1011 37 10000 1.5 0 16:18 13.05.2020
3093 Clouds 13 1011 37 10000 2.6 280 15:42 13.05.2020
3094 Clouds 13 1011 37 10000 2.6 280 15:19 13.05.2020
3095 Clouds 13 1012 58 10000 3.1 280 14:57 13.05.2020
3096 Clouds 13 1012 35 10000 3.6 260 14:39 13.05.2020
3097 Clouds 13 1012 35 10000 3.6 260 14:20 13.05.2020
3098 Clouds 13 1012 60 10000 3.6 280 13:56 13.05.2020
3099 Clouds 13 1012 43 10000 3.1 280 13:38 13.05.2020
3100 Clouds 13 1012 43 10000 3.1 280 13:19 13.05.2020
3101 Clouds 12 1012 59 10000 3.6 260 12:43 13.05.2020
3102 Clouds 11 1012 59 10000 3.6 260 12:22 13.05.2020
3103 Clouds 11 1012 50 10000 3.6 290 11:57 13.05.2020
3104 Clouds 11 1013 50 10000 3.6 290 11:39 13.05.2020
3105 Clouds 11 1013 50 10000 3.6 290 11:20 13.05.2020
3106 Clouds 12 1013 53 10000 4.1 270 10:59 13.05.2020
3107 Clouds 11 1013 57 10000 3.6 270 10:39 13.05.2020
3108 Clouds 11 1013 57 10000 3.6 270 10:20 13.05.2020
3109 Clouds 11 1013 53 10000 4.1 260 09:59 13.05.2020
3110 Clear 11 1013 57 10000 4.1 270 09:40 13.05.2020
3111 Clear 10 1013 57 10000 4.1 270 09:21 13.05.2020
3112 Clear 8 1013 70 0 1.34 260 08:42 13.05.2020
3113 Clouds 8 1012 72 0 0.89 235 08:22 13.05.2020
3114 Clouds 7 1011 80 0 0.45 245 07:59 13.05.2020
3115 Clouds 7 1011 82 0 0.45 245 07:37 13.05.2020
3116 Clouds 6 1011 84 0 2.79 222 06:59 13.05.2020
3117 Clouds 6 1011 84 0 2.79 222 06:41 13.05.2020
3118 Clouds 5 1013 70 7000 1 230 05:51 13.05.2020
3119 Clouds 6 1013 65 7000 1 230 04:48 13.05.2020
3120 Clouds 5 1013 70 7000 1.5 220 02:59 13.05.2020
3121 Clouds 6 1011 85 0 0.45 245 02:26 13.05.2020
3122 Clouds 7 1011 85 0 0.89 245 01:28 13.05.2020
3123 Clouds 7 1011 83 0 0.45 245 00:45 13.05.2020
3124 Clouds 7 1011 82 0 1.73 213 00:20 13.05.2020
3125 Clouds 7 1013 75 0 0.45 297 23:40 12.05.2020
3126 Clouds 7 1013 75 0 0.45 303 23:21 12.05.2020
3127 Clouds 7 1013 75 0 1.19 254 22:58 12.05.2020
3128 Clouds 8 1013 74 0 1.19 254 22:39 12.05.2020
3129 Clouds 8 1014 74 0 2.09 294 22:20 12.05.2020
3130 Clouds 8 1014 73 0 2.09 294 21:55 12.05.2020
3131 Clouds 8 1014 71 0 2.09 294 21:37 12.05.2020
3132 Rain 9 1012 68 0 3.12 284 21:18 12.05.2020
3133 Clouds 9 1015 46 10000 4.6 260 20:57 12.05.2020
3134 Clouds 9 1015 46 10000 4.6 260 20:38 12.05.2020
3135 Clouds 10 1015 46 10000 4.6 260 20:20 12.05.2020
3136 Clouds 10 1015 46 10000 4.6 260 20:20 12.05.2020
3137 Clouds 10 1015 46 10000 4.6 260 19:56 12.05.2020
3138 Rain 10 1015 46 10000 4.6 260 19:37 12.05.2020
3139 Rain 10 1015 46 10000 4.6 260 19:19 12.05.2020
3140 Rain 10 1013 58 0 2.24 242 18:43 12.05.2020
3141 Rain 11 1013 59 0 2.24 269 18:24 12.05.2020
3142 Rain 11 1012 18 0 2.24 353 17:59 12.05.2020
3143 Rain 11 1013 58 0 2.24 262 17:41 12.05.2020
3144 Rain 11 1013 59 0 1.79 275 17:22 12.05.2020
3145 Rain 11 1013 58 0 2.24 261 16:47 12.05.2020
3146 Clouds 11 1016 57 10000 5.7 250 16:24 12.05.2020
3147 Clouds 12 1016 57 10000 5.7 250 15:56 12.05.2020
3148 Clouds 11 1016 57 10000 5.7 250 15:37 12.05.2020
3149 Clouds 11 1016 58 10000 5.7 250 15:19 12.05.2020
3150 Clouds 11 1017 58 10000 6.2 250 14:56 12.05.2020
3151 Clouds 10 1017 52 10000 4.6 270 14:37 12.05.2020
3152 Clouds 10 1017 52 10000 6.2 250 14:19 12.05.2020
3153 Clouds 9 1017 52 10000 6.2 250 13:57 12.05.2020
3154 Clouds 9 1017 52 10000 6.2 250 13:57 12.05.2020
3155 Rain 9 1014 19 0 2.68 164 13:39 12.05.2020
3156 Clouds 9 1018 59 0 3.13 262 13:19 12.05.2020
3157 Clouds 9 1018 59 0 3.13 262 12:57 12.05.2020
3158 Clouds 9 1018 59 0 3.13 262 12:39 12.05.2020
3159 Clouds 9 1018 59 0 3.13 262 12:21 12.05.2020
3160 Clouds 9 1018 59 0 3.13 262 12:21 12.05.2020
3161 Clouds 9 1017 60 10000 5.1 260 11:57 12.05.2020
3162 Clouds 8 1017 60 10000 5.1 260 11:38 12.05.2020
3163 Clouds 8 1017 60 10000 5.1 260 11:20 12.05.2020
3164 Clouds 9 1017 60 10000 5.1 260 10:58 12.05.2020
3165 Clouds 9 1017 61 10000 4.6 270 10:39 12.05.2020
3166 Clouds 9 1017 61 10000 4.6 270 10:20 12.05.2020
3167 Clouds 7 1017 65 10000 4.6 270 09:58 12.05.2020
3168 Clouds 8 1015 80 0 1.79 277 09:39 12.05.2020
3169 Clouds 7 1017 76 0 4.02 309 09:20 12.05.2020
3170 Clouds 6 1015 86 0 1.79 279 08:54 12.05.2020
3171 Clouds 6 1015 87 0 1.79 281 08:36 12.05.2020
3172 Clear 5 1015 89 0 1.34 277 08:18 12.05.2020
3173 Clear 4 1015 90 0 1.34 286 07:41 12.05.2020
3174 Clear 3 1015 90 0 1.34 293 07:21 12.05.2020
3175 Clear 3 1015 88 0 0.89 301 06:41 12.05.2020
3176 Clear 2 1016 89 0 3.25 261 06:22 12.05.2020
3177 Clear 1 1016 87 0 3.25 261 05:50 12.05.2020
3178 Clear 2 1014 86 0 0.45 309 04:54 12.05.2020
3179 Clouds 3 1013 85 0 0.45 311 03:26 12.05.2020
3180 Clouds 3 1013 86 0 3.34 271 02:28 12.05.2020
3181 Clouds 3 1013 83 0 3.42 263 01:59 12.05.2020
3182 Clear 3 1013 82 0 3.07 269 01:24 12.05.2020
3183 Clear 3 1012 79 0 2.31 296 00:26 12.05.2020
3184 Clear 2 1012 77 0 2.31 296 23:58 11.05.2020
3185 Clear 3 1012 75 0 2.31 296 23:40 11.05.2020
3186 Clear 3 1012 74 0 1.76 347 23:20 11.05.2020
3187 Clear 3 1011 70 0 1.76 347 22:58 11.05.2020
3188 Clear 3 1011 68 0 1.76 347 22:40 11.05.2020
3189 Clear 4 1011 65 0 2.62 356 22:20 11.05.2020
3190 Clear 6 1010 59 0 2.62 356 21:58 11.05.2020
3191 Clear 7 1010 58 0 2.62 356 21:40 11.05.2020
3192 Clear 7 1013 43 0 1.34 22 21:19 11.05.2020
3193 Clear 8 1011 29 10000 4.1 360 20:58 11.05.2020
3194 Clear 8 1011 29 10000 4.1 360 20:40 11.05.2020
3195 Clouds 9 1011 29 10000 4.1 360 20:20 11.05.2020
3196 Clouds 9 1011 29 10000 4.1 360 19:55 11.05.2020
3197 Clouds 9 1011 36 10000 4.6 350 19:37 11.05.2020
3198 Clouds 9 1011 36 10000 4.6 350 19:19 11.05.2020
3199 Clouds 10 1010 34 10000 4.1 360 18:55 11.05.2020
3200 Clouds 10 1010 37 10000 5.7 350 18:37 11.05.2020
3201 Clouds 10 1010 37 10000 5.7 350 18:18 11.05.2020
3202 Clouds 10 1010 37 10000 5.7 350 17:55 11.05.2020
3203 Clouds 10 1010 37 10000 5.1 350 17:36 11.05.2020
3204 Clouds 10 1010 37 10000 5.1 350 17:18 11.05.2020
3205 Clouds 10 1010 51 10000 4.1 40 16:42 11.05.2020
3206 Clouds 10 1010 54 10000 4.1 40 16:22 11.05.2020
3207 Clouds 9 1010 54 10000 4.6 360 15:58 11.05.2020
3208 Clouds 9 1010 54 10000 5.1 10 15:39 11.05.2020
3209 Clouds 8 1010 64 10000 5.1 10 15:19 11.05.2020
3210 Clouds 7 1010 65 10000 5.1 360 14:55 11.05.2020
3211 Clouds 7 1009 81 10000 4.1 350 14:37 11.05.2020
3212 Rain 7 1009 81 10000 4.1 350 14:19 11.05.2020
3213 Rain 7 1009 87 10000 1.5 0 13:42 11.05.2020
3214 Rain 7 1009 85 0 2.68 357 13:22 11.05.2020
3215 Rain 7 1009 87 10000 1.5 0 12:58 11.05.2020
3216 Rain 7 1009 87 10000 2.1 360 12:40 11.05.2020
3217 Drizzle 6 1009 87 10000 2.1 360 12:22 11.05.2020
3218 Rain 5 1009 86 10000 2.6 320 11:57 11.05.2020
3219 Rain 5 1009 86 10000 2.6 320 11:57 11.05.2020
3220 Rain 5 1009 86 7000 3.1 320 11:38 11.05.2020
3221 Rain 5 1009 86 7000 3.1 320 11:20 11.05.2020
3222 Rain 5 1009 80 10000 3.1 320 10:56 11.05.2020
3223 Rain 5 1009 80 10000 3.1 330 10:38 11.05.2020
3224 Rain 5 1009 80 10000 3.1 330 10:20 11.05.2020
3225 Rain 5 1009 80 10000 3.1 330 10:20 11.05.2020
3226 Rain 5 1009 80 10000 4.1 330 09:56 11.05.2020
3227 Rain 5 1009 75 10000 2.6 340 09:37 11.05.2020
3228 Rain 5 1009 75 10000 2.6 340 09:18 11.05.2020
3229 Clouds 5 1009 80 10000 3.1 320 08:42 11.05.2020
3230 Clouds 5 1009 80 10000 3.1 320 08:24 11.05.2020
3231 Rain 5 1006 90 0 3.62 315 07:56 11.05.2020
3232 Rain 5 1006 90 0 0.45 324 07:38 11.05.2020
3233 Rain 5 1006 90 0 3.56 316 07:20 11.05.2020
3234 Rain 5 1006 88 0 0.45 326 06:34 11.05.2020
3235 Clouds 5 1006 85 0 3.22 318 05:53 11.05.2020
3236 Rain 5 1005 82 0 0.45 333 05:22 11.05.2020
3237 Rain 7 1005 78 0 0.45 329 03:56 11.05.2020
3238 Rain 7 1006 80 0 3.13 327 02:36 11.05.2020
3239 Rain 8 1006 78 0 4.02 324 02:18 11.05.2020
3240 Rain 10 1006 67 0 2.24 316 01:23 11.05.2020
3241 Rain 11 1006 70 0 6.26 321 00:42 11.05.2020
3242 Rain 12 1003 76 0 1.79 316 00:19 11.05.2020
3243 Rain 13 1002 78 0 1.34 328 23:42 10.05.2020
3244 Clouds 13 1002 79 0 1.34 309 23:20 10.05.2020
3245 Clouds 15 1001 82 0 1.34 302 22:55 10.05.2020
3246 Clouds 15 1001 82 0 0.45 315 22:37 10.05.2020
3247 Clouds 15 1001 80 0 6.16 8 22:18 10.05.2020
3248 Clouds 16 1001 79 0 6.16 8 21:43 10.05.2020
3249 Clouds 16 1001 78 0 3.6 342 21:19 10.05.2020
3250 Clouds 16 1001 77 0 5.06 6 20:54 10.05.2020
3251 Clouds 17 1001 77 0 5.06 6 20:36 10.05.2020
3252 Clouds 17 1001 75 0 4.9 352 20:18 10.05.2020
3253 Clouds 17 1004 62 0 4.9 352 19:40 10.05.2020
3254 Rain 20 1003 73 0 6.47 336 19:22 10.05.2020
3255 Rain 21 1003 73 0 6.47 336 18:57 10.05.2020
3256 Rain 21 1003 73 0 6.47 336 18:57 10.05.2020
3257 Rain 21 1003 73 0 6.47 336 18:37 10.05.2020
3258 Clouds 21 1003 64 0 2.59 313 18:19 10.05.2020
3259 Clouds 22 1003 64 0 2.59 313 17:59 10.05.2020
3260 Clouds 22 1003 64 0 2.59 313 17:40 10.05.2020
3261 Clouds 21 1003 56 0 2.49 308 17:21 10.05.2020
3262 Clouds 22 1003 56 0 2.49 308 16:57 10.05.2020
3263 Clouds 21 1004 56 0 2.49 308 16:38 10.05.2020
3264 Clouds 21 1003 53 0 1.66 304 16:19 10.05.2020
3265 Clouds 21 1005 59 0 1.79 245 15:44 10.05.2020
3266 Clouds 22 1004 60 0 1.34 255 15:25 10.05.2020
3267 Clouds 22 1005 56 0 1.79 275 14:59 10.05.2020
3268 Clouds 21 1005 56 0 1.34 230 14:38 10.05.2020
3269 Clouds 22 1005 53 0 0.45 223 14:20 10.05.2020
3270 Clouds 22 1005 53 0 0.45 223 14:20 10.05.2020
3271 Clouds 22 1005 52 0 0.45 190 13:59 10.05.2020
3272 Clouds 22 1005 52 0 0.45 205 13:38 10.05.2020
3273 Clouds 22 1005 52 0 0.45 185 13:20 10.05.2020
3274 Clouds 22 1005 55 0 0.45 237 12:58 10.05.2020
3275 Clouds 21 1005 53 0 0.45 200 12:40 10.05.2020
3276 Clouds 20 1005 55 0 0.89 240 12:21 10.05.2020
3277 Clouds 20 1005 54 0 0.45 180 11:58 10.05.2020
3278 Clouds 20 1006 55 0 0.89 175 11:39 10.05.2020
3279 Clouds 19 1003 62 0 0.45 109 11:20 10.05.2020
3280 Clouds 20 1003 61 0 0.89 109 10:47 10.05.2020
3281 Clouds 18 1006 58 0 0.45 143 10:29 10.05.2020
3282 Clouds 19 1005 53 0 1.98 115 09:59 10.05.2020
3283 Clouds 17 1006 59 0 1.34 188 09:40 10.05.2020
3284 Clouds 14 1005 71 0 1.83 118 09:21 10.05.2020
3285 Clouds 12 1005 77 0 1.83 118 08:52 10.05.2020
3286 Clouds 13 1006 66 0 2.11 119 08:24 10.05.2020
3287 Clouds 12 1006 85 0 2.11 119 07:56 10.05.2020
3288 Clouds 11 1006 86 0 2.11 119 07:37 10.05.2020
3289 Clouds 8 1004 91 0 2.01 119 07:19 10.05.2020
3290 Clouds 10 1001 65 0 2.01 119 06:47 10.05.2020
3291 Clouds 8 1006 84 0 2.1 127 06:21 10.05.2020
3292 Clouds 8 1007 83 0 2.1 127 05:43 10.05.2020
3293 Clear 9 1007 81 0 2.33 136 04:41 10.05.2020
3294 Clear 9 1007 79 0 2.36 138 04:22 10.05.2020
3295 Clear 8 1006 87 0 2.36 138 03:41 10.05.2020
3296 Clear 9 1006 86 0 2.08 134 02:54 10.05.2020
3297 Clear 10 1006 85 0 2.44 113 02:24 10.05.2020
3298 Clear 10 1006 85 0 2.44 113 02:24 10.05.2020
3299 Clear 10 1006 85 0 2.44 113 02:24 10.05.2020
3300 Clear 10 1007 84 0 2.55 120 01:43 10.05.2020
3301 Clear 11 1007 83 0 2.22 105 01:23 10.05.2020
3302 Clear 11 1007 82 0 2.22 105 00:58 10.05.2020
3303 Clear 11 1007 81 0 2.22 105 00:39 10.05.2020
3304 Clear 12 1007 80 0 1.87 93 00:19 10.05.2020
3305 Clear 13 1007 77 0 1.87 93 23:39 09.05.2020
3306 Clear 13 1007 76 0 2.04 108 23:21 09.05.2020
3307 Clear 14 1008 73 0 2.04 108 22:57 09.05.2020
3308 Clear 15 1008 71 0 2.04 108 22:38 09.05.2020
3309 Clear 15 1008 70 0 1.87 116 22:20 09.05.2020
3310 Clear 15 1008 65 0 1.87 116 21:55 09.05.2020
3311 Clear 17 1010 26 7000 1.5 120 21:37 09.05.2020
3312 Clear 18 1008 61 0 2.46 127 21:19 09.05.2020
3313 Clear 18 1008 57 0 2.46 127 20:56 09.05.2020
3314 Clear 19 1011 23 7000 3.1 100 20:37 09.05.2020
3315 Clouds 20 1008 52 0 2.5 122 20:18 09.05.2020
3316 Clouds 22 1011 23 7000 2.6 110 19:40 09.05.2020
3317 Clouds 22 1008 44 0 1.34 109 19:20 09.05.2020
3318 Clouds 22 1011 23 7000 2.6 110 18:58 09.05.2020
3319 Clouds 22 1012 25 6000 2.1 110 18:40 09.05.2020
3320 Clouds 22 1010 39 0 0.45 120 18:19 09.05.2020
3321 Clouds 23 1006 28 0 3.2 112 17:44 09.05.2020
3322 Clouds 23 1011 60 0 3.57 108 17:23 09.05.2020
3323 Clouds 23 1011 60 0 3.57 108 16:55 09.05.2020
3324 Clouds 22 1011 60 0 3.57 108 16:37 09.05.2020
3325 Clouds 22 1012 59 0 3.8 104 16:18 09.05.2020
3326 Clouds 22 1012 59 0 3.8 104 15:41 09.05.2020
3327 Clouds 22 1012 58 0 4.1 100 15:22 09.05.2020
3328 Clouds 22 1013 58 0 4.1 100 14:55 09.05.2020
3329 Clouds 22 1013 58 0 4.1 100 14:37 09.05.2020
3330 Clouds 22 1013 58 0 4.06 100 14:18 09.05.2020
3331 Clouds 22 1013 58 0 3.81 99 13:43 09.05.2020
3332 Clouds 21 1014 58 0 3.66 103 13:22 09.05.2020
3333 Clouds 21 1014 58 0 3.66 103 12:59 09.05.2020
3334 Clouds 21 1014 58 0 3.66 103 12:39 09.05.2020
3335 Clouds 20 1015 32 5000 2.1 100 12:21 09.05.2020
3336 Clouds 20 1014 59 0 3.52 105 11:45 09.05.2020
3337 Clouds 20 1014 61 0 3.15 105 11:20 09.05.2020
3338 Clouds 20 1014 61 0 3.15 105 10:55 09.05.2020
3339 Clouds 20 1015 61 0 3.15 105 10:37 09.05.2020
3340 Clouds 18 1013 45 0 0.89 105 10:19 09.05.2020
3341 Clouds 16 1016 45 0 2.24 133 09:44 09.05.2020
3342 Clouds 14 1016 50 5000 1 0 09:20 09.05.2020
3343 Clouds 13 1015 65 0 1.34 61 08:58 09.05.2020
3344 Clouds 12 1015 70 0 0.89 42 08:40 09.05.2020
3345 Clouds 11 1015 79 0 2.77 118 08:21 09.05.2020
3346 Clouds 9 1015 80 0 2.77 118 07:45 09.05.2020
3347 Clouds 8 1013 90 0 2.45 120 07:27 09.05.2020
3348 Clouds 6 1014 89 0 2.45 120 06:44 09.05.2020
3349 Clouds 6 1013 88 0 2.48 116 06:20 09.05.2020
3350 Clouds 6 1014 87 0 2.48 116 05:42 09.05.2020
3351 Clear 7 1014 85 0 2.04 108 03:41 09.05.2020
3352 Clear 8 1014 85 0 1.97 108 02:55 09.05.2020
3353 Clear 9 1014 84 0 1.97 108 02:30 09.05.2020
3354 Clouds 9 1014 83 0 1.78 128 01:51 09.05.2020
3355 Clouds 10 1014 82 0 1.82 137 01:23 09.05.2020
3356 Clouds 10 1014 81 0 1.82 137 00:46 09.05.2020
3357 Clouds 11 1014 79 0 1.76 130 00:28 09.05.2020
3358 Clouds 12 1014 75 0 1.76 130 23:48 08.05.2020
3359 Clouds 12 1014 74 0 1.33 112 23:28 08.05.2020
3360 Clouds 13 1014 70 0 1.33 112 22:57 08.05.2020
3361 Clouds 13 1014 69 0 1.33 112 22:39 08.05.2020
3362 Clouds 13 1014 67 0 0.91 40 22:19 08.05.2020
3363 Clouds 14 1016 51 0 0.91 40 21:58 08.05.2020
3364 Clouds 14 1016 50 0 0.91 40 21:39 08.05.2020
3365 Clouds 16 1016 49 0 1.25 291 21:18 08.05.2020
3366 Clouds 17 1017 62 10000 1 0 20:56 08.05.2020
3367 Clouds 19 1017 62 10000 1 0 20:38 08.05.2020
3368 Clouds 18 1017 63 10000 1 0 20:20 08.05.2020
3369 Clouds 19 1017 24 10000 2.1 330 19:44 08.05.2020
3370 Clouds 19 1017 24 10000 2.1 330 19:24 08.05.2020
3371 Clouds 20 1017 24 10000 2.1 330 18:56 08.05.2020
3372 Clouds 20 1017 21 10000 2.6 330 18:38 08.05.2020
3373 Clouds 21 1017 21 10000 2.6 330 18:18 08.05.2020
3374 Clouds 20 1017 24 10000 3.1 290 17:42 08.05.2020
3375 Clouds 20 1017 24 10000 3.1 290 17:18 08.05.2020
3376 Clouds 20 1017 24 10000 3.6 280 16:45 08.05.2020
3377 Clouds 20 1017 24 10000 4.1 0 16:26 08.05.2020
3378 Clouds 20 1017 24 10000 3.6 310 15:57 08.05.2020
3379 Clouds 20 1017 24 10000 3.6 310 15:57 08.05.2020
3380 Clouds 20 1018 49 10000 4.1 270 15:39 08.05.2020
3381 Clouds 20 1018 24 10000 5.1 310 15:18 08.05.2020
3382 Clouds 19 1018 24 10000 5.1 310 14:54 08.05.2020
3383 Clouds 19 1018 24 10000 5.1 310 14:54 08.05.2020
3384 Clouds 19 1018 29 10000 4.6 290 14:36 08.05.2020
3385 Clouds 19 1018 29 10000 4.6 290 14:18 08.05.2020
3386 Clouds 19 1018 34 10000 5.1 270 13:40 08.05.2020
3387 Clouds 19 1018 34 10000 5.1 270 13:20 08.05.2020
3388 Clouds 19 1018 39 10000 4.1 290 12:55 08.05.2020
3389 Clouds 19 1018 39 10000 3.1 280 12:36 08.05.2020
3390 Clouds 17 1018 39 10000 3.1 280 12:18 08.05.2020
3391 Clouds 16 1018 44 10000 2.6 310 11:43 08.05.2020
3392 Clouds 17 1018 44 10000 2.6 310 11:22 08.05.2020
3393 Clouds 15 1019 47 10000 3.1 300 10:58 08.05.2020
3394 Clouds 15 1019 47 10000 3.1 300 10:40 08.05.2020
3395 Clouds 15 1019 47 10000 3.1 300 10:19 08.05.2020
3396 Clouds 15 1019 44 10000 3.1 280 09:54 08.05.2020
3397 Clouds 14 1019 54 10000 2.1 270 09:36 08.05.2020
3398 Clouds 13 1019 54 10000 2.1 270 09:18 08.05.2020
3399 Clouds 11 1019 76 10000 2.02 263 08:40 08.05.2020
3400 Clouds 10 1019 76 10000 1.5 236 08:21 08.05.2020
3401 Clouds 7 1016 91 0 1.5 236 07:43 08.05.2020
3402 Clouds 6 1016 91 0 1.38 215 07:23 08.05.2020
3403 Clouds 6 1016 90 0 1.38 215 06:50 08.05.2020
3404 Clouds 5 1016 89 0 1.41 205 06:22 08.05.2020
3405 Clouds 5 1016 89 0 1.41 205 05:42 08.05.2020
3406 Clouds 6 1016 88 0 1.1 202 04:32 08.05.2020
3407 Clouds 7 1017 86 0 1.11 191 02:33 08.05.2020
3408 Clouds 8 1017 85 0 1.07 195 01:53 08.05.2020
3409 Clouds 8 1017 85 0 0.76 242 01:28 08.05.2020
3410 Clouds 9 1017 83 0 0.76 242 00:52 08.05.2020
3411 Clouds 9 1017 82 0 0.76 242 00:30 08.05.2020
3412 Clouds 9 1018 81 0 1.28 260 23:59 07.05.2020
3413 Clouds 9 1018 80 0 1.28 260 23:40 07.05.2020
3414 Clouds 9 1018 80 0 1.28 260 23:40 07.05.2020
3415 Clouds 9 1018 80 0 1.28 260 23:40 07.05.2020
3416 Clouds 10 1018 79 0 1.42 251 23:21 07.05.2020
3417 Clouds 10 1018 77 0 1.42 251 22:56 07.05.2020
3418 Clouds 11 1018 75 0 1.42 251 22:38 07.05.2020
3419 Clouds 11 1018 75 0 1.42 251 22:38 07.05.2020
3420 Clouds 11 1018 72 0 1.57 254 22:19 07.05.2020
3421 Clouds 12 1021 54 10000 1.57 254 21:55 07.05.2020
3422 Clouds 13 1021 54 10000 1.79 263 21:36 07.05.2020
3423 Clouds 13 1021 54 10000 2.09 256 21:18 07.05.2020
3424 Clouds 16 1021 36 10000 2.6 310 20:42 07.05.2020
3425 Clear 16 1021 36 10000 2.6 310 20:23 07.05.2020
3426 Clear 17 1021 34 10000 2.6 300 19:58 07.05.2020
3427 Clear 18 1022 34 10000 4.1 310 19:38 07.05.2020
3428 Clear 18 1022 34 10000 4.1 310 19:20 07.05.2020
3429 Clear 18 1022 34 10000 4.1 310 18:45 07.05.2020
3430 Clear 18 1022 34 10000 3.6 310 18:26 07.05.2020
3431 Clear 18 1022 36 10000 3.6 300 17:57 07.05.2020
3432 Clear 18 1022 36 10000 5.1 310 17:36 07.05.2020
3433 Clear 18 1022 36 10000 5.1 310 17:18 07.05.2020
3434 Clear 18 1023 42 10000 5.1 300 16:40 07.05.2020
3435 Clear 18 1023 42 10000 5.1 300 16:18 07.05.2020
3436 Clear 18 1023 42 10000 5.1 300 15:56 07.05.2020
3437 Clear 17 1023 44 10000 5.7 310 15:37 07.05.2020
3438 Clear 17 1023 44 10000 5.7 310 15:18 07.05.2020
3439 Clear 17 1023 44 10000 5.7 310 15:18 07.05.2020
3440 Clear 16 1023 51 10000 4.6 300 14:45 07.05.2020
3441 Clear 16 1024 51 10000 5.7 300 14:22 07.05.2020
3442 Clear 16 1024 51 10000 5.7 300 13:57 07.05.2020
3443 Clouds 15 1024 58 10000 5.7 280 13:39 07.05.2020
3444 Clouds 15 1024 58 10000 5.7 280 13:20 07.05.2020
3445 Clouds 14 1024 62 10000 5.1 300 12:40 07.05.2020
3446 Clouds 13 1024 62 10000 5.1 300 12:20 07.05.2020
3447 Clouds 11 1024 66 10000 4.6 290 11:39 07.05.2020
3448 Clouds 11 1024 66 10000 4.6 290 11:21 07.05.2020
3449 Clouds 11 1024 66 10000 3.6 300 10:57 07.05.2020
3450 Clouds 10 1024 76 10000 4.6 310 10:38 07.05.2020
3451 Clouds 10 1024 76 10000 4.6 310 10:18 07.05.2020
3452 Clouds 9 1024 75 10000 4.6 280 09:39 07.05.2020
3453 Clouds 8 1024 75 10000 4.6 280 09:20 07.05.2020
3454 Clear 8 1021 90 0 1.79 262 08:54 07.05.2020
3455 Clear 7 1021 91 0 0.89 284 08:36 07.05.2020
3456 Clouds 7 1022 91 0 0.89 287 08:18 07.05.2020
3457 Clouds 7 1022 91 0 1.34 281 07:41 07.05.2020
3458 Clouds 6 1022 91 0 0.89 284 07:21 07.05.2020
3459 Clouds 5 1022 91 0 0.45 301 06:39 07.05.2020
3460 Clouds 5 1023 89 0 1.34 255 06:21 07.05.2020
3461 Clouds 4 1022 88 0 3.36 264 05:28 07.05.2020
3462 Clouds 5 1022 84 0 3.19 266 03:50 07.05.2020
3463 Clouds 5 1021 82 0 0.45 302 03:23 07.05.2020
3464 Clouds 5 1023 82 0 0.45 315 02:42 07.05.2020
3465 Clouds 6 1023 75 0 0.45 315 01:42 07.05.2020
3466 Clouds 6 1023 74 0 0.89 315 01:23 07.05.2020
3467 Clouds 7 1023 65 0 3.25 278 00:45 07.05.2020
3468 Clouds 7 1023 62 0 0.45 319 00:27 07.05.2020
3469 Clouds 8 1023 73 0 1.34 288 23:47 06.05.2020
3470 Clouds 8 1023 52 0 0.89 319 23:25 06.05.2020
3471 Clouds 9 1023 72 0 3.13 274 22:58 06.05.2020
3472 Clouds 9 1023 71 0 1.34 283 22:40 06.05.2020
3473 Clouds 10 1022 45 0 0.45 319 22:20 06.05.2020
3474 Clouds 10 1022 65 0 1.34 303 21:57 06.05.2020
3475 Clouds 11 1022 64 0 3.75 313 21:39 06.05.2020
3476 Clouds 13 1022 31 10000 4.6 310 21:20 06.05.2020
3477 Clouds 14 1022 31 10000 4.6 310 20:43 06.05.2020
3478 Clouds 15 1022 31 10000 4.6 310 20:25 06.05.2020
3479 Clouds 15 1022 72 10000 4.6 300 19:59 06.05.2020
3480 Clouds 15 1022 31 10000 5.1 300 19:39 06.05.2020
3481 Clouds 15 1022 31 10000 5.1 300 19:21 06.05.2020
3482 Clouds 16 1022 68 10000 5.7 300 18:59 06.05.2020
3483 Clouds 16 1022 68 10000 5.7 300 18:41 06.05.2020
3484 Clouds 17 1022 60 10000 5.7 300 18:21 06.05.2020
3485 Clouds 16 1023 31 10000 5.7 290 17:59 06.05.2020
3486 Clouds 16 1022 48 0 3.58 327 17:40 06.05.2020
3487 Clouds 17 1022 47 0 4.02 303 17:22 06.05.2020
3488 Clouds 17 1022 47 0 4.47 290 16:59 06.05.2020
3489 Clouds 17 1022 48 0 4.47 284 16:41 06.05.2020
3490 Clouds 17 1022 48 0 4.47 284 16:41 06.05.2020
3491 Clouds 16 1024 53 10000 4.6 280 16:22 06.05.2020
3492 Clouds 16 1024 53 10000 4.6 280 15:59 06.05.2020
3493 Clouds 16 1024 53 10000 4.6 280 15:41 06.05.2020
3494 Clouds 16 1024 54 10000 4.6 280 15:22 06.05.2020
3495 Clouds 16 1024 36 10000 4.1 300 14:56 06.05.2020
3496 Clear 15 1024 38 10000 4.1 310 14:38 06.05.2020
3497 Clear 15 1024 38 10000 4.1 310 14:18 06.05.2020
3498 Clear 15 1024 38 10000 4.6 270 13:56 06.05.2020
3499 Clear 15 1024 54 10000 4.6 280 13:37 06.05.2020
3500 Clear 15 1024 57 10000 4.6 280 13:18 06.05.2020
3501 Clear 15 1024 57 10000 4.6 280 13:18 06.05.2020
3502 Clear 14 1025 43 10000 3.6 290 12:42 06.05.2020
3503 Clear 14 1025 43 10000 3.6 290 12:24 06.05.2020
3504 Clear 13 1025 46 10000 2.6 270 11:41 06.05.2020
3505 Clear 12 1025 50 10000 2.6 270 11:22 06.05.2020
3506 Clear 11 1025 50 10000 2.6 270 10:58 06.05.2020
3507 Clear 11 1025 61 10000 2.6 270 10:39 06.05.2020
3508 Clear 11 1025 61 10000 2.6 270 10:19 06.05.2020
3509 Clear 9 1025 66 10000 3.1 270 09:57 06.05.2020
3510 Clear 8 1025 70 10000 2.1 260 09:37 06.05.2020
3511 Clear 8 1025 70 10000 2.1 260 09:19 06.05.2020
3512 Clear 7 1025 87 10000 2.1 260 08:42 06.05.2020
3513 Clear 6 1025 87 10000 2.1 260 08:20 06.05.2020
3514 Clear 5 1022 93 0 2.72 272 07:56 06.05.2020
3515 Clear 5 1022 93 0 2.72 272 07:38 06.05.2020
3516 Clear 4 1022 92 0 1.95 270 07:18 06.05.2020
3517 Clear 2 1021 92 0 1.95 270 06:46 06.05.2020
3518 Clear 2 1021 91 0 1.44 287 06:21 06.05.2020
3519 Clear 2 1021 91 0 1.44 287 05:49 06.05.2020
3520 Clear 2 1021 91 0 1.43 299 05:31 06.05.2020
3521 Clear 3 1021 89 0 1.43 292 03:53 06.05.2020
3522 Clear 3 1021 89 0 1.46 290 03:28 06.05.2020
3523 Clear 3 1021 88 0 1.46 290 02:55 06.05.2020
3524 Clouds 3 1021 88 0 1.63 297 02:27 06.05.2020
3525 Clouds 3 1020 87 0 1.8 303 01:43 06.05.2020
3526 Clouds 3 1020 87 0 1.88 318 01:25 06.05.2020
3527 Clouds 4 1020 85 0 1.88 318 00:44 06.05.2020
3528 Clouds 4 1020 85 0 1.85 348 00:19 06.05.2020
3529 Clouds 4 1019 83 0 1.85 348 23:42 05.05.2020
3530 Clouds 5 1019 82 0 2.17 6 23:20 05.05.2020
3531 Clouds 5 1019 81 0 2.17 6 22:57 05.05.2020
3532 Clouds 6 1019 80 0 2.17 6 22:38 05.05.2020
3533 Clear 6 1019 79 0 2.9 15 22:19 05.05.2020
3534 Clear 8 1021 72 0 2.9 15 21:41 05.05.2020
3535 Clear 8 1018 72 0 3.42 26 21:22 05.05.2020
3536 Clear 9 1018 67 0 3.42 26 20:59 05.05.2020
3537 Clear 10 1018 66 0 3.42 26 20:41 05.05.2020
3538 Clouds 11 1018 65 0 3.51 31 20:20 05.05.2020
3539 Clouds 11 1018 64 0 3.51 31 19:59 05.05.2020
3540 Clouds 12 1018 58 0 0.45 38 19:41 05.05.2020
3541 Rain 12 1017 54 0 0.45 38 19:23 05.05.2020
3542 Rain 13 1017 44 0 0.45 46 18:57 05.05.2020
3543 Rain 14 1017 45 0 0.45 324 18:39 05.05.2020
3544 Clouds 14 1017 46 0 3.9 349 18:19 05.05.2020
3545 Clouds 13 1017 46 0 3.9 349 17:57 05.05.2020
3546 Clouds 13 1017 46 0 3.9 349 17:57 05.05.2020
3547 Clouds 14 1017 45 0 3.9 349 17:38 05.05.2020
3548 Clouds 14 1019 48 0 2.68 336 17:20 05.05.2020
3549 Clouds 13 1019 50 0 3.58 359 16:40 05.05.2020
3550 Clouds 14 1017 45 0 0.45 323 16:21 05.05.2020
3551 Clouds 14 1017 43 0 0.45 306 15:59 05.05.2020
3552 Clouds 14 1017 43 0 0.45 355 15:39 05.05.2020
3553 Clouds 14 1017 43 0 0.45 355 15:39 05.05.2020
3554 Clouds 14 1019 47 0 3.58 317 15:21 05.05.2020
3555 Clouds 13 1020 37 10000 3.6 340 14:55 05.05.2020
3556 Clouds 13 1020 37 10000 3.6 340 14:37 05.05.2020
3557 Clouds 12 1020 37 10000 3.6 340 14:19 05.05.2020
3558 Clouds 12 1020 37 10000 3.6 340 13:57 05.05.2020
3559 Clouds 11 1020 40 10000 3.6 350 13:38 05.05.2020
3560 Clear 12 1020 40 10000 3.6 350 13:19 05.05.2020
3561 Clear 12 1020 40 10000 3.6 350 13:19 05.05.2020
3562 Clear 11 1020 43 10000 3.1 340 12:57 05.05.2020
3563 Clouds 11 1020 50 10000 3.1 310 12:38 05.05.2020
3564 Clouds 11 1020 50 10000 3.1 310 12:19 05.05.2020
3565 Clouds 10 1020 61 10000 2.6 310 11:41 05.05.2020
3566 Clouds 10 1020 70 10000 2.6 320 11:20 05.05.2020
3567 Clouds 10 1020 70 10000 2.6 320 10:56 05.05.2020
3568 Rain 9 1020 75 10000 2.1 300 10:38 05.05.2020
3569 Clear 9 1020 75 10000 2.1 300 10:19 05.05.2020
3570 Clouds 8 1020 75 10000 2.1 280 09:55 05.05.2020
3571 Clouds 8 1020 75 10000 2.1 320 09:37 05.05.2020
3572 Clouds 6 1020 75 10000 2.1 320 09:19 05.05.2020
3573 Clear 6 1020 86 10000 2.6 300 08:41 05.05.2020
3574 Clear 5 1018 92 0 0.45 308 08:20 05.05.2020
3575 Clear 4 1017 92 0 0.45 309 07:57 05.05.2020
3576 Clear 4 1017 92 0 0.45 307 07:38 05.05.2020
3577 Clear 4 1017 92 0 0.45 315 07:18 05.05.2020
3578 Clear 3 1017 91 0 0.45 319 06:42 05.05.2020
3579 Clear 2 1017 90 0 2.91 285 06:20 05.05.2020
3580 Clear 2 1019 91 0 2.91 285 05:36 05.05.2020
3581 Clear 3 1018 89 0 0.45 327 03:34 05.05.2020
3582 Clear 4 1019 84 0 0.45 327 01:42 05.05.2020
3583 Clear 5 1017 81 0 2.84 309 00:52 05.05.2020
3584 Clear 6 1017 78 0 3.37 320 00:21 05.05.2020
3585 Clear 6 1018 79 0 0.45 295 23:45 04.05.2020
3586 Clear 7 1018 73 0 1.34 330 23:21 04.05.2020
3587 Clear 7 1018 70 0 1.34 328 22:56 04.05.2020
3588 Clear 8 1018 69 0 1.34 319 22:38 04.05.2020
3589 Clear 8 1018 66 0 2.24 321 22:19 04.05.2020
3590 Clear 10 1015 18 0 1.79 1 21:53 04.05.2020
3591 Clear 10 1015 18 0 1.79 1 21:34 04.05.2020
3592 Clouds 11 1015 18 0 1.79 1 20:56 04.05.2020
3593 Clouds 11 1015 18 0 1.79 1 20:38 04.05.2020
3594 Clouds 11 1015 18 0 1.79 1 20:38 04.05.2020
3595 Clouds 11 1015 18 0 1.79 1 20:38 04.05.2020
3596 Clouds 11 1015 18 0 1.79 1 20:38 04.05.2020
3597 Clouds 11 1015 18 0 1.79 1 20:38 04.05.2020
3598 Rain 12 1015 67 0 5.18 335 20:18 04.05.2020
3599 Rain 12 1014 65 0 5.18 335 19:42 04.05.2020
3600 Clouds 13 1017 50 10000 2.1 30 19:21 04.05.2020
3601 Clouds 13 1017 50 10000 2.1 30 19:21 04.05.2020
3602 Clouds 13 1017 50 10000 2.1 30 18:57 04.05.2020
3603 Clouds 13 1017 50 10000 2.1 30 18:38 04.05.2020
3604 Clouds 13 1017 50 10000 2.1 30 18:18 04.05.2020
3605 Clouds 13 1017 50 10000 2.1 30 18:18 04.05.2020
3606 Clouds 14 1017 47 10000 3.6 340 17:55 04.05.2020
3607 Clouds 14 1017 47 10000 3.6 340 17:55 04.05.2020
3608 Clouds 14 1017 47 10000 3.6 0 17:37 04.05.2020
3609 Clouds 14 1017 47 10000 3.6 0 17:18 04.05.2020
3610 Clouds 13 1017 58 10000 3.6 340 16:42 04.05.2020
3611 Clouds 13 1017 58 10000 3.6 340 16:22 04.05.2020
3612 Clouds 13 1017 62 10000 2.1 0 15:55 04.05.2020
3613 Clouds 12 1017 66 10000 2.6 320 15:37 04.05.2020
3614 Clouds 12 1017 66 10000 2.6 320 15:18 04.05.2020
3615 Clouds 12 1018 76 10000 2.1 0 14:43 04.05.2020
3616 Clouds 11 1018 76 10000 2.1 0 14:19 04.05.2020
3617 Clouds 9 1018 87 10000 1 0 12:49 04.05.2020
3618 Clouds 9 1018 87 10000 1 0 12:27 04.05.2020
3619 Clouds 9 1018 87 10000 1 0 12:26 04.05.2020
3620 Rain 8 1018 93 10000 2.6 360 10:36 04.05.2020
3621 Rain 8 1018 93 10000 2.6 360 10:36 04.05.2020
3622 Rain 8 1018 93 10000 2.6 360 10:36 04.05.2020
3623 Rain 8 1018 93 10000 2.6 360 10:36 04.05.2020
3624 Rain 8 1017 93 4500 2.1 0 09:26 04.05.2020
3625 Rain 8 1017 93 4500 2.1 0 09:26 04.05.2020
3626 Rain 8 1017 93 4500 2.1 0 09:26 04.05.2020
3627 Rain 8 1017 93 4500 2.1 0 09:26 04.05.2020
3628 Rain 8 1017 93 4500 2.1 0 09:26 04.05.2020
3629 Rain 9 1014 94 0 1.23 348 07:52 04.05.2020
3630 Rain 9 1014 94 0 1.23 348 07:33 04.05.2020
3631 Rain 9 1014 94 0 1.23 348 07:33 04.05.2020
3632 Rain 9 1014 94 0 1.23 348 07:33 04.05.2020
3633 Rain 9 1014 94 0 1.23 348 07:33 04.05.2020
3634 -273 0 0 0 0 0 04:59 04.05.2020
3635 Clouds 9 1014 89 0 1.39 279 03:29 04.05.2020
3636 Clouds 9 1014 88 0 1.39 279 02:32 04.05.2020
3637 Clouds 9 1014 88 0 1.39 279 02:32 04.05.2020
3638 Clouds 9 1016 85 0 1.11 287 01:19 04.05.2020
3639 Clouds 9 1016 84 0 1.02 272 23:57 03.05.2020
3640 Clouds 9 1016 84 0 1.02 272 23:57 03.05.2020
3641 Clouds 9 1016 83 0 1.02 272 23:39 03.05.2020
3642 Clouds 9 1016 83 0 1.02 272 23:39 03.05.2020
3643 Clouds 9 1016 82 0 0.45 215 23:19 03.05.2020
3644 Clouds 9 1016 81 0 2.68 213 22:41 03.05.2020
3645 Clouds 9 1016 76 0 1.45 281 22:22 03.05.2020
3646 Clouds 10 1016 68 0 1.45 281 21:42 03.05.2020
3647 Clouds 10 1016 68 0 1.45 281 21:42 03.05.2020
3648 Clouds 11 1014 76 0 1.89 290 21:21 03.05.2020
3649 Clouds 12 1014 72 0 1.89 290 20:54 03.05.2020
3650 Clouds 13 1014 71 0 1.89 290 20:36 03.05.2020
3651 Rain 14 1014 70 0 2.24 294 20:18 03.05.2020
3652 Rain 14 1014 66 0 2.24 294 19:46 03.05.2020
3653 Rain 14 1014 66 0 2.24 294 19:46 03.05.2020
3654 Rain 14 1014 64 0 2.97 289 19:27 03.05.2020
3655 Rain 14 1014 64 0 2.97 289 19:27 03.05.2020
3656 Rain 15 1014 64 0 0.45 298 18:40 03.05.2020
3657 Rain 15 1014 62 0 0.45 300 18:21 03.05.2020
3658 Rain 15 1014 63 0 0.45 314 17:59 03.05.2020
3659 Rain 15 1014 61 0 0.45 324 17:40 03.05.2020
3660 Rain 15 1014 61 0 0.45 317 17:21 03.05.2020
3661 Rain 15 1014 61 0 0.45 325 16:45 03.05.2020
3662 Rain 15 1014 66 0 0.89 311 16:20 03.05.2020
3663 Rain 14 1014 66 0 0.89 311 16:20 03.05.2020
3664 Rain 15 1014 63 0 1.34 281 15:58 03.05.2020
3665 Rain 14 1014 63 0 0.89 321 15:39 03.05.2020
3666 Rain 14 1014 67 0 0.89 300 15:20 03.05.2020
3667 Rain 14 1014 67 0 1.79 292 14:58 03.05.2020
3668 Rain 14 1014 66 0 1.79 288 14:39 03.05.2020
3669 Rain 14 1014 66 0 1.34 290 14:20 03.05.2020
3670 Rain 14 1014 65 0 1.79 300 13:45 03.05.2020
3671 Rain 13 1016 76 0 3.13 308 13:45 03.05.2020
3672 Rain 13 1016 76 0 3.13 308 13:45 03.05.2020
3673 Rain 13 1014 73 0 2.24 288 12:59 03.05.2020
3674 Rain 13 1014 72 0 1.79 274 12:41 03.05.2020
3675 Rain 13 1014 72 0 0.89 293 12:18 03.05.2020
3676 Rain 13 1016 76 0 2.68 308 11:55 03.05.2020
3677 Rain 13 1014 77 0 1.34 284 11:37 03.05.2020
3678 Rain 13 1014 81 0 0.89 281 11:18 03.05.2020
3679 Rain 12 1014 86 0 1.34 266 10:45 03.05.2020
3680 Rain 12 1014 86 0 1.34 266 10:44 03.05.2020
3681 Rain 12 1014 86 0 1.34 266 10:44 03.05.2020
3682 Rain 12 1014 86 0 1.34 266 10:44 03.05.2020
3683 Rain 12 1014 86 0 1.34 266 10:44 03.05.2020
3684 Rain 10 1014 89 0 1.79 246 09:57 03.05.2020
3685 Rain 10 1014 89 0 1.79 246 09:57 03.05.2020
3686 Rain 10 1014 89 0 1.79 246 09:57 03.05.2020
3687 Rain 10 1014 89 0 1.79 246 09:57 03.05.2020
3688 Rain 10 1014 90 0 1.79 274 09:32 03.05.2020
3689 Rain 10 1014 90 0 1.79 274 09:32 03.05.2020
3690 Rain 10 1014 90 0 1.79 274 09:32 03.05.2020
3691 Rain 10 1014 90 0 1.79 274 09:32 03.05.2020
3692 Clear 9 1014 91 0 2.24 273 08:55 03.05.2020
3693 Clear 9 1014 91 0 2.24 273 08:55 03.05.2020
3694 Clear 9 1014 91 0 2.24 273 08:55 03.05.2020
3695 Clear 9 1014 91 0 2.24 273 08:55 03.05.2020
3696 Clear 9 1014 91 0 2.24 273 08:55 03.05.2020
3697 Clear 9 1015 89 0 1.34 197 08:21 03.05.2020
3698 Clear 9 1015 89 0 1.34 197 08:21 03.05.2020
3699 Clear 9 1015 88 0 1.34 288 08:21 03.05.2020
3700 Clear 8 1013 94 0 1.79 267 07:39 03.05.2020
3701 Clear 7 1014 93 4700 2.6 250 06:19 03.05.2020
3702 Clear 7 1013 93 4600 2.1 240 05:46 03.05.2020
3703 Clear 7 1013 87 5000 2.6 250 04:46 03.05.2020
3704 Clear 7 1013 89 0 3.58 234 04:23 03.05.2020
3705 Clear 7 1010 93 0 0.89 292 02:58 03.05.2020
3706 Clouds 7 1012 92 0 0.45 360 02:24 03.05.2020
3707 Clouds 7 1012 89 0 2.68 259 01:44 03.05.2020
3708 Clear 8 1012 91 0 0.45 271 01:24 03.05.2020
3709 Clear 8 1012 91 0 0.89 277 00:55 03.05.2020
3710 Clear 8 1011 92 0 3.55 266 00:37 03.05.2020
3711 Clouds 8 1009 91 0 3.46 275 00:18 03.05.2020
3712 Clouds 8 1011 92 0 3.46 275 23:42 02.05.2020
3713 Clouds 8 1009 90 0 0.89 294 23:24 02.05.2020
3714 Clouds 8 1008 89 0 0.45 295 22:43 02.05.2020
3715 Clouds 9 1008 89 0 0.45 295 22:23 02.05.2020
3716 Clouds 8 1008 88 0 0.45 296 21:56 02.05.2020
3717 Clouds 8 1007 87 0 0.45 296 21:38 02.05.2020
3718 Clear 8 1007 86 0 0.89 296 21:19 02.05.2020
3719 Clear 9 1007 84 0 4.01 293 20:57 02.05.2020
3720 Clear 9 1006 82 0 0.89 296 20:37 02.05.2020
3721 Rain 9 1007 80 0 1.34 298 20:19 02.05.2020
3722 Rain 10 1008 88 0 0.45 270 19:57 02.05.2020
3723 Rain 10 1008 88 0 0.45 265 19:57 02.05.2020
3724 Rain 10 1008 87 0 0.45 316 19:38 02.05.2020
3725 Rain 11 1005 73 0 1.79 279 19:19 02.05.2020
3726 Rain 11 1005 75 0 2.24 278 18:55 02.05.2020
3727 Rain 11 1005 74 0 2.68 279 18:36 02.05.2020
3728 Rain 12 1006 72 0 0.45 292 18:18 02.05.2020
3729 Rain 12 1004 76 0 2.68 278 17:39 02.05.2020
3730 Rain 12 1004 78 0 2.68 276 17:20 02.05.2020
3731 Rain 12 1004 80 0 2.68 270 16:59 02.05.2020
3732 Rain 13 1004 82 0 2.68 280 16:40 02.05.2020
3733 Rain 11 1004 86 0 2.24 255 16:22 02.05.2020
3734 Rain 11 1004 86 0 1.79 275 15:43 02.05.2020
3735 Rain 10 1004 87 0 3.58 277 15:21 02.05.2020
3736 Rain 12 1003 89 0 2.68 261 14:59 02.05.2020
3737 Rain 12 1003 89 0 3.13 265 14:40 02.05.2020
3738 Rain 11 1003 91 0 2.68 277 14:22 02.05.2020
3739 Rain 9 1003 91 0 2.24 265 13:40 02.05.2020
3740 Rain 9 1003 91 0 2.24 238 13:22 02.05.2020
3741 Rain 9 1003 89 0 2.24 273 12:56 02.05.2020
3742 Rain 9 1003 87 0 2.24 283 12:38 02.05.2020
3743 Rain 9 1003 85 0 2.68 278 12:20 02.05.2020
3744 Rain 10 1002 79 0 4.92 270 11:54 02.05.2020
3745 Rain 8 1004 84 0 4.02 240 11:36 02.05.2020
3746 Rain 11 1004 79 0 7.6 260 11:18 02.05.2020
3747 Rain 11 1002 86 0 2.24 264 10:39 02.05.2020
3748 Rain 11 1002 86 0 4.02 261 10:21 02.05.2020
3749 Rain 10 1002 88 0 2.68 208 09:58 02.05.2020
3750 Rain 10 1002 89 0 2.24 237 09:39 02.05.2020
3751 Clouds 10 1002 90 0 2.24 211 09:21 02.05.2020
3752 Clouds 10 1001 92 0 2.24 264 08:55 02.05.2020
3753 Clouds 10 1001 93 0 1.79 229 08:37 02.05.2020
3754 Clouds 9 1001 93 0 1.79 212 08:18 02.05.2020
3755 Clouds 8 1001 93 0 1.79 259 07:42 02.05.2020
3756 Clouds 8 1001 94 0 1.79 259 07:22 02.05.2020
3757 Clouds 7 1000 94 0 1.34 271 06:42 02.05.2020
3758 Clouds 7 1000 93 0 4.08 226 05:28 02.05.2020
3759 Clouds 7 1000 93 0 0.89 297 04:27 02.05.2020
3760 Clouds 7 1000 93 0 4.05 221 03:50 02.05.2020
3761 Clouds 7 999 92 0 0.45 297 02:42 02.05.2020
3762 Clouds 7 999 92 0 3.95 219 01:58 02.05.2020
3763 Clouds 7 999 92 0 3.74 222 01:27 02.05.2020
3764 Clouds 7 999 91 0 0.45 297 00:43 02.05.2020
3765 Clouds 7 999 91 0 0.45 297 00:24 02.05.2020
3766 Clouds 8 999 90 0 3.66 223 23:56 01.05.2020
3767 Clouds 8 999 89 0 3.66 223 23:37 01.05.2020
3768 Clouds 8 999 88 0 0.89 297 23:18 01.05.2020
3769 Clouds 8 1000 88 0 3.13 191 22:39 01.05.2020
3770 Clouds 9 999 85 0 3.79 222 22:21 01.05.2020
3771 Clouds 10 999 82 0 0.45 300 21:58 01.05.2020
3772 Clouds 9 1001 86 0 3.79 222 21:39 01.05.2020
3773 Clouds 10 999 80 0 1.34 325 21:21 01.05.2020
3774 Clouds 10 999 80 0 1.34 325 21:21 01.05.2020
3775 Clouds 10 998 76 0 1.34 208 20:58 01.05.2020
3776 Clouds 11 998 74 0 1.79 209 20:40 01.05.2020
3777 Rain 12 997 73 0 2.24 208 20:20 01.05.2020
3778 Rain 12 997 73 0 2.24 208 20:20 01.05.2020
3779 Rain 12 997 73 0 2.24 208 20:20 01.05.2020
3780 Rain 12 997 73 0 3.13 217 19:59 01.05.2020
3781 Rain 13 997 73 0 3.58 195 19:41 01.05.2020
3782 Rain 13 997 75 0 4.47 198 19:21 01.05.2020
3783 Rain 13 997 75 0 4.47 198 19:21 01.05.2020
3784 Rain 14 997 71 0 5.36 208 18:56 01.05.2020
3785 Rain 15 997 67 0 5.36 216 18:38 01.05.2020
3786 Rain 15 997 57 0 2.68 207 18:19 01.05.2020
3787 Rain 15 997 57 0 2.68 207 18:19 01.05.2020
3788 Rain 16 997 57 0 1.79 199 17:41 01.05.2020
3789 Rain 16 997 58 0 2.24 263 17:23 01.05.2020
3790 Rain 16 997 58 0 1.79 212 16:58 01.05.2020
3791 Rain 15 999 52 0 3.13 222 16:40 01.05.2020
3792 Rain 16 997 56 0 3.58 219 16:21 01.05.2020
3793 Rain 16 997 60 0 2.68 205 15:58 01.05.2020
3794 Rain 17 997 60 0 3.13 218 15:40 01.05.2020
3795 Rain 17 999 55 0 4.92 253 15:20 01.05.2020
3796 Rain 16 999 57 0 4.02 186 14:54 01.05.2020
3797 Rain 16 997 64 0 3.58 252 14:36 01.05.2020
3798 Rain 16 997 61 0 2.68 184 14:18 01.05.2020
3799 Rain 16 997 65 0 3.13 205 13:40 01.05.2020
3800 Rain 16 997 61 0 2.68 242 13:22 01.05.2020
3801 Rain 15 998 66 0 2.68 234 12:56 01.05.2020
3802 Rain 15 998 64 0 3.58 207 12:37 01.05.2020
3803 Rain 13 1000 65 0 4.47 242 12:19 01.05.2020
3804 Rain 14 998 68 0 3.13 265 11:47 01.05.2020
3805 Clouds 13 998 74 0 3.58 204 11:26 01.05.2020
3806 Clouds 13 998 76 0 2.68 256 10:59 01.05.2020
3807 Clouds 12 998 78 0 3.58 207 10:40 01.05.2020
3808 Clouds 11 998 78 0 2.68 200 10:20 01.05.2020
3809 Clouds 12 998 79 0 4.47 236 09:45 01.05.2020
3810 Clouds 11 1000 79 0 4.47 229 09:21 01.05.2020
3811 Clouds 11 1000 77 0 3.58 255 08:59 01.05.2020
3812 Clouds 11 998 85 0 1.79 218 08:41 01.05.2020
3813 Clear 11 1000 82 0 1.34 242 08:22 01.05.2020
3814 Clear 11 1000 82 0 1.34 242 08:22 01.05.2020
3815 Clear 10 998 89 0 1.79 217 07:46 01.05.2020
3816 Clear 9 998 90 0 0.89 226 07:23 01.05.2020
3817 Clear 9 998 91 0 1.34 229 06:54 01.05.2020
3818 Clear 9 998 92 0 2.24 252 05:38 01.05.2020
3819 Clear 9 997 92 0 1.79 215 05:19 01.05.2020
3820 Clear 8 998 90 0 5.27 208 03:34 01.05.2020
3821 Clear 8 998 90 0 0.45 198 02:48 01.05.2020
3822 Clouds 8 998 91 0 1.79 192 02:29 01.05.2020
3823 Clouds 8 998 91 0 0.89 207 01:37 01.05.2020
3824 Clouds 8 998 91 0 2.24 206 01:18 01.05.2020
3825 Clouds 8 998 90 0 1.79 217 00:38 01.05.2020
3826 Rain 9 998 90 0 3.13 225 00:20 01.05.2020
3827 Rain 9 997 90 0 3.13 196 23:57 30.04.2020
3828 Rain 9 997 89 0 3.58 202 23:38 30.04.2020
3829 Rain 9 998 88 0 3.13 194 23:19 30.04.2020
3830 Rain 11 997 39 0 1.79 192 22:42 30.04.2020
3831 Rain 12 997 85 0 0.89 169 22:21 30.04.2020
3832 Rain 12 997 31 0 3.58 208 21:58 30.04.2020
3833 Rain 12 997 31 0 3.58 208 21:40 30.04.2020
3834 Clouds 12 998 82 0 2.87 133 21:21 30.04.2020
3835 Clouds 13 998 78 0 1.79 145 20:57 30.04.2020
3836 Clouds 14 998 79 0 0.89 148 20:39 30.04.2020
3837 Clouds 15 998 78 0 0.45 213 20:18 30.04.2020
3838 Clouds 14 1001 66 10000 4.6 190 19:45 30.04.2020
3839 Clouds 14 1001 66 10000 4.6 190 19:26 30.04.2020
3840 Rain 14 1001 66 10000 4.6 190 18:57 30.04.2020
3841 Clouds 15 998 79 0 0.62 284 18:39 30.04.2020
3842 Clouds 15 998 81 0 3.28 257 18:21 30.04.2020
3843 Clouds 16 998 80 0 3.28 257 17:57 30.04.2020
3844 Clouds 15 1001 68 0 0.45 160 17:39 30.04.2020
3845 Clouds 15 1001 69 0 0.89 149 17:20 30.04.2020
3846 Clouds 15 1001 66 0 5.12 251 16:57 30.04.2020
3847 Clouds 16 1001 59 0 0.89 286 16:38 30.04.2020
3848 Clouds 17 1001 58 0 2.24 248 16:18 30.04.2020
3849 Rain 14 1002 76 10000 9.3 250 15:45 30.04.2020
3850 Rain 14 1002 76 10000 9.3 250 15:25 30.04.2020
3851 Rain 13 1002 76 10000 9.3 250 14:57 30.04.2020
3852 Clouds 15 1001 63 10000 6.2 230 14:39 30.04.2020
3853 Clouds 15 1001 63 10000 6.2 230 14:19 30.04.2020
3854 Clouds 16 1001 63 10000 5.7 240 13:55 30.04.2020
3855 Clouds 16 1001 67 10000 5.7 230 13:37 30.04.2020
3856 Rain 15 1001 67 10000 5.7 230 13:19 30.04.2020
3857 Rain 14 1002 87 8000 6.2 230 12:41 30.04.2020
3858 Clouds 12 1002 87 8000 6.2 230 12:20 30.04.2020
3859 Rain 12 1001 76 10000 5.1 210 11:58 30.04.2020
3860 Rain 12 1001 71 10000 5.1 200 11:37 30.04.2020
3861 Rain 13 1001 71 10000 5.1 200 11:18 30.04.2020
3862 Clouds 14 1001 71 10000 5.1 190 10:54 30.04.2020
3863 Clouds 14 1001 76 10000 3.1 180 10:36 30.04.2020
3864 Clouds 14 1001 76 10000 3.1 180 10:18 30.04.2020
3865 Rain 13 1002 81 10000 2.6 160 09:41 30.04.2020
3866 Rain 12 1002 81 10000 2.6 160 09:22 30.04.2020
3867 Rain 12 1002 81 10000 2.6 160 08:49 30.04.2020
3868 Clouds 12 1002 81 10000 2.6 140 08:27 30.04.2020
3869 Clouds 12 1002 87 10000 2.6 150 07:58 30.04.2020
3870 Clouds 11 999 91 0 1.34 118 07:40 30.04.2020
3871 Clouds 11 999 92 0 1.34 126 07:21 30.04.2020
3872 Clouds 11 1000 92 0 0.89 202 06:38 30.04.2020
3873 Rain 11 1000 92 0 0.89 238 05:49 30.04.2020
3874 Clouds 11 1000 93 0 0.89 246 05:26 30.04.2020
3875 Clouds 11 1001 93 0 0.45 268 04:29 30.04.2020
3876 Clouds 9 1001 91 0 3.43 167 02:57 30.04.2020
3877 Clouds 9 1001 91 0 3.43 167 02:57 30.04.2020
3878 Clouds 10 1002 91 0 3.4 173 02:29 30.04.2020
3879 Clouds 10 1002 90 0 3.4 173 01:48 30.04.2020
3880 Clouds 9 1002 90 0 3 178 01:20 30.04.2020
3881 Clouds 10 1002 89 0 3 178 00:37 30.04.2020
3882 Clouds 10 1002 88 0 2.82 195 00:18 30.04.2020
3883 Clouds 10 1002 87 0 2.82 195 23:54 29.04.2020
3884 Clouds 10 1003 87 0 2.82 195 23:36 29.04.2020
3885 Clouds 10 1003 86 0 2.97 207 23:18 29.04.2020
3886 Clouds 12 1003 85 0 2.97 207 22:39 29.04.2020
3887 Clouds 12 1003 83 0 3.16 216 22:20 29.04.2020
3888 Clouds 13 1003 82 0 3.16 216 21:56 29.04.2020
3889 Clear 13 1003 81 0 2.92 214 21:36 29.04.2020
3890 Clear 13 1003 80 0 2.95 230 21:18 29.04.2020
3891 Clear 14 1002 77 0 2.95 230 20:40 29.04.2020
3892 Clouds 15 1005 59 10000 6.7 260 20:20 29.04.2020
3893 Clouds 15 1005 59 10000 6.7 260 19:58 29.04.2020
3894 Clouds 15 1005 59 10000 6.7 260 19:40 29.04.2020
3895 Clouds 15 1005 59 10000 6.7 260 19:40 29.04.2020
3896 Clouds 16 1005 59 10000 6.7 260 19:19 29.04.2020
3897 Clouds 16 1005 59 10000 5.7 250 18:43 29.04.2020
3898 Clouds 17 1005 59 10000 5.7 250 18:24 29.04.2020
3899 Clouds 16 1005 62 10000 6.7 250 17:57 29.04.2020
3900 Clouds 16 1005 59 10000 6.7 260 17:39 29.04.2020
3901 Clouds 16 1005 59 10000 6.7 260 17:21 29.04.2020
3902 Rain 16 1005 62 10000 6.7 260 16:39 29.04.2020
3903 Rain 16 1005 62 10000 6.7 260 16:39 29.04.2020
3904 Rain 16 1005 59 10000 8.2 270 16:19 29.04.2020
3905 Rain 16 1005 59 10000 8.2 270 15:57 29.04.2020
3906 Clouds 16 1004 55 10000 8.2 260 15:39 29.04.2020
3907 Clouds 16 1004 55 10000 8.2 260 15:21 29.04.2020
3908 Clouds 17 1004 55 10000 7.2 260 14:57 29.04.2020
3909 Clouds 17 1004 59 10000 6.7 270 14:39 29.04.2020
3910 Clouds 16 1004 59 10000 6.7 270 14:21 29.04.2020
3911 Clouds 17 1004 55 10000 8.7 260 13:55 29.04.2020
3912 Clouds 17 1004 63 10000 6.7 260 13:37 29.04.2020
3913 Clouds 16 1004 63 10000 6.7 260 13:18 29.04.2020
3914 Clouds 16 1004 67 10000 5.7 260 12:40 29.04.2020
3915 Clouds 15 1004 67 10000 5.7 260 12:19 29.04.2020
3916 Clouds 15 1004 72 10000 5.1 260 11:58 29.04.2020
3917 Clouds 15 1004 72 10000 5.7 250 11:38 29.04.2020
3918 Clouds 15 1004 72 10000 5.7 250 11:19 29.04.2020
3919 Clouds 13 1004 87 10000 4.1 240 10:38 29.04.2020
3920 Clouds 13 1004 87 10000 4.1 240 10:20 29.04.2020
3921 Clouds 13 1004 87 10000 3.6 230 09:59 29.04.2020
3922 Clouds 13 1004 87 9000 3.6 240 09:40 29.04.2020
3923 Clouds 13 1004 87 9000 3.6 240 09:19 29.04.2020
3924 Clouds 12 1003 93 8000 3.1 240 08:43 29.04.2020
3925 Clouds 12 1003 93 8000 3.1 240 08:25 29.04.2020
3926 Clouds 12 1003 93 9000 3.1 240 07:54 29.04.2020
3927 Clouds 12 1000 96 0 0.45 30 07:29 29.04.2020
3928 Clouds 12 1000 96 0 0.89 30 06:53 29.04.2020
3929 Clouds 11 1000 95 0 2.83 247 06:32 29.04.2020
3930 Clouds 12 1000 95 0 0.45 46 05:53 29.04.2020
3931 Clouds 12 1000 95 0 2.39 231 05:19 29.04.2020
3932 Clouds 12 1000 95 0 1.17 197 04:20 29.04.2020
3933 Clouds 12 1000 95 0 1.17 197 03:53 29.04.2020
3934 Clouds 12 1000 65 0 1.57 324 01:59 29.04.2020
3935 Clouds 12 1000 65 0 1.57 324 01:37 29.04.2020
3936 Clouds 12 1000 93 0 1.86 315 01:19 29.04.2020
3937 Rain 12 1003 93 6000 1.86 315 00:37 29.04.2020
3938 Rain 12 1003 93 6000 2.1 15 00:18 29.04.2020
3939 Rain 12 1003 93 6000 2.1 15 23:43 28.04.2020
3940 Rain 12 1003 93 6000 3.48 3 23:21 28.04.2020
3941 Rain 12 1003 93 7000 3.48 3 22:40 28.04.2020
3942 Rain 13 1003 93 7000 2.07 35 22:22 28.04.2020
3943 Rain 13 1003 87 10000 2.07 35 21:59 28.04.2020
3944 Rain 13 1003 87 10000 1.78 306 21:41 28.04.2020
3945 Rain 13 1003 87 10000 0.47 80 21:23 28.04.2020
3946 Rain 13 1003 87 10000 0.47 80 20:59 28.04.2020
3947 Rain 13 1003 82 10000 0.47 80 20:40 28.04.2020
3948 Rain 13 1003 82 10000 1.22 115 20:20 28.04.2020
3949 Rain 13 1002 76 10000 4.1 320 19:58 28.04.2020
3950 Rain 13 1002 76 10000 2.6 330 19:39 28.04.2020
3951 Rain 13 1002 76 10000 2.6 330 19:20 28.04.2020
3952 Clouds 15 1003 67 10000 2.1 290 18:57 28.04.2020
3953 Clouds 15 1003 59 10000 2.6 310 18:38 28.04.2020
3954 Rain 16 1003 59 10000 2.6 310 18:18 28.04.2020
3955 Rain 15 1002 75 0 0.45 201 17:38 28.04.2020
3956 Rain 18 1003 42 10000 3.6 220 17:20 28.04.2020
3957 Rain 19 1003 42 10000 3.6 220 16:59 28.04.2020
3958 Rain 19 1003 42 10000 3.6 220 16:40 28.04.2020
3959 Rain 19 1003 42 10000 3.6 220 16:22 28.04.2020
3960 Clouds 19 1003 40 10000 6.2 210 15:57 28.04.2020
3961 Rain 20 1003 32 10000 2.6 190 15:39 28.04.2020
3962 Rain 20 1003 32 10000 2.6 190 15:20 28.04.2020
3963 Rain 20 1003 32 10000 2.1 0 14:57 28.04.2020
3964 Rain 20 1003 32 10000 1.5 0 14:39 28.04.2020
3965 Clouds 21 1003 32 10000 1.5 0 14:19 28.04.2020
3966 Clouds 21 1004 32 10000 0.5 0 13:57 28.04.2020
3967 Clouds 21 1004 34 10000 1.5 0 13:37 28.04.2020
3968 Clouds 21 1004 34 10000 1.5 0 13:19 28.04.2020
3969 Clouds 19 1004 39 10000 2.1 310 12:44 28.04.2020
3970 Clouds 18 1004 39 10000 2.1 310 12:24 28.04.2020
3971 Clouds 17 1005 42 10000 2.1 330 11:45 28.04.2020
3972 Clouds 17 1005 42 10000 1.5 0 11:24 28.04.2020
3973 Clouds 17 1005 44 10000 2.6 0 10:59 28.04.2020
3974 Clouds 17 1005 44 10000 2.6 0 10:59 28.04.2020
3975 Clouds 17 1005 47 10000 2.1 320 10:39 28.04.2020
3976 Clouds 16 1005 47 10000 2.1 320 10:19 28.04.2020
3977 Clouds 15 1005 58 10000 2.6 350 09:57 28.04.2020
3978 Clouds 14 1005 55 0 0.45 57 09:39 28.04.2020
3979 Clouds 12 1005 71 10000 1.5 0 09:20 28.04.2020
3980 Clouds 11 1005 71 10000 1.5 0 08:45 28.04.2020
3981 Clouds 11 1005 71 10000 1.5 0 08:26 28.04.2020
3982 Clouds 8 1002 88 0 2.09 290 07:45 28.04.2020
3983 Clouds 8 1002 88 0 1.98 274 07:20 28.04.2020
3984 Clouds 7 1002 87 0 1.98 274 06:50 28.04.2020
3985 Clouds 8 1004 80 0 1.62 247 06:22 28.04.2020
3986 Clouds 7 1004 79 0 1.62 247 05:41 28.04.2020
3987 Clouds 8 1004 78 0 1.6 229 05:20 28.04.2020
3988 Clear 9 1004 76 0 1.9 198 04:27 28.04.2020
3989 Clear 9 1002 79 0 1.93 198 02:34 28.04.2020
3990 Clouds 10 1003 76 0 1.6 211 01:23 28.04.2020
3991 Clouds 11 1003 75 0 1.6 211 00:56 28.04.2020
3992 Clouds 11 1003 74 0 1.41 209 00:23 28.04.2020
3993 Clouds 12 1003 72 0 1.41 209 23:47 27.04.2020
3994 Clouds 12 1003 70 0 0.83 227 23:24 27.04.2020
3995 Clouds 13 1003 66 0 0.83 227 22:56 27.04.2020
3996 Clouds 13 639 55 0 0.83 227 22:38 27.04.2020
3997 Clouds 14 1003 64 0 0.97 278 22:19 27.04.2020
3998 Clouds 14 1003 62 0 0.97 278 21:56 27.04.2020
3999 Clouds 15 1005 31 8000 1 270 21:38 27.04.2020
4000 Clouds 16 1002 58 0 1.41 291 21:18 27.04.2020
4001 Clouds 18 1005 28 8000 4.6 260 20:44 27.04.2020
4002 Clouds 19 1002 46 0 0.45 317 20:22 27.04.2020
4003 Clouds 19 1002 46 0 0.45 317 20:22 27.04.2020
4004 Clouds 19 1002 46 0 0.45 317 20:22 27.04.2020
4005 Clouds 19 1004 45 0 0.45 297 19:59 27.04.2020
4006 Clouds 20 1004 43 0 1.79 294 19:39 27.04.2020
4007 Rain 21 1002 46 0 2.69 274 19:21 27.04.2020
4008 Rain 22 1002 41 0 0.45 277 18:58 27.04.2020
4009 Clouds 20 1005 26 10000 4.6 240 18:40 27.04.2020
4010 Clouds 22 1004 39 0 1.34 260 18:19 27.04.2020
4011 Clouds 22 1004 38 0 0.89 288 17:54 27.04.2020
4012 Clouds 22 1004 39 0 2.24 286 17:36 27.04.2020
4013 Clouds 22 1004 40 0 1.79 297 17:18 27.04.2020
4014 Clouds 22 1004 38 0 3.58 270 16:40 27.04.2020
4015 Clouds 21 1006 30 10000 5.1 270 16:22 27.04.2020
4016 Clouds 22 1006 30 10000 5.1 270 15:57 27.04.2020
4017 Clouds 21 1006 30 10000 5.1 270 15:38 27.04.2020
4018 Clear 21 1006 30 10000 5.1 270 15:19 27.04.2020
4019 Clear 21 1007 30 10000 3.6 260 14:58 27.04.2020
4020 Clear 21 1007 32 10000 4.1 280 14:39 27.04.2020
4021 Clear 21 1007 32 10000 4.1 280 14:18 27.04.2020
4022 Clear 20 1007 32 10000 3.1 270 13:55 27.04.2020
4023 Clear 20 1008 32 10000 2.6 0 13:36 27.04.2020
4024 Clear 20 1008 34 10000 2.1 0 13:18 27.04.2020
4025 Clear 19 1008 39 10000 2.1 0 12:42 27.04.2020
4026 Clear 18 1008 39 10000 2.1 0 12:20 27.04.2020
4027 Clear 17 1008 44 10000 2.1 0 11:42 27.04.2020
4028 Clear 17 1008 44 10000 2.1 0 11:22 27.04.2020
4029 Clear 16 1009 44 10000 1 0 10:59 27.04.2020
4030 Clear 16 1009 54 10000 1 0 10:40 27.04.2020
4031 Clear 15 1009 54 10000 1 0 10:22 27.04.2020
4032 Clear 14 1009 58 10000 1.5 0 09:55 27.04.2020
4033 Clear 13 1009 62 10000 1 0 09:36 27.04.2020
4034 Clear 11 1009 62 10000 1 0 09:18 27.04.2020
4035 Clear 9 1009 70 0 0.89 165 08:45 27.04.2020
4036 Clear 4 1007 89 0 0.47 205 08:27 27.04.2020
4037 Clear 4 1007 89 0 0.47 205 07:45 27.04.2020
4038 Clear 4 1007 89 0 0.47 205 07:23 27.04.2020
4039 Clear 4 1007 41 0 0.47 205 06:57 27.04.2020
4040 Clear 3 1007 89 0 0.32 176 06:28 27.04.2020
4041 Clear 3 1007 37 0 0.32 176 05:55 27.04.2020
4042 Clear 4 1007 87 0 0.32 176 04:59 27.04.2020
4043 Clear 4 1007 87 0 0.32 176 04:37 27.04.2020
4044 Clear 5 1007 29 0 0.32 176 03:45 27.04.2020
4045 Clear 6 1007 84 0 0.6 6 01:53 27.04.2020
4046 Clear 7 1007 83 0 0.6 6 01:20 27.04.2020
4047 Clear 8 1007 81 0 0.6 6 00:40 27.04.2020
4048 Clear 9 1009 75 0 0.93 19 00:18 27.04.2020
4049 Clear 9 1007 78 0 0.93 19 23:41 26.04.2020
4050 Clear 9 1007 77 0 0.93 19 23:22 26.04.2020
4051 Clear 10 1007 76 0 0.93 19 22:59 26.04.2020
4052 Clear 10 1007 74 0 0.93 19 22:40 26.04.2020
4053 Clear 10 1007 73 0 0.93 19 22:21 26.04.2020
4054 Clear 11 1007 69 0 0.93 19 21:59 26.04.2020
4055 Clear 11 1007 69 0 0.93 19 21:59 26.04.2020
4056 Clear 12 1009 69 0 0.79 9 21:40 26.04.2020
4057 Clouds 12 1007 65 0 0.8 27 21:19 26.04.2020
4058 Clouds 14 1008 62 0 0.8 27 20:59 26.04.2020
4059 Clouds 14 1008 58 0 0.8 27 20:39 26.04.2020
4060 Clouds 16 1007 57 0 0.8 27 20:20 26.04.2020
4061 Clouds 16 1006 54 0 0.8 27 19:58 26.04.2020
4062 Clouds 17 1006 51 0 0.8 27 19:37 26.04.2020
4063 Clouds 17 1008 54 0 0.45 344 19:19 26.04.2020
4064 Clouds 17 1008 50 0 1.79 351 18:44 26.04.2020
4065 Clouds 17 1008 52 0 1.34 328 18:25 26.04.2020
4066 Clouds 17 1008 46 0 0.89 342 17:56 26.04.2020
4067 Clouds 18 1009 50 0 1.34 344 17:38 26.04.2020
4068 Clouds 17 1009 50 0 1.79 15 17:18 26.04.2020
4069 Clouds 17 1009 49 0 1.34 349 16:40 26.04.2020
4070 Clouds 17 1009 51 0 3.13 357 16:22 26.04.2020
4071 Clouds 17 1009 51 0 1.34 309 15:58 26.04.2020
4072 Clouds 16 1009 51 0 1.34 347 15:40 26.04.2020
4073 Clouds 16 1009 50 0 2.24 342 15:21 26.04.2020
4074 Clouds 17 1009 54 0 0.89 332 14:56 26.04.2020
4075 Clouds 16 1010 55 0 2.24 350 14:38 26.04.2020
4076 Clouds 16 1010 54 0 1.79 10 14:18 26.04.2020
4077 Clouds 14 1010 57 0 2.56 283 13:54 26.04.2020
4078 Clouds 16 1010 57 0 1.34 266 13:36 26.04.2020
4079 Clouds 16 1010 60 0 0.89 317 13:18 26.04.2020
4080 Clouds 15 1011 68 0 0.89 330 12:40 26.04.2020
4081 Clouds 13 1011 71 0 1.72 287 12:21 26.04.2020
4082 Clouds 13 1009 67 0 0.45 313 11:59 26.04.2020
4083 Clouds 13 1009 68 0 0.45 313 11:40 26.04.2020
4084 Clouds 13 1009 71 0 1.72 287 11:21 26.04.2020
4085 Clouds 13 1009 71 0 1.72 287 11:21 26.04.2020
4086 Clouds 12 1009 68 0 1.72 287 10:56 26.04.2020
4087 Clouds 12 1009 68 0 1.72 287 10:56 26.04.2020
4088 Clouds 12 1009 70 0 1.72 287 10:38 26.04.2020
4089 Clouds 10 1009 78 0 1.72 287 10:20 26.04.2020
4090 Clouds 9 1009 85 0 0.45 306 09:40 26.04.2020
4091 Clouds 8 1009 88 0 0.89 307 09:22 26.04.2020
4092 Clouds 8 1009 90 0 0.45 307 08:59 26.04.2020
4093 Clouds 7 1009 91 0 0.45 307 08:40 26.04.2020
4094 Clouds 6 1009 91 0 0.45 307 08:20 26.04.2020
4095 Clouds 6 1009 91 0 1.47 286 07:47 26.04.2020
4096 Clouds 4 1009 90 0 1.47 286 07:21 26.04.2020
4097 Clouds 3 1009 89 0 1.47 286 06:45 26.04.2020
4098 Clouds 3 1009 88 0 1.42 291 05:59 26.04.2020
4099 Clouds 3 1009 88 0 1.42 291 05:41 26.04.2020
4100 Clouds 3 1009 88 0 1.42 291 05:22 26.04.2020
4101 Clouds 4 1009 87 0 1.42 291 04:24 26.04.2020
4102 Clouds 5 1009 86 0 1.42 291 03:32 26.04.2020
4103 Clouds 5 1009 85 0 1.11 318 02:32 26.04.2020
4104 Clouds 6 1009 83 0 0.75 319 01:54 26.04.2020
4105 Clouds 6 1009 83 0 0.75 319 01:35 26.04.2020
4106 Clouds 7 1009 81 0 0.75 319 00:41 26.04.2020
4107 Clear 8 1009 81 0 1.39 321 00:20 26.04.2020
4108 Clear 8 1009 80 0 1.39 321 23:55 25.04.2020
4109 Clear 8 1009 79 0 1.39 321 23:36 25.04.2020
4110 Clear 8 1008 77 0 1.39 321 23:18 25.04.2020
4111 Clear 9 1008 74 0 1.39 321 22:41 25.04.2020
4112 Clear 9 1008 73 0 1.39 321 22:20 25.04.2020
4113 Clear 10 1008 69 0 1.39 321 21:58 25.04.2020
4114 Clouds 11 1010 71 0 0.89 292 21:38 25.04.2020
4115 Clouds 11 1008 65 0 1.9 288 21:18 25.04.2020
4116 Clouds 13 1010 55 0 1.9 288 20:43 25.04.2020
4117 Clouds 13 1008 58 0 0.45 307 20:23 25.04.2020
4118 Clouds 14 1008 57 0 0.45 320 19:59 25.04.2020
4119 Clouds 14 1008 56 0 0.45 312 19:39 25.04.2020
4120 Clouds 15 1008 57 0 0.45 299 19:20 25.04.2020
4121 Clouds 15 1008 56 0 0.45 315 18:56 25.04.2020
4122 Clouds 15 1008 56 0 0.45 308 18:37 25.04.2020
4123 Clouds 15 1008 55 0 0.89 307 18:18 25.04.2020
4124 Clouds 16 1010 56 0 2.24 293 17:55 25.04.2020
4125 Clouds 15 1009 55 0 0.45 321 17:36 25.04.2020
4126 Clouds 17 1011 56 0 1.79 280 17:18 25.04.2020
4127 Clouds 16 1011 57 0 1.79 301 16:43 25.04.2020
4128 Clouds 16 1011 57 0 1.34 259 16:25 25.04.2020
4129 Clouds 15 1009 60 0 0.45 311 15:58 25.04.2020
4130 Clouds 15 1009 60 0 0.45 318 15:38 25.04.2020
4131 Clouds 15 1010 60 0 0.45 321 15:19 25.04.2020
4132 Clouds 16 1012 62 0 2.24 313 14:57 25.04.2020
4133 Clouds 14 1010 59 0 0.45 300 14:38 25.04.2020
4134 Clouds 15 1010 59 0 0.89 296 14:18 25.04.2020
4135 Clouds 14 1010 64 0 1.34 296 13:42 25.04.2020
4136 Clouds 14 1010 66 0 0.89 306 13:19 25.04.2020
4137 Clouds 13 1010 68 0 0.89 316 12:58 25.04.2020
4138 Clouds 13 1010 67 0 1.34 296 12:39 25.04.2020
4139 Clouds 13 1010 69 0 1.34 287 12:20 25.04.2020
4140 Clouds 12 1012 60 0 2.24 296 11:55 25.04.2020
4141 Clouds 12 1010 71 0 1.79 331 11:37 25.04.2020
4142 Clouds 11 1010 69 0 2.24 320 11:19 25.04.2020
4143 Clouds 11 1010 77 0 2.24 327 10:42 25.04.2020
4144 Clouds 10 1010 75 0 1.34 313 10:22 25.04.2020
4145 Clouds 9 1010 77 0 1.79 320 09:47 25.04.2020
4146 Clouds 9 1009 78 0 2.24 322 09:28 25.04.2020
4147 Clouds 8 1009 78 0 2.24 284 08:58 25.04.2020
4148 Clouds 8 1009 78 0 2.68 294 08:39 25.04.2020
4149 Clouds 8 1009 77 0 2.24 311 08:21 25.04.2020
4150 Clouds 8 1009 76 0 1.79 326 07:58 25.04.2020
4151 Clouds 7 1009 76 0 2.24 294 07:39 25.04.2020
4152 Clouds 7 1008 75 0 0.89 300 06:47 25.04.2020
4153 Clouds 7 1008 73 0 1.79 304 06:28 25.04.2020
4154 Clouds 7 1008 72 0 1.34 286 05:40 25.04.2020
4155 Clouds 7 1007 71 0 2.24 306 05:18 25.04.2020
4156 Clouds 8 1007 76 0 2.24 328 02:59 25.04.2020
4157 Clouds 8 1007 77 0 3.13 321 02:21 25.04.2020
4158 Clouds 8 1007 79 0 2.68 315 01:53 25.04.2020
4159 Clouds 8 1007 79 0 1.79 304 01:34 25.04.2020
4160 Clouds 8 1007 29 0 4.47 28 01:34 25.04.2020
4161 Clouds 7 1007 29 0 4.47 28 00:58 25.04.2020
4162 Clouds 7 1007 29 0 4.47 28 00:34 25.04.2020
4163 Clouds 8 1007 30 0 5.36 11 23:55 24.04.2020
4164 Clouds 7 1007 30 0 5.36 11 23:36 24.04.2020
4165 Clouds 8 1009 70 0 5.36 316 23:18 24.04.2020
4166 Clouds 10 1009 40 10000 3.6 300 22:40 24.04.2020
4167 Clouds 11 1009 40 10000 3.6 300 22:19 24.04.2020
4168 Clouds 11 1009 40 10000 3.6 300 21:57 24.04.2020
4169 Clouds 12 1009 37 10000 4.6 310 21:38 24.04.2020
4170 Clouds 12 1009 37 10000 4.6 310 21:20 24.04.2020
4171 Clouds 13 1008 30 10000 5.7 320 20:56 24.04.2020
4172 Clouds 15 1008 27 10000 6.7 320 20:38 24.04.2020
4173 Clouds 15 1008 27 10000 6.7 320 20:18 24.04.2020
4174 Clouds 17 1008 25 10000 7.2 310 19:41 24.04.2020
4175 Clouds 17 1008 25 10000 7.2 310 19:22 24.04.2020
4176 Clouds 18 1005 40 0 2.68 335 18:46 24.04.2020
4177 Clear 18 1005 41 0 2.24 320 18:28 24.04.2020
4178 Clear 18 1007 42 0 5.81 308 17:59 24.04.2020
4179 Clear 18 1007 40 0 5.36 288 17:41 24.04.2020
4180 Clear 19 1007 40 0 4.47 286 17:22 24.04.2020
4181 Clear 19 1007 43 0 5.36 294 16:58 24.04.2020
4182 Clear 19 1007 43 0 5.36 294 16:58 24.04.2020
4183 Clear 19 1008 42 0 5.36 292 16:40 24.04.2020
4184 Clear 19 1008 42 0 5.36 292 16:40 24.04.2020
4185 Clear 20 1009 30 10000 6.2 300 16:21 24.04.2020
4186 Clear 20 1009 30 10000 6.2 300 15:55 24.04.2020
4187 Clear 20 1009 30 10000 6.2 300 15:37 24.04.2020
4188 Clouds 20 1009 30 10000 6.2 300 15:18 24.04.2020
4189 Clouds 20 1009 32 10000 6.7 300 14:40 24.04.2020
4190 Clouds 20 1009 32 10000 6.7 300 14:20 24.04.2020
4191 Clouds 20 1009 32 10000 6.7 300 14:20 24.04.2020
4192 Clouds 20 1009 34 10000 5.1 300 13:55 24.04.2020
4193 Clouds 20 1009 34 10000 5.1 270 13:36 24.04.2020
4194 Clouds 20 1009 34 10000 5.1 270 13:18 24.04.2020
4195 Clouds 18 1010 39 10000 4.1 280 12:41 24.04.2020
4196 Clouds 18 1010 39 10000 4.1 280 12:22 24.04.2020
4197 Clouds 18 1010 42 10000 3.6 270 11:58 24.04.2020
4198 Clouds 17 1010 51 10000 3.6 290 11:38 24.04.2020
4199 Clouds 17 1010 51 10000 3.6 290 11:19 24.04.2020
4200 Clouds 16 1010 51 10000 3.6 290 10:54 24.04.2020
4201 Clouds 16 1010 51 10000 3.6 290 10:54 24.04.2020
4202 Clouds 16 1010 50 10000 3.6 280 10:36 24.04.2020
4203 Clouds 15 1010 50 10000 3.6 280 10:18 24.04.2020
4204 Clouds 14 1010 54 10000 3.1 260 09:45 24.04.2020
4205 Clouds 12 1011 58 10000 3.1 260 09:24 24.04.2020
4206 Clouds 11 1011 71 10000 1 0 08:58 24.04.2020
4207 Clouds 10 1011 75 10000 2.53 260 08:37 24.04.2020
4208 Clouds 9 1011 75 10000 2.53 260 08:18 24.04.2020
4209 Clouds 10 1010 75 0 2.53 260 07:45 24.04.2020
4210 Clouds 9 1010 75 0 2.53 260 07:26 24.04.2020
4211 Clouds 9 1008 86 0 2.53 260 06:57 24.04.2020
4212 Clouds 9 1010 58 0 2.24 262 06:37 24.04.2020
4213 Clouds 8 1011 71 0 1.76 232 05:48 24.04.2020
4214 Clouds 8 1007 70 0 1.76 232 04:33 24.04.2020
4215 Clouds 10 1012 67 0 1.36 202 03:24 24.04.2020
4216 Clouds 9 1013 65 0 1.36 202 02:41 24.04.2020
4217 Clouds 9 1013 64 0 1.43 201 02:20 24.04.2020
4218 Clouds 8 1012 79 0 1.43 201 01:37 24.04.2020
4219 Clouds 9 1012 78 0 1.43 201 00:43 24.04.2020
4220 Clouds 9 1013 77 0 1.64 182 00:18 24.04.2020
4221 Clouds 10 1013 75 0 1.64 182 23:45 23.04.2020
4222 Clouds 11 1013 74 0 1.64 182 23:26 23.04.2020
4223 Clouds 11 1014 71 0 1.64 182 22:57 23.04.2020
4224 Clouds 12 1014 69 0 1.64 182 22:38 23.04.2020
4225 Clouds 12 1014 67 0 1.64 182 22:19 23.04.2020
4226 Clouds 13 1014 63 0 1.64 182 21:57 23.04.2020
4227 Clouds 13 1014 63 0 1.64 182 21:57 23.04.2020
4228 Clouds 14 1014 60 0 1.61 178 21:38 23.04.2020
4229 Clouds 15 1017 36 10000 2.6 110 21:20 23.04.2020
4230 Clouds 16 1017 36 10000 2.6 110 20:54 23.04.2020
4231 Clouds 16 1017 36 10000 2.6 110 20:54 23.04.2020
4232 Clouds 18 1017 36 10000 2.6 110 20:36 23.04.2020
4233 Clouds 17 1017 36 10000 2.6 110 20:18 23.04.2020
4234 Clouds 18 1017 67 10000 4.1 120 19:55 23.04.2020
4235 Clouds 19 1018 67 10000 4.1 110 19:37 23.04.2020
4236 Clouds 19 1018 67 10000 4.1 110 19:19 23.04.2020
4237 Clouds 20 1018 67 10000 5.1 110 18:40 23.04.2020
4238 Clear 20 1018 49 10000 5.1 110 18:22 23.04.2020
4239 Clear 20 1019 28 10000 5.1 110 17:57 23.04.2020
4240 Clear 20 1019 28 10000 4.1 120 17:39 23.04.2020
4241 Clear 20 1019 28 10000 4.6 110 17:21 23.04.2020
4242 Clear 20 1019 28 10000 4.6 110 16:55 23.04.2020
4243 Clear 20 1020 30 10000 5.1 100 16:37 23.04.2020
4244 Clear 20 1020 30 10000 5.1 100 16:18 23.04.2020
4245 Clear 20 1021 29 10000 4.1 130 15:41 23.04.2020
4246 Clear 20 1021 29 10000 4.1 130 15:22 23.04.2020
4247 Clear 20 1021 29 10000 5.1 100 14:56 23.04.2020
4248 Clear 19 1022 32 10000 5.1 120 14:37 23.04.2020
4249 Clear 19 1022 32 10000 5.1 120 14:18 23.04.2020
4250 Clear 19 1022 31 10000 5.7 100 13:40 23.04.2020
4251 Clear 19 1022 31 10000 5.7 100 13:40 23.04.2020
4252 Clear 19 1022 31 10000 5.7 100 13:22 23.04.2020
4253 Clear 18 1023 48 10000 5.7 120 12:59 23.04.2020
4254 Clear 18 1023 48 10000 6.7 110 12:41 23.04.2020
4255 Clear 17 1023 55 10000 6.7 110 12:23 23.04.2020
4256 Clear 17 1023 36 10000 5.7 110 11:47 23.04.2020
4257 Clear 16 1024 38 10000 3.6 120 11:28 23.04.2020
4258 Clear 15 1024 41 10000 2.6 0 10:59 23.04.2020
4259 Clear 15 1024 50 10000 2.6 100 10:41 23.04.2020
4260 Clear 14 1023 56 0 1.79 82 10:20 23.04.2020
4261 Clear 13 1021 68 0 4.06 106 09:41 23.04.2020
4262 Clear 11 1024 61 10000 3.1 80 09:20 23.04.2020
4263 Clear 10 1021 79 0 2.67 95 08:57 23.04.2020
4264 Clear 9 1021 83 0 2.67 95 08:39 23.04.2020
4265 Clear 9 1021 85 0 2.67 95 08:21 23.04.2020
4266 Clear 7 1022 85 0 2.67 95 07:42 23.04.2020
4267 Clear 6 1021 85 0 2.67 95 07:23 23.04.2020
4268 Clear 5 1021 83 0 2.67 95 06:47 23.04.2020
4269 Clear 5 1021 80 0 1.93 100 05:58 23.04.2020
4270 Clear 6 1021 79 0 1.93 100 05:22 23.04.2020
4271 Clear 6 1021 77 0 1.93 100 04:51 23.04.2020
4272 Clear 9 1023 59 0 2.62 95 02:24 23.04.2020
4273 Clear 9 1018 62 0 2.38 91 01:46 23.04.2020
4274 Clear 10 1023 57 0 2.38 91 01:24 23.04.2020
4275 Clear 10 1018 60 0 2.38 91 00:45 23.04.2020
4276 Clear 10 1018 60 0 2.38 91 00:45 23.04.2020
4277 Clear 11 1023 53 0 3.59 83 00:18 23.04.2020
4278 Clear 11 1022 56 0 0.45 136 23:47 22.04.2020
4279 Clear 12 1022 55 0 0.45 136 23:23 22.04.2020
4280 Clear 12 1023 35 8000 3.1 60 22:55 22.04.2020
4281 Clear 13 1023 70 9000 3.6 60 22:36 22.04.2020
4282 Clear 13 1022 51 0 0.89 136 22:18 22.04.2020
4283 Clear 13 1023 70 9000 3.6 60 21:55 22.04.2020
4284 Clear 14 1023 29 9000 4.1 70 21:37 22.04.2020
4285 Clear 14 1022 47 0 0.45 119 21:19 22.04.2020
4286 Clear 16 1022 25 8000 5.7 80 20:43 22.04.2020
4287 Clear 16 1019 46 0 0.45 70 20:19 22.04.2020
4288 Clear 17 1021 41 0 2.24 109 19:58 22.04.2020
4289 Clear 18 1019 43 0 0.45 67 19:39 22.04.2020
4290 Clear 18 1019 43 0 0.45 67 19:39 22.04.2020
4291 Clear 18 1019 42 0 0.89 71 19:19 22.04.2020
4292 Clear 19 1023 65 10000 5.1 80 18:59 22.04.2020
4293 Clear 19 1023 65 10000 5.1 80 18:40 22.04.2020
4294 Clear 19 1023 51 10000 5.1 80 18:22 22.04.2020
4295 Clear 19 1023 51 10000 5.1 80 17:57 22.04.2020
4296 Clear 19 1021 41 0 2.68 102 17:39 22.04.2020
4297 Clear 19 1021 40 0 3.58 119 17:20 22.04.2020
4298 Clear 19 1023 32 10000 5.7 100 16:43 22.04.2020
4299 Clear 19 1023 32 10000 5.7 100 16:25 22.04.2020
4300 Clear 18 1024 51 10000 6.7 90 15:43 22.04.2020
4301 Clear 18 1024 49 10000 6.7 90 15:25 22.04.2020
4302 Clear 18 1024 31 10000 5.7 90 14:59 22.04.2020
4303 Clear 18 1024 31 10000 5.7 90 14:59 22.04.2020
4304 Clear 18 1024 31 10000 5.7 70 14:41 22.04.2020
4305 Clear 18 1024 31 10000 5.7 70 14:20 22.04.2020
4306 Clear 17 1024 50 10000 7.2 100 13:57 22.04.2020
4307 Clear 17 1024 50 10000 7.2 100 13:57 22.04.2020
4308 Clear 17 1025 50 10000 7.2 100 13:39 22.04.2020
4309 Clear 17 1025 50 10000 7.2 100 13:19 22.04.2020
4310 Clear 16 1025 31 10000 7.2 100 12:42 22.04.2020
4311 Clear 16 1025 31 10000 7.2 100 12:23 22.04.2020
4312 Clear 16 1025 31 10000 6.7 90 11:57 22.04.2020
4313 Clear 15 1025 55 10000 5.7 90 11:37 22.04.2020
4314 Clear 15 1025 55 10000 5.7 90 11:18 22.04.2020
4315 Clear 15 1025 55 10000 5.7 90 11:18 22.04.2020
4316 Clear 13 1025 46 10000 5.1 90 10:41 22.04.2020
4317 Clear 13 1025 46 10000 5.1 90 10:23 22.04.2020
4318 Clear 11 1025 57 10000 5.1 90 09:43 22.04.2020
4319 Clear 8 1025 57 10000 5.1 90 09:24 22.04.2020
4320 Clear 8 1025 61 10000 4.6 90 08:59 22.04.2020
4321 Clear 8 1025 61 10000 4.6 90 08:59 22.04.2020
4322 Clear 8 1025 65 10000 3.1 90 08:41 22.04.2020
4323 Clear 8 1025 65 10000 3.1 90 08:41 22.04.2020
4324 Clear 8 1025 65 10000 3.1 90 08:23 22.04.2020
4325 Clear 7 1025 70 10000 3.1 80 07:54 22.04.2020
4326 Clear 6 1025 70 10000 2.6 80 07:33 22.04.2020
4327 Clear 5 1025 75 10000 2.6 80 06:59 22.04.2020
4328 Clear 5 1021 72 0 4.91 87 06:39 22.04.2020
4329 Clear 6 1024 72 0 0.45 152 05:39 22.04.2020
4330 Clear 6 1024 70 0 4.08 82 04:42 22.04.2020
4331 Clear 8 1024 65 0 4.32 83 02:59 22.04.2020
4332 Clear 9 1024 59 0 4.38 84 02:18 22.04.2020
4333 Clear 9 1024 55 0 4.38 84 01:39 22.04.2020
4334 Clear 10 1024 53 0 4.38 84 01:19 22.04.2020
4335 Clear 11 1024 50 0 4.38 84 00:41 22.04.2020
4336 Clear 11 1023 49 0 5.69 92 00:20 22.04.2020
4337 Clear 11 1017 52 0 0.89 61 23:44 21.04.2020
4338 Clear 11 1023 46 0 5.69 92 23:22 21.04.2020
4339 Clear 11 1022 54 0 5.69 92 22:58 21.04.2020
4340 Clear 12 1020 52 0 0.89 59 22:39 21.04.2020
4341 Clear 12 1022 45 0 0.89 182 22:19 21.04.2020
4342 Clear 13 1022 45 0 0.89 117 21:55 21.04.2020
4343 Clear 13 1022 50 0 5.68 90 21:37 21.04.2020
4344 Clear 13 1020 50 0 1.34 61 21:18 21.04.2020
4345 Clear 16 1022 60 10000 6.7 90 20:40 21.04.2020
4346 Clear 15 1022 61 10000 6.7 90 20:22 21.04.2020
4347 Clear 16 1022 61 10000 6.7 90 19:58 21.04.2020
4348 Clear 16 1019 46 0 0.89 66 19:38 21.04.2020
4349 Clear 16 1019 45 0 1.79 82 19:19 21.04.2020
4350 Clear 17 1019 45 0 2.24 69 18:55 21.04.2020
4351 Clear 17 1019 44 0 1.79 38 18:37 21.04.2020
4352 Clear 17 1019 44 0 1.79 38 18:37 21.04.2020
4353 Clear 17 1019 44 0 1.79 38 18:37 21.04.2020
4354 Clear 17 1019 44 0 1.79 92 18:18 21.04.2020
4355 Clear 17 1023 29 10000 7.7 100 17:40 21.04.2020
4356 Clear 17 1023 29 10000 7.7 100 17:20 21.04.2020
4357 Clear 17 1023 29 10000 7.7 100 16:58 21.04.2020
4358 Clear 17 1017 34 0 8.59 85 16:37 21.04.2020
4359 Clear 16 1023 31 10000 7.2 100 16:19 21.04.2020
4360 Clear 16 1023 31 10000 7.2 100 15:55 21.04.2020
4361 Clear 16 1023 31 10000 7.2 100 15:55 21.04.2020
4362 Clear 16 1023 31 10000 7.2 100 15:37 21.04.2020
4363 Clear 16 1023 31 10000 7.2 100 15:37 21.04.2020
4364 Clear 16 1023 31 10000 7.2 100 15:19 21.04.2020
4365 Clear 16 1024 50 10000 7.2 100 14:45 21.04.2020
4366 Clear 15 1024 33 10000 7.7 90 14:25 21.04.2020
4367 Clear 15 1024 33 10000 7.7 90 13:57 21.04.2020
4368 Clear 15 1024 35 10000 7.7 90 13:38 21.04.2020
4369 Clear 14 1024 35 10000 7.7 90 13:18 21.04.2020
4370 Clear 14 1024 37 10000 9.3 100 12:40 21.04.2020
4371 Clear 13 1024 37 10000 9.3 100 12:20 21.04.2020
4372 Clear 13 1024 37 10000 9.3 100 11:58 21.04.2020
4373 Clear 13 1024 40 10000 7.7 90 11:39 21.04.2020
4374 Clear 13 1024 40 10000 7.7 90 11:39 21.04.2020
4375 Clear 12 1024 40 10000 7.7 90 11:19 21.04.2020
4376 Clear 12 1024 40 10000 7.7 90 10:59 21.04.2020
4377 Clear 12 1024 43 10000 7.7 90 10:40 21.04.2020
4378 Clear 12 1024 43 10000 7.7 90 10:22 21.04.2020
4379 Clear 10 1024 52 10000 5.7 90 09:59 21.04.2020
4380 Clear 10 1024 52 10000 5.7 90 09:37 21.04.2020
4381 Clear 9 1024 52 10000 5.7 90 09:18 21.04.2020
4382 Clear 7 1024 56 10000 5.7 100 08:47 21.04.2020
4383 Clear 6 1024 60 10000 6.2 90 08:27 21.04.2020
4384 Clear 6 1024 60 10000 6.2 90 08:27 21.04.2020
4385 Clear 8 1019 55 0 6.24 88 07:56 21.04.2020
4386 Clear 6 1019 57 0 6.24 88 07:37 21.04.2020
4387 Clear 6 1019 58 0 6.24 88 07:19 21.04.2020
4388 Clear 5 1023 68 0 0.89 360 06:43 21.04.2020
4389 Clear 5 1023 68 0 0.45 360 06:19 21.04.2020
4390 Clear 5 1017 65 0 4.96 86 05:45 21.04.2020
4391 Clear 7 1024 49 10000 5.7 60 03:48 21.04.2020
4392 Clear 7 1024 52 10000 5.1 70 03:27 21.04.2020
4393 Clear 8 1024 46 10000 6.2 60 01:40 21.04.2020
4394 Clear 8 1023 54 0 0.45 134 00:52 21.04.2020
4395 Clear 9 1023 53 0 4.78 83 00:31 21.04.2020
4396 Clear 10 1023 37 10000 6.2 70 23:44 20.04.2020
4397 Clear 10 1018 46 0 5.5 85 23:23 20.04.2020
4398 Clear 10 1021 51 0 0.45 59 22:57 20.04.2020
4399 Clear 11 1023 48 0 5.5 85 22:38 20.04.2020
4400 Clear 11 1018 43 0 5.5 85 22:19 20.04.2020
4401 Clear 11 1018 43 0 5.5 85 22:19 20.04.2020
4402 Clear 11 1018 43 0 5.5 85 22:19 20.04.2020
4403 Clear 12 1024 32 10000 5.1 70 21:56 20.04.2020
4404 Clear 11 1018 40 0 5.29 84 21:38 20.04.2020
4405 Clear 12 1020 48 0 0.45 57 21:19 20.04.2020
4406 Clear 12 1018 38 0 5.93 75 20:56 20.04.2020
4407 Clear 14 1022 30 9000 7.7 70 20:37 20.04.2020
4408 Clear 14 1019 17 0 2.68 99 20:18 20.04.2020
4409 Clear 14 1020 42 0 1.34 80 19:55 20.04.2020
4410 Clear 14 1022 26 9000 9.3 80 19:37 20.04.2020
4411 Clear 16 1019 39 0 1.79 90 19:18 20.04.2020
4412 Clear 15 1019 39 0 2.24 72 18:42 20.04.2020
4413 Clear 16 1019 39 0 1.79 74 18:22 20.04.2020
4414 Clear 16 1019 39 0 1.79 74 18:22 20.04.2020
4415 Clear 16 1019 38 0 1.34 71 17:55 20.04.2020
4416 Clear 16 1017 31 0 7.78 79 17:37 20.04.2020
4417 Clear 16 1019 37 0 1.79 90 17:19 20.04.2020
4418 Clear 16 1024 26 10000 6.7 80 16:58 20.04.2020
4419 Clear 16 1024 26 10000 6.7 80 16:39 20.04.2020
4420 Clear 16 1024 26 10000 6.7 80 16:18 20.04.2020
4421 Clear 15 1024 30 10000 7.7 100 15:43 20.04.2020
4422 Clear 15 1024 30 10000 7.7 100 15:23 20.04.2020
4423 Clear 15 1024 28 10000 7.2 90 14:56 20.04.2020
4424 Clear 14 1025 33 10000 6.7 90 14:38 20.04.2020
4425 Clear 14 1025 33 10000 6.7 90 14:18 20.04.2020
4426 Clear 14 1025 35 10000 7.2 90 13:54 20.04.2020
4427 Clear 13 1025 35 10000 7.2 90 13:36 20.04.2020
4428 Clear 13 1025 32 10000 8.7 90 13:18 20.04.2020
4429 Clear 12 1025 40 10000 7.7 100 12:42 20.04.2020
4430 Clear 12 1025 40 10000 7.2 90 12:19 20.04.2020
4431 Clear 11 1025 40 10000 6.7 90 11:42 20.04.2020
4432 Clear 11 1025 40 10000 6.7 90 11:22 20.04.2020
4433 Clear 11 1025 43 10000 5.1 90 10:57 20.04.2020
4434 Clear 10 1025 46 10000 4.6 90 10:39 20.04.2020
4435 Clear 10 1025 46 10000 4.6 90 10:20 20.04.2020
4436 Clear 9 1025 52 10000 4.6 90 09:58 20.04.2020
4437 Clear 9 1025 52 10000 4.1 90 09:39 20.04.2020
4438 Clear 6 1025 52 10000 4.1 90 09:21 20.04.2020
4439 Clear 5 1025 60 10000 3.6 80 08:42 20.04.2020
4440 Clear 4 1025 60 10000 3.6 80 08:23 20.04.2020
4441 Clear 3 1022 83 0 4.41 87 07:56 20.04.2020
4442 Clear 2 1022 83 0 4.41 87 07:37 20.04.2020
4443 Clear 2 1022 82 0 4.41 87 07:19 20.04.2020
4444 Clear 2 1022 82 0 4.41 87 07:19 20.04.2020
4445 Clear 1 1022 79 0 4.41 87 06:37 20.04.2020
4446 Clear 2 1022 77 0 3.29 85 05:57 20.04.2020
4447 Clear 3 1021 71 0 3.29 85 04:46 20.04.2020
4448 Clear 3 1021 71 0 3.29 85 04:46 20.04.2020
4449 Clear 4 1023 64 0 0.45 137 02:48 20.04.2020
4450 Clear 5 1024 62 0 4.09 84 02:27 20.04.2020
4451 -273 0 0 0 0 0 01:29 20.04.2020
4452 Clear 3 1026 75 0 4.02 84 00:45 20.04.2020
4453 Clear 5 1024 65 0 4.68 76 00:22 20.04.2020
4454 Clear 5 1024 65 0 4.68 76 23:40 19.04.2020
4455 Clear 5 1024 65 0 4.68 76 23:21 19.04.2020
4456 Clear 5 1024 65 0 4.68 76 22:57 19.04.2020
4457 Clear 8 1020 47 0 0.45 53 22:37 19.04.2020
4458 Clear 8 1020 47 0 0.45 53 22:19 19.04.2020
4459 Clear 5 1024 65 0 4.68 76 21:42 19.04.2020
4460 Clear 9 1020 44 0 4.59 73 21:24 19.04.2020
4461 Clear 10 1022 34 0 4.59 73 20:58 19.04.2020
4462 Clear 8 1023 54 0 4.59 73 20:40 19.04.2020
4463 Clear 12 1019 37 0 0.45 61 20:20 19.04.2020
4464 Clear 8 1023 54 0 4.59 73 19:57 19.04.2020
4465 Clear 8 1023 54 0 4.59 73 19:39 19.04.2020
4466 Clear 13 1018 37 0 0.89 38 19:21 19.04.2020
4467 Clear 8 1023 54 0 4.59 73 18:57 19.04.2020
4468 Clear 14 1018 37 0 1.34 67 18:39 19.04.2020
4469 Clear 14 1018 36 0 1.34 63 18:19 19.04.2020
4470 Clear 14 1018 36 0 1.34 63 18:19 19.04.2020
4471 Clear 12 1022 43 0 6.41 73 17:56 19.04.2020
4472 Clear 12 1022 43 0 6.41 73 17:38 19.04.2020
4473 Clear 12 1022 43 0 6.41 73 17:19 19.04.2020
4474 Clear 12 1022 43 0 6.41 73 17:19 19.04.2020
4475 Clear 12 1022 43 0 6.41 73 16:54 19.04.2020
4476 Clear 12 1022 43 0 6.41 73 16:36 19.04.2020
4477 Clear 12 1022 43 0 6.41 73 16:18 19.04.2020
4478 Clear 12 1022 43 0 6.41 73 15:41 19.04.2020
4479 Clear 13 1023 42 0 6.64 76 15:20 19.04.2020
4480 Clear 13 1023 42 0 6.64 76 14:54 19.04.2020
4481 Clear 13 1023 41 0 6.36 74 14:36 19.04.2020
4482 Clear 13 1023 41 0 6.36 74 14:18 19.04.2020
4483 Clear 13 1023 41 0 6.36 74 13:38 19.04.2020
4484 Clear 13 1023 41 0 6.36 74 13:19 19.04.2020
4485 Clear 13 1023 41 0 6.36 74 12:49 19.04.2020
4486 Clear 13 1023 41 0 6.36 74 12:49 19.04.2020
4487 Clear 10 1021 52 0 5.33 81 12:25 19.04.2020
4488 Clear 10 1021 52 0 5.33 81 11:56 19.04.2020
4489 Clear 10 1021 52 0 5.33 81 11:37 19.04.2020
4490 Clear 10 1021 52 0 5.33 81 11:18 19.04.2020
4491 Clear 10 1021 52 0 5.33 81 10:55 19.04.2020
4492 Clear 12 1020 45 0 0.45 188 10:37 19.04.2020
4493 Clear 11 1021 46 0 0.89 115 10:18 19.04.2020
4494 Clear 10 1018 54 0 1.34 67 09:44 19.04.2020
4495 Clouds 5 1021 67 0 4.11 78 09:25 19.04.2020
4496 Clouds 5 1021 67 0 4.11 78 08:41 19.04.2020
4497 Clouds 5 1022 67 0 3.96 81 08:41 19.04.2020
4498 Clouds 5 1021 67 0 4.11 78 08:21 19.04.2020
4499 Clouds 6 1017 63 0 0.45 44 07:59 19.04.2020
4500 Clouds 5 1017 65 0 3.96 81 07:41 19.04.2020
4501 Clouds 4 1017 64 0 0.45 44 07:21 19.04.2020
4502 Clouds 4 1019 68 0 3.19 67 06:28 19.04.2020
4503 Clouds 4 1019 68 0 3.19 67 05:47 19.04.2020
4504 Clouds 6 1017 50 0 2.97 69 04:28 19.04.2020
4505 Clouds 6 1018 61 0 4.22 75 02:59 19.04.2020
4506 Clouds 5 1019 64 0 3.81 76 02:21 19.04.2020
4507 Clouds 5 1019 64 0 3.81 76 01:38 19.04.2020
4508 Clouds 5 1019 64 0 3.81 76 00:48 19.04.2020
4509 Clouds 10 1017 41 0 0.45 186 00:25 19.04.2020
4510 Clouds 9 1018 59 0 4.29 75 23:56 18.04.2020
4511 Clouds 9 1018 59 0 4.29 75 23:36 18.04.2020
4512 Clouds 9 1018 59 0 4.29 75 23:18 18.04.2020
4513 Clouds 9 1018 59 0 4.29 75 22:41 18.04.2020
4514 Clouds 9 1018 59 0 4.29 75 22:21 18.04.2020
4515 Clouds 12 1014 52 0 4.29 75 21:57 18.04.2020
4516 Clouds 13 1016 41 0 0.45 292 21:38 18.04.2020
4517 Clouds 13 1016 42 0 0.45 318 21:20 18.04.2020
4518 Clouds 12 1016 64 0 3.61 65 20:42 18.04.2020
4519 Clouds 16 1015 39 0 0.45 311 20:22 18.04.2020
4520 Clouds 17 1015 37 0 0.45 294 19:59 18.04.2020
4521 Clouds 12 1016 64 0 3.61 65 19:38 18.04.2020
4522 Clouds 12 1016 64 0 3.61 65 19:20 18.04.2020
4523 Clouds 12 1016 64 0 3.61 65 18:38 18.04.2020
4524 Clouds 19 1014 34 0 2.24 360 18:20 18.04.2020
4525 Clouds 16 1015 52 0 5.02 70 17:56 18.04.2020
4526 Clouds 16 1015 52 0 5.02 70 17:38 18.04.2020
4527 Clouds 16 1015 52 0 5.02 70 17:18 18.04.2020
4528 Clouds 16 1015 52 0 5.02 70 16:42 18.04.2020
4529 Clouds 16 1015 52 0 5.02 70 16:22 18.04.2020
4530 Clouds 16 1015 52 0 5.02 70 15:55 18.04.2020
4531 Clouds 16 1015 52 0 5.02 70 15:37 18.04.2020
4532 Clouds 16 1016 52 0 5.08 81 15:18 18.04.2020
4533 Clouds 16 1016 52 0 5.08 81 14:41 18.04.2020
4534 Clouds 16 1016 52 0 4.91 79 14:19 18.04.2020
4535 Clouds 16 1016 52 0 4.91 79 13:43 18.04.2020
4536 Clouds 16 1016 52 0 4.91 79 13:43 18.04.2020
4537 Clouds 16 1016 52 0 4.91 79 13:21 18.04.2020
4538 Clouds 16 1016 52 0 4.91 79 12:43 18.04.2020
4539 Clouds 13 1017 56 0 4.09 88 12:25 18.04.2020
4540 Clouds 13 1017 56 0 4.09 88 11:59 18.04.2020
4541 Clouds 13 1017 56 0 4.09 88 11:40 18.04.2020
4542 Clouds 13 1017 56 0 4.09 88 11:21 18.04.2020
4543 Clouds 13 1017 56 0 4.09 88 10:56 18.04.2020
4544 Clouds 14 1015 53 0 0.89 82 10:36 18.04.2020
4545 Clouds 14 1014 54 0 0.45 86 10:18 18.04.2020
4546 Clouds 12 1015 60 0 1.79 96 09:41 18.04.2020
4547 Clouds 7 1018 70 0 3.65 86 09:20 18.04.2020
4548 Clouds 8 1015 77 0 3.65 86 08:43 18.04.2020
4549 Clouds 7 1015 80 0 3.65 86 08:23 18.04.2020
4550 Clouds 6 1015 81 0 3.65 86 07:51 18.04.2020
4551 Clouds 6 1015 81 0 3.65 86 07:32 18.04.2020
4552 Clouds 4 1014 78 0 3.65 86 06:50 18.04.2020
4553 Clear 5 1014 80 0 2.63 91 05:50 18.04.2020
4554 Clear 5 1014 80 0 2.63 91 05:22 18.04.2020
4555 Clear 5 1015 23 0 1.34 102 04:45 18.04.2020
4556 Clear 6 1014 79 0 2.63 91 04:24 18.04.2020
4557 Clear 6 1014 20 0 1.79 93 02:45 18.04.2020
4558 Clear 6 1014 75 0 2.67 92 02:21 18.04.2020
4559 Clear 6 1014 75 0 2.67 92 02:21 18.04.2020
4560 Clear 7 1014 74 0 2.67 92 01:51 18.04.2020
4561 Clear 7 1014 72 0 2.67 92 01:28 18.04.2020
4562 Clear 6 1018 75 0 2.67 92 00:40 18.04.2020
4563 Clear 8 1018 71 0 1.84 91 00:20 18.04.2020
4564 Clear 8 1018 71 0 1.84 91 23:55 17.04.2020
4565 Clear 8 1018 71 0 1.84 91 23:36 17.04.2020
4566 Clear 8 1018 71 0 1.84 91 23:18 17.04.2020
4567 Clear 11 1016 52 0 1.84 91 22:54 17.04.2020
4568 Clear 8 1018 71 0 1.84 91 22:36 17.04.2020
4569 Clear 8 1018 71 0 1.84 91 22:18 17.04.2020
4570 Clear 8 1018 71 0 1.84 91 21:40 17.04.2020
4571 Clouds 11 1017 64 0 2.37 81 21:21 17.04.2020
4572 Clouds 11 1017 66 0 2.41 69 20:56 17.04.2020
4573 Clouds 11 1017 66 0 2.41 69 20:37 17.04.2020
4574 Clouds 16 1015 43 0 2.41 69 20:18 17.04.2020
4575 Clouds 16 1015 44 0 2.41 69 20:18 17.04.2020
4576 Clouds 17 1015 40 0 2.41 69 19:56 17.04.2020
4577 Clouds 11 1017 66 0 2.41 69 19:38 17.04.2020
4578 Clouds 11 1017 66 0 2.41 69 19:20 17.04.2020
4579 Clouds 11 1017 66 0 2.41 69 18:42 17.04.2020
4580 Clouds 18 1013 48 0 2.28 44 18:23 17.04.2020
4581 Clouds 16 1017 46 0 2.28 44 17:55 17.04.2020
4582 Clouds 16 1017 46 0 2.28 44 17:36 17.04.2020
4583 Clouds 16 1017 46 0 2.28 44 17:18 17.04.2020
4584 Clouds 16 1017 46 0 2.28 44 16:41 17.04.2020
4585 Clouds 17 1017 27 10000 2.6 360 16:22 17.04.2020
4586 Clouds 17 1017 27 10000 2.6 360 15:41 17.04.2020
4587 Clouds 17 1017 27 10000 2.6 360 15:23 17.04.2020
4588 Clouds 16 1017 36 10000 2.1 340 14:55 17.04.2020
4589 Clouds 15 1018 44 10000 2.6 0 14:37 17.04.2020
4590 Clouds 15 1018 44 10000 2.6 0 14:19 17.04.2020
4591 Clouds 14 1018 50 10000 2.6 20 13:41 17.04.2020
4592 Clouds 15 1018 50 10000 2.6 20 13:22 17.04.2020
4593 Clouds 14 1018 50 10000 2.1 20 12:59 17.04.2020
4594 Clouds 14 1018 54 10000 1.5 0 12:41 17.04.2020
4595 Clouds 13 1018 54 10000 1.5 0 12:22 17.04.2020
4596 Clouds 12 1019 62 10000 1.5 0 11:40 17.04.2020
4597 Clouds 12 1019 62 10000 1.5 0 11:19 17.04.2020
4598 Clouds 11 1019 62 10000 1.5 0 10:55 17.04.2020
4599 Clouds 11 1019 66 10000 1.5 0 10:37 17.04.2020
4600 Clouds 10 1019 66 10000 1.5 0 10:18 17.04.2020
4601 Clouds 8 1019 80 10000 2.6 10 09:40 17.04.2020
4602 Clouds 7 1019 80 10000 2.6 10 09:20 17.04.2020
4603 Clouds 7 1019 81 10000 1 0 08:57 17.04.2020
4604 Clouds 7 1019 81 10000 1 0 08:39 17.04.2020
4605 Clouds 5 1019 93 10000 1 0 08:19 17.04.2020
4606 Fog 5 1018 93 10000 0.5 310 07:44 17.04.2020
4607 Fog 3 1018 93 10000 0.5 310 07:22 17.04.2020
4608 Clouds 3 1018 93 1600 0.5 320 06:45 17.04.2020
4609 Clouds 3 1018 93 1600 0.5 320 06:23 17.04.2020
4610 Clouds 4 1018 93 9000 1.5 240 05:26 17.04.2020
4611 Clouds 6 1018 80 10000 1 320 03:19 17.04.2020
4612 Clouds 6 1018 81 9000 1.5 280 02:33 17.04.2020
4613 Clouds 8 1017 70 10000 2.1 330 01:29 17.04.2020
4614 Clouds 8 1017 70 10000 2.1 330 00:52 17.04.2020
4615 Clouds 9 1017 70 10000 2.6 340 00:19 17.04.2020
4616 Clouds 10 1017 70 10000 2.6 340 23:45 16.04.2020
4617 Clouds 10 1017 66 10000 2.6 330 23:22 16.04.2020
4618 Clouds 11 1017 66 10000 2.6 330 22:58 16.04.2020
4619 Clouds 12 1016 58 10000 4.6 340 22:37 16.04.2020
4620 Clouds 12 1016 58 10000 4.6 340 22:19 16.04.2020
4621 Clouds 13 1016 58 10000 4.6 340 21:43 16.04.2020
4622 Clouds 14 1015 47 10000 3.6 350 21:21 16.04.2020
4623 Clouds 14 1015 47 10000 3.6 350 20:59 16.04.2020
4624 Clouds 15 1015 47 10000 3.6 350 20:40 16.04.2020
4625 Clouds 16 1015 42 10000 3.6 340 20:21 16.04.2020
4626 Clouds 17 1015 42 10000 3.6 340 19:56 16.04.2020
4627 Clouds 17 1015 29 10000 3.6 300 19:37 16.04.2020
4628 Clouds 19 1015 29 10000 3.6 300 19:19 16.04.2020
4629 Clouds 19 1015 29 10000 2.6 310 18:45 16.04.2020
4630 Clouds 20 1015 25 10000 2.6 0 18:26 16.04.2020
4631 Clouds 20 1015 25 10000 2.6 0 17:58 16.04.2020
4632 Clouds 20 1015 25 10000 2.6 0 17:40 16.04.2020
4633 Clouds 19 1015 25 10000 2.6 0 17:21 16.04.2020
4634 Clouds 20 1016 25 10000 3.1 310 16:45 16.04.2020
4635 Clouds 20 1016 44 10000 3.6 290 16:26 16.04.2020
4636 Clouds 19 1016 31 10000 2.1 0 15:58 16.04.2020
4637 Clouds 19 1016 31 10000 2.1 0 15:39 16.04.2020
4638 Clouds 19 1016 31 10000 2.1 0 15:19 16.04.2020
4639 Clouds 19 1017 31 10000 2.6 310 14:45 16.04.2020
4640 Clouds 18 1017 42 10000 2.1 310 14:25 16.04.2020
4641 Clouds 18 1017 42 10000 2.6 280 13:59 16.04.2020
4642 Clouds 17 1017 42 10000 2.6 280 13:41 16.04.2020
4643 Clouds 17 1017 36 10000 3.1 270 13:23 16.04.2020
4644 Clouds 17 1018 42 10000 3.1 280 12:58 16.04.2020
4645 Clouds 16 1018 42 10000 3.1 280 12:39 16.04.2020
4646 Clouds 16 1018 42 10000 3.1 280 12:39 16.04.2020
4647 Clouds 15 1018 38 10000 3.1 280 12:20 16.04.2020
4648 Clouds 14 1018 41 10000 2.6 290 11:59 16.04.2020
4649 Clouds 15 1018 41 10000 2.6 290 11:41 16.04.2020
4650 Clouds 14 1018 43 10000 2.1 360 11:21 16.04.2020
4651 Clouds 14 1018 43 10000 2.6 350 10:55 16.04.2020
4652 Clouds 13 1018 43 10000 2.6 350 10:37 16.04.2020
4653 Clouds 13 1018 46 10000 2.1 280 10:18 16.04.2020
4654 Clouds 12 1018 57 10000 2.6 320 09:54 16.04.2020
4655 Clouds 12 1019 57 10000 0.5 0 09:36 16.04.2020
4656 Clouds 9 1019 70 10000 2.1 250 09:18 16.04.2020
4657 Clouds 8 1019 70 10000 0.5 0 08:41 16.04.2020
4658 Clouds 7 1019 75 10000 1.72 252 08:21 16.04.2020
4659 Clouds 5 1018 80 10000 1.5 230 07:46 16.04.2020
4660 Fog 4 1018 80 10000 0.5 180 07:26 16.04.2020
4661 Fog 2 1018 80 10000 0.5 180 06:43 16.04.2020
4662 Clouds 2 1019 86 9000 0.5 230 06:25 16.04.2020
4663 Clouds 3 1019 80 10000 0.5 230 05:34 16.04.2020
4664 Clouds 4 1019 74 10000 0.5 240 03:53 16.04.2020
4665 Clouds 4 1019 76 10000 2.6 310 03:23 16.04.2020
4666 Clouds 5 1019 76 10000 2.6 310 02:47 16.04.2020
4667 Clear 5 1019 69 10000 0.5 240 02:28 16.04.2020
4668 Clear 5 1020 65 10000 0.5 220 01:19 16.04.2020
4669 Clear 6 1020 74 10000 2.1 240 00:34 16.04.2020
4670 Clouds 6 1020 72 10000 2.1 240 23:59 15.04.2020
4671 Clouds 7 1020 72 10000 1 210 23:41 15.04.2020
4672 Clouds 7 1020 72 10000 1 210 23:22 15.04.2020
4673 Clouds 7 1020 65 10000 0.5 180 22:41 15.04.2020
4674 Clouds 8 1020 72 10000 0.5 0 22:22 15.04.2020
4675 Clouds 9 1021 72 10000 1.5 220 21:59 15.04.2020
4676 Clouds 10 1021 72 10000 1.5 220 21:41 15.04.2020
4677 Clouds 11 1021 69 10000 1.5 230 21:23 15.04.2020
4678 Clouds 12 1021 69 10000 1.5 230 20:58 15.04.2020
4679 Clouds 12 1021 69 10000 1.5 230 20:40 15.04.2020
4680 Clouds 14 1021 33 10000 3.6 250 20:22 15.04.2020
4681 Clouds 14 1021 33 10000 3.6 250 20:22 15.04.2020
4682 Clouds 15 1021 33 10000 3.6 250 19:46 15.04.2020
4683 Clouds 16 1021 31 9000 5.1 240 19:21 15.04.2020
4684 Clouds 16 1021 31 9000 5.1 240 18:58 15.04.2020
4685 Clouds 16 1021 31 10000 4.6 250 18:40 15.04.2020
4686 Clouds 16 1021 31 10000 4.6 250 18:21 15.04.2020
4687 Clouds 16 1021 31 10000 4.6 250 18:21 15.04.2020
4688 Clouds 16 1022 33 10000 4.6 280 17:55 15.04.2020
4689 Clouds 16 1022 33 10000 4.6 280 17:37 15.04.2020
4690 Clouds 16 1022 33 10000 4.6 280 17:18 15.04.2020
4691 Clouds 16 1022 33 10000 4.6 280 16:55 15.04.2020
4692 Clouds 15 1022 30 10000 5.1 290 16:36 15.04.2020
4693 Clouds 15 1022 30 10000 5.1 290 16:18 15.04.2020
4694 Clouds 15 1023 50 10000 5.1 280 15:55 15.04.2020
4695 Clouds 15 1023 50 10000 5.1 280 15:37 15.04.2020
4696 Clouds 14 1023 50 10000 5.1 280 15:18 15.04.2020
4697 Clouds 14 1023 50 10000 6.2 260 14:54 15.04.2020
4698 Clouds 14 1023 51 10000 6.2 260 14:36 15.04.2020
4699 Clouds 13 1023 51 10000 6.2 270 14:18 15.04.2020
4700 Clouds 12 1023 51 10000 6.2 270 13:40 15.04.2020
4701 Clouds 12 1024 51 10000 6.7 270 13:21 15.04.2020
4702 Clouds 12 1024 51 10000 6.7 270 12:59 15.04.2020
4703 Clouds 11 1024 51 10000 6.7 270 12:41 15.04.2020
4704 Clouds 10 1024 60 10000 5.7 280 12:23 15.04.2020
4705 Clouds 9 1024 60 10000 6.2 290 11:58 15.04.2020
4706 Clouds 9 1024 60 10000 6.2 290 11:39 15.04.2020
4707 Clouds 9 1024 60 10000 6.2 280 11:21 15.04.2020
4708 Clouds 8 1024 60 10000 6.2 280 10:39 15.04.2020
4709 Clouds 8 1024 60 10000 7.2 280 10:21 15.04.2020
4710 Clouds 7 1024 60 10000 5.7 270 09:57 15.04.2020
4711 Clouds 6 1024 60 10000 5.7 270 09:39 15.04.2020
4712 Clouds 5 1024 74 10000 5.7 260 09:21 15.04.2020
4713 Clouds 5 1024 74 10000 5.1 270 08:58 15.04.2020
4714 Clouds 4 1024 74 10000 5.1 270 08:39 15.04.2020
4715 Clouds 4 1024 74 10000 4.1 260 08:19 15.04.2020
4716 Clouds 3 1024 74 10000 3.1 230 07:51 15.04.2020
4717 Clouds 2 1024 74 10000 2.6 240 07:31 15.04.2020
4718 Clouds 2 1024 80 10000 2.1 240 06:33 15.04.2020
4719 Clouds 2 1024 80 10000 2.1 240 05:50 15.04.2020
4720 Clouds 2 1024 80 10000 2.6 240 05:18 15.04.2020
4721 Clouds 2 1024 80 10000 2.6 240 04:43 15.04.2020
4722 Clouds 2 1024 74 10000 2.1 230 03:26 15.04.2020
4723 Clouds 3 1024 74 10000 2.1 230 02:53 15.04.2020
4724 Clouds 2 1025 80 10000 1 250 01:57 15.04.2020
4725 Clouds 3 1025 74 10000 2.1 250 01:39 15.04.2020
4726 Clouds 3 1025 74 10000 2.1 250 01:18 15.04.2020
4727 Clouds 3 1025 69 10000 1.5 250 00:36 15.04.2020
4728 Clouds 3 1025 69 10000 1.5 250 00:18 15.04.2020
4729 Clouds 3 1025 69 10000 1.5 250 23:54 14.04.2020
4730 Clouds 3 1025 69 10000 1 250 23:36 14.04.2020
4731 Clouds 3 1025 69 10000 1 250 23:18 14.04.2020
4732 Clouds 4 1025 69 10000 1 250 22:54 14.04.2020
4733 Clouds 4 1025 60 10000 1.5 290 22:36 14.04.2020
4734 Clouds 5 1025 60 10000 1.5 290 22:18 14.04.2020
4735 Clouds 5 1025 60 10000 1.5 290 21:54 14.04.2020
4736 Clouds 5 1024 52 10000 1.5 300 21:36 14.04.2020
4737 Clouds 6 1024 52 10000 1.5 300 21:18 14.04.2020
4738 Clouds 7 1024 52 10000 1.5 300 20:40 14.04.2020
4739 Clouds 7 1024 49 10000 3.6 290 20:22 14.04.2020
4740 Clouds 8 1024 39 10000 5.1 300 19:57 14.04.2020
4741 Clouds 9 1024 39 10000 5.1 300 19:38 14.04.2020
4742 Clouds 9 1024 39 10000 5.1 300 19:38 14.04.2020
4743 Clouds 9 1024 39 10000 5.1 300 19:20 14.04.2020
4744 Clouds 9 1024 39 10000 5.1 300 18:55 14.04.2020
4745 Clouds 9 1024 39 10000 5.1 300 18:37 14.04.2020
4746 Clouds 9 1023 36 10000 6.2 310 18:18 14.04.2020
4747 Clouds 9 1023 39 10000 5.1 310 17:55 14.04.2020
4748 Clouds 10 1023 39 10000 5.1 310 17:36 14.04.2020
4749 Clouds 10 1023 39 10000 5.7 300 17:18 14.04.2020
4750 Clouds 10 1023 39 10000 5.7 300 16:41 14.04.2020
4751 Clouds 10 1023 42 10000 6.2 300 16:22 14.04.2020
4752 Clouds 10 1024 42 10000 6.2 300 15:58 14.04.2020
4753 Clouds 9 1024 42 10000 6.2 300 15:38 14.04.2020
4754 Clear 10 1024 37 10000 5.7 270 15:19 14.04.2020
4755 Clear 9 1024 36 10000 5.7 300 14:57 14.04.2020
4756 Clear 9 1024 36 10000 5.7 300 14:39 14.04.2020
4757 Clear 9 1024 31 10000 4.6 290 14:21 14.04.2020
4758 Clear 9 1023 27 10000 5.1 280 13:55 14.04.2020
4759 Clear 9 1023 27 10000 5.1 280 13:37 14.04.2020
4760 Clear 9 1024 26 10000 5.1 310 13:19 14.04.2020
4761 Clear 8 1024 29 10000 5.1 310 12:40 14.04.2020
4762 Clear 8 1024 31 10000 4.6 320 12:20 14.04.2020
4763 Clouds 8 1024 39 10000 4.1 310 11:55 14.04.2020
4764 Clouds 7 1024 39 10000 4.1 310 11:36 14.04.2020
4765 Clouds 7 1024 39 10000 5.1 310 11:18 14.04.2020
4766 Clouds 6 1024 56 10000 4.1 330 10:43 14.04.2020
4767 Clouds 6 1024 60 10000 4.1 320 10:23 14.04.2020
4768 Clouds 5 1023 65 10000 4.6 310 09:43 14.04.2020
4769 Clouds 3 1023 69 10000 4.6 300 09:25 14.04.2020
4770 Clouds 3 1023 74 10000 4.1 300 08:59 14.04.2020
4771 Clouds 3 1023 74 10000 4.1 300 08:41 14.04.2020
4772 Clouds 2 1023 80 10000 3.6 280 08:22 14.04.2020
4773 Clouds 1 1023 86 10000 1.5 280 07:53 14.04.2020
4774 Clouds 2 1023 84 0 3.38 293 07:53 14.04.2020
4775 Clouds 1 1022 84 10000 2.1 270 07:30 14.04.2020
4776 Clouds 1 1022 84 10000 2.1 270 06:49 14.04.2020
4777 Snow 0 1022 93 0 3.47 299 06:18 14.04.2020
4778 Snow 0 1022 93 0 3.47 299 03:52 14.04.2020
4779 Snow 3 1021 74 10000 3.1 280 02:56 14.04.2020
4780 Snow 4 1020 64 10000 3.6 280 01:49 14.04.2020
4781 Snow 4 1021 64 10000 3.6 290 01:24 14.04.2020
4782 Snow 4 1021 64 10000 3.6 290 00:39 14.04.2020
4783 Clear 4 1020 56 10000 4.1 280 00:19 14.04.2020
4784 Clear 4 1020 48 10000 3.6 300 23:44 13.04.2020
4785 Clear 4 1020 48 10000 3.6 300 23:26 13.04.2020
4786 Clear 4 1020 48 10000 3.6 300 22:59 13.04.2020
4787 Clear 4 1020 48 10000 4.1 290 22:41 13.04.2020
4788 Clear 5 1020 48 10000 4.1 290 22:22 13.04.2020
4789 Clear 5 1020 48 10000 4.1 290 21:56 13.04.2020
4790 Clouds 5 1020 41 10000 3.6 310 21:37 13.04.2020
4791 Clear 5 1020 41 10000 3.6 310 21:37 13.04.2020
4792 Clouds 5 1020 41 10000 3.6 310 21:37 13.04.2020
4793 Clear 5 1020 41 10000 3.6 310 21:37 13.04.2020
4794 Clear 5 1020 41 10000 3.6 310 21:19 13.04.2020
4795 Clear 5 1020 41 10000 3.6 310 20:55 13.04.2020
4796 Clear 6 1019 24 10000 7.2 320 20:37 13.04.2020
4797 Clear 7 1019 24 10000 7.2 320 20:18 13.04.2020
4798 Clear 8 1019 23 10000 5.7 310 19:39 13.04.2020
4799 Clear 8 1019 23 10000 5.7 310 19:39 13.04.2020
4800 Clear 8 1019 23 10000 5.7 310 19:20 13.04.2020
4801 Clear 9 1019 23 10000 5.7 310 18:59 13.04.2020
4802 Clear 9 1018 27 10000 7.2 290 18:39 13.04.2020
4803 Clear 9 1018 27 10000 7.2 290 18:20 13.04.2020
4804 Clear 9 1018 27 10000 7.2 290 17:58 13.04.2020
4805 Clear 9 1018 29 10000 7.7 310 17:39 13.04.2020
4806 Clear 9 1018 29 10000 7.7 310 17:20 13.04.2020
4807 Clear 9 1018 29 10000 7.7 310 16:59 13.04.2020
4808 Clear 9 1018 29 10000 7.7 310 16:41 13.04.2020
4809 Clear 9 1018 29 10000 6.2 300 16:21 13.04.2020
4810 Clear 9 1018 29 10000 6.2 300 15:59 13.04.2020
4811 Clear 9 1018 29 10000 6.2 300 15:41 13.04.2020
4812 Clouds 9 1019 31 10000 5.7 300 15:23 13.04.2020
4813 Clouds 9 1019 31 10000 5.7 300 14:56 13.04.2020
4814 Clouds 9 1019 36 10000 7.7 310 14:38 13.04.2020
4815 Clouds 9 1019 36 10000 7.7 310 14:20 13.04.2020
4816 Clouds 9 1019 36 10000 7.7 310 13:55 13.04.2020
4817 Clouds 9 1019 36 10000 7.7 310 13:55 13.04.2020
4818 Clouds 9 1019 36 10000 7.7 310 13:55 13.04.2020
4819 Clouds 9 1018 36 10000 7.2 310 13:37 13.04.2020
4820 Clouds 8 1018 36 10000 7.2 310 13:19 13.04.2020
4821 Clouds 8 1018 36 10000 7.2 310 12:57 13.04.2020
4822 Clouds 8 1018 36 10000 7.2 310 12:57 13.04.2020
4823 Clouds 8 1018 39 10000 6.7 310 12:38 13.04.2020
4824 Clouds 7 1018 39 10000 6.7 310 12:19 13.04.2020
4825 Clouds 8 1018 39 10000 6.7 310 11:44 13.04.2020
4826 Clouds 8 1018 39 10000 6.2 330 11:19 13.04.2020
4827 Clouds 7 1018 39 10000 6.2 330 10:56 13.04.2020
4828 Clouds 7 1017 45 10000 6.7 320 10:38 13.04.2020
4829 Clouds 7 1017 45 10000 6.7 320 10:20 13.04.2020
4830 Clouds 7 1017 45 10000 6.7 320 09:56 13.04.2020
4831 Clouds 6 1017 52 10000 6.2 320 09:38 13.04.2020
4832 Clouds 6 1017 52 10000 6.2 320 09:19 13.04.2020
4833 Clouds 6 1017 52 10000 6.2 320 08:44 13.04.2020
4834 Clouds 7 1016 56 10000 7.2 330 08:26 13.04.2020
4835 Clouds 7 1014 70 10000 5.1 320 07:44 13.04.2020
4836 Clouds 7 1016 56 10000 7.2 330 07:44 13.04.2020
4837 Clouds 7 1014 70 10000 5.1 320 07:25 13.04.2020
4838 Clouds 7 1014 70 10000 5.1 320 06:56 13.04.2020
4839 Clouds 7 1014 75 10000 3.6 330 06:33 13.04.2020
4840 Rain 8 1013 76 10000 3.1 340 05:40 13.04.2020
4841 Rain 9 1013 76 10000 3.1 340 05:19 13.04.2020
4842 Rain 10 1012 76 10000 4.1 330 04:31 13.04.2020
4843 Rain 10 1012 76 10000 4.1 330 03:54 13.04.2020
4844 Rain 10 1012 81 9000 2.1 320 03:34 13.04.2020
4845 Rain 11 1012 81 9000 2.1 320 02:40 13.04.2020
4846 Rain 12 1011 82 9000 2.6 240 01:46 13.04.2020
4847 Rain 12 1011 67 10000 2.1 290 01:27 13.04.2020
4848 Rain 12 1011 67 10000 2.1 290 01:27 13.04.2020
4849 Rain 12 1011 67 10000 2.1 290 00:46 13.04.2020
4850 Rain 13 1011 58 10000 1.5 200 00:24 13.04.2020
4851 Rain 13 1011 58 10000 1.5 200 23:56 12.04.2020
4852 Rain 13 1011 55 10000 3.1 350 23:38 12.04.2020
4853 Rain 13 1011 55 10000 3.1 350 23:19 12.04.2020
4854 Rain 14 1011 55 10000 3.1 350 22:54 12.04.2020
4855 Rain 15 1012 42 10000 3.6 300 22:36 12.04.2020
4856 Rain 15 1012 42 10000 3.6 300 22:18 12.04.2020
4857 Clear 14 1011 34 10000 1 270 21:38 12.04.2020
4858 Rain 16 1011 34 10000 1 270 21:19 12.04.2020
4859 Rain 16 1011 34 10000 1 270 20:43 12.04.2020
4860 Rain 18 1011 28 10000 2.1 280 20:23 12.04.2020
4861 Rain 20 1011 28 10000 2.1 280 19:59 12.04.2020
4862 Rain 21 1011 26 10000 3.1 290 19:40 12.04.2020
4863 Rain 21 1011 26 10000 3.1 290 19:19 12.04.2020
4864 Rain 22 1011 26 10000 3.1 290 18:57 12.04.2020
4865 Rain 22 1012 23 10000 4.1 270 18:39 12.04.2020
4866 Rain 23 1012 23 10000 4.1 270 18:19 12.04.2020
4867 Rain 22 1012 23 10000 4.1 270 17:55 12.04.2020
4868 Rain 23 1012 43 10000 3.6 270 17:37 12.04.2020
4869 Rain 23 1012 43 10000 3.6 270 17:18 12.04.2020
4870 Rain 22 1012 43 10000 3.6 270 16:41 12.04.2020
4871 Rain 23 1013 21 10000 3.6 280 16:22 12.04.2020
4872 Rain 22 1013 21 10000 3.6 280 15:53 12.04.2020
4873 Rain 22 1013 43 10000 3.6 220 15:35 12.04.2020
4874 Clear 22 1013 40 10000 3.6 220 14:58 12.04.2020
4875 Clear 21 1014 44 10000 2.6 230 14:39 12.04.2020
4876 Clear 21 1014 44 10000 2.6 230 14:21 12.04.2020
4877 Clear 21 1014 44 10000 2.6 230 13:57 12.04.2020
4878 Clear 20 1015 28 8000 2.6 230 13:37 12.04.2020
4879 Clear 20 1015 28 8000 2.6 230 13:18 12.04.2020
4880 Clear 20 1015 28 8000 2.6 230 12:45 12.04.2020
4881 Clear 19 1015 29 7000 2.6 250 12:21 12.04.2020
4882 Clear 18 1015 29 7000 2.6 250 11:58 12.04.2020
4883 Clear 18 1016 38 4400 2.6 220 11:38 12.04.2020
4884 Clear 17 1016 38 4400 2.6 220 11:19 12.04.2020
4885 Clear 17 1016 38 4400 2.6 220 10:56 12.04.2020
4886 Clear 17 1016 42 10000 3.1 260 10:38 12.04.2020
4887 Clear 16 1016 41 10000 1.5 240 10:20 12.04.2020
4888 Clear 15 1016 43 5000 1.5 160 09:58 12.04.2020
4889 Clear 14 1016 44 10000 1 0 09:37 12.04.2020
4890 Clouds 11 1016 67 8000 1 110 09:19 12.04.2020
4891 Clouds 10 1016 67 8000 1 110 08:50 12.04.2020
4892 Clouds 9 1017 60 7000 1 60 08:30 12.04.2020
4893 Clouds 7 1017 60 7000 1 60 07:47 12.04.2020
4894 Clouds 6 1017 65 10000 1.5 80 07:19 12.04.2020
4895 Clouds 7 1017 65 10000 1.5 80 06:54 12.04.2020
4896 Clouds 7 1018 60 10000 1.5 70 06:30 12.04.2020
4897 Clouds 6 1018 60 10000 1.5 70 05:49 12.04.2020
4898 Clouds 7 1018 60 10000 1.5 70 04:44 12.04.2020
4899 Clouds 8 1020 52 10000 1.5 130 03:30 12.04.2020
4900 Clouds 8 1020 52 10000 1.5 130 02:49 12.04.2020
4901 Clouds 8 1020 46 10000 1 100 02:29 12.04.2020
4902 Clouds 9 1021 43 10000 2.1 100 01:26 12.04.2020
4903 Clouds 10 1021 43 10000 2.1 100 00:55 12.04.2020
4904 Clouds 10 1021 65 10000 2.1 120 00:37 12.04.2020
4905 Clouds 10 1021 64 10000 2.1 120 00:18 12.04.2020
4906 Clouds 10 1021 64 10000 2.1 120 00:18 12.04.2020
4907 Clouds 10 1021 64 10000 2.1 120 23:43 11.04.2020
4908 Clouds 11 1022 40 10000 2.1 130 23:23 11.04.2020
4909 Clouds 10 1022 40 10000 2.1 130 22:40 11.04.2020
4910 Clouds 11 1022 37 10000 2.1 120 22:22 11.04.2020
4911 Clouds 11 1022 37 10000 2.1 120 21:57 11.04.2020
4912 Clouds 12 1022 28 10000 1.5 120 21:37 11.04.2020
4913 Clouds 13 1022 28 10000 1.5 120 21:19 11.04.2020
4914 Clouds 13 1022 28 10000 1.5 120 20:57 11.04.2020
4915 Clouds 14 1022 28 10000 1.5 120 20:39 11.04.2020
4916 Clouds 15 1023 29 10000 2.6 160 20:20 11.04.2020
4917 Clouds 16 1023 29 10000 2.6 160 19:58 11.04.2020
4918 Clouds 15 1023 29 10000 2.6 130 19:38 11.04.2020
4919 Clouds 17 1023 29 10000 2.6 130 19:19 11.04.2020
4920 Clouds 17 1023 29 10000 2.6 130 18:56 11.04.2020
4921 Clouds 17 1023 27 10000 2.6 120 18:38 11.04.2020
4922 Clouds 18 1023 27 10000 2.6 120 18:20 11.04.2020
4923 Clouds 18 1023 27 10000 2.6 120 17:58 11.04.2020
4924 Clouds 18 1024 23 10000 3.1 120 17:40 11.04.2020
4925 Clouds 18 1024 23 10000 3.1 120 17:20 11.04.2020
4926 Clouds 17 1024 23 10000 3.1 120 16:55 11.04.2020
4927 Clouds 17 1025 25 9000 3.1 130 16:37 11.04.2020
4928 Clouds 17 1025 25 9000 3.1 130 16:19 11.04.2020
4929 Clouds 17 1025 25 9000 3.1 130 16:19 11.04.2020
4930 Clouds 17 1025 25 9000 3.1 130 15:39 11.04.2020
4931 Clouds 17 1025 26 10000 3.1 100 15:19 11.04.2020
4932 Clouds 16 1025 26 10000 3.1 100 14:43 11.04.2020
4933 Clouds 16 1026 33 10000 3.1 120 14:24 11.04.2020
4934 Clouds 16 1026 33 10000 3.1 120 14:24 11.04.2020
4935 Clouds 16 1026 33 10000 3.1 120 13:59 11.04.2020
4936 Clouds 15 1027 35 9000 3.1 150 13:40 11.04.2020
4937 Clouds 15 1027 35 9000 3.1 150 13:20 11.04.2020
4938 Clouds 14 1027 35 9000 3.1 150 12:43 11.04.2020
4939 Clouds 14 1027 47 10000 3.1 140 12:22 11.04.2020
4940 Clouds 13 1027 51 8000 2.6 110 11:58 11.04.2020
4941 Clouds 13 1027 46 10000 3.1 150 11:40 11.04.2020
4942 Clouds 13 1027 50 10000 2.6 150 11:19 11.04.2020
4943 Clouds 12 1027 53 4500 2.6 120 10:56 11.04.2020
4944 Clouds 11 1027 57 10000 2.1 120 10:36 11.04.2020
4945 Clouds 11 1027 66 10000 2.6 100 10:18 11.04.2020
4946 Clouds 8 1027 80 7000 1 70 09:41 11.04.2020
4947 Clouds 7 1027 80 7000 1 70 09:22 11.04.2020
4948 Clouds 6 1027 80 7000 1 70 08:59 11.04.2020
4949 Clouds 6 1027 80 7000 1 70 08:41 11.04.2020
4950 Clouds 5 1027 72 9000 1.73 116 08:23 11.04.2020
4951 Clouds 3 1027 72 9000 1.73 116 07:41 11.04.2020
4952 Clouds 2 1027 72 3400 1.73 116 07:23 11.04.2020
4953 Clouds 1 1027 86 3200 0.5 250 06:37 11.04.2020
4954 Clouds 1 1027 86 3200 0.5 250 05:58 11.04.2020
4955 Clouds 2 1027 78 4000 0.5 220 04:26 11.04.2020
4956 Clouds 3 1027 86 10000 0.5 260 02:53 11.04.2020
4957 Clouds 4 1027 80 10000 0.5 330 01:41 11.04.2020
4958 Clouds 5 1027 70 10000 1.5 330 01:18 11.04.2020
4959 Clouds 5 1027 70 10000 1.5 330 00:42 11.04.2020
4960 Clouds 5 1026 66 10000 1.5 330 00:18 11.04.2020
4961 Clouds 6 1026 66 10000 1.5 330 23:54 10.04.2020
4962 Clouds 6 1026 56 10000 1 320 23:36 10.04.2020
4963 Clouds 7 1026 56 10000 1 320 23:18 10.04.2020
4964 Clouds 7 1026 56 10000 1 320 22:43 10.04.2020
4965 Clouds 8 1026 45 10000 1.5 350 22:21 10.04.2020
4966 Clouds 9 1026 45 10000 1.5 350 21:58 10.04.2020
4967 Clouds 9 1026 45 10000 1.5 350 21:39 10.04.2020
4968 Clouds 9 1026 37 10000 1.5 330 21:39 10.04.2020
4969 Clouds 10 1026 37 10000 1.5 330 21:18 10.04.2020
4970 Clouds 10 1026 37 10000 1.5 330 20:41 10.04.2020
4971 Clouds 11 1026 32 10000 3.1 350 20:23 10.04.2020
4972 Clouds 12 1026 32 10000 3.1 350 19:58 10.04.2020
4973 Clouds 13 1025 28 10000 3.6 360 19:40 10.04.2020
4974 Clouds 14 1025 28 10000 3.6 360 19:20 10.04.2020
4975 Clouds 14 1025 28 10000 3.6 360 18:57 10.04.2020
4976 Clouds 14 1025 24 10000 3.1 330 18:39 10.04.2020
4977 Clouds 15 1025 24 10000 3.1 330 18:21 10.04.2020
4978 Clouds 15 1025 24 10000 3.1 330 17:58 10.04.2020
4979 Clouds 15 1025 22 10000 4.1 300 17:39 10.04.2020
4980 Clouds 15 1025 22 10000 4.1 300 17:20 10.04.2020
4981 Clouds 15 1025 22 10000 4.1 300 16:56 10.04.2020
4982 Clouds 15 1026 21 10000 4.1 290 16:38 10.04.2020
4983 Clouds 15 1026 21 10000 4.1 290 16:20 10.04.2020
4984 Clouds 15 1026 21 10000 4.1 290 15:56 10.04.2020
4985 Clouds 15 1026 26 10000 3.1 290 15:37 10.04.2020
4986 Clouds 15 1026 26 10000 3.1 290 15:18 10.04.2020
4987 Clouds 14 1026 26 10000 3.1 290 14:56 10.04.2020
4988 Clouds 14 1027 35 10000 4.1 300 14:38 10.04.2020
4989 Clouds 14 1027 35 10000 4.1 300 14:18 10.04.2020
4990 Clouds 14 1027 35 10000 4.1 300 13:43 10.04.2020
4991 Clouds 13 1027 46 10000 2.6 310 13:21 10.04.2020
4992 Clouds 13 1027 46 10000 2.6 310 12:43 10.04.2020
4993 Clouds 12 1028 50 6000 2.6 270 12:24 10.04.2020
4994 Clouds 12 1028 50 6000 2.6 270 11:58 10.04.2020
4995 Clouds 11 1028 57 2800 1 90 11:39 10.04.2020
4996 Clouds 10 1028 57 2800 1 90 11:21 10.04.2020
4997 Clouds 9 1028 75 5000 2.1 50 10:46 10.04.2020
4998 Clouds 9 1028 75 5000 2.1 50 10:23 10.04.2020
4999 Clouds 8 1028 75 5000 2.1 50 09:59 10.04.2020
5000 Clouds 7 1028 75 5000 2.1 50 09:40 10.04.2020
5001 Clouds 6 1028 86 5000 1.5 10 09:20 10.04.2020
5002 Clouds 5 1028 86 5000 1.5 10 08:44 10.04.2020
5003 Clouds 4 1028 76 2200 0.5 290 08:24 10.04.2020
5004 Clouds 3 1028 76 5000 1 270 07:49 10.04.2020
5005 Clouds 3 1028 76 5000 1 270 07:28 10.04.2020
5006 Clouds 3 1028 76 5000 1 270 06:59 10.04.2020
5007 Clouds 3 1027 93 10000 1 320 06:30 10.04.2020
5008 Clouds 3 1027 93 10000 1 320 06:30 10.04.2020
5009 Clouds 4 1027 93 10000 1 320 05:56 10.04.2020
5010 Clouds 4 1027 86 10000 1.5 300 05:19 10.04.2020
5011 Clouds 4 1027 80 10000 1.5 320 04:42 10.04.2020
5012 Clouds 6 1027 70 10000 1 310 03:32 10.04.2020
5013 Clouds 6 1027 70 10000 1 310 02:50 10.04.2020
5014 Clouds 7 1027 70 10000 1 320 02:31 10.04.2020
5015 Clouds 7 1027 70 10000 1 320 01:43 10.04.2020
5016 Clouds 8 1027 70 10000 1.5 310 01:25 10.04.2020
5017 Clouds 8 1027 70 10000 1.5 310 00:45 10.04.2020
5018 Clouds 10 1027 66 10000 2.6 340 00:20 10.04.2020
5019 Clouds 10 1027 66 10000 2.6 340 23:42 09.04.2020
5020 Clouds 11 1026 62 10000 2.1 340 23:24 09.04.2020
5021 Clouds 11 1026 62 10000 2.1 340 22:57 09.04.2020
5022 Clouds 11 1026 62 10000 2.1 340 22:39 09.04.2020
5023 Clouds 12 1026 58 10000 2.6 340 22:21 09.04.2020
5024 Clouds 13 1025 47 10000 2.6 340 21:38 09.04.2020
5025 Clouds 13 1025 47 10000 2.6 340 21:20 09.04.2020
5026 Clouds 14 1025 47 10000 2.6 340 20:47 09.04.2020
5027 Clouds 15 1024 44 10000 4.1 330 20:23 09.04.2020
5028 Clouds 16 1024 44 10000 4.1 330 19:59 09.04.2020
5029 Clouds 17 1024 39 10000 4.6 330 19:39 09.04.2020
5030 Clouds 17 1024 39 10000 4.6 330 19:21 09.04.2020
5031 Clouds 18 1024 39 10000 4.1 340 18:42 09.04.2020
5032 Clouds 18 1024 36 10000 3.6 340 18:21 09.04.2020
5033 Clouds 18 1024 34 10000 3.6 350 17:58 09.04.2020
5034 Clouds 19 1024 34 10000 3.6 350 17:39 09.04.2020
5035 Clouds 19 1024 37 10000 3.6 340 17:19 09.04.2020
5036 Clouds 19 1024 37 10000 3.6 340 17:19 09.04.2020
5037 Clouds 18 1024 39 10000 3.6 330 16:40 09.04.2020
5038 Clouds 19 1024 34 10000 3.6 310 16:20 09.04.2020
5039 Clouds 19 1024 34 10000 3.6 310 15:56 09.04.2020
5040 Clouds 19 1024 34 10000 3.6 310 15:37 09.04.2020
5041 Clouds 19 1024 34 10000 3.6 310 15:19 09.04.2020
5042 Clouds 18 1024 36 10000 2.6 0 14:56 09.04.2020
5043 Clouds 18 1024 36 10000 2.6 0 14:36 09.04.2020
5044 Clouds 18 1024 36 10000 3.6 320 14:18 09.04.2020
5045 Clouds 17 1025 36 10000 5.7 300 13:42 09.04.2020
5046 Clouds 17 1025 39 10000 3.6 320 13:23 09.04.2020
5047 Clouds 17 1025 41 10000 2.6 360 12:55 09.04.2020
5048 Clouds 17 1025 41 10000 2.6 360 12:36 09.04.2020
5049 Clouds 16 1025 41 10000 2.6 360 12:18 09.04.2020
5050 Clouds 15 1025 47 10000 3.6 340 11:43 09.04.2020
5051 Clouds 15 1025 47 10000 3.1 350 11:20 09.04.2020
5052 Clouds 14 1025 47 10000 2.1 340 10:59 09.04.2020
5053 Clouds 14 1025 47 10000 2.1 340 10:41 09.04.2020
5054 Clouds 13 1025 54 10000 1.5 0 10:22 09.04.2020
5055 Clouds 13 1025 54 10000 1.5 0 10:22 09.04.2020
5056 Clouds 13 1025 58 10000 1.5 0 09:58 09.04.2020
5057 Clouds 12 1025 62 10000 0.5 0 09:39 09.04.2020
5058 Clouds 11 1024 76 10000 1 230 09:21 09.04.2020
5059 Clouds 11 1024 76 10000 1 230 08:45 09.04.2020
5060 Clouds 10 1024 87 10000 1 240 08:24 09.04.2020
5061 Clouds 8 1024 87 10000 1 240 07:59 09.04.2020
5062 Clouds 8 1023 87 10000 1 240 07:37 09.04.2020
5063 Clouds 8 1023 87 10000 1 240 07:18 09.04.2020
5064 Clouds 8 1023 87 9000 0.5 270 06:35 09.04.2020
5065 Clouds 8 1023 87 9000 0.5 270 05:49 09.04.2020
5066 Clouds 9 1022 76 10000 0.5 0 05:20 09.04.2020
5067 Clouds 11 1022 71 10000 1.5 330 02:35 09.04.2020
5068 Clouds 11 1022 71 10000 1.5 330 01:46 09.04.2020
5069 Clouds 12 1022 58 10000 2.6 10 01:27 09.04.2020
5070 Clouds 12 1022 58 10000 2.6 10 00:54 09.04.2020
5071 Clouds 12 1022 58 10000 1.5 350 00:36 09.04.2020
5072 Clouds 12 1022 58 10000 1.5 350 00:18 09.04.2020
5073 Clouds 13 1022 58 10000 1.5 350 23:42 08.04.2020
5074 Clouds 13 1022 58 10000 0.5 200 23:23 08.04.2020
5075 Clouds 14 1022 51 10000 0.5 220 22:54 08.04.2020
5076 Clouds 14 1022 51 10000 0.5 220 22:36 08.04.2020
5077 Clouds 14 1022 51 10000 0.5 220 22:18 08.04.2020
5078 Clouds 15 1022 51 10000 0.5 220 21:55 08.04.2020
5079 Clouds 16 1022 37 10000 0.5 320 21:37 08.04.2020
5080 Clouds 16 1022 37 10000 0.5 320 21:37 08.04.2020
5081 Clouds 16 1022 37 10000 0.5 320 21:18 08.04.2020
5082 Clouds 18 1022 26 10000 2.1 280 20:41 08.04.2020
5083 Clouds 19 1022 26 10000 2.1 280 20:21 08.04.2020
5084 Clouds 19 1022 26 10000 2.1 280 20:21 08.04.2020
5085 Clouds 19 1022 26 10000 2.1 280 19:59 08.04.2020
5086 Clouds 20 1022 26 10000 2.1 280 19:40 08.04.2020
5087 Clouds 21 1022 27 10000 1.5 210 19:21 08.04.2020
5088 Clouds 22 1023 27 10000 2.1 0 18:55 08.04.2020
5089 Clouds 22 1023 27 10000 2.1 0 18:55 08.04.2020
5090 Clouds 23 1023 27 10000 2.1 0 18:36 08.04.2020
5091 Clouds 23 1023 27 10000 2.1 0 18:18 08.04.2020
5092 Clouds 23 1023 26 10000 2.1 170 17:42 08.04.2020
5093 Clouds 24 1023 27 10000 1.5 0 17:20 08.04.2020
5094 Clouds 23 1023 27 10000 1.5 0 16:57 08.04.2020
5095 Clouds 23 1024 25 10000 2.6 140 16:39 08.04.2020
5096 Clouds 23 1024 25 10000 2.6 140 16:19 08.04.2020
5097 Clouds 23 1024 26 10000 2.6 0 15:39 08.04.2020
5098 Clear 23 1024 26 10000 2.6 0 15:21 08.04.2020
5099 Clear 23 1024 26 10000 2.6 0 15:21 08.04.2020
5100 Clear 22 1025 26 10000 3.1 210 14:58 08.04.2020
5101 Clear 22 1025 26 10000 3.1 210 14:39 08.04.2020
5102 Clear 22 1025 35 10000 2.6 190 14:21 08.04.2020
5103 Clear 21 1026 43 10000 2.6 120 13:44 08.04.2020
5104 Clear 21 1026 43 10000 2.6 120 13:21 08.04.2020
5105 Clear 20 1026 45 10000 2.1 130 12:57 08.04.2020
5106 Clear 20 1026 45 10000 2.1 130 12:39 08.04.2020
5107 Clear 19 1027 48 10000 2.1 120 12:18 08.04.2020
5108 Clear 18 1027 51 10000 3.1 120 11:42 08.04.2020
5109 Clear 17 1027 55 10000 2.1 130 11:23 08.04.2020
5110 Clear 16 1027 54 10000 2.1 120 10:58 08.04.2020
5111 Clear 16 1027 54 10000 2.1 120 10:40 08.04.2020
5112 Clear 15 1027 58 10000 2.6 110 10:21 08.04.2020
5113 Clear 13 1028 58 10000 2.6 110 09:59 08.04.2020
5114 Clear 12 1028 58 10000 2.6 110 09:41 08.04.2020
5115 Clear 11 1028 62 10000 2.6 120 09:19 08.04.2020
5116 Clear 10 1028 66 10000 2.1 90 08:58 08.04.2020
5117 Clear 10 1028 66 10000 2.1 90 08:39 08.04.2020
5118 Clear 9 1028 70 10000 2.6 100 08:20 08.04.2020
5119 Clouds 8 1028 79 10000 4.1 90 07:43 08.04.2020
5120 Clouds 7 1028 79 10000 4.1 90 07:21 08.04.2020
5121 Clear 7 1029 86 10000 3.1 70 06:29 08.04.2020
5122 Clear 8 1030 86 10000 4.1 80 04:59 08.04.2020
5123 Clouds 8 1031 78 10000 4.1 80 02:51 08.04.2020
5124 Clouds 9 1031 75 10000 3.6 80 02:22 08.04.2020
5125 Clouds 9 1031 75 10000 3.6 80 01:56 08.04.2020
5126 Clouds 10 1031 50 10000 3.1 70 01:28 08.04.2020
5127 Clouds 11 1031 50 10000 3.1 70 00:49 08.04.2020
5128 Clouds 11 1031 50 10000 3.1 80 00:31 08.04.2020
5129 Clouds 11 1031 50 10000 3.1 80 23:57 07.04.2020
5130 Clouds 12 1031 58 10000 3.6 90 23:38 07.04.2020
5131 Clouds 12 1031 50 10000 2.6 70 23:19 07.04.2020
5132 Clouds 12 1031 50 10000 2.6 70 22:56 07.04.2020
5133 Clouds 12 1031 47 10000 3.1 70 22:38 07.04.2020
5134 Clouds 13 1031 47 10000 3.1 70 22:18 07.04.2020
5135 Clouds 13 1031 47 10000 3.1 70 21:43 07.04.2020
5136 Clouds 14 1031 41 10000 3.1 70 21:23 07.04.2020
5137 Clouds 14 1031 54 10000 4.1 90 20:59 07.04.2020
5138 Clouds 15 1031 36 10000 5.1 70 20:41 07.04.2020
5139 Clouds 16 1031 36 10000 5.1 70 20:21 07.04.2020
5140 Clouds 17 1031 36 10000 5.1 70 19:58 07.04.2020
5141 Clouds 18 1031 37 10000 4.1 90 19:38 07.04.2020
5142 Clouds 18 1031 37 10000 4.1 90 19:20 07.04.2020
5143 Clouds 19 1031 37 10000 4.1 90 18:59 07.04.2020
5144 Clouds 19 1031 34 10000 3.1 80 18:41 07.04.2020
5145 Clouds 19 1031 34 10000 3.1 80 18:21 07.04.2020
5146 Clouds 19 1031 34 10000 3.1 80 17:56 07.04.2020
5147 Clouds 19 1031 34 10000 3.1 80 17:37 07.04.2020
5148 Clouds 19 1031 37 10000 2.1 140 17:19 07.04.2020
5149 Clouds 19 1031 34 10000 2.1 20 16:44 07.04.2020
5150 Clouds 18 1032 39 10000 1.5 0 16:26 07.04.2020
5151 Clouds 18 1032 39 10000 1.5 0 16:26 07.04.2020
5152 Clouds 18 1032 39 10000 1.5 0 15:46 07.04.2020
5153 Clouds 18 1032 39 10000 1.5 0 15:27 07.04.2020
5154 Clouds 18 1032 39 10000 2.1 0 14:57 07.04.2020
5155 Clouds 18 1032 39 10000 2.1 0 14:38 07.04.2020
5156 Clouds 18 1032 39 10000 2.6 0 14:20 07.04.2020
5157 Clouds 17 1032 45 10000 3.1 0 13:43 07.04.2020
5158 Clouds 17 1032 45 10000 2.6 0 13:20 07.04.2020
5159 Clouds 16 1032 48 10000 2.6 0 12:58 07.04.2020
5160 Clouds 16 1032 48 10000 2.6 0 12:39 07.04.2020
5161 Clouds 16 1032 48 10000 2.6 10 12:21 07.04.2020
5162 Clouds 15 1032 58 10000 2.6 360 11:59 07.04.2020
5163 Clouds 14 1032 58 10000 2.6 360 11:41 07.04.2020
5164 Clouds 14 1031 71 10000 2.6 340 11:21 07.04.2020
5165 Clouds 14 1031 71 10000 2.6 340 10:55 07.04.2020
5166 Clouds 13 1031 71 10000 2.6 340 10:36 07.04.2020
5167 Clouds 13 1031 76 10000 2.6 340 10:18 07.04.2020
5168 Clouds 12 1031 81 10000 3.1 310 09:44 07.04.2020
5169 Clouds 11 1030 81 9000 3.6 310 09:18 07.04.2020
5170 Clouds 11 1030 81 9000 3.6 310 08:42 07.04.2020
5171 Clouds 11 1029 81 8000 2.1 290 08:24 07.04.2020
5172 Clouds 10 1029 81 8000 2.1 290 07:59 07.04.2020
5173 Clouds 10 1029 87 9000 2.1 270 07:40 07.04.2020
5174 Clouds 10 1029 87 9000 2.1 270 07:21 07.04.2020
5175 Clouds 10 1029 87 9000 2.1 270 06:49 07.04.2020
5176 Clear 9 1028 81 8000 1.5 250 06:21 07.04.2020
5177 Clear 9 1027 81 10000 2.1 250 05:38 07.04.2020
5178 Clear 9 1027 81 10000 2.1 250 04:46 07.04.2020
5179 Clear 10 1025 66 10000 1.5 240 03:26 07.04.2020
5180 Clear 11 1025 66 10000 1.5 240 02:54 07.04.2020
5181 Clear 11 1025 53 10000 2.1 240 01:48 07.04.2020
5182 Clear 12 1023 54 10000 3.6 270 01:25 07.04.2020
5183 Clear 12 1022 66 6000 0.5 250 00:29 07.04.2020
5184 Clear 12 1022 66 6000 0.5 250 23:56 06.04.2020
5185 Clear 12 1022 54 10000 0.5 220 23:36 06.04.2020
5186 Clear 13 1022 54 10000 0.5 220 23:18 06.04.2020
5187 Clear 13 1022 54 10000 0.5 220 22:40 06.04.2020
5188 Clear 13 1022 54 10000 0.5 220 22:40 06.04.2020
5189 Clear 14 1021 44 10000 0.5 140 22:21 06.04.2020
5190 Clear 15 1021 44 10000 0.5 140 21:58 06.04.2020
5191 Clear 15 1021 44 10000 0.5 140 21:39 06.04.2020
5192 Clear 16 1021 34 10000 1 70 21:19 06.04.2020
5193 Clear 17 1021 34 10000 1 70 20:56 06.04.2020
5194 Clear 18 1020 28 10000 1.5 130 20:38 06.04.2020
5195 Clear 19 1020 28 10000 1.5 130 20:19 06.04.2020
5196 Clear 21 1020 28 10000 1.5 130 19:54 06.04.2020
5197 Clear 21 1020 23 10000 3.1 200 19:36 06.04.2020
5198 Clear 22 1020 23 10000 3.1 200 19:18 06.04.2020
5199 Clear 23 1020 23 10000 3.6 180 18:41 06.04.2020
5200 Clear 23 1020 23 10000 3.6 180 18:41 06.04.2020
5201 Clear 23 1020 23 10000 3.6 180 18:23 06.04.2020
5202 Clear 23 1020 23 10000 3.6 180 17:55 06.04.2020
5203 Clear 22 1020 25 10000 4.6 200 17:37 06.04.2020
5204 Clear 23 1020 25 10000 4.6 200 17:18 06.04.2020
5205 Clear 23 1020 25 10000 4.1 170 16:47 06.04.2020
5206 Clear 22 1021 26 10000 3.6 160 16:29 06.04.2020
5207 Clear 21 1021 37 10000 3.1 180 14:46 06.04.2020
5208 Clear 21 1021 37 10000 3.1 180 14:46 06.04.2020
5209 Clear 21 1021 37 10000 3.1 180 14:46 06.04.2020
5210 Clear 21 1021 37 10000 3.1 180 14:46 06.04.2020
5211 Clear 20 1021 32 10000 3.1 160 13:44 06.04.2020
5212 Clear 20 1021 29 10000 3.1 170 13:21 06.04.2020
5213 Clear 19 1021 31 10000 4.1 180 12:41 06.04.2020
5214 Clear 19 1021 31 10000 4.1 180 12:41 06.04.2020
5215 Clear 17 1021 33 10000 3.6 160 12:18 06.04.2020
5216 Clear 17 1021 33 10000 3.6 160 12:18 06.04.2020
5217 Clear 16 1021 45 10000 3.6 180 11:40 06.04.2020
5218 Clear 16 1021 45 10000 3.6 180 11:40 06.04.2020
5219 Clear 16 1021 45 10000 3.6 180 11:40 06.04.2020
5220 Clear 16 1021 45 10000 3.6 180 11:40 06.04.2020
5221 Clear 16 1021 45 10000 3.6 180 11:40 06.04.2020
5222 Clear 15 1021 45 10000 3.6 130 10:53 06.04.2020
5223 Clear 16 1021 45 10000 3.1 170 10:53 06.04.2020
5224 Clear 15 1021 45 10000 3.6 130 10:53 06.04.2020
5225 Clear 14 1021 45 10000 3.6 130 10:23 06.04.2020
5226 Clear 14 1021 45 10000 3.6 160 10:03 06.04.2020
5227 Clear 12 1021 45 10000 3.1 120 09:37 06.04.2020
5228 Clear 8 1021 53 10000 3.1 120 09:18 06.04.2020
5229 Clear 8 1021 65 10000 3.1 110 08:41 06.04.2020
5230 Clear 8 1021 65 10000 3.1 110 08:41 06.04.2020
5231 Clear 8 1021 65 10000 3.1 110 08:41 06.04.2020
5232 Clear 7 1021 65 10000 3.1 110 08:41 06.04.2020
5233 Clear 8 1021 65 10000 3.1 110 08:41 06.04.2020
5234 Clear 6 1021 69 10000 2.6 120 07:56 06.04.2020
5235 Clear 6 1021 69 10000 2.6 120 07:56 06.04.2020
5236 Clear 5 1020 65 10000 2.6 90 07:20 06.04.2020
5237 Clear 5 1021 60 10000 1.5 70 06:26 06.04.2020
5238 Clear 5 1021 60 10000 1.5 70 05:43 06.04.2020
5239 Clear 5 1021 60 10000 1.5 70 05:43 06.04.2020
5240 Clear 7 1021 56 10000 2.1 70 03:33 06.04.2020
5241 Clear 7 1021 52 10000 2.6 80 02:49 06.04.2020
5242 Clear 9 1021 49 10000 2.6 90 01:53 06.04.2020
5243 Clear 9 1022 46 10000 4.1 100 00:52 06.04.2020
5244 Clear 9 1022 43 10000 4.6 100 00:27 06.04.2020
5245 Clear 10 1022 43 10000 4.6 100 23:51 05.04.2020
5246 Clear 10 1022 43 10000 4.6 100 23:33 05.04.2020
5247 Clear 11 1022 37 10000 3.6 90 22:57 05.04.2020
5248 Clear 11 1022 37 10000 3.6 90 22:39 05.04.2020
5249 Clear 11 1023 35 10000 4.6 100 22:21 05.04.2020
5250 Clear 11 1023 35 10000 4.6 100 21:59 05.04.2020
5251 Clear 12 1023 35 10000 4.6 100 21:41 05.04.2020
5252 Clear 12 1023 35 10000 4.6 100 21:41 05.04.2020
5253 Clear 12 1023 33 10000 5.7 110 21:22 05.04.2020
5254 Clear 12 1023 33 10000 5.7 110 21:22 05.04.2020
5255 Clear 14 1023 31 10000 6.7 110 20:22 05.04.2020
5256 Clear 15 1023 31 10000 6.7 110 19:43 05.04.2020
5257 Clear 16 1023 29 10000 7.2 100 19:22 05.04.2020
5258 Clear 17 1023 29 10000 7.2 100 18:48 05.04.2020
5259 Clear 17 1023 29 10000 7.2 100 18:48 05.04.2020
5260 Clear 17 1023 50 10000 8.2 110 18:18 05.04.2020
5261 Clear 17 1023 50 10000 8.2 110 17:46 05.04.2020
5262 Clear 17 1023 50 10000 8.2 110 17:46 05.04.2020
5263 Clear 17 1023 50 10000 8.2 110 17:46 05.04.2020
5264 Clear 17 1023 50 10000 8.2 110 17:46 05.04.2020
5265 Clear 17 1023 50 10000 8.2 110 17:46 05.04.2020
5266 Clear 17 1024 50 10000 7.2 110 17:22 05.04.2020
5267 Clear 17 1026 36 10000 7.2 120 16:47 05.04.2020
5268 Clear 17 1026 36 10000 7.2 120 16:19 05.04.2020
5269 Clear 17 1026 36 10000 7.2 120 15:45 05.04.2020
5270 Clear 17 1026 36 10000 7.2 120 15:45 05.04.2020
5271 Clear 17 1026 36 10000 7.2 120 15:25 05.04.2020
5272 Clear 17 1026 36 10000 7.2 120 15:25 05.04.2020
5273 Clear 17 1026 36 10000 6.7 130 14:48 05.04.2020
5274 Clear 17 1026 36 10000 6.7 130 14:48 05.04.2020
5275 Clear 17 1026 36 10000 6.7 130 14:48 05.04.2020
5276 Clear 17 1026 36 10000 6.7 130 14:48 05.04.2020
5277 Clear 17 1026 36 10000 6.7 130 14:48 05.04.2020
5278 Clear 16 1027 31 10000 7.2 140 13:59 05.04.2020
5279 Clear 16 1027 49 10000 7.2 130 13:40 05.04.2020
5280 Clear 16 1027 49 10000 7.2 130 13:40 05.04.2020
5281 Clear 16 1027 49 10000 7.2 130 13:40 05.04.2020
5282 Clear 16 1027 49 10000 7.2 130 13:40 05.04.2020
5283 Clear 16 1027 49 10000 7.2 130 13:40 05.04.2020
5284 Clear 14 1028 44 10000 4.6 130 12:20 05.04.2020
5285 Clear 14 1028 44 10000 4.6 130 12:20 05.04.2020
5286 Clear 14 1028 44 10000 4.6 130 12:20 05.04.2020
5287 Clear 13 1028 47 10000 5.1 100 11:39 05.04.2020
5288 Clear 13 1028 46 10000 4.6 110 11:19 05.04.2020
5289 Clear 12 1028 50 10000 4.1 100 10:47 05.04.2020
5290 Clear 11 1028 53 10000 4.6 100 10:23 05.04.2020
5291 Clear 10 1028 53 10000 4.6 100 09:53 05.04.2020
5292 Clear 8 1028 65 10000 2.6 90 09:27 05.04.2020
5293 Clear 8 1028 65 10000 2.6 90 09:27 05.04.2020
5294 Clear 5 1028 65 10000 2.6 90 08:32 05.04.2020
5295 Clear 5 1028 65 10000 3.1 110 08:32 05.04.2020
5296 Clear 5 1028 65 10000 2.6 90 08:32 05.04.2020
5297 Clear 5 1028 65 10000 2.6 90 08:31 05.04.2020
5298 Clear 2 1027 69 10000 1.5 70 07:05 05.04.2020
5299 Clear 2 1027 69 10000 1.5 70 07:05 05.04.2020
5300 Clear 2 1027 69 10000 1.5 70 07:05 05.04.2020
5301 Clear 2 1027 69 10000 1.5 70 07:05 05.04.2020
5302 Clear 3 1027 69 10000 2.1 70 04:31 05.04.2020
5303 Clear 3 1028 64 10000 2.1 70 03:28 05.04.2020
5304 Clouds 4 1028 60 10000 1.5 80 02:27 05.04.2020
5305 Clouds 4 1028 60 10000 1.5 80 01:44 05.04.2020
5306 Clouds 4 1027 56 10000 1.5 90 01:22 05.04.2020
5307 Clouds 5 1027 56 10000 1.5 90 00:37 05.04.2020
5308 Clouds 5 1027 60 10000 1.5 80 00:19 05.04.2020
5309 Clouds 5 1027 60 10000 1.5 80 23:42 04.04.2020
5310 Clouds 6 1027 49 10000 2.1 110 23:22 04.04.2020
5311 Clouds 6 1027 49 10000 2.1 110 22:57 04.04.2020
5312 Clouds 7 1027 49 10000 2.1 110 22:39 04.04.2020
5313 Clouds 7 1027 49 10000 1 120 22:20 04.04.2020
5314 Clouds 7 1027 49 10000 1 120 21:57 04.04.2020
5315 Clouds 7 1027 49 10000 1 120 21:57 04.04.2020
5316 Clouds 8 1027 49 10000 1 120 21:39 04.04.2020
5317 Clear 9 1026 43 10000 1.5 120 21:19 04.04.2020
5318 Clear 9 1026 43 10000 1.5 120 20:56 04.04.2020
5319 Clear 10 1026 43 10000 1.5 120 20:37 04.04.2020
5320 Clear 10 1026 34 10000 2.6 110 20:19 04.04.2020
5321 Clear 11 1026 34 10000 2.6 110 19:55 04.04.2020
5322 Clear 12 1026 34 10000 2.6 110 19:36 04.04.2020
5323 Clear 12 1026 34 10000 2.6 110 19:36 04.04.2020
5324 Clear 13 1025 35 10000 2.6 160 19:18 04.04.2020
5325 Clear 13 1025 35 10000 2.6 160 18:55 04.04.2020
5326 Clear 13 1025 35 10000 2.6 160 18:37 04.04.2020
5327 Clear 13 1025 32 10000 2.1 110 18:18 04.04.2020
5328 Clear 13 1025 32 10000 2.1 110 17:40 04.04.2020
5329 Clear 14 1025 32 10000 2.6 270 17:20 04.04.2020
5330 Clear 14 1025 32 10000 2.6 270 16:55 04.04.2020
5331 Clear 13 1026 34 10000 3.1 100 16:37 04.04.2020
5332 Clear 13 1026 34 10000 3.1 100 16:37 04.04.2020
5333 Clear 13 1026 34 10000 3.1 100 16:19 04.04.2020
5334 Clear 13 1026 34 10000 3.1 100 15:40 04.04.2020
5335 Clear 13 1026 34 10000 3.1 100 15:22 04.04.2020
5336 Clear 12 1026 34 10000 1.5 0 14:57 04.04.2020
5337 Clear 12 1026 40 10000 2.6 0 14:39 04.04.2020
5338 Clear 11 1026 40 10000 1 0 14:21 04.04.2020
5339 Clear 12 1026 40 10000 1 0 13:55 04.04.2020
5340 Clear 11 1025 37 10000 2.6 270 13:37 04.04.2020
5341 Clear 11 1026 37 10000 1.5 0 13:19 04.04.2020
5342 Clear 11 1026 46 10000 2.1 0 12:44 04.04.2020
5343 Clear 11 1026 46 10000 2.1 0 12:44 04.04.2020
5344 Clouds 10 1026 42 10000 2.1 270 12:23 04.04.2020
5345 Clouds 9 1026 42 10000 2.1 270 11:59 04.04.2020
5346 Clear 9 1026 49 10000 2.1 0 11:38 04.04.2020
5347 Clear 8 1025 52 10000 2.6 250 11:19 04.04.2020
5348 Clear 8 1025 52 10000 2.6 250 10:56 04.04.2020
5349 Clear 8 1025 49 10000 2.6 290 10:37 04.04.2020
5350 Clear 7 1025 56 10000 2.1 250 10:19 04.04.2020
5351 Clear 7 1025 56 10000 2.1 250 09:54 04.04.2020
5352 Clear 6 1025 56 5000 2.1 230 09:36 04.04.2020
5353 Clouds 5 1024 75 10000 1.5 250 09:18 04.04.2020
5354 Clouds 4 1024 74 6000 1.43 264 08:41 04.04.2020
5355 Clouds 3 1024 86 10000 1 0 08:21 04.04.2020
5356 Clouds 2 1023 86 10000 1.43 264 07:46 04.04.2020
5357 Clouds 2 1022 86 10000 1 220 07:26 04.04.2020
5358 Clouds 2 1022 86 10000 1 220 06:53 04.04.2020
5359 Clouds 3 1022 74 10000 1 240 06:20 04.04.2020
5360 Clouds 3 1022 74 10000 1 240 05:43 04.04.2020
5361 Clouds 3 1022 74 10000 1 240 05:43 04.04.2020
5362 Clouds 4 1021 69 10000 1 250 05:24 04.04.2020
5363 Clouds 4 1021 69 10000 1 250 04:31 04.04.2020
5364 Clouds 4 1021 65 10000 1 220 03:53 04.04.2020
5365 Clouds 4 1021 65 10000 1 230 03:22 04.04.2020
5366 Rain 5 1021 65 10000 1 230 02:38 04.04.2020
5367 Rain 5 1020 60 10000 1 300 02:20 04.04.2020
5368 Rain 5 1020 60 10000 1.5 260 01:26 04.04.2020
5369 Rain 6 1020 60 10000 1.5 260 00:52 04.04.2020
5370 Rain 6 1019 56 10000 1 280 00:30 04.04.2020
5371 Rain 7 1019 56 10000 1 280 23:55 03.04.2020
5372 Rain 7 1019 56 10000 1 280 23:36 03.04.2020
5373 Rain 7 1018 56 10000 1.5 240 23:18 03.04.2020
5374 Rain 7 1018 56 10000 1.5 240 22:40 03.04.2020
5375 Rain 7 1018 56 10000 1 310 22:19 03.04.2020
5376 Rain 7 1018 56 10000 1 310 21:56 03.04.2020
5377 Rain 7 1018 56 10000 1 310 21:37 03.04.2020
5378 Clouds 8 1017 49 10000 1.5 290 21:19 03.04.2020
5379 Rain 8 1017 49 10000 1.5 290 20:55 03.04.2020
5380 Rain 8 1017 49 10000 1.5 290 20:36 03.04.2020
5381 Rain 8 1016 42 10000 4.6 290 20:18 03.04.2020
5382 Rain 8 1016 42 10000 4.6 290 19:54 03.04.2020
5383 Rain 8 1016 42 10000 4.6 290 19:36 03.04.2020
5384 Rain 9 1016 42 10000 4.6 290 19:18 03.04.2020
5385 Rain 9 1015 42 10000 3.1 290 18:56 03.04.2020
5386 Rain 9 1015 42 10000 3.1 290 18:38 03.04.2020
5387 Clouds 10 1015 39 10000 3.1 290 18:19 03.04.2020
5388 Clouds 10 1015 39 10000 6.2 300 17:40 03.04.2020
5389 Clouds 10 1015 39 10000 6.2 300 17:19 03.04.2020
5390 Clouds 10 1015 39 10000 6.2 300 17:19 03.04.2020
5391 Clouds 10 1015 39 10000 6.2 300 16:55 03.04.2020
5392 Clouds 10 1015 39 10000 6.2 300 16:36 03.04.2020
5393 Clouds 10 1014 39 10000 7.2 300 16:18 03.04.2020
5394 Clouds 10 1014 39 10000 7.2 300 15:41 03.04.2020
5395 Clouds 10 1014 39 10000 7.2 300 15:22 03.04.2020
5396 Clouds 10 1014 42 10000 4.6 290 14:58 03.04.2020
5397 Clouds 9 1014 42 10000 6.7 300 14:40 03.04.2020
5398 Clouds 9 1014 42 10000 6.7 300 14:22 03.04.2020
5399 Clouds 9 1014 42 10000 6.7 300 13:46 03.04.2020
5400 Clouds 9 1014 39 10000 8.2 280 13:27 03.04.2020
5401 Clouds 9 1014 39 10000 8.2 280 12:58 03.04.2020
5402 Clouds 9 1014 52 10000 6.7 270 12:40 03.04.2020
5403 Clouds 8 1013 52 10000 5.7 280 12:19 03.04.2020
5404 Clouds 8 1013 52 10000 5.7 280 11:56 03.04.2020
5405 Clouds 8 1013 57 10000 5.1 290 11:37 03.04.2020
5406 Clouds 8 1013 56 10000 6.2 280 11:18 03.04.2020
5407 Clouds 7 1013 56 10000 6.2 280 10:57 03.04.2020
5408 Clouds 7 1013 56 10000 6.7 290 10:38 03.04.2020
5409 Clouds 7 1012 60 10000 6.2 280 10:20 03.04.2020
5410 Clouds 7 1012 60 10000 5.7 280 09:57 03.04.2020
5411 Clouds 6 1012 60 10000 5.7 280 09:39 03.04.2020
5412 Clouds 5 1011 80 10000 3.6 250 09:21 03.04.2020
5413 Clouds 5 1011 80 10000 3.6 250 08:55 03.04.2020
5414 Clouds 5 1011 80 10000 3.6 250 08:36 03.04.2020
5415 Clouds 5 1010 80 10000 2.6 240 08:18 03.04.2020
5416 Clouds 5 1010 80 10000 2.6 240 07:41 03.04.2020
5417 Clouds 5 1010 80 10000 3.1 250 07:23 03.04.2020
5418 Clouds 5 1009 75 10000 2.6 260 06:38 03.04.2020
5419 Rain 5 1009 75 10000 2.6 260 06:20 03.04.2020
5420 Rain 5 1009 75 10000 2.6 260 05:34 03.04.2020
5421 Rain 6 1008 93 10000 3.1 260 03:40 03.04.2020
5422 Rain 6 1008 86 5000 5.1 300 02:53 03.04.2020
5423 Rain 7 1007 70 10000 6.2 250 01:53 03.04.2020
5424 Rain 7 1007 65 10000 7.7 240 01:18 03.04.2020
5425 Rain 7 1007 65 10000 7.7 240 00:34 03.04.2020
5426 Clouds 8 1007 65 10000 8.7 250 23:57 02.04.2020
5427 Clouds 8 1007 65 10000 8.7 250 23:39 02.04.2020
5428 Clouds 8 1007 61 9000 7.2 240 23:21 02.04.2020
5429 Clouds 8 1007 61 9000 7.2 240 22:43 02.04.2020
5430 Clouds 8 1007 69 10000 6.2 230 22:25 02.04.2020
5431 Clouds 8 1007 69 10000 6.2 230 21:59 02.04.2020
5432 Clouds 8 1007 69 10000 6.2 230 21:38 02.04.2020
5433 Clouds 8 1007 69 10000 6.2 230 21:38 02.04.2020
5434 Clouds 8 1007 66 10000 6.2 230 21:19 02.04.2020
5435 Clouds 8 1007 66 10000 6.2 230 21:19 02.04.2020
5436 Clouds 8 1007 66 10000 6.2 230 20:57 02.04.2020
5437 Clouds 8 1007 66 10000 6.2 230 20:39 02.04.2020
5438 Clouds 8 1007 49 10000 7.2 240 20:19 02.04.2020
5439 Clouds 8 1007 49 10000 7.2 240 19:43 02.04.2020
5440 Clouds 8 1008 49 10000 6.7 240 19:21 02.04.2020
5441 Clouds 8 1009 52 10000 7.7 260 18:58 02.04.2020
5442 Clouds 9 1009 52 10000 7.7 260 18:39 02.04.2020
5443 Clouds 9 1009 52 10000 7.7 260 18:20 02.04.2020
5444 Clouds 9 1009 52 10000 7.7 260 17:56 02.04.2020
5445 -273 0 0 0 0 0 17:38 02.04.2020
5446 Clouds 9 1009 52 10000 8.7 260 17:18 02.04.2020
5447 Clouds 9 1009 52 10000 8.7 260 16:55 02.04.2020
5448 Clouds 9 1010 49 10000 8.2 260 16:37 02.04.2020
5449 Clouds 9 1010 45 10000 7.7 270 16:18 02.04.2020
5450 Clouds 8 1010 49 10000 7.2 270 15:44 02.04.2020
5451 Clouds 8 1011 52 10000 6.7 260 15:21 02.04.2020
5452 Clouds 8 1011 52 10000 6.7 260 14:59 02.04.2020
5453 Clouds 8 1011 52 10000 6.7 260 14:40 02.04.2020
5454 Clouds 8 1011 49 10000 5.1 260 14:20 02.04.2020
5455 Clouds 8 1011 49 10000 5.1 260 13:58 02.04.2020
5456 Clouds 8 1011 49 10000 5.1 260 13:39 02.04.2020
5457 Clouds 8 1012 49 10000 6.2 270 13:20 02.04.2020
5458 Clouds 8 1012 49 10000 6.2 270 12:56 02.04.2020
5459 Clouds 8 1012 49 10000 6.2 270 12:56 02.04.2020
5460 Clouds 8 1012 52 10000 5.1 250 12:37 02.04.2020
5461 Clouds 8 1012 52 10000 6.2 270 12:19 02.04.2020
5462 Clouds 8 1012 52 10000 6.2 270 11:57 02.04.2020
5463 Clouds 8 1012 52 10000 5.7 260 11:38 02.04.2020
5464 Clouds 7 1013 60 10000 4.6 250 11:19 02.04.2020
5465 Clouds 7 1013 60 10000 4.6 250 10:55 02.04.2020
5466 Clouds 7 1013 60 10000 4.6 240 10:37 02.04.2020
5467 Clouds 7 1013 60 10000 4.6 240 10:37 02.04.2020
5468 Clouds 6 1013 60 10000 4.6 250 10:19 02.04.2020
5469 Clouds 6 1013 60 10000 4.6 250 09:55 02.04.2020
5470 Clouds 5 1013 60 10000 4.1 250 09:37 02.04.2020
5471 Clouds 4 1013 85 10000 3.6 260 09:18 02.04.2020
5472 Clouds 3 1013 85 10000 3.1 250 08:45 02.04.2020
5473 Clouds 3 1013 85 10000 3.1 250 08:26 02.04.2020
5474 Clouds 3 1013 85 10000 2.6 260 07:45 02.04.2020
5475 Clouds 3 1013 85 10000 2.6 270 07:20 02.04.2020
5476 Clouds 2 1013 85 10000 2.6 270 06:58 02.04.2020
5477 Clouds 1 1014 80 10000 2.1 240 06:21 02.04.2020
5478 Clouds 1 1014 80 10000 2.1 240 05:45 02.04.2020
5479 Clouds 1 1014 80 10000 2.1 240 04:35 02.04.2020
5480 Clouds 1 1015 75 10000 2.1 250 01:52 02.04.2020
5481 Clouds 2 1016 75 10000 2.6 240 00:50 02.04.2020
5482 Clouds 2 1016 75 10000 2.6 240 00:50 02.04.2020
5483 Clouds 3 1016 70 10000 1.5 250 00:28 02.04.2020
5484 Clouds 4 1016 70 10000 1.5 250 23:57 01.04.2020
5485 Clouds 2 1016 70 10000 1.5 250 23:37 01.04.2020
5486 Clouds 2 1016 70 10000 1.5 250 23:37 01.04.2020
5487 Clouds 3 1017 70 10000 2.1 270 23:18 01.04.2020
5488 Clouds 3 1017 70 10000 2.1 270 22:41 01.04.2020
5489 Clouds 4 1017 70 10000 2.1 260 22:22 01.04.2020
5490 Clouds 5 1017 70 10000 2.1 260 21:57 01.04.2020
5491 Clouds 4 1017 70 10000 2.1 260 21:39 01.04.2020
5492 Clouds 6 1017 79 10000 2.1 240 21:19 01.04.2020
5493 Clouds 6 1017 79 10000 2.1 240 20:55 01.04.2020
5494 Clouds 5 1017 79 10000 2.1 240 20:37 01.04.2020
5495 Clouds 7 1017 65 10000 3.1 270 20:18 01.04.2020
5496 Clouds 7 1017 65 10000 3.1 270 19:55 01.04.2020
5497 Clouds 7 1017 79 10000 2.6 250 19:37 01.04.2020
5498 Clouds 8 1017 49 10000 4.1 300 19:19 01.04.2020
5499 Clouds 8 1017 49 10000 4.1 300 18:41 01.04.2020
5500 Clouds 8 1017 49 10000 4.1 300 18:21 01.04.2020
5501 Clouds 9 1018 45 10000 4.6 290 17:57 01.04.2020
5502 Clouds 9 1018 45 10000 4.6 290 17:37 01.04.2020
5503 Clouds 9 1018 45 10000 4.6 290 17:18 01.04.2020
5504 Clouds 9 1018 45 10000 4.6 290 16:56 01.04.2020
5505 Clouds 9 1019 49 10000 5.1 290 16:38 01.04.2020
5506 Clouds 9 1019 49 10000 5.1 290 16:20 01.04.2020
5507 Clouds 8 1019 49 10000 5.1 290 15:56 01.04.2020
5508 Clouds 9 1019 39 10000 4.6 280 15:37 01.04.2020
5509 Clouds 9 1019 39 10000 4.6 280 15:18 01.04.2020
5510 Clouds 8 1019 36 10000 5.7 270 14:40 01.04.2020
5511 Clouds 8 1019 36 10000 5.7 270 14:22 01.04.2020
5512 Clouds 8 1020 36 10000 4.1 0 13:59 01.04.2020
5513 Clouds 8 1020 42 10000 5.7 260 13:40 01.04.2020
5514 Clouds 8 1021 42 10000 5.1 280 13:20 01.04.2020
5515 Clouds 8 1021 42 10000 5.1 280 12:59 01.04.2020
5516 Clouds 8 1021 42 10000 6.2 270 12:41 01.04.2020
5517 Clouds 7 1021 45 10000 5.1 280 12:22 01.04.2020
5518 Clouds 6 1021 45 10000 5.1 280 11:57 01.04.2020
5519 Clouds 6 1022 48 10000 4.6 270 11:38 01.04.2020
5520 Clouds 6 1022 48 10000 5.1 270 11:20 01.04.2020
5521 Clouds 5 1022 48 10000 4.1 270 10:41 01.04.2020
5522 Clouds 4 1022 51 10000 4.1 250 10:22 01.04.2020
5523 Clouds 4 1022 51 10000 4.1 250 09:59 01.04.2020
5524 Clouds 3 1022 55 10000 3.1 250 09:40 01.04.2020
5525 Clear 1 1023 59 10000 3.1 260 09:21 01.04.2020
5526 Clouds 0 1023 74 10000 1.5 220 08:57 01.04.2020
5527 Clouds -1 1023 74 10000 1.5 220 08:38 01.04.2020
5528 Clouds -1 1023 85 10000 0.5 300 08:18 01.04.2020
5529 Clouds -3 1023 85 10000 0.5 300 07:41 01.04.2020
5530 Clouds -3 1023 74 10000 1.5 220 07:19 01.04.2020
5531 Clouds -3 1023 74 10000 1.5 220 06:47 01.04.2020
5532 Clear -3 1024 79 10000 1 240 06:21 01.04.2020
5533 Clear -3 1024 79 10000 1 240 05:53 01.04.2020
5534 Clear -3 1025 79 10000 1 230 04:30 01.04.2020
5535 Clear -3 1025 79 10000 0.5 190 03:27 01.04.2020
5536 Clear -3 1025 79 10000 0.5 190 02:46 01.04.2020
5537 Clear -2 1026 79 10000 0.5 310 01:54 01.04.2020
5538 Clear -2 1027 79 10000 1.93 224 01:29 01.04.2020
5539 Clear -2 1027 79 10000 1.93 224 00:58 01.04.2020
5540 Clear -2 1027 79 10000 1.93 224 00:40 01.04.2020
5541 Clear -2 1027 68 10000 0.5 210 00:18 01.04.2020
5542 Clear -1 1027 68 10000 0.5 210 23:41 31.03.2020
5543 Clear -1 1027 68 10000 0.5 210 23:41 31.03.2020
5544 Clear -1 1028 90 10000 0.5 200 23:23 31.03.2020
5545 Clear -1 1028 90 10000 0.5 200 23:23 31.03.2020
5546 Clear 0 1028 90 10000 0.5 200 22:57 31.03.2020
5547 Clear 0 1028 64 10000 0.5 230 22:36 31.03.2020
5548 Clear 0 1028 64 10000 0.5 230 22:18 31.03.2020
5549 Clear 1 1028 64 10000 0.5 230 21:55 31.03.2020
5550 Clear 1 1028 55 10000 0.5 230 21:37 31.03.2020
5551 Clouds 2 1028 55 10000 0.5 230 21:19 31.03.2020
5552 Clouds 2 1028 64 10000 0.5 280 20:54 31.03.2020
5553 Clouds 2 1028 44 10000 2.1 230 20:36 31.03.2020
5554 Clouds 3 1028 44 10000 2.1 230 20:18 31.03.2020
5555 Clouds 5 1028 44 10000 2.1 230 19:41 31.03.2020
5556 Clouds 5 1029 38 10000 1 210 19:22 31.03.2020
5557 Clouds 6 1029 38 10000 1 210 18:56 31.03.2020
5558 Clouds 6 1029 35 10000 2.6 90 18:37 31.03.2020
5559 Clouds 6 1029 35 10000 2.6 90 18:18 31.03.2020
5560 Clouds 6 1029 35 10000 2.6 90 17:54 31.03.2020
5561 Clouds 6 1029 35 10000 2.6 90 17:36 31.03.2020
5562 Clouds 6 1029 35 10000 3.1 110 17:18 31.03.2020
5563 Clouds 6 1030 33 10000 2.1 0 16:39 31.03.2020
5564 Clouds 6 1030 33 10000 2.1 0 16:19 31.03.2020
5565 Clouds 6 1030 33 10000 2.1 0 15:57 31.03.2020
5566 Clouds 6 1030 36 10000 1.5 0 15:39 31.03.2020
5567 Clouds 6 1031 35 10000 1.5 0 15:20 31.03.2020
5568 -273 0 0 0 0 0 15:20 31.03.2020
5569 Clouds 6 1031 35 10000 1.5 0 14:57 31.03.2020
5570 Clouds 5 1031 38 10000 1.5 0 14:38 31.03.2020
5571 Clouds 6 1031 38 10000 2.6 100 14:20 31.03.2020
5572 Clouds 5 1031 32 10000 3.1 0 13:43 31.03.2020
5573 Clouds 5 1031 55 10000 2.1 160 13:20 31.03.2020
5574 Clouds 5 1031 55 10000 2.1 160 13:20 31.03.2020
5575 Clouds 5 1031 55 10000 2.1 160 12:57 31.03.2020
5576 Clouds 4 1031 55 10000 2.1 160 12:39 31.03.2020
5577 Clouds 4 1031 74 10000 2.6 110 12:19 31.03.2020
5578 Clouds 2 1032 72 10000 1.5 0 11:40 31.03.2020
5579 Clouds 2 1032 72 10000 1.5 0 11:20 31.03.2020
5580 Clouds 2 1032 72 10000 1.5 0 10:59 31.03.2020
5581 Clouds 1 1032 100 10000 1 0 10:40 31.03.2020
5582 Clouds 1 1031 92 7000 1 0 10:22 31.03.2020
5583 Clouds 0 1031 92 7000 1 0 09:59 31.03.2020
5584 Mist 0 1031 92 2400 2.89 93 09:40 31.03.2020
5585 Clouds 0 1031 92 9000 1.58 76 09:22 31.03.2020
5586 Clouds 0 1031 92 9000 1.41 95 08:57 31.03.2020
5587 Clouds 0 1031 92 9000 1.41 95 08:38 31.03.2020
5588 Clear -1 1031 92 10000 1.41 95 08:19 31.03.2020
5589 Clear -1 1031 92 10000 1.41 95 07:56 31.03.2020
5590 Fog -2 1030 100 10000 1.41 95 07:38 31.03.2020
5591 Fog -2 1030 92 10000 1 20 07:19 31.03.2020
5592 Fog -2 1030 92 10000 1 20 06:47 31.03.2020
5593 Clear -2 1029 92 450 0.5 350 06:22 31.03.2020
5594 Clear -2 1029 92 450 0.5 350 05:39 31.03.2020
5595 Clear -1 1029 92 10000 1 20 03:34 31.03.2020
5596 Clouds 0 1028 97 10000 2.1 10 02:19 31.03.2020
5597 Clouds 0 1028 97 10000 2.1 10 01:45 31.03.2020
5598 Clouds 0 1028 97 10000 2.6 10 00:51 31.03.2020
5599 Clouds 0 1027 97 10000 1 340 00:25 31.03.2020
5600 Clouds 1 1027 94 10000 1 340 23:58 30.03.2020
5601 Clouds 1 1027 94 10000 1 340 23:38 30.03.2020
5602 Clouds 1 1027 93 10000 1.5 320 23:18 30.03.2020
5603 Clouds 2 1027 93 10000 1.5 320 22:55 30.03.2020
5604 Clouds 2 1027 93 10000 1.5 320 22:36 30.03.2020
5605 Clouds 2 1027 86 10000 4.6 10 22:18 30.03.2020
5606 Clouds 2 1027 86 10000 4.6 10 21:55 30.03.2020
5607 Clouds 2 1027 86 10000 4.6 10 21:36 30.03.2020
5608 Rain 2 1026 93 10000 1 330 21:18 30.03.2020
5609 Rain 3 1026 93 10000 1 330 20:42 30.03.2020
5610 Rain 3 1025 86 10000 1.5 270 20:24 30.03.2020
5611 Rain 3 1025 86 10000 1.5 270 20:24 30.03.2020
5612 Rain 3 1025 86 10000 1.5 270 19:59 30.03.2020
5613 Rain 4 1025 86 10000 1.5 270 19:40 30.03.2020
5614 Clouds 4 1025 86 10000 1.5 0 19:21 30.03.2020
5615 Clouds 4 1025 86 10000 1.5 0 18:57 30.03.2020
5616 Clouds 4 1025 86 10000 1.5 0 18:38 30.03.2020
5617 Clouds 4 1025 86 10000 2.6 240 18:20 30.03.2020
5618 Clouds 4 1025 86 10000 2.6 240 17:57 30.03.2020
5619 Clouds 4 1025 86 10000 2.6 240 17:38 30.03.2020
5620 Clouds 4 1025 93 10000 2.6 230 17:19 30.03.2020
5621 Clouds 3 1025 86 10000 3.1 250 16:55 30.03.2020
5622 Clouds 3 1025 86 10000 3.1 250 16:37 30.03.2020
5623 Snow 3 1025 88 3000 4.6 240 16:19 30.03.2020
5624 Snow 2 1025 88 3000 4.6 240 15:54 30.03.2020
5625 Snow 2 1025 88 3000 4.6 240 15:36 30.03.2020
5626 Rain 3 1026 93 8000 4.6 240 15:18 30.03.2020
5627 Rain 3 1026 93 8000 4.6 240 14:54 30.03.2020
5628 Snow 2 1026 86 2400 5.1 240 14:36 30.03.2020
5629 Snow 2 1026 86 3800 5.7 240 14:18 30.03.2020
5630 Snow 2 1026 74 4500 6.7 260 13:43 30.03.2020
5631 Clouds 2 1027 64 10000 7.2 260 13:21 30.03.2020
5632 Clouds 2 1027 64 10000 7.2 260 12:58 30.03.2020
5633 Clouds 2 1027 64 10000 6.7 260 12:40 30.03.2020
5634 Clouds 2 1027 64 10000 6.7 260 12:19 30.03.2020
5635 Clouds 2 1028 55 10000 5.7 260 11:56 30.03.2020
5636 Clouds 2 1028 55 10000 5.7 260 11:38 30.03.2020
5637 Snow 2 1028 55 10000 5.7 260 11:20 30.03.2020
5638 Clouds 2 1028 55 10000 4.1 260 10:40 30.03.2020
5639 Clouds 1 1028 55 10000 4.1 260 10:22 30.03.2020
5640 Clouds 0 1028 78 10000 4.1 260 09:56 30.03.2020
5641 Clouds 0 1028 78 10000 4.1 260 09:38 30.03.2020
5642 Clouds -1 1029 63 10000 3.6 260 09:19 30.03.2020
5643 Clouds -2 1029 63 10000 2.6 240 08:42 30.03.2020
5644 Clouds -2 1029 63 10000 2.6 240 08:22 30.03.2020
5645 Clouds -4 1029 73 10000 2.1 250 07:49 30.03.2020
5646 Clouds -5 1030 73 10000 2.6 230 07:31 30.03.2020
5647 Clouds -5 1030 73 10000 2.6 230 06:57 30.03.2020
5648 Clouds -5 1030 67 10000 1.5 220 06:33 30.03.2020
5649 Clear -5 1030 67 10000 1.5 220 05:54 30.03.2020
5650 Clear -5 1031 73 10000 1.5 250 05:22 30.03.2020
5651 Clear -4 1032 62 10000 1 0 04:23 30.03.2020
5652 Clear -4 1032 62 10000 1 0 03:44 30.03.2020
5653 Clouds -4 1032 63 10000 2.1 300 02:42 30.03.2020
5654 Clear -3 1032 62 10000 0.5 0 01:44 30.03.2020
5655 Clear -3 1032 58 10000 1 310 00:55 30.03.2020
5656 Clear -2 1032 58 10000 1.5 300 00:24 30.03.2020
5657 Clear -2 1032 58 10000 1.5 300 23:43 29.03.2020
5658 Clear -1 1032 86 10000 2.1 340 23:24 29.03.2020
5659 Clear 0 1032 86 10000 2.1 340 22:59 29.03.2020
5660 Clear 0 1032 86 10000 2.1 340 22:39 29.03.2020
5661 Clear 0 1032 40 10000 2.6 350 22:19 29.03.2020
5662 Clear 1 1032 40 10000 2.6 350 21:58 29.03.2020
5663 Clear 1 1032 40 10000 2.6 350 21:37 29.03.2020
5664 Snow 1 1031 34 10000 3.6 10 21:18 29.03.2020
5665 Snow 2 1031 34 10000 3.6 10 20:55 29.03.2020
5666 Snow 2 1031 34 10000 3.6 10 20:37 29.03.2020
5667 Snow 2 1031 34 10000 3.6 10 20:37 29.03.2020
5668 Snow 2 1031 34 10000 3.6 10 20:37 29.03.2020
5669 Snow 3 1030 38 10000 5.1 30 20:18 29.03.2020
5670 Snow 3 1030 38 10000 5.1 30 19:55 29.03.2020
5671 Snow 3 1030 38 10000 8.2 30 19:37 29.03.2020
5672 Snow 3 1030 38 10000 8.2 30 19:18 29.03.2020
5673 Snow 4 1030 38 10000 8.2 30 18:55 29.03.2020
5674 Snow 4 1029 44 10000 7.2 20 18:36 29.03.2020
5675 Snow 4 1029 44 10000 7.2 20 18:18 29.03.2020
5676 Snow 4 1029 55 10000 7.7 10 17:42 29.03.2020
5677 Snow 4 1029 55 10000 7.7 10 17:23 29.03.2020
5678 Snow 4 1029 55 10000 7.7 10 16:59 29.03.2020
5679 Snow 4 1029 55 10000 7.7 10 16:40 29.03.2020
5680 Rain 4 1026 73 10000 5.1 40 16:21 29.03.2020
5681 Rain 4 1026 73 10000 5.1 40 15:59 29.03.2020
5682 Rain 4 1026 73 10000 5.1 40 15:59 29.03.2020
5683 Rain 4 1026 73 10000 5.1 40 15:40 29.03.2020
5684 Rain 4 1026 78 10000 5.1 40 15:21 29.03.2020
5685 Rain 4 1026 73 10000 5.1 40 15:21 29.03.2020
5686 Rain 4 1026 78 10000 5.1 40 14:57 29.03.2020
5687 Clouds 3 1026 78 10000 5.7 40 14:38 29.03.2020
5688 Rain 3 1025 86 10000 4.6 40 14:19 29.03.2020
5689 Rain 3 1025 80 10000 4.6 40 13:56 29.03.2020
5690 Rain 3 1025 80 10000 4.6 40 13:37 29.03.2020
5691 Rain 3 1025 86 10000 4.6 30 13:19 29.03.2020
5692 Clouds 3 1024 86 10000 4.6 30 12:55 29.03.2020
5693 Clouds 3 1024 86 10000 4.6 30 12:37 29.03.2020
5694 Clouds 3 1023 86 10000 2.6 10 12:18 29.03.2020
5695 Clouds 3 1023 86 10000 2.6 10 12:18 29.03.2020
5696 Drizzle 3 1023 93 10000 4.1 340 11:39 29.03.2020
5697 Snow 3 1023 90 10000 4.6 340 11:21 29.03.2020
5698 Snow 3 1023 90 10000 4.6 340 10:59 29.03.2020
5699 Drizzle 3 1022 69 10000 5.1 330 10:37 29.03.2020
5700 Clouds 4 1022 69 10000 4.6 320 10:18 29.03.2020
5701 Clouds 4 1022 69 10000 4.6 320 10:18 29.03.2020
5702 Snow 4 1023 90 10000 4.6 340 09:40 29.03.2020
5703 Snow 3 1022 69 10000 4.1 310 09:20 29.03.2020
5704 Clouds 4 1022 69 10000 4.1 310 08:54 29.03.2020
5705 Clouds 3 1022 64 10000 3.6 320 08:30 29.03.2020
5706 Clouds 3 1022 64 10000 3.6 320 07:59 29.03.2020
5707 Clouds 3 1022 64 10000 3.6 320 07:41 29.03.2020
5708 Clouds 4 1021 60 10000 3.1 330 07:20 29.03.2020
5709 Clouds 4 1021 80 10000 3.1 310 05:46 29.03.2020
5710 Clouds 4 1021 80 10000 2.6 280 04:27 29.03.2020
5711 Clouds 4 1021 80 10000 2.6 270 03:31 29.03.2020
5712 Clouds 4 1021 80 10000 2.6 270 01:51 29.03.2020
5713 Clouds 4 1021 80 10000 2.1 290 01:23 29.03.2020
5714 Clouds 4 1021 80 10000 2.1 290 00:56 29.03.2020
5715 Clouds 5 1021 75 10000 2.6 270 00:33 29.03.2020
5716 Clouds 4 1021 75 10000 2.6 270 23:57 28.03.2020
5717 Clouds 4 1021 75 10000 2.6 270 23:39 28.03.2020
5718 Clouds 5 1021 76 10000 3.1 300 23:19 28.03.2020
5719 Clouds 5 1021 76 10000 3.1 300 22:41 28.03.2020
5720 Clouds 5 1021 76 10000 4.6 310 22:22 28.03.2020
5721 Clouds 5 1021 76 10000 4.6 310 22:22 28.03.2020
5722 Clouds 6 1021 76 10000 4.6 310 21:56 28.03.2020
5723 Clouds 6 1021 76 10000 4.6 310 21:38 28.03.2020
5724 Clouds 6 1021 65 10000 4.6 310 21:19 28.03.2020
5725 Clouds 7 1021 65 10000 4.6 310 20:54 28.03.2020
5726 Clouds 7 1021 65 10000 4.6 310 20:36 28.03.2020
5727 Clear 7 1021 61 10000 4.6 320 20:18 28.03.2020
5728 Clear 7 1021 61 10000 4.6 320 19:54 28.03.2020
5729 Clouds 8 1021 70 10000 5.1 310 19:36 28.03.2020
5730 Clear 8 1020 43 10000 4.1 330 19:18 28.03.2020
5731 Clear 8 1020 43 10000 4.1 330 19:18 28.03.2020
5732 Clear 10 1019 30 10000 4.6 320 18:39 28.03.2020
5733 Clear 11 1019 30 10000 4.6 320 18:20 28.03.2020
5734 Clear 12 1019 30 10000 4.6 320 17:41 28.03.2020
5735 Clear 13 1020 28 10000 4.6 300 17:22 28.03.2020
5736 Clear 13 1020 28 10000 4.6 300 16:59 28.03.2020
5737 Clear 13 1019 35 10000 3.6 330 16:38 28.03.2020
5738 Clear 13 1019 35 10000 3.6 330 16:18 28.03.2020
5739 Clear 13 1019 35 10000 3.6 330 16:18 28.03.2020
5740 Clear 13 1019 35 10000 3.6 330 15:40 28.03.2020
5741 Clear 14 1020 35 10000 3.6 340 15:19 28.03.2020
5742 Clear 14 1020 35 10000 3.6 340 14:58 28.03.2020
5743 Clear 13 1020 35 10000 3.1 330 14:40 28.03.2020
5744 Clear 13 1020 35 10000 5.1 330 14:21 28.03.2020
5745 Clear 13 1021 35 10000 4.1 330 13:43 28.03.2020
5746 Clear 13 1021 32 10000 3.6 0 13:23 28.03.2020
5747 Clear 13 1021 30 10000 2.1 0 12:41 28.03.2020
5748 Clear 12 1021 34 10000 2.1 330 12:23 28.03.2020
5749 Clear 12 1021 34 10000 2.1 330 11:59 28.03.2020
5750 Clear 12 1022 43 10000 2.1 310 11:41 28.03.2020
5751 Clear 10 1022 45 10000 2.1 0 11:20 28.03.2020
5752 Clear 10 1022 43 6000 4.1 30 10:40 28.03.2020
5753 Clear 9 1022 56 10000 2.6 20 10:22 28.03.2020
5754 Clear 8 1023 56 5000 2.6 20 09:56 28.03.2020
5755 Clear 8 1023 56 5000 2.6 20 09:37 28.03.2020
5756 Clear 7 1023 56 7000 2.6 20 09:19 28.03.2020
5757 Clear 5 1023 56 7000 2.6 20 08:42 28.03.2020
5758 Clear 4 1023 56 10000 1 0 08:22 28.03.2020
5759 Clouds 3 1023 80 5000 1 340 07:49 28.03.2020
5760 Clouds 3 1022 86 6000 1 340 07:31 28.03.2020
5761 Clouds 1 1022 86 6000 1 340 06:42 28.03.2020
5762 Clouds 1 1022 80 9000 3.1 20 06:19 28.03.2020
5763 Clear 2 1022 74 10000 2.6 10 05:24 28.03.2020
5764 Clear 3 1022 74 10000 2.6 10 04:48 28.03.2020
5765 Clear 3 1022 74 10000 2.1 20 04:28 28.03.2020
5766 Clear 4 1022 69 10000 2.1 10 02:50 28.03.2020
5767 Clear 5 1022 65 10000 1.5 360 01:47 28.03.2020
5768 Clear 6 1022 56 10000 2.1 30 01:23 28.03.2020
5769 Clear 6 1022 56 10000 2.1 30 00:49 28.03.2020
5770 Clear 6 1022 83 10000 3.1 30 00:24 28.03.2020
5771 Clear 7 1022 83 10000 3.1 30 23:44 27.03.2020
5772 Clear 7 1022 65 10000 4.1 50 23:26 27.03.2020
5773 Clear 8 1022 81 10000 2.6 30 22:57 27.03.2020
5774 Clear 8 1022 81 10000 2.6 30 22:39 27.03.2020
5775 Clear 9 1022 46 10000 2.6 10 22:20 27.03.2020
5776 Clear 9 1022 46 10000 2.6 10 21:58 27.03.2020
5777 Clear 9 1022 81 10000 3.1 50 21:40 27.03.2020
5778 Clear 9 1021 81 10000 3.6 60 21:22 27.03.2020
5779 Clear 9 1021 81 10000 3.6 60 20:57 27.03.2020
5780 Clear 10 1021 53 10000 4.1 60 20:38 27.03.2020
5781 Clouds 11 1021 37 10000 2.1 50 20:19 27.03.2020
5782 Clouds 11 1021 37 10000 2.1 50 20:19 27.03.2020
5783 Clouds 11 1021 37 10000 2.1 50 19:55 27.03.2020
5784 Clouds 12 1021 37 10000 2.1 50 19:36 27.03.2020
5785 Clouds 12 1021 35 10000 4.1 60 19:18 27.03.2020
5786 Clouds 13 1021 35 10000 4.1 60 18:42 27.03.2020
5787 Clouds 14 1020 33 10000 6.2 70 18:23 27.03.2020
5788 Clouds 15 1020 33 10000 6.2 70 17:54 27.03.2020
5789 Clouds 15 1021 31 10000 6.7 70 17:36 27.03.2020
5790 Clouds 16 1021 31 10000 6.7 70 17:18 27.03.2020
5791 Clouds 16 1021 31 10000 6.7 70 16:43 27.03.2020
5792 Clouds 16 1021 31 10000 6.7 50 16:24 27.03.2020
5793 Clouds 16 1021 29 10000 5.7 80 15:44 27.03.2020
5794 Clouds 16 1021 29 10000 5.7 80 15:26 27.03.2020
5795 Clouds 16 1021 29 10000 5.7 80 14:56 27.03.2020
5796 Clouds 16 1021 29 10000 4.6 70 14:37 27.03.2020
5797 Clear 15 1021 30 10000 5.1 80 14:18 27.03.2020
5798 Clear 15 1021 30 10000 5.1 80 13:43 27.03.2020
5799 Clear 14 1022 33 10000 4.6 80 13:22 27.03.2020
5800 Clear 14 1022 33 10000 4.6 80 12:59 27.03.2020
5801 Clear 13 1022 35 10000 5.7 100 12:39 27.03.2020
5802 Clear 14 1022 37 10000 5.7 80 12:19 27.03.2020
5803 Clear 13 1023 37 10000 5.1 90 11:43 27.03.2020
5804 Clear 13 1023 39 10000 5.7 100 11:25 27.03.2020
5805 Clouds 9 1023 42 10000 4.6 110 10:57 27.03.2020
5806 Clouds 9 1023 42 10000 4.6 110 10:39 27.03.2020
5807 Clouds 7 1023 48 10000 4.1 90 10:20 27.03.2020
5808 Clouds 7 1023 48 10000 4.1 90 09:58 27.03.2020
5809 Clouds 7 1023 48 10000 4.1 90 09:58 27.03.2020
5810 Clouds 9 1020 58 0 0.45 110 09:39 27.03.2020
5811 Clouds 8 1020 64 0 1.79 109 09:21 27.03.2020
5812 Clouds 6 1020 77 0 5.04 86 08:58 27.03.2020
5813 Clouds 4 1021 80 0 5.04 86 08:39 27.03.2020
5814 Clouds 2 1021 84 0 5.04 86 08:21 27.03.2020
5815 Clouds 1 1021 84 0 3.87 81 07:53 27.03.2020
5816 Clouds 1 1021 85 0 3.87 81 07:28 27.03.2020
5817 Clouds 0 1021 84 0 3.87 81 06:59 27.03.2020
5818 Clouds 0 1021 83 0 3.87 81 06:37 27.03.2020
5819 Clouds -1 1020 82 0 0.45 55 05:44 27.03.2020
5820 Clouds 1 1021 77 0 3.46 83 02:52 27.03.2020
5821 Clear 2 1020 74 0 3.33 78 01:54 27.03.2020
5822 Clear 2 1021 68 0 3.5 72 00:58 27.03.2020
5823 Clear 3 1021 66 0 3.5 72 00:37 27.03.2020
5824 Clear 4 1021 63 0 3.5 72 00:18 27.03.2020
5825 Clear 4 1021 61 0 3.5 72 23:37 26.03.2020
5826 Clear 5 1021 60 0 0.45 62 23:18 26.03.2020
5827 Clear 3 1025 76 0 3.54 76 22:56 26.03.2020
5828 Clear 3 1025 76 0 3.54 76 22:36 26.03.2020
5829 Clear 6 1021 58 0 0.45 65 22:18 26.03.2020
5830 Clear 3 1025 76 0 3.54 76 21:40 26.03.2020
5831 Clear 6 1022 55 0 0.45 70 21:21 26.03.2020
5832 Clear 3 1025 76 0 3.54 76 20:58 26.03.2020
5833 Clear 3 1025 76 0 3.54 76 20:39 26.03.2020
5834 Clear 7 1022 53 0 0.45 72 20:21 26.03.2020
5835 Clear 7 1022 52 0 0.45 72 19:58 26.03.2020
5836 Clear 7 1022 52 0 0.89 72 19:58 26.03.2020
5837 Clear 7 1022 52 0 0.45 72 19:39 26.03.2020
5838 Clear 8 1022 49 0 0.89 73 19:20 26.03.2020
5839 Clear 8 1022 19 0 1.34 110 18:58 26.03.2020
5840 Clear 9 1022 48 0 0.89 73 18:40 26.03.2020
5841 Clear 10 1022 47 0 0.89 86 18:21 26.03.2020
5842 Clear 10 1022 45 0 1.34 93 17:44 26.03.2020
5843 Clear 11 1022 45 0 1.79 82 17:20 26.03.2020
5844 Clear 11 1021 43 0 2.24 89 16:57 26.03.2020
5845 Clear 11 1024 29 10000 6.7 90 16:38 26.03.2020
5846 Clear 11 1024 29 10000 6.7 90 16:18 26.03.2020
5847 Clear 11 1024 29 10000 6.7 90 15:54 26.03.2020
5848 Clear 11 1024 29 10000 6.7 90 15:36 26.03.2020
5849 Clear 11 1025 29 10000 7.2 100 15:18 26.03.2020
5850 Clear 11 1025 31 10000 6.2 100 14:42 26.03.2020
5851 Clear 11 1025 31 10000 6.2 100 14:24 26.03.2020
5852 Clear 10 1025 29 10000 7.2 90 13:55 26.03.2020
5853 Clear 10 1025 29 10000 7.2 90 13:37 26.03.2020
5854 Clear 10 1026 31 10000 7.2 100 13:19 26.03.2020
5855 Clear 9 1026 34 10000 6.2 100 12:38 26.03.2020
5856 Clear 8 1026 36 10000 6.2 90 12:20 26.03.2020
5857 Clear 8 1026 36 10000 5.1 80 11:46 26.03.2020
5858 Clear 6 1027 35 10000 4.6 90 11:23 26.03.2020
5859 Clear 6 1027 35 10000 4.6 90 10:59 26.03.2020
5860 Clear 5 1027 38 10000 4.6 90 10:41 26.03.2020
5861 Clear 4 1027 41 10000 4.6 90 10:20 26.03.2020
5862 Clear 5 1027 40 10000 4.6 100 09:45 26.03.2020
5863 Clear 4 1027 40 10000 4.6 100 09:24 26.03.2020
5864 Clear 3 1025 56 0 1.79 104 08:58 26.03.2020
5865 Clear 3 1025 55 0 0.45 82 08:40 26.03.2020
5866 Clear 2 1025 56 0 0.89 82 08:22 26.03.2020
5867 Clear -2 1027 91 0 3.71 87 07:56 26.03.2020
5868 Clear -2 1027 91 0 3.71 87 07:38 26.03.2020
5869 Clear -2 1027 91 0 3.71 87 07:19 26.03.2020
5870 Clear -2 1024 70 0 3.71 87 06:33 26.03.2020
5871 Clear -2 1024 74 0 3.71 87 05:48 26.03.2020
5872 Clear -2 1024 68 0 3.22 91 03:46 26.03.2020
5873 Clear 0 1024 62 0 3.22 91 02:58 26.03.2020
5874 Clear -1 1028 91 0 3.22 88 01:51 26.03.2020
5875 Clear -1 1028 89 0 3.26 86 01:18 26.03.2020
5876 Clear -1 1028 89 0 3.26 86 00:32 26.03.2020
5877 Clear -1 1028 89 0 3.26 86 23:44 25.03.2020
5878 Clear -1 1028 89 0 3.26 86 23:26 25.03.2020
5879 Clear 2 1025 22 0 1.79 97 22:55 25.03.2020
5880 Clear 2 1025 22 0 1.79 97 22:37 25.03.2020
5881 Clear 3 1025 22 0 1.79 110 22:18 25.03.2020
5882 Clear 1 1029 81 0 4.31 96 21:43 25.03.2020
5883 Clear 1 1029 81 0 4.31 96 21:24 25.03.2020
5884 Clear 5 1027 32 10000 3.6 80 20:59 25.03.2020
5885 Clear 5 1027 32 10000 3.6 80 20:39 25.03.2020
5886 Clouds 5 1027 32 10000 3.6 80 20:19 25.03.2020
5887 Clouds 5 1027 32 10000 3.6 80 19:56 25.03.2020
5888 Clouds 5 1027 32 10000 3.1 90 19:38 25.03.2020
5889 Clouds 6 1027 33 10000 3.1 90 19:19 25.03.2020
5890 Clouds 7 1027 28 10000 4.1 90 18:43 25.03.2020
5891 Clouds 7 1027 33 0 0.45 121 18:25 25.03.2020
5892 Clouds 8 1025 36 0 1.79 99 17:59 25.03.2020
5893 Clouds 9 1028 25 10000 5.1 90 17:41 25.03.2020
5894 Clouds 9 1028 25 10000 5.1 90 17:22 25.03.2020
5895 Clouds 10 1028 25 10000 5.1 90 16:58 25.03.2020
5896 Clouds 10 1028 25 10000 5.1 90 16:39 25.03.2020
5897 Clouds 9 1028 24 10000 5.1 110 16:20 25.03.2020
5898 Clouds 9 1029 19 10000 5.7 90 15:43 25.03.2020
5899 Clouds 10 1029 19 10000 5.7 90 15:21 25.03.2020
5900 Clouds 10 1029 19 10000 5.7 90 14:59 25.03.2020
5901 Clouds 9 1029 23 10000 5.7 100 14:40 25.03.2020
5902 Clouds 8 1030 24 10000 6.7 90 14:20 25.03.2020
5903 Clouds 8 1030 28 10000 6.2 100 13:45 25.03.2020
5904 Clouds 8 1030 28 10000 6.2 100 13:25 25.03.2020
5905 Clouds 8 1031 28 10000 4.6 90 12:54 25.03.2020
5906 Clouds 8 1031 28 10000 4.6 90 12:36 25.03.2020
5907 Clouds 7 1031 26 10000 5.7 80 12:18 25.03.2020
5908 Clouds 7 1031 28 10000 4.1 100 11:41 25.03.2020
5909 Clouds 6 1031 33 10000 4.6 110 11:21 25.03.2020
5910 Clouds 6 1031 33 10000 4.6 110 10:59 25.03.2020
5911 Clouds 6 1031 33 10000 4.6 110 10:59 25.03.2020
5912 Clouds 5 1032 35 10000 5.1 100 10:40 25.03.2020
5913 Clouds 5 1032 38 10000 5.7 100 10:19 25.03.2020
5914 Clouds 5 1032 38 10000 5.7 100 09:59 25.03.2020
5915 Clouds 4 1029 52 0 2.24 113 09:40 25.03.2020
5916 Clouds 3 1029 59 0 1.79 104 09:21 25.03.2020
5917 Clouds 1 1030 61 0 0.45 103 08:43 25.03.2020
5918 Clouds 1 1030 63 0 0.89 103 08:25 25.03.2020
5919 Clear -1 1030 68 0 0.45 103 07:59 25.03.2020
5920 Clear -1 1030 72 0 0.45 103 07:39 25.03.2020
5921 Clear -3 1029 74 0 3.29 106 07:19 25.03.2020
5922 Clear -3 1029 72 0 0.45 103 06:45 25.03.2020
5923 Clear -3 1029 70 0 0.45 103 06:25 25.03.2020
5924 Clear -2 1029 65 0 0.45 103 05:48 25.03.2020
5925 Clear -1 1029 60 0 0.45 103 04:46 25.03.2020
5926 Clear -1 1030 62 0 0.45 103 03:58 25.03.2020
5927 Clear -1 1030 64 0 2.38 108 03:34 25.03.2020
5928 Clear -2 1030 70 0 0.45 103 01:55 25.03.2020
5929 Clear -2 1030 69 0 3.01 118 01:20 25.03.2020
5930 Clear -1 1030 69 0 0.89 104 00:43 25.03.2020
5931 Clear -1 1030 68 0 0.45 104 00:19 25.03.2020
5932 Clear -1 1031 66 0 3.01 118 23:44 24.03.2020
5933 Clear -1 1031 65 0 3.01 118 23:25 24.03.2020
5934 Clear 0 1031 61 0 3.13 118 22:55 24.03.2020
5935 Clear 1 1031 60 0 0.45 104 22:37 24.03.2020
5936 Clear 1 1031 60 0 0.89 104 22:19 24.03.2020
5937 Clear 2 1031 58 0 0.89 104 21:55 24.03.2020
5938 Clear 2 1031 58 0 0.45 104 21:36 24.03.2020
5939 Clear 1 1031 58 0 3.13 118 21:18 24.03.2020
5940 Clear 2 1031 56 0 3.13 118 20:43 24.03.2020
5941 Clear 2 1031 53 0 3.13 118 20:24 24.03.2020
5942 Clear 1 1033 77 0 3 108 19:57 24.03.2020
5943 Clear 1 1033 77 0 3 108 19:39 24.03.2020
5944 Clear 6 1031 42 0 1.34 104 19:18 24.03.2020
5945 Clear 6 1031 41 0 0.89 104 18:55 24.03.2020
5946 Clear 6 1031 41 0 0.89 104 18:55 24.03.2020
5947 Clear 6 1031 40 0 0.89 104 18:36 24.03.2020
5948 Clear 7 1031 38 0 1.34 104 18:18 24.03.2020
5949 Clear 7 1033 26 10000 6.7 110 17:42 24.03.2020
5950 Clear 7 1033 26 10000 6.7 110 17:23 24.03.2020
5951 Clear 8 1033 26 10000 6.7 110 16:58 24.03.2020
5952 Clear 8 1033 26 10000 6.7 110 16:40 24.03.2020
5953 Clear 8 1033 26 10000 6.7 110 16:22 24.03.2020
5954 Clear 9 1033 24 10000 6.2 110 15:58 24.03.2020
5955 Clear 9 1033 22 10000 5.1 140 15:38 24.03.2020
5956 Clear 8 1034 30 10000 5.7 110 15:20 24.03.2020
5957 Clear 8 1034 28 10000 6.2 110 14:43 24.03.2020
5958 Clear 8 1034 28 10000 6.2 110 14:20 24.03.2020
5959 Clear 8 1035 33 10000 6.2 110 13:55 24.03.2020
5960 Clear 8 1035 33 10000 6.2 110 13:36 24.03.2020
5961 Clear 8 1035 30 10000 5.7 110 13:18 24.03.2020
5962 Clear 7 1035 33 10000 6.7 100 12:41 24.03.2020
5963 Clear 7 1035 33 10000 6.7 100 12:41 24.03.2020
5964 Clear 7 1036 32 10000 6.2 110 12:22 24.03.2020
5965 Clear 6 1036 30 10000 5.7 140 11:41 24.03.2020
5966 Clear 5 1036 30 10000 5.1 140 11:20 24.03.2020
5967 Clear 5 1036 30 10000 5.1 140 10:57 24.03.2020
5968 Clear 5 1036 32 10000 5.1 140 10:38 24.03.2020
5969 Clear 4 1036 38 10000 4.6 110 10:18 24.03.2020
5970 Clouds 3 1036 40 10000 4.1 110 09:43 24.03.2020
5971 Clear 2 1036 47 10000 2.6 120 09:25 24.03.2020
5972 Clear 1 1036 47 10000 2.6 120 08:57 24.03.2020
5973 Clouds 1 1036 47 10000 4.1 110 08:37 24.03.2020
5974 Clear 0 1036 52 10000 3.6 80 08:18 24.03.2020
5975 Clouds -1 1036 54 10000 2.1 80 07:44 24.03.2020
5976 Clear -2 1036 68 10000 3.6 90 07:22 24.03.2020
5977 Clear -3 1036 73 10000 2.6 70 06:40 24.03.2020
5978 Clear -3 1036 68 10000 2.6 80 06:18 24.03.2020
5979 Clear -3 1036 58 10000 2.6 80 04:51 24.03.2020
5980 Clear -3 1035 63 10000 3.1 90 03:32 24.03.2020
5981 Clear -2 1035 54 10000 2.1 80 02:43 24.03.2020
5982 Clear -1 1035 59 10000 3.1 110 00:57 24.03.2020
5983 Clear -1 1035 59 10000 2.6 110 00:28 24.03.2020
5984 Clear -1 1035 59 10000 2.6 110 00:28 24.03.2020
5985 Clear -1 1036 50 10000 3.6 110 23:59 23.03.2020
5986 Clear -1 1036 50 10000 2.1 110 23:38 23.03.2020
5987 Clear 0 1036 47 10000 2.1 110 23:19 23.03.2020
5988 Clear 0 1036 47 10000 2.1 60 22:45 23.03.2020
5989 Clear 0 1036 47 10000 2.1 120 22:23 23.03.2020
5990 Clear 1 1036 47 10000 2.6 130 21:57 23.03.2020
5991 Clear 1 1036 40 10000 1.5 100 21:38 23.03.2020
5992 Clear 1 1036 40 10000 2.6 110 21:20 23.03.2020
5993 Clear 2 1036 40 10000 2.6 110 20:56 23.03.2020
5994 Clear 2 1036 37 10000 3.1 110 20:38 23.03.2020
5995 Clear 2 1036 38 10000 3.1 110 20:19 23.03.2020
5996 Clear 3 1036 35 10000 3.1 110 19:44 23.03.2020
5997 Clear 3 1035 35 10000 3.6 120 19:24 23.03.2020
5998 Clear 4 1036 30 10000 3.6 110 18:57 23.03.2020
5999 Clear 4 1035 35 10000 4.1 110 18:39 23.03.2020
6000 Clear 5 1035 33 10000 4.1 120 18:20 23.03.2020
6001 Clear 6 1035 30 10000 4.6 120 17:42 23.03.2020
6002 Clear 6 1035 30 10000 4.6 130 17:21 23.03.2020
6003 Clear 7 1036 24 10000 5.1 120 16:57 23.03.2020
6004 Clear 7 1036 28 10000 5.1 130 16:39 23.03.2020
6005 Clear 7 1036 28 10000 4.6 120 16:20 23.03.2020
6006 Clear 7 1036 24 10000 6.2 110 15:42 23.03.2020
6007 Clear 7 1037 30 10000 5.7 120 15:20 23.03.2020
6008 Clear 7 1037 30 10000 5.7 120 15:20 23.03.2020
6009 Clear 7 1037 30 10000 6.7 120 14:55 23.03.2020
6010 Clear 7 1037 30 10000 6.7 120 14:36 23.03.2020
6011 Clear 6 1037 30 10000 6.7 100 14:18 23.03.2020
6012 Clear 6 1037 32 10000 6.2 100 13:40 23.03.2020
6013 Clear 6 1038 32 10000 4.6 130 13:21 23.03.2020
6014 Clear 5 1038 32 10000 5.7 110 12:46 23.03.2020
6015 Clear 5 1038 32 10000 7.2 110 12:26 23.03.2020
6016 Clear 5 1038 32 10000 7.2 110 11:59 23.03.2020
6017 Clear 5 1038 29 10000 7.2 110 11:40 23.03.2020
6018 Clear 4 1038 32 10000 7.2 100 11:21 23.03.2020
6019 Clear 4 1039 32 10000 5.1 120 10:58 23.03.2020
6020 Clear 4 1039 32 10000 5.1 120 10:39 23.03.2020
6021 Clear 3 1039 32 10000 4.6 140 10:21 23.03.2020
6022 Clear 3 1039 32 10000 4.6 140 09:57 23.03.2020
6023 Clear 2 1039 37 10000 6.2 110 09:37 23.03.2020
6024 Clear 2 1038 40 10000 4.6 110 09:18 23.03.2020
6025 Clear 1 1039 35 10000 4.1 110 08:37 23.03.2020
6026 Clear 0 1038 50 10000 3.6 110 08:19 23.03.2020
6027 Clear -1 1039 54 10000 2.1 80 07:50 23.03.2020
6028 Clear -2 1038 58 10000 2.1 100 07:31 23.03.2020
6029 Clear -3 1038 58 10000 2.1 80 06:53 23.03.2020
6030 Clear -3 1038 68 10000 3.6 90 06:25 23.03.2020
6031 Clear -3 1038 68 10000 2.6 100 05:42 23.03.2020
6032 Clear -2 1038 54 10000 1.5 80 03:45 23.03.2020
6033 Clear -1 1038 46 10000 2.1 110 02:43 23.03.2020
6034 Clear -1 1037 55 10000 3.1 100 01:38 23.03.2020
6035 Clear -1 1037 49 10000 3.1 100 00:44 23.03.2020
6036 Clear 0 1037 63 10000 3.6 90 23:58 22.03.2020
6037 Clear 0 1037 50 10000 2.1 100 23:40 22.03.2020
6038 Clear 0 1037 50 10000 3.1 100 23:22 22.03.2020
6039 Clear 1 1037 55 10000 3.6 90 22:40 22.03.2020
6040 Clear 1 1037 51 10000 3.1 100 22:20 22.03.2020
6041 Clear 2 1037 43 10000 3.6 80 21:40 22.03.2020
6042 Clear 2 1036 44 10000 4.1 100 21:21 22.03.2020
6043 Clear 2 1036 44 10000 4.1 100 20:58 22.03.2020
6044 Clear 2 1036 40 10000 3.6 70 20:40 22.03.2020
6045 Clear 2 1036 44 10000 4.1 90 20:22 22.03.2020
6046 Clear 3 1036 44 10000 4.1 90 19:56 22.03.2020
6047 Clear 3 1036 38 10000 3.6 70 19:38 22.03.2020
6048 Clear 4 1035 38 10000 4.1 100 19:19 22.03.2020
6049 Clear 4 1035 30 10000 4.6 80 18:57 22.03.2020
6050 Clear 5 1035 30 10000 4.6 80 18:39 22.03.2020
6051 Clear 5 1035 32 10000 5.1 100 18:19 22.03.2020
6052 Clear 6 1035 33 10000 5.7 100 17:56 22.03.2020
6053 Clear 6 1035 33 10000 5.7 100 17:37 22.03.2020
6054 Clear 6 1035 33 10000 5.7 110 17:19 22.03.2020
6055 Clear 7 1035 33 10000 5.7 110 16:57 22.03.2020
6056 Clear 7 1035 33 10000 6.7 110 16:39 22.03.2020
6057 Clear 7 1035 33 10000 5.7 90 16:20 22.03.2020
6058 Clear 7 1035 38 10000 6.2 110 15:40 22.03.2020
6059 Clear 7 1035 35 10000 7.7 110 15:19 22.03.2020
6060 Clear 6 1035 38 10000 6.2 110 14:46 22.03.2020
6061 Clear 6 1035 38 10000 5.1 90 14:18 22.03.2020
6062 Clear 6 1035 38 10000 6.7 100 13:43 22.03.2020
6063 Clear 6 1035 41 10000 6.2 100 13:20 22.03.2020
6064 Clear 6 1035 41 10000 6.2 100 12:58 22.03.2020
6065 Clear 5 1036 41 10000 6.2 90 12:39 22.03.2020
6066 Clear 5 1036 41 10000 6.7 100 12:19 22.03.2020
6067 Clear 5 1036 38 10000 7.7 90 11:43 22.03.2020
6068 Clear 4 1036 41 10000 6.7 100 11:25 22.03.2020
6069 Clear 4 1036 41 10000 6.7 100 10:58 22.03.2020
6070 Clear 4 1036 41 10000 7.7 90 10:40 22.03.2020
6071 Clear 3 1036 44 10000 7.7 100 10:22 22.03.2020
6072 Clear 3 1036 55 10000 6.2 90 09:46 22.03.2020
6073 Clear 2 1036 55 10000 6.2 90 09:27 22.03.2020
6074 Clear 1 1035 64 10000 4.6 90 08:48 22.03.2020
6075 Clear 1 1035 64 10000 4.6 90 08:48 22.03.2020
6076 Clear 1 1035 64 10000 4.6 90 08:30 22.03.2020
6077 Clear 0 1035 66 10000 4.1 100 07:56 22.03.2020
6078 Clear 0 1035 66 10000 4.1 70 07:38 22.03.2020
6079 Clear -1 1035 68 10000 3.6 80 06:48 22.03.2020
6080 Clear -1 1034 68 10000 5.1 80 05:52 22.03.2020
6081 Clear -1 1034 70 10000 5.1 80 04:39 22.03.2020
6082 Clear 0 1033 69 10000 3.1 60 01:49 22.03.2020
6083 Clear 0 1033 55 10000 4.1 70 00:51 22.03.2020
6084 Clear 1 1033 59 10000 6.2 80 00:32 22.03.2020
6085 Clear 1 1033 51 10000 5.1 60 23:47 21.03.2020
6086 Clear 1 1033 59 10000 5.1 80 23:23 21.03.2020
6087 Clear 1 1033 59 10000 5.1 80 22:59 21.03.2020
6088 Clear 1 1033 51 10000 4.6 60 22:38 21.03.2020
6089 Clear 1 1032 64 10000 4.6 70 22:20 21.03.2020
6090 Clear 2 1032 64 10000 4.6 70 21:59 21.03.2020
6091 Clear 2 1032 55 10000 4.1 50 21:39 21.03.2020
6092 Clouds 2 1032 69 10000 3.6 70 21:20 21.03.2020
6093 Clear 2 1032 51 10000 2.6 60 20:45 21.03.2020
6094 Clouds 3 1032 59 10000 5.1 70 20:22 21.03.2020
6095 Clouds 3 1032 59 10000 5.1 70 19:57 21.03.2020
6096 Clouds 3 1032 48 10000 4.1 60 19:38 21.03.2020
6097 Clouds 4 1031 55 10000 6.7 70 19:19 21.03.2020
6098 Clouds 4 1031 44 10000 7.2 70 18:54 21.03.2020
6099 Clouds 5 1030 44 10000 4.6 70 18:36 21.03.2020
6100 Clouds 5 1030 44 10000 4.6 70 18:18 21.03.2020
6101 Clouds 5 1030 41 10000 5.1 90 17:42 21.03.2020
6102 Clouds 6 1030 45 10000 5.7 90 17:23 21.03.2020
6103 Clouds 6 1030 41 10000 5.7 70 16:57 21.03.2020
6104 Clouds 6 1030 41 10000 5.7 70 16:38 21.03.2020
6105 Clouds 6 1030 45 10000 5.1 80 16:18 21.03.2020
6106 Clouds 6 1030 45 10000 5.1 80 16:18 21.03.2020
6107 Clouds 6 1030 45 10000 6.7 90 15:42 21.03.2020
6108 Clouds 6 1030 45 10000 6.7 90 15:23 21.03.2020
6109 Clouds 6 1031 41 10000 6.7 90 14:58 21.03.2020
6110 Clouds 6 1031 41 10000 5.1 70 14:40 21.03.2020
6111 Clouds 6 1031 45 10000 5.1 70 14:20 21.03.2020
6112 Clouds 6 1031 45 10000 5.1 70 13:59 21.03.2020
6113 Clouds 6 1031 45 10000 5.7 80 13:40 21.03.2020
6114 Clouds 6 1031 52 10000 4.1 70 13:22 21.03.2020
6115 Clouds 6 1031 52 10000 4.1 70 12:59 21.03.2020
6116 Clouds 6 1031 52 10000 5.1 70 12:38 21.03.2020
6117 Clouds 6 1031 48 10000 5.7 70 12:19 21.03.2020
6118 Clouds 6 1031 52 10000 4.1 0 11:57 21.03.2020
6119 Clouds 6 1031 52 10000 4.1 0 11:38 21.03.2020
6120 Clouds 6 1031 48 10000 6.2 80 11:19 21.03.2020
6121 Clouds 5 1031 55 10000 6.7 80 10:57 21.03.2020
6122 Clouds 5 1031 55 10000 6.7 80 10:38 21.03.2020
6123 Clouds 5 1031 56 10000 6.2 80 10:20 21.03.2020
6124 Clouds 5 1031 56 10000 6.2 80 09:57 21.03.2020
6125 Clouds 5 1030 65 10000 6.7 80 09:37 21.03.2020
6126 Clouds 5 1030 65 10000 6.7 80 09:37 21.03.2020
6127 Clouds 4 1030 69 10000 6.2 90 09:19 21.03.2020
6128 Clouds 4 1030 69 10000 6.2 90 08:55 21.03.2020
6129 Clouds 4 1031 58 10000 6.2 70 08:37 21.03.2020
6130 Clouds 2 1030 87 10000 3.6 70 08:18 21.03.2020
6131 Clouds 2 1030 87 10000 3.6 60 07:32 21.03.2020
6132 Clear 1 1030 80 10000 4.1 40 06:49 21.03.2020
6133 Clouds 0 1030 86 10000 2.6 60 06:29 21.03.2020
6134 Clear 0 1029 87 10000 3.1 20 05:50 21.03.2020
6135 Clear 0 1029 87 10000 3.1 40 05:23 21.03.2020
6136 Clear 2 1029 80 10000 3.1 20 03:38 21.03.2020
6137 Clear 3 1029 80 10000 3.1 20 02:36 21.03.2020
6138 Clouds 4 1029 74 10000 4.1 20 01:42 21.03.2020
6139 Clouds 4 1029 80 10000 4.6 30 01:21 21.03.2020
6140 Clouds 5 1029 86 10000 3.6 30 00:38 21.03.2020
6141 Clouds 5 1029 80 10000 3.1 30 00:20 21.03.2020
6142 Clouds 5 1029 80 10000 3.6 20 23:41 20.03.2020
6143 Clouds 5 1029 80 10000 3.6 50 23:20 20.03.2020
6144 Clouds 6 1029 75 10000 3.1 20 22:44 20.03.2020
6145 Clouds 6 1028 70 10000 2.1 40 22:25 20.03.2020
6146 Clouds 6 1028 70 10000 2.1 40 21:58 20.03.2020
6147 Clouds 6 1028 70 10000 2.6 40 21:40 20.03.2020
6148 Clouds 7 1027 65 10000 2.6 30 21:20 20.03.2020
6149 Clouds 7 1027 65 10000 2.6 30 20:58 20.03.2020
6150 Clouds 7 1027 65 10000 2.1 30 20:40 20.03.2020
6151 Clouds 7 1027 61 10000 1.5 0 20:19 20.03.2020
6152 Clouds 7 1027 61 10000 1.5 0 19:48 20.03.2020
6153 Clouds 7 1026 64 10000 1.5 0 19:21 20.03.2020
6154 Clouds 7 1026 64 10000 1.5 0 18:58 20.03.2020
6155 Clouds 8 1026 42 10000 3.6 70 18:38 20.03.2020
6156 Clouds 8 1026 39 10000 3.1 40 18:20 20.03.2020
6157 Clouds 8 1026 39 10000 3.1 40 18:20 20.03.2020
6158 Clouds 8 1026 45 10000 2.1 0 17:56 20.03.2020
6159 Clouds 8 1026 45 10000 2.1 0 17:37 20.03.2020
6160 Rain 8 1026 49 10000 2.6 40 17:19 20.03.2020
6161 Clouds 8 1026 57 10000 2.6 10 16:42 20.03.2020
6162 Clouds 8 1026 61 10000 2.6 10 16:21 20.03.2020
6163 Rain 8 1027 57 10000 6.2 20 15:56 20.03.2020
6164 Rain 8 1027 57 10000 6.2 20 15:37 20.03.2020
6165 Clouds 9 1026 61 10000 2.1 50 15:19 20.03.2020
6166 Rain 8 1026 61 10000 1.5 0 14:42 20.03.2020
6167 Clouds 8 1026 65 10000 1.5 0 14:21 20.03.2020
6168 Clouds 8 1027 61 10000 4.6 10 13:50 20.03.2020
6169 Clouds 8 1026 70 10000 1 0 13:26 20.03.2020
6170 Clouds 8 1026 70 10000 1 0 12:59 20.03.2020
6171 Clouds 7 1026 70 10000 1.5 0 12:38 20.03.2020
6172 Clouds 7 1026 65 10000 2.1 40 12:20 20.03.2020
6173 Clouds 7 1026 70 10000 1.5 0 11:41 20.03.2020
6174 Clouds 7 1026 70 10000 1 0 11:21 20.03.2020
6175 Clouds 7 1026 75 10000 1 0 10:58 20.03.2020
6176 Clouds 7 1026 75 10000 1 0 10:40 20.03.2020
6177 Clouds 7 1026 81 10000 1 0 10:20 20.03.2020
6178 Clouds 7 1026 81 10000 3.1 100 09:47 20.03.2020
6179 Clouds 6 1026 81 10000 3.1 100 09:22 20.03.2020
6180 Clouds 6 1026 81 10000 2.1 80 08:59 20.03.2020
6181 Clouds 6 1026 87 10000 2.1 40 08:40 20.03.2020
6182 Clouds 6 1026 81 10000 2.1 30 08:20 20.03.2020
6183 Clouds 6 1025 75 10000 1.5 0 07:48 20.03.2020
6184 Clouds 6 1025 75 10000 1.5 0 07:26 20.03.2020
6185 Clouds 7 1026 87 9000 2.6 40 06:51 20.03.2020
6186 Clouds 7 1025 100 10000 3.1 50 06:32 20.03.2020
6187 Clouds 7 1025 87 10000 3.1 20 04:51 20.03.2020
6188 Clouds 7 1025 93 10000 2.1 30 03:20 20.03.2020
6189 Clouds 7 1025 93 10000 3.1 40 01:57 20.03.2020
6190 Clouds 8 1026 87 10000 2.6 20 00:51 20.03.2020
6191 Clouds 8 1026 93 10000 2.1 60 00:29 20.03.2020
6192 Clouds 8 1026 81 10000 2.1 20 23:47 19.03.2020
6193 Clouds 8 1026 87 10000 1.5 50 23:28 19.03.2020
6194 Clouds 8 1026 81 10000 1.5 70 22:56 19.03.2020
6195 Clouds 8 1026 81 10000 1.5 70 22:56 19.03.2020
6196 Clouds 8 1026 81 10000 1.5 70 22:38 19.03.2020
6197 Clouds 8 1026 81 10000 1.5 0 22:19 19.03.2020
6198 Clouds 8 1026 81 10000 1.5 0 21:42 19.03.2020
6199 Clouds 8 1026 87 10000 2.1 90 21:20 19.03.2020
6200 Clouds 8 1026 87 10000 2.1 90 20:59 19.03.2020
6201 Clouds 9 1026 87 10000 1.5 60 20:41 19.03.2020
6202 Clouds 9 1026 81 10000 2.1 50 20:22 19.03.2020
6203 Clouds 9 1026 81 10000 2.1 50 19:55 19.03.2020
6204 Clouds 9 1026 81 10000 2.6 0 19:37 19.03.2020
6205 Clouds 9 1025 81 10000 2.6 50 19:19 19.03.2020
6206 Clouds 9 1025 81 10000 2.6 50 18:56 19.03.2020
6207 Clouds 10 1025 81 10000 2.1 0 18:38 19.03.2020
6208 Clouds 10 1025 76 10000 3.1 350 18:19 19.03.2020
6209 Clouds 11 1025 76 10000 3.1 350 17:41 19.03.2020
6210 Clouds 11 1025 71 10000 3.1 360 17:19 19.03.2020
6211 Clouds 12 1025 66 10000 3.1 360 16:45 19.03.2020
6212 Clouds 12 1025 66 10000 3.1 360 16:24 19.03.2020
6213 Clouds 12 1025 67 10000 3.6 360 15:55 19.03.2020
6214 Clouds 13 1025 67 10000 3.6 360 15:36 19.03.2020
6215 Clouds 13 1025 71 10000 3.1 360 15:18 19.03.2020
6216 Clouds 14 1025 67 10000 3.6 360 14:43 19.03.2020
6217 Clouds 14 1025 62 10000 3.1 310 14:21 19.03.2020
6218 Clouds 13 1025 67 10000 3.1 300 13:41 19.03.2020
6219 Clouds 13 1025 62 10000 3.6 300 13:20 19.03.2020
6220 Clouds 13 1025 62 10000 4.1 280 12:58 19.03.2020
6221 Clouds 13 1025 62 10000 4.1 280 12:40 19.03.2020
6222 Clouds 14 1025 62 10000 3.1 290 12:21 19.03.2020
6223 Clouds 13 1025 62 10000 2.6 300 11:43 19.03.2020
6224 Clouds 12 1025 62 10000 3.1 310 11:24 19.03.2020
6225 Clouds 12 1025 66 10000 3.1 280 10:58 19.03.2020
6226 Clouds 12 1025 66 10000 3.1 280 10:38 19.03.2020
6227 Clouds 12 1025 66 10000 3.1 260 10:19 19.03.2020
6228 Clouds 12 1025 62 10000 3.1 250 09:55 19.03.2020
6229 Clouds 11 1025 62 10000 3.1 250 09:37 19.03.2020
6230 Clouds 11 1025 66 10000 3.1 240 09:18 19.03.2020
6231 Clouds 10 1024 66 10000 2.6 240 08:41 19.03.2020
6232 Clouds 10 1024 71 10000 2.1 270 08:20 19.03.2020
6233 Clouds 9 1024 66 10000 2.1 290 07:45 19.03.2020
6234 Clouds 9 1024 66 10000 2.6 240 07:25 19.03.2020
6235 Clouds 10 1024 66 10000 2.6 220 06:43 19.03.2020
6236 Clouds 9 1023 71 10000 1 210 05:48 19.03.2020
6237 Clouds 9 1023 71 10000 2.6 240 04:57 19.03.2020
6238 Clouds 9 1023 71 10000 2.6 240 04:39 19.03.2020
6239 Clouds 10 1023 66 10000 2.1 240 02:50 19.03.2020
6240 Clouds 11 1024 76 10000 1 210 01:21 19.03.2020
6241 Clouds 10 1024 76 10000 1 0 00:28 19.03.2020
6242 Clouds 11 1023 66 10000 2.1 250 23:51 18.03.2020
6243 Clouds 11 1024 71 10000 1.5 230 23:30 18.03.2020
6244 Clouds 11 1024 71 10000 1.5 230 23:30 18.03.2020
6245 Clouds 11 1024 71 10000 1.5 230 23:30 18.03.2020
6246 Clouds 12 1024 71 10000 1 250 22:58 18.03.2020
6247 Clouds 12 1024 66 10000 2.6 250 22:39 18.03.2020
6248 Clouds 11 1024 62 10000 2.1 260 22:21 18.03.2020
6249 Clouds 12 1024 62 10000 2.1 280 21:42 18.03.2020
6250 Clouds 12 1024 66 10000 2.6 270 21:22 18.03.2020
6251 Clouds 12 1024 66 10000 2.6 270 20:59 18.03.2020
6252 Clouds 13 1024 62 10000 3.1 270 20:40 18.03.2020
6253 Clouds 13 1024 62 10000 3.1 270 20:40 18.03.2020
6254 Clouds 13 1024 62 10000 3.6 260 20:20 18.03.2020
6255 Clouds 13 1024 62 10000 3.6 260 19:58 18.03.2020
6256 Clouds 13 1024 58 10000 4.1 250 19:39 18.03.2020
6257 Clouds 14 1024 54 10000 4.1 240 19:20 18.03.2020
6258 Clouds 14 1024 54 10000 4.1 270 18:42 18.03.2020
6259 Clouds 15 1024 54 10000 5.1 270 18:21 18.03.2020
6260 Clouds 15 1024 51 10000 6.2 280 17:59 18.03.2020
6261 Clouds 15 1024 51 10000 6.2 280 17:59 18.03.2020
6262 Clouds 16 1024 51 10000 6.2 280 17:41 18.03.2020
6263 Clouds 16 1024 51 10000 5.1 280 17:22 18.03.2020
6264 Clouds 16 1024 51 10000 5.1 280 16:59 18.03.2020
6265 Clouds 16 1024 48 10000 5.7 270 16:40 18.03.2020
6266 Clouds 16 1024 48 10000 6.2 250 16:20 18.03.2020
6267 Clouds 17 1024 45 10000 7.2 260 15:46 18.03.2020
6268 Clouds 17 1024 45 10000 7.2 260 15:27 18.03.2020
6269 Clouds 16 1024 42 10000 6.2 260 14:58 18.03.2020
6270 Clouds 16 1024 42 10000 6.7 270 14:40 18.03.2020
6271 Clouds 16 1025 42 10000 6.2 260 14:21 18.03.2020
6272 Clouds 16 1025 41 10000 7.2 250 13:40 18.03.2020
6273 Clouds 15 1025 44 10000 6.7 260 13:19 18.03.2020
6274 Clouds 15 1025 47 10000 5.7 230 12:43 18.03.2020
6275 Clouds 15 1026 54 10000 5.7 240 12:21 18.03.2020
6276 Clouds 14 1026 54 10000 5.7 240 11:59 18.03.2020
6277 Clouds 14 1026 54 10000 5.7 240 11:37 18.03.2020
6278 Clouds 14 1026 54 10000 5.7 240 11:37 18.03.2020
6279 Clouds 13 1026 58 10000 6.7 250 11:18 18.03.2020
6280 Clouds 13 1026 58 10000 6.7 250 10:56 18.03.2020
6281 Clouds 12 1026 58 10000 6.7 250 10:37 18.03.2020
6282 Clouds 12 1026 57 10000 6.7 240 10:18 18.03.2020
6283 Clouds 12 1026 57 10000 6.7 240 10:18 18.03.2020
6284 Clouds 12 1026 57 10000 6.7 240 10:18 18.03.2020
6285 Clouds 11 1026 53 10000 5.7 230 09:42 18.03.2020
6286 Clouds 10 1026 57 10000 4.6 220 09:23 18.03.2020
6287 Clouds 10 1026 57 10000 4.6 220 08:55 18.03.2020
6288 Clouds 9 1026 57 10000 5.1 220 08:37 18.03.2020
6289 Clouds 8 1026 79 10000 4.1 220 08:19 18.03.2020
6290 Clouds 8 1026 79 10000 3.1 220 07:41 18.03.2020
6291 Clouds 7 1026 79 10000 3.6 220 07:23 18.03.2020
6292 Clouds 8 1026 79 10000 3.1 220 06:43 18.03.2020
6293 Clouds 8 1026 52 10000 3.1 200 05:53 18.03.2020
6294 Clouds 8 1026 79 10000 3.1 210 05:33 18.03.2020
6295 Clouds 7 1026 75 10000 1.5 230 03:56 18.03.2020
6296 Clouds 7 1026 75 10000 2.1 180 02:40 18.03.2020
6297 Clouds 7 1027 69 10000 2.6 210 01:46 18.03.2020
6298 Clouds 7 1027 68 10000 2.1 210 01:21 18.03.2020
6299 Clouds 7 1027 70 10000 1 220 00:23 18.03.2020
6300 Clouds 7 1028 75 10000 0.5 200 23:47 17.03.2020
6301 Clouds 8 1028 75 10000 0.5 200 23:26 17.03.2020
6302 Clouds 8 1028 57 10000 1.5 210 22:48 17.03.2020
6303 Clouds 9 1028 57 10000 2.1 190 22:29 17.03.2020
6304 Clouds 9 1028 57 10000 2.1 190 21:59 17.03.2020
6305 Clouds 10 1028 53 10000 2.1 230 21:39 17.03.2020
6306 Clouds 10 1028 53 10000 2.1 250 21:21 17.03.2020
6307 Clouds 10 1028 53 10000 2.1 250 21:20 17.03.2020
6308 Clouds 10 1028 53 10000 2.1 230 20:40 17.03.2020
6309 Clouds 10 1028 57 10000 2.6 280 20:21 17.03.2020
6310 Clouds 11 1028 57 10000 2.6 280 19:58 17.03.2020
6311 Clouds 11 1028 57 10000 2.6 270 19:39 17.03.2020
6312 Clouds 11 1028 50 10000 2.6 260 19:18 17.03.2020
6313 Clouds 12 1027 46 10000 3.1 260 18:56 17.03.2020
6314 Clouds 12 1027 46 10000 3.1 260 18:37 17.03.2020
6315 Clouds 13 1027 62 10000 4.6 270 18:19 17.03.2020
6316 Clouds 13 1027 62 10000 5.1 270 17:40 17.03.2020
6317 Clouds 14 1027 62 10000 5.7 260 17:21 17.03.2020
6318 Clouds 14 1028 48 10000 5.7 260 16:55 17.03.2020
6319 Clouds 14 1028 48 10000 5.7 260 16:36 17.03.2020
6320 Clouds 14 1028 41 10000 5.7 250 16:18 17.03.2020
6321 Clouds 14 1028 41 10000 5.7 250 15:43 17.03.2020
6322 Clouds 14 1028 48 10000 5.7 260 15:20 17.03.2020
6323 Clouds 14 1028 44 10000 4.6 290 14:42 17.03.2020
6324 Clouds 14 1028 44 10000 5.1 260 14:21 17.03.2020
6325 Clouds 13 1028 43 10000 5.7 270 13:45 17.03.2020
6326 Clouds 13 1028 43 10000 5.7 270 13:27 17.03.2020
6327 Clouds 13 1028 45 10000 6.2 270 12:59 17.03.2020
6328 Clouds 13 1028 47 10000 5.7 260 12:40 17.03.2020
6329 Clouds 12 1028 50 10000 5.7 270 12:22 17.03.2020
6330 Clouds 12 1028 50 10000 5.7 270 11:47 17.03.2020
6331 Clouds 11 1028 58 10000 5.1 270 11:29 17.03.2020
6332 Clouds 11 1028 54 10000 5.7 260 10:58 17.03.2020
6333 Clouds 11 1028 54 10000 5.7 260 10:39 17.03.2020
6334 Clouds 11 1028 66 10000 4.6 280 10:21 17.03.2020
6335 Clouds 10 1028 66 10000 4.6 280 09:59 17.03.2020
6336 Clouds 10 1028 71 10000 3.1 290 09:40 17.03.2020
6337 Clouds 9 1028 76 10000 4.6 290 09:19 17.03.2020
6338 Clouds 9 1027 81 10000 3.6 280 08:48 17.03.2020
6339 Clouds 8 1027 81 10000 3.1 280 08:23 17.03.2020
6340 Clouds 8 1027 81 10000 3.1 280 07:57 17.03.2020
6341 Clouds 8 1026 87 10000 2.1 280 07:38 17.03.2020
6342 Clouds 8 1026 87 10000 1.5 270 07:19 17.03.2020
6343 Clouds 8 1026 93 10000 2.6 260 06:39 17.03.2020
6344 Clouds 8 1025 100 10000 1 230 05:58 17.03.2020
6345 Clouds 7 1025 93 10000 1.5 240 03:58 17.03.2020
6346 Clouds 7 1025 81 10000 0.5 10 02:56 17.03.2020
6347 Clouds 7 1024 81 10000 1 340 01:49 17.03.2020
6348 Clear 7 1024 87 10000 1 0 01:28 17.03.2020
6349 Clouds 7 1024 81 10000 2.1 130 00:48 17.03.2020
6350 Clouds 7 1024 81 10000 1.5 90 23:51 16.03.2020
6351 Clear 8 1024 81 10000 1 120 23:33 16.03.2020
6352 Clouds 8 1024 81 10000 0.25 210 22:55 16.03.2020
6353 Clouds 8 1024 81 10000 0.25 210 22:36 16.03.2020
6354 Clear 8 1024 75 10000 0.25 210 22:18 16.03.2020
6355 Clear 8 1023 75 10000 0.25 210 21:41 16.03.2020
6356 Clear 8 1023 75 10000 0.25 210 21:23 16.03.2020
6357 Clear 9 1023 66 10000 0.25 210 20:58 16.03.2020
6358 Clear 9 1023 66 10000 0.25 210 20:38 16.03.2020
6359 Clouds 10 1022 66 10000 1.5 320 20:20 16.03.2020
6360 Clouds 10 1022 66 10000 2.16 299 19:44 16.03.2020
6361 Clouds 11 1022 62 10000 2.16 299 19:23 16.03.2020
6362 Clouds 12 1021 54 10000 2.1 310 18:57 16.03.2020
6363 Clouds 12 1021 54 10000 2.1 310 18:38 16.03.2020
6364 Clouds 14 1021 51 10000 3.1 300 18:18 16.03.2020
6365 Clouds 15 1021 51 10000 3.6 300 17:45 16.03.2020
6366 Clouds 15 1020 51 10000 4.1 290 17:24 16.03.2020
6367 Clouds 15 1020 54 10000 3.6 300 16:54 16.03.2020
6368 Clouds 16 1020 54 10000 3.6 300 16:36 16.03.2020
6369 Clouds 16 1020 51 10000 3.6 300 16:18 16.03.2020
6370 Clouds 16 1020 51 10000 4.1 300 15:42 16.03.2020
6371 Clouds 16 1020 51 10000 4.1 300 15:22 16.03.2020
6372 Clouds 16 1019 51 10000 4.1 300 14:45 16.03.2020
6373 Clouds 16 1019 48 10000 3.1 270 14:20 16.03.2020
6374 Clouds 15 1019 47 10000 4.1 270 13:45 16.03.2020
6375 Clouds 16 1019 47 10000 4.6 280 13:26 16.03.2020
6376 Clouds 15 1018 47 10000 4.1 280 12:57 16.03.2020
6377 Clouds 15 1018 47 10000 4.1 280 12:38 16.03.2020
6378 Clouds 15 1018 47 10000 4.1 290 12:19 16.03.2020
6379 Clouds 14 1018 47 10000 4.1 270 11:42 16.03.2020
6380 Clouds 13 1018 47 10000 4.1 260 11:23 16.03.2020
6381 Clouds 13 1018 47 10000 4.6 240 10:43 16.03.2020
6382 Clouds 13 1018 47 10000 4.6 240 10:24 16.03.2020
6383 Clouds 11 1017 50 10000 3.6 250 09:49 16.03.2020
6384 Clouds 11 1017 50 10000 3.6 250 09:30 16.03.2020
6385 Clouds 9 1017 70 10000 2.1 230 08:59 16.03.2020
6386 Clouds 9 1016 70 10000 2.1 210 08:39 16.03.2020
6387 Clouds 7 1016 56 10000 2.1 190 08:20 16.03.2020
6388 Clouds 6 1015 60 10000 2.6 160 07:41 16.03.2020
6389 Clouds 6 1015 60 10000 2.6 170 07:18 16.03.2020
6390 Clouds 5 1014 75 10000 3.1 150 06:28 16.03.2020
6391 Clouds 5 1014 85 10000 1.5 190 05:55 16.03.2020
6392 Clouds 6 1014 70 10000 2.1 150 03:54 16.03.2020
6393 Clouds 7 1013 76 10000 1.5 200 01:46 16.03.2020
6394 Clouds 7 1013 74 10000 2.1 180 00:45 16.03.2020
6395 Clouds 8 1013 61 10000 3.6 170 00:25 16.03.2020
6396 Clouds 8 1013 74 10000 2.1 190 23:39 15.03.2020
6397 Clouds 8 1013 57 10000 3.6 180 23:18 15.03.2020
6398 Clouds 8 1013 57 10000 2.6 170 22:42 15.03.2020
6399 Clouds 8 1013 57 10000 4.1 180 22:20 15.03.2020
6400 Clouds 8 1013 57 10000 2.6 160 21:39 15.03.2020
6401 Clouds 8 1014 52 10000 2.1 150 21:21 15.03.2020
6402 Clouds 9 1014 52 10000 2.1 150 20:58 15.03.2020
6403 Clouds 9 1014 69 10000 2.1 130 20:39 15.03.2020
6404 Clouds 9 1014 67 10000 2.1 120 20:19 15.03.2020
6405 Clouds 10 1014 65 10000 2.1 120 19:55 15.03.2020
6406 Clouds 10 1013 61 10000 2.1 160 19:37 15.03.2020
6407 Clouds 11 1013 50 10000 2.6 180 19:18 15.03.2020
6408 Clouds 12 1013 46 10000 3.1 180 18:42 15.03.2020
6409 Clouds 12 1014 37 10000 4.6 190 18:24 15.03.2020
6410 Clouds 13 1014 37 10000 4.6 190 17:59 15.03.2020
6411 Clouds 13 1014 65 10000 3.6 190 17:39 15.03.2020
6412 Clouds 14 1014 52 10000 5.7 190 17:20 15.03.2020
6413 Clouds 14 1014 35 10000 6.2 190 16:55 15.03.2020
6414 Clouds 14 1014 35 10000 6.2 190 16:37 15.03.2020
6415 Clouds 14 1014 52 10000 6.7 200 16:18 15.03.2020
6416 Clouds 14 1015 52 10000 6.2 210 15:42 15.03.2020
6417 Clouds 14 1015 52 10000 6.2 210 15:22 15.03.2020
6418 Clouds 14 1015 52 10000 7.2 200 14:47 15.03.2020
6419 Clouds 14 1015 52 10000 7.2 200 14:28 15.03.2020
6420 Clouds 14 1016 52 10000 6.7 200 13:59 15.03.2020
6421 Clouds 14 1016 41 10000 6.2 210 13:39 15.03.2020
6422 Clouds 13 1017 43 10000 7.2 200 13:21 15.03.2020
6423 Clouds 13 1017 43 10000 7.2 200 12:58 15.03.2020
6424 Clouds 13 1017 53 10000 7.7 200 12:38 15.03.2020
6425 Clouds 12 1017 53 10000 6.2 200 12:20 15.03.2020
6426 Clouds 12 1017 46 10000 5.1 210 11:42 15.03.2020
6427 Clouds 11 1018 60 10000 6.2 200 11:22 15.03.2020
6428 Clouds 11 1018 60 10000 5.1 200 10:57 15.03.2020
6429 Clouds 10 1018 60 10000 5.1 200 10:38 15.03.2020
6430 Clouds 10 1018 60 10000 4.6 170 10:20 15.03.2020
6431 Clouds 8 1018 60 10000 3.6 180 09:42 15.03.2020
6432 Clouds 8 1018 56 10000 3.6 170 09:22 15.03.2020
6433 Clouds 7 1018 56 10000 3.6 170 08:58 15.03.2020
6434 Clouds 7 1018 56 10000 4.1 170 08:39 15.03.2020
6435 Clouds 6 1017 70 10000 4.1 180 08:18 15.03.2020
6436 Clouds 5 1017 76 10000 3.6 170 07:44 15.03.2020
6437 Clouds 5 1017 76 10000 4.1 160 06:55 15.03.2020
6438 Clouds 5 1017 76 10000 4.1 160 06:35 15.03.2020
6439 Clouds 5 1018 76 10000 4.6 160 05:46 15.03.2020
6440 Clouds 5 1018 74 10000 4.1 140 04:49 15.03.2020
6441 Clouds 4 1018 74 10000 4.6 170 04:29 15.03.2020
6442 Clouds 4 1018 74 10000 4.1 160 03:59 15.03.2020
6443 Clouds 4 1020 69 10000 2.6 120 02:48 15.03.2020
6444 Clear 3 1019 65 10000 4.6 150 01:56 15.03.2020
6445 Clear 4 1020 66 10000 4.1 160 00:57 15.03.2020
6446 Clear 4 1020 66 10000 3.6 150 00:38 15.03.2020
6447 Clear 4 1020 66 10000 2.1 140 00:18 15.03.2020
6448 Clouds 4 1021 69 10000 3.6 120 23:38 14.03.2020
6449 Clear 4 1021 66 10000 3.1 140 23:19 14.03.2020
6450 Clouds 4 1021 65 10000 3.1 110 22:55 14.03.2020
6451 Clouds 4 1021 65 10000 3.1 110 22:37 14.03.2020
6452 Clear 4 1021 66 10000 2.1 120 22:19 14.03.2020
6453 Clear 5 1021 66 10000 2.1 120 21:54 14.03.2020
6454 Clear 5 1021 66 10000 2.6 120 21:36 14.03.2020
6455 Clear 5 1021 70 10000 2.6 130 21:18 14.03.2020
6456 Clouds 5 1022 66 10000 3.6 120 20:55 14.03.2020
6457 Clear 5 1021 70 10000 3.1 120 20:36 14.03.2020
6458 Clouds 5 1021 70 10000 3.1 120 20:18 14.03.2020
6459 Clouds 6 1022 67 10000 3.6 110 19:40 14.03.2020
6460 Clouds 7 1021 70 10000 4.1 120 19:20 14.03.2020
6461 Clouds 7 1022 67 10000 3.6 110 18:39 14.03.2020
6462 Clouds 8 1022 67 10000 3.6 110 18:20 14.03.2020
6463 Clouds 8 1022 67 10000 5.1 110 17:41 14.03.2020
6464 Clouds 9 1022 61 10000 4.1 110 17:21 14.03.2020
6465 Clouds 9 1022 54 10000 3.6 140 16:58 14.03.2020
6466 Clouds 10 1022 54 10000 3.6 140 16:38 14.03.2020
6467 Clouds 9 1022 54 10000 3.6 140 16:18 14.03.2020
6468 Clouds 9 1023 54 10000 3.6 150 15:44 14.03.2020
6469 Clouds 9 1023 54 10000 3.1 160 15:22 14.03.2020
6470 Clouds 9 1023 52 10000 3.6 160 14:40 14.03.2020
6471 Clouds 9 1023 52 10000 3.1 170 14:21 14.03.2020
6472 Clear 8 1023 52 10000 3.1 170 13:57 14.03.2020
6473 Clear 9 1023 56 10000 3.1 150 13:38 14.03.2020
6474 Clear 8 1024 56 10000 3.1 110 13:20 14.03.2020
6475 Clear 8 1024 56 10000 3.1 110 12:44 14.03.2020
6476 Clear 7 1024 60 10000 3.6 130 12:26 14.03.2020
6477 Clear 7 1024 60 10000 3.1 140 11:46 14.03.2020
6478 Clouds 6 1024 60 10000 2.6 120 11:26 14.03.2020
6479 Clouds 5 1024 65 10000 3.1 120 10:59 14.03.2020
6480 Clouds 6 1024 65 10000 3.1 120 10:40 14.03.2020
6481 Clear 5 1024 64 10000 2.6 150 10:22 14.03.2020
6482 Clear 4 1023 74 10000 1.5 120 09:43 14.03.2020
6483 Clouds 3 1023 69 10000 1.5 0 09:24 14.03.2020
6484 Clear 2 1023 69 9000 1 70 08:47 14.03.2020
6485 Clear 1 1023 80 10000 1 0 08:28 14.03.2020
6486 Clear 0 1023 91 10000 0.5 0 07:55 14.03.2020
6487 Clear -1 1023 100 7000 1.33 145 07:37 14.03.2020
6488 Clear -2 1022 100 10000 0.5 0 07:18 14.03.2020
6489 Clear -2 1022 92 8000 1 60 06:40 14.03.2020
6490 Clouds -1 1022 100 10000 0.5 90 05:19 14.03.2020
6491 Clouds -1 1022 92 10000 1.5 240 03:46 14.03.2020
6492 Clear -1 1022 100 10000 0.5 0 03:24 14.03.2020
6493 Clear 0 1022 91 10000 1 220 02:22 14.03.2020
6494 Clouds 2 1021 89 10000 1.5 240 00:46 14.03.2020
6495 Clouds 3 1020 80 10000 1 0 23:50 13.03.2020
6496 Clouds 3 1021 89 10000 1.5 290 23:30 13.03.2020
6497 Clear 4 1020 84 10000 1 240 22:52 13.03.2020
6498 Clouds 4 1019 80 10000 3.1 310 22:26 13.03.2020
6499 Clouds 4 1018 80 10000 3.6 300 21:44 13.03.2020
6500 Clouds 5 1018 80 10000 4.6 280 21:22 13.03.2020
6501 Clouds 5 1018 80 10000 4.6 280 20:59 13.03.2020
6502 Clouds 5 1017 86 10000 4.1 280 20:41 13.03.2020
6503 Clouds 5 1017 86 10000 4.6 280 20:21 13.03.2020
6504 Rain 5 1016 81 10000 5.7 270 19:48 13.03.2020
6505 Rain 6 1016 81 10000 5.7 270 19:30 13.03.2020
6506 Clouds 6 1015 81 10000 5.1 270 18:49 13.03.2020
6507 Clouds 6 1015 81 10000 5.1 270 18:31 13.03.2020
6508 Rain 6 1015 75 10000 7.2 280 17:59 13.03.2020
6509 Rain 6 1014 81 10000 6.7 290 17:41 13.03.2020
6510 Rain 7 1014 65 10000 8.7 280 17:20 13.03.2020
6511 Rain 7 1013 70 10000 8.7 270 16:55 13.03.2020
6512 Rain 7 1013 70 10000 8.7 270 16:36 13.03.2020
6513 Clouds 7 1013 75 10000 8.2 270 16:18 13.03.2020
6514 Clouds 7 1013 75 10000 8.7 270 15:41 13.03.2020
6515 Clouds 7 1013 86 10000 8.2 280 15:21 13.03.2020
6516 Rain 7 1012 81 10000 8.7 290 14:44 13.03.2020
6517 Rain 7 1012 81 10000 8.7 290 14:23 13.03.2020
6518 Rain 7 1012 81 10000 7.7 290 13:59 13.03.2020
6519 Rain 7 1011 75 5000 10.8 270 13:40 13.03.2020
6520 Rain 7 1011 87 10000 7.2 280 13:21 13.03.2020
6521 Rain 7 1011 87 10000 7.2 280 12:57 13.03.2020
6522 Rain 7 1011 87 10000 7.2 280 12:38 13.03.2020
6523 Rain 7 1010 81 10000 6.2 280 12:19 13.03.2020
6524 Clouds 7 1010 70 10000 10.3 260 11:55 13.03.2020
6525 Clouds 7 1010 70 10000 10.3 260 11:36 13.03.2020
6526 Clouds 7 1009 75 10000 10.3 250 11:18 13.03.2020
6527 Clouds 7 1009 65 10000 10.3 250 10:42 13.03.2020
6528 Clouds 7 1009 65 10000 10.3 250 10:24 13.03.2020
6529 Clouds 6 1009 70 10000 9.8 250 09:46 13.03.2020
6530 Clouds 6 1009 70 10000 9.8 250 09:27 13.03.2020
6531 Clouds 6 1008 84 10000 9.3 240 08:57 13.03.2020
6532 Clouds 6 1008 84 10000 8.2 240 08:38 13.03.2020
6533 Clouds 6 1008 77 10000 8.7 240 08:19 13.03.2020
6534 Clouds 6 1008 77 10000 8.2 240 07:44 13.03.2020
6535 Clouds 6 1008 77 10000 7.2 240 07:23 13.03.2020
6536 Rain 6 1007 70 8000 9.3 240 06:46 13.03.2020
6537 Clouds 6 1007 65 10000 8.7 230 06:21 13.03.2020
6538 Rain 6 1007 75 10000 8.7 240 05:44 13.03.2020
6539 Clouds 6 1007 65 10000 7.2 230 04:57 13.03.2020
6540 Clouds 6 1008 75 10000 7.2 230 04:25 13.03.2020
6541 Clouds 6 1008 70 10000 7.2 230 02:42 13.03.2020
6542 Clouds 5 1008 70 10000 6.2 220 01:37 13.03.2020
6543 Clouds 5 1008 70 10000 7.2 240 01:18 13.03.2020
6544 Clouds 5 1008 70 10000 6.7 220 00:41 13.03.2020
6545 Rain 5 1008 70 10000 6.2 240 00:19 13.03.2020
6546 Rain 5 1009 70 10000 6.2 240 23:39 12.03.2020
6547 Rain 5 1008 70 10000 6.7 240 23:19 12.03.2020
6548 Clouds 5 1008 75 10000 4.1 210 22:47 12.03.2020
6549 Rain 5 1009 74 10000 6.2 250 22:28 12.03.2020
6550 Rain 5 1009 74 10000 6.2 250 21:57 12.03.2020
6551 Clouds 5 1009 74 10000 6.2 240 21:39 12.03.2020
6552 Rain 6 1009 56 10000 11.3 270 21:20 12.03.2020
6553 Rain 7 1008 48 10000 2.6 220 20:42 12.03.2020
6554 Rain 7 1008 48 10000 2.6 220 20:42 12.03.2020
6555 Clouds 7 1008 48 10000 3.1 250 20:20 12.03.2020
6556 Clouds 7 1008 48 10000 3.1 250 20:20 12.03.2020
6557 Clouds 7 1008 48 10000 3.1 250 19:56 12.03.2020
6558 Clouds 8 1008 48 10000 3.1 260 19:37 12.03.2020
6559 Clouds 8 1008 48 10000 3.1 260 19:37 12.03.2020
6560 Clouds 8 1008 48 10000 3.6 270 19:18 12.03.2020
6561 Clouds 8 1009 42 10000 5.1 270 18:42 12.03.2020
6562 Clouds 9 1009 39 10000 6.2 270 18:22 12.03.2020
6563 Clouds 9 1008 37 10000 8.7 270 17:56 12.03.2020
6564 Clouds 10 1008 37 10000 8.7 270 17:37 12.03.2020
6565 Clouds 10 1008 39 10000 7.7 270 17:18 12.03.2020
6566 Clouds 10 1008 37 10000 9.8 270 16:43 12.03.2020
6567 Clouds 10 1008 37 10000 9.8 270 16:23 12.03.2020
6568 Clouds 10 1008 37 10000 9.8 270 15:59 12.03.2020
6569 Clouds 10 1008 43 10000 7.7 280 15:39 12.03.2020
6570 Clouds 10 1008 45 10000 8.7 280 15:21 12.03.2020
6571 Clouds 10 1008 45 10000 9.3 290 14:38 12.03.2020
6572 Clouds 10 1008 45 10000 9.3 290 14:38 12.03.2020
6573 Clouds 10 1007 40 10000 11.3 270 14:19 12.03.2020
6574 Clouds 10 1007 43 10000 10.8 270 13:40 12.03.2020
6575 Clouds 10 1007 42 10000 13.4 280 13:22 12.03.2020
6576 Clouds 10 1007 42 10000 11.8 280 12:55 12.03.2020
6577 Clouds 10 1007 42 10000 11.8 280 12:37 12.03.2020
6578 Clouds 10 1007 42 10000 11.8 280 12:37 12.03.2020
6579 Clouds 10 1006 47 10000 10.8 280 12:18 12.03.2020
6580 Clouds 9 1006 52 10000 10.8 280 11:56 12.03.2020
6581 Clouds 9 1006 52 10000 10.8 280 11:37 12.03.2020
6582 Rain 9 1005 66 10000 11.8 270 11:19 12.03.2020
6583 Rain 9 1004 61 10000 12.9 270 10:56 12.03.2020
6584 Rain 9 1004 61 10000 12.9 270 10:38 12.03.2020
6585 Clouds 8 1004 75 10000 9.8 270 10:19 12.03.2020
6586 Clouds 10 1003 81 10000 11.8 290 09:43 12.03.2020
6587 Clouds 10 1002 71 10000 11.3 250 09:24 12.03.2020
6588 Clouds 10 1002 76 10000 8.7 260 08:41 12.03.2020
6589 Clouds 10 1002 76 10000 10.3 260 08:19 12.03.2020
6590 Drizzle 10 1001 81 10000 9.8 280 07:53 12.03.2020
6591 Drizzle 11 1000 71 10000 8.2 240 07:23 12.03.2020
6592 Clouds 11 1001 71 10000 8.2 240 06:44 12.03.2020
6593 Rain 12 1001 76 10000 8.7 240 05:40 12.03.2020
6594 Rain 12 1001 76 10000 9.3 230 04:29 12.03.2020
6595 Rain 12 1003 82 10000 7.7 220 02:36 12.03.2020
6596 Rain 12 1004 87 10000 7.2 230 01:30 12.03.2020
6597 Rain 11 1005 93 10000 3.1 220 00:44 12.03.2020
6598 Rain 11 1005 87 10000 5.1 220 00:26 12.03.2020
6599 Clouds 11 1006 81 10000 5.1 220 23:45 11.03.2020
6600 Clouds 11 1007 81 10000 4.1 220 23:24 11.03.2020
6601 Clouds 11 1007 76 10000 2.6 200 22:48 11.03.2020
6602 Clouds 11 1008 76 10000 3.6 220 22:29 11.03.2020
6603 Clouds 11 1008 76 10000 3.6 220 21:59 11.03.2020
6604 Clouds 11 1009 76 10000 5.1 240 21:41 11.03.2020
6605 Clouds 11 1009 76 10000 5.1 230 21:22 11.03.2020
6606 Clouds 11 1009 76 10000 5.1 230 21:22 11.03.2020
6607 Clouds 11 1009 76 10000 5.1 230 20:58 11.03.2020
6608 Clouds 11 1009 76 10000 4.1 230 20:39 11.03.2020
6609 Clouds 11 1010 76 10000 4.6 230 20:19 11.03.2020
6610 Clouds 11 1010 76 10000 3.1 220 19:44 11.03.2020
6611 Clouds 11 1010 76 10000 3.1 220 19:25 11.03.2020
6612 Clouds 11 1010 71 10000 3.6 230 18:59 11.03.2020
6613 Rain 11 1010 71 10000 3.1 230 18:40 11.03.2020
6614 Rain 12 1010 71 10000 4.6 240 18:22 11.03.2020
6615 Clouds 12 1010 66 10000 6.2 240 17:58 11.03.2020
6616 Clouds 12 1010 66 10000 6.2 240 17:39 11.03.2020
6617 Clouds 12 1010 62 10000 5.7 260 17:20 11.03.2020
6618 Clouds 12 1010 62 10000 6.2 280 16:47 11.03.2020
6619 Clouds 12 1010 62 10000 6.2 280 16:23 11.03.2020
6620 Clouds 12 1010 62 10000 5.7 270 15:59 11.03.2020
6621 Clouds 13 1010 62 10000 6.2 270 15:40 11.03.2020
6622 Clouds 12 1010 71 10000 5.7 270 15:22 11.03.2020
6623 Clouds 12 1010 76 10000 5.1 270 14:42 11.03.2020
6624 Clouds 12 1010 76 10000 6.7 270 14:23 11.03.2020
6625 Clouds 12 1010 76 10000 6.7 270 13:57 11.03.2020
6626 Clouds 11 1010 71 10000 7.2 270 13:38 11.03.2020
6627 Clouds 11 1010 66 10000 7.7 270 13:20 11.03.2020
6628 Clouds 11 1010 66 10000 8.2 260 12:40 11.03.2020
6629 Clouds 11 1009 66 10000 7.7 250 12:21 11.03.2020
6630 Clouds 11 1009 66 10000 7.7 250 11:57 11.03.2020
6631 Clouds 11 1009 66 10000 7.7 250 11:57 11.03.2020
6632 Clouds 11 1009 66 10000 7.2 260 11:38 11.03.2020
6633 Clouds 10 1009 66 10000 7.2 260 11:19 11.03.2020
6634 Clouds 10 1009 66 10000 6.7 240 10:43 11.03.2020
6635 Clouds 10 1009 71 10000 6.2 260 10:19 11.03.2020
6636 Clouds 9 1009 76 10000 4.6 260 09:54 11.03.2020
6637 Clouds 10 1009 76 10000 4.6 260 09:36 11.03.2020
6638 Clouds 10 1008 76 10000 4.6 260 09:18 11.03.2020
6639 Clouds 9 1008 76 10000 5.1 250 08:40 11.03.2020
6640 Clouds 9 1008 76 10000 5.1 250 08:22 11.03.2020
6641 Clouds 8 1007 81 10000 4.6 270 07:45 11.03.2020
6642 Clouds 8 1007 81 10000 4.6 270 07:19 11.03.2020
6643 Clouds 8 1007 75 10000 3.1 250 06:48 11.03.2020
6644 Clouds 8 1006 75 10000 3.6 260 05:43 11.03.2020
6645 Clouds 9 1006 76 10000 4.6 280 05:23 11.03.2020
6646 Rain 9 1003 81 10000 5.1 260 02:36 11.03.2020
6647 Rain 9 1002 93 10000 5.1 260 01:44 11.03.2020
6648 Rain 10 1001 87 7000 5.7 270 00:53 11.03.2020
6649 Rain 11 1002 87 8000 10.3 290 00:31 11.03.2020
6650 Rain 11 1000 93 1500 8.7 280 23:47 10.03.2020
6651 Rain 12 1000 93 6000 8.2 260 23:22 10.03.2020
6652 Rain 12 999 93 1900 9.3 240 22:55 10.03.2020
6653 Rain 12 999 93 1900 9.3 240 22:37 10.03.2020
6654 Rain 12 1000 93 10000 8.2 250 22:18 10.03.2020
6655 Rain 12 1000 93 10000 8.2 250 21:56 10.03.2020
6656 Rain 12 999 93 10000 9.3 240 21:37 10.03.2020
6657 Drizzle 11 1000 93 10000 7.2 250 21:18 10.03.2020
6658 Rain 11 1000 87 4200 5.7 230 20:42 10.03.2020
6659 Rain 10 1000 87 4200 5.7 230 20:20 10.03.2020
6660 Rain 10 1000 87 4200 5.7 230 19:59 10.03.2020
6661 Drizzle 10 1000 87 10000 6.2 240 19:40 10.03.2020
6662 Drizzle 10 1000 87 10000 6.2 230 19:22 10.03.2020
6663 Drizzle 10 1000 93 10000 5.7 230 18:56 10.03.2020
6664 Drizzle 10 1000 93 10000 5.7 230 18:37 10.03.2020
6665 Drizzle 10 1000 93 10000 5.7 220 18:19 10.03.2020
6666 Rain 10 1001 87 10000 6.2 230 17:55 10.03.2020
6667 Rain 10 1001 87 10000 6.2 230 17:37 10.03.2020
6668 Rain 10 1001 87 10000 5.1 230 17:18 10.03.2020
6669 Rain 9 1001 87 10000 5.7 220 16:37 10.03.2020
6670 Rain 9 1001 93 10000 5.7 220 16:18 10.03.2020
6671 Rain 9 1001 87 10000 5.7 220 15:43 10.03.2020
6672 Rain 9 1002 87 10000 5.7 230 15:20 10.03.2020
6673 Rain 9 1002 87 10000 5.7 230 14:59 10.03.2020
6674 Drizzle 9 1002 81 8000 6.2 220 14:40 10.03.2020
6675 Clouds 9 1002 76 10000 6.2 230 14:19 10.03.2020
6676 Clouds 9 1001 87 10000 6.7 220 13:45 10.03.2020
6677 Clouds 9 1002 81 10000 7.2 230 13:26 10.03.2020
6678 Clouds 8 1002 81 10000 7.2 230 12:59 10.03.2020
6679 Clouds 8 1003 81 10000 6.7 230 12:39 10.03.2020
6680 Rain 8 1002 81 9000 6.2 230 12:18 10.03.2020
6681 Rain 8 1002 81 9000 6.2 230 11:43 10.03.2020
6682 Rain 7 1002 87 8000 6.7 230 11:24 10.03.2020
6683 Rain 7 1002 87 8000 6.7 230 10:58 10.03.2020
6684 Rain 6 1002 81 10000 7.2 220 10:40 10.03.2020
6685 Clouds 6 1003 81 10000 6.7 220 10:21 10.03.2020
6686 Clouds 6 1003 81 10000 6.7 220 09:56 10.03.2020
6687 Rain 6 1003 81 10000 7.7 220 09:37 10.03.2020
6688 Rain 6 1004 81 10000 6.7 210 09:18 10.03.2020
6689 Rain 5 1004 81 10000 5.1 200 08:45 10.03.2020
6690 Rain 5 1004 81 10000 5.1 200 08:26 10.03.2020
6691 Rain 5 1005 81 10000 4.1 190 07:49 10.03.2020
6692 Rain 5 1005 81 10000 4.1 190 07:30 10.03.2020
6693 Drizzle 5 1004 86 6000 4.6 160 06:44 10.03.2020
6694 Rain 6 1005 81 10000 5.7 190 06:25 10.03.2020
6695 Rain 6 1005 81 10000 5.1 180 05:41 10.03.2020
6696 Clouds 6 1007 75 10000 3.6 180 04:38 10.03.2020
6697 Clouds 6 1008 75 10000 3.1 170 03:37 10.03.2020
6698 Clouds 5 1009 81 10000 4.1 190 02:26 10.03.2020
6699 Clouds 5 1010 75 10000 4.1 200 01:22 10.03.2020
6700 Clouds 5 1011 81 10000 2.6 200 00:42 10.03.2020
6701 Clouds 5 1012 81 10000 3.1 200 00:22 10.03.2020
6702 Clouds 5 1012 80 10000 2.6 190 23:40 09.03.2020
6703 Clear 6 1013 81 10000 3.1 210 23:21 09.03.2020
6704 Clouds 6 1013 81 10000 3.6 210 22:41 09.03.2020
6705 Clear 6 1013 70 10000 3.1 230 22:22 09.03.2020
6706 Clear 6 1013 70 10000 3.1 230 21:57 09.03.2020
6707 Clouds 6 1013 70 10000 3.6 240 21:39 09.03.2020
6708 Clouds 6 1013 70 10000 3.1 260 21:20 09.03.2020
6709 Clouds 6 1013 70 10000 3.1 260 20:56 09.03.2020
6710 Clouds 6 1013 75 10000 4.1 240 20:38 09.03.2020
6711 Clouds 6 1013 75 10000 3.1 240 20:20 09.03.2020
6712 Clouds 7 1013 75 10000 4.1 240 19:44 09.03.2020
6713 Clouds 7 1013 75 10000 2.6 250 19:25 09.03.2020
6714 Clouds 7 1013 75 10000 2.6 250 18:58 09.03.2020
6715 Clouds 7 1013 75 10000 2.6 250 18:58 09.03.2020
6716 Clouds 8 1013 65 10000 2.6 260 18:38 09.03.2020
6717 Clouds 8 1012 70 10000 3.6 260 18:20 09.03.2020
6718 Clouds 9 1012 66 10000 4.6 270 17:57 09.03.2020
6719 Clouds 9 1012 66 10000 4.6 270 17:38 09.03.2020
6720 Clouds 9 1012 66 10000 4.1 280 17:20 09.03.2020
6721 Clouds 9 1012 70 10000 5.1 270 16:58 09.03.2020
6722 Clouds 10 1012 70 10000 5.1 270 16:40 09.03.2020
6723 Clouds 10 1011 61 10000 7.2 260 16:22 09.03.2020
6724 Clouds 10 1011 61 10000 7.2 260 16:22 09.03.2020
6725 Clouds 9 1011 61 10000 7.2 260 15:58 09.03.2020
6726 Clouds 9 1011 61 10000 7.2 260 15:38 09.03.2020
6727 Clouds 10 1011 53 10000 5.7 260 15:20 09.03.2020
6728 Clouds 10 1011 53 10000 5.7 260 15:20 09.03.2020
6729 Clouds 10 1011 57 10000 5.7 270 14:55 09.03.2020
6730 Clouds 10 1011 57 10000 5.7 270 14:37 09.03.2020
6731